<?xml version="1.0" encoding="UTF-8" standalone="no" ?>
<gpx xmlns="http://www.topografix.com/GPX/1/1" xmlns:xsi="http://www.w3.org/2001/XMLSchema-instance" xsi:schemaLocation="http://www.topografix.com/GPX/1/1 http://www.topografix.com/GPX/1/1/gpx.xsd" version="1.1" creator="VisuGPX - https://www.visugpx.com">
  <metadata>
    <name>Néouvielle - Monpelat</name>
    <desc><![CDATA[Ski de rando depuis le refuge de l\'Oule.]]></desc>
  </metadata>
  <trk>
    <name><![CDATA[Day 21-MARS-14 08:48:21]]></name>
    <trkseg>
      <trkpt lat="42.83146" lon="0.19575">
        <ele>1874.71</ele>
        <time>2014-03-21T07:48:21Z</time>
      </trkpt>
      <trkpt lat="42.83146" lon="0.19575">
        <ele>1874.23</ele>
        <time>2014-03-21T07:48:33Z</time>
      </trkpt>
      <trkpt lat="42.83145" lon="0.19575">
        <ele>1874.23</ele>
        <time>2014-03-21T07:48:44Z</time>
      </trkpt>
      <trkpt lat="42.83141" lon="0.19575">
        <ele>1875.67</ele>
        <time>2014-03-21T07:48:54Z</time>
      </trkpt>
      <trkpt lat="42.83136" lon="0.19575">
        <ele>1879.03</ele>
        <time>2014-03-21T07:49:03Z</time>
      </trkpt>
      <trkpt lat="42.83133" lon="0.19577">
        <ele>1881.44</ele>
        <time>2014-03-21T07:49:11Z</time>
      </trkpt>
      <trkpt lat="42.83126" lon="0.19578">
        <ele>1884.8</ele>
        <time>2014-03-21T07:49:18Z</time>
      </trkpt>
      <trkpt lat="42.83121" lon="0.19582">
        <ele>1885.28</ele>
        <time>2014-03-21T07:49:27Z</time>
      </trkpt>
      <trkpt lat="42.83116" lon="0.19585">
        <ele>1886.72</ele>
        <time>2014-03-21T07:49:36Z</time>
      </trkpt>
      <trkpt lat="42.8311" lon="0.19582">
        <ele>1887.69</ele>
        <time>2014-03-21T07:49:43Z</time>
      </trkpt>
      <trkpt lat="42.83111" lon="0.19573">
        <ele>1887.21</ele>
        <time>2014-03-21T07:49:52Z</time>
      </trkpt>
      <trkpt lat="42.83113" lon="0.19569">
        <ele>1886.72</ele>
        <time>2014-03-21T07:49:59Z</time>
      </trkpt>
      <trkpt lat="42.83114" lon="0.19565">
        <ele>1887.21</ele>
        <time>2014-03-21T07:50:06Z</time>
      </trkpt>
      <trkpt lat="42.83116" lon="0.19562">
        <ele>1886.72</ele>
        <time>2014-03-21T07:50:12Z</time>
      </trkpt>
      <trkpt lat="42.83117" lon="0.19557">
        <ele>1886.24</ele>
        <time>2014-03-21T07:50:19Z</time>
      </trkpt>
      <trkpt lat="42.83118" lon="0.19552">
        <ele>1886.24</ele>
        <time>2014-03-21T07:50:25Z</time>
      </trkpt>
      <trkpt lat="42.83118" lon="0.19544">
        <ele>1887.21</ele>
        <time>2014-03-21T07:50:32Z</time>
      </trkpt>
      <trkpt lat="42.83115" lon="0.19541">
        <ele>1889.13</ele>
        <time>2014-03-21T07:50:39Z</time>
      </trkpt>
      <trkpt lat="42.83113" lon="0.19535">
        <ele>1889.61</ele>
        <time>2014-03-21T07:50:47Z</time>
      </trkpt>
      <trkpt lat="42.83113" lon="0.19534">
        <ele>1890.09</ele>
        <time>2014-03-21T07:50:55Z</time>
      </trkpt>
      <trkpt lat="42.83112" lon="0.19534">
        <ele>1890.57</ele>
        <time>2014-03-21T07:51:11Z</time>
      </trkpt>
      <trkpt lat="42.83112" lon="0.19533">
        <ele>1891.05</ele>
        <time>2014-03-21T07:51:27Z</time>
      </trkpt>
      <trkpt lat="42.83112" lon="0.19534">
        <ele>1892.01</ele>
        <time>2014-03-21T07:51:42Z</time>
      </trkpt>
      <trkpt lat="42.83113" lon="0.19534">
        <ele>1891.05</ele>
        <time>2014-03-21T07:51:56Z</time>
      </trkpt>
      <trkpt lat="42.83112" lon="0.19534">
        <ele>1894.9</ele>
        <time>2014-03-21T07:52:05Z</time>
      </trkpt>
      <trkpt lat="42.83111" lon="0.19532">
        <ele>1899.22</ele>
        <time>2014-03-21T07:52:26Z</time>
      </trkpt>
      <trkpt lat="42.83112" lon="0.19533">
        <ele>1899.7</ele>
        <time>2014-03-21T07:52:40Z</time>
      </trkpt>
      <trkpt lat="42.83113" lon="0.19533">
        <ele>1901.14</ele>
        <time>2014-03-21T07:52:48Z</time>
      </trkpt>
      <trkpt lat="42.83113" lon="0.19533">
        <ele>1901.14</ele>
        <time>2014-03-21T07:53:05Z</time>
      </trkpt>
      <trkpt lat="42.83113" lon="0.19533">
        <ele>1901.63</ele>
        <time>2014-03-21T07:53:20Z</time>
      </trkpt>
      <trkpt lat="42.83113" lon="0.19533">
        <ele>1901.63</ele>
        <time>2014-03-21T07:53:37Z</time>
      </trkpt>
      <trkpt lat="42.83113" lon="0.19533">
        <ele>1902.11</ele>
        <time>2014-03-21T07:53:54Z</time>
      </trkpt>
      <trkpt lat="42.83114" lon="0.19533">
        <ele>1902.11</ele>
        <time>2014-03-21T07:54:05Z</time>
      </trkpt>
      <trkpt lat="42.83114" lon="0.19533">
        <ele>1902.11</ele>
        <time>2014-03-21T07:54:23Z</time>
      </trkpt>
      <trkpt lat="42.83114" lon="0.19532">
        <ele>1902.11</ele>
        <time>2014-03-21T07:54:35Z</time>
      </trkpt>
      <trkpt lat="42.83114" lon="0.19532">
        <ele>1901.63</ele>
        <time>2014-03-21T07:54:48Z</time>
      </trkpt>
      <trkpt lat="42.83113" lon="0.19532">
        <ele>1901.63</ele>
        <time>2014-03-21T07:55:02Z</time>
      </trkpt>
      <trkpt lat="42.83113" lon="0.19532">
        <ele>1901.63</ele>
        <time>2014-03-21T07:55:15Z</time>
      </trkpt>
      <trkpt lat="42.83113" lon="0.19532">
        <ele>1902.11</ele>
        <time>2014-03-21T07:55:33Z</time>
      </trkpt>
      <trkpt lat="42.83114" lon="0.19532">
        <ele>1902.11</ele>
        <time>2014-03-21T07:55:42Z</time>
      </trkpt>
      <trkpt lat="42.83114" lon="0.19532">
        <ele>1902.11</ele>
        <time>2014-03-21T07:55:54Z</time>
      </trkpt>
      <trkpt lat="42.83114" lon="0.19532">
        <ele>1902.59</ele>
        <time>2014-03-21T07:56:09Z</time>
      </trkpt>
      <trkpt lat="42.83114" lon="0.19531">
        <ele>1902.11</ele>
        <time>2014-03-21T07:56:25Z</time>
      </trkpt>
      <trkpt lat="42.83114" lon="0.19531">
        <ele>1901.63</ele>
        <time>2014-03-21T07:56:43Z</time>
      </trkpt>
      <trkpt lat="42.83115" lon="0.1953">
        <ele>1899.7</ele>
        <time>2014-03-21T07:56:59Z</time>
      </trkpt>
      <trkpt lat="42.83115" lon="0.19529">
        <ele>1899.22</ele>
        <time>2014-03-21T07:57:16Z</time>
      </trkpt>
      <trkpt lat="42.83115" lon="0.19529">
        <ele>1899.7</ele>
        <time>2014-03-21T07:57:33Z</time>
      </trkpt>
      <trkpt lat="42.83115" lon="0.1953">
        <ele>1900.18</ele>
        <time>2014-03-21T07:57:49Z</time>
      </trkpt>
      <trkpt lat="42.83115" lon="0.19527">
        <ele>1900.18</ele>
        <time>2014-03-21T07:57:58Z</time>
      </trkpt>
      <trkpt lat="42.83114" lon="0.19522">
        <ele>1900.18</ele>
        <time>2014-03-21T07:58:05Z</time>
      </trkpt>
      <trkpt lat="42.83109" lon="0.19515">
        <ele>1900.18</ele>
        <time>2014-03-21T07:58:13Z</time>
      </trkpt>
      <trkpt lat="42.83104" lon="0.19509">
        <ele>1901.14</ele>
        <time>2014-03-21T07:58:22Z</time>
      </trkpt>
      <trkpt lat="42.83099" lon="0.19504">
        <ele>1902.59</ele>
        <time>2014-03-21T07:58:30Z</time>
      </trkpt>
      <trkpt lat="42.83095" lon="0.19501">
        <ele>1902.11</ele>
        <time>2014-03-21T07:58:38Z</time>
      </trkpt>
      <trkpt lat="42.83092" lon="0.19502">
        <ele>1901.63</ele>
        <time>2014-03-21T07:58:49Z</time>
      </trkpt>
      <trkpt lat="42.83087" lon="0.19502">
        <ele>1903.07</ele>
        <time>2014-03-21T07:58:58Z</time>
      </trkpt>
      <trkpt lat="42.83084" lon="0.19502">
        <ele>1904.03</ele>
        <time>2014-03-21T07:59:09Z</time>
      </trkpt>
      <trkpt lat="42.83082" lon="0.19501">
        <ele>1904.99</ele>
        <time>2014-03-21T07:59:17Z</time>
      </trkpt>
      <trkpt lat="42.83079" lon="0.195">
        <ele>1906.43</ele>
        <time>2014-03-21T07:59:28Z</time>
      </trkpt>
      <trkpt lat="42.8308" lon="0.19497">
        <ele>1907.39</ele>
        <time>2014-03-21T07:59:37Z</time>
      </trkpt>
      <trkpt lat="42.83082" lon="0.19489">
        <ele>1908.35</ele>
        <time>2014-03-21T07:59:46Z</time>
      </trkpt>
      <trkpt lat="42.83083" lon="0.19485">
        <ele>1909.32</ele>
        <time>2014-03-21T07:59:55Z</time>
      </trkpt>
      <trkpt lat="42.83083" lon="0.19481">
        <ele>1910.76</ele>
        <time>2014-03-21T08:00:04Z</time>
      </trkpt>
      <trkpt lat="42.83078" lon="0.19483">
        <ele>1911.72</ele>
        <time>2014-03-21T08:00:13Z</time>
      </trkpt>
      <trkpt lat="42.83074" lon="0.19485">
        <ele>1912.68</ele>
        <time>2014-03-21T08:00:22Z</time>
      </trkpt>
      <trkpt lat="42.83073" lon="0.19484">
        <ele>1913.16</ele>
        <time>2014-03-21T08:00:37Z</time>
      </trkpt>
      <trkpt lat="42.83072" lon="0.19485">
        <ele>1913.64</ele>
        <time>2014-03-21T08:00:51Z</time>
      </trkpt>
      <trkpt lat="42.83069" lon="0.19486">
        <ele>1914.6</ele>
        <time>2014-03-21T08:00:58Z</time>
      </trkpt>
      <trkpt lat="42.83065" lon="0.19487">
        <ele>1915.08</ele>
        <time>2014-03-21T08:01:09Z</time>
      </trkpt>
      <trkpt lat="42.83065" lon="0.19487">
        <ele>1915.08</ele>
        <time>2014-03-21T08:01:17Z</time>
      </trkpt>
      <trkpt lat="42.83065" lon="0.19484">
        <ele>1915.56</ele>
        <time>2014-03-21T08:01:28Z</time>
      </trkpt>
      <trkpt lat="42.83066" lon="0.19478">
        <ele>1916.53</ele>
        <time>2014-03-21T08:01:36Z</time>
      </trkpt>
      <trkpt lat="42.83067" lon="0.19472">
        <ele>1917.49</ele>
        <time>2014-03-21T08:01:45Z</time>
      </trkpt>
      <trkpt lat="42.83064" lon="0.19463">
        <ele>1919.89</ele>
        <time>2014-03-21T08:01:57Z</time>
      </trkpt>
      <trkpt lat="42.83064" lon="0.19462">
        <ele>1919.89</ele>
        <time>2014-03-21T08:02:07Z</time>
      </trkpt>
      <trkpt lat="42.83062" lon="0.19459">
        <ele>1921.33</ele>
        <time>2014-03-21T08:02:14Z</time>
      </trkpt>
      <trkpt lat="42.83059" lon="0.19457">
        <ele>1921.81</ele>
        <time>2014-03-21T08:02:24Z</time>
      </trkpt>
      <trkpt lat="42.83056" lon="0.19453">
        <ele>1922.29</ele>
        <time>2014-03-21T08:02:34Z</time>
      </trkpt>
      <trkpt lat="42.83054" lon="0.1945">
        <ele>1923.74</ele>
        <time>2014-03-21T08:02:42Z</time>
      </trkpt>
      <trkpt lat="42.83053" lon="0.19448">
        <ele>1924.22</ele>
        <time>2014-03-21T08:02:53Z</time>
      </trkpt>
      <trkpt lat="42.83046" lon="0.19446">
        <ele>1925.18</ele>
        <time>2014-03-21T08:03:02Z</time>
      </trkpt>
      <trkpt lat="42.83043" lon="0.19446">
        <ele>1926.62</ele>
        <time>2014-03-21T08:03:10Z</time>
      </trkpt>
      <trkpt lat="42.83043" lon="0.19445">
        <ele>1926.62</ele>
        <time>2014-03-21T08:03:22Z</time>
      </trkpt>
      <trkpt lat="42.83042" lon="0.19445">
        <ele>1926.62</ele>
        <time>2014-03-21T08:03:33Z</time>
      </trkpt>
      <trkpt lat="42.83039" lon="0.19443">
        <ele>1926.14</ele>
        <time>2014-03-21T08:03:41Z</time>
      </trkpt>
      <trkpt lat="42.83036" lon="0.19441">
        <ele>1926.14</ele>
        <time>2014-03-21T08:03:52Z</time>
      </trkpt>
      <trkpt lat="42.83025" lon="0.1943">
        <ele>1922.77</ele>
        <time>2014-03-21T08:04:03Z</time>
      </trkpt>
      <trkpt lat="42.83017" lon="0.19429">
        <ele>1922.77</ele>
        <time>2014-03-21T08:04:13Z</time>
      </trkpt>
      <trkpt lat="42.83013" lon="0.19428">
        <ele>1923.25</ele>
        <time>2014-03-21T08:04:21Z</time>
      </trkpt>
      <trkpt lat="42.83009" lon="0.19425">
        <ele>1922.77</ele>
        <time>2014-03-21T08:04:31Z</time>
      </trkpt>
      <trkpt lat="42.83" lon="0.19422">
        <ele>1925.18</ele>
        <time>2014-03-21T08:04:39Z</time>
      </trkpt>
      <trkpt lat="42.82997" lon="0.19421">
        <ele>1926.62</ele>
        <time>2014-03-21T08:04:47Z</time>
      </trkpt>
      <trkpt lat="42.82995" lon="0.1942">
        <ele>1927.58</ele>
        <time>2014-03-21T08:04:56Z</time>
      </trkpt>
      <trkpt lat="42.82991" lon="0.19416">
        <ele>1930.46</ele>
        <time>2014-03-21T08:05:03Z</time>
      </trkpt>
      <trkpt lat="42.82987" lon="0.19412">
        <ele>1932.39</ele>
        <time>2014-03-21T08:05:10Z</time>
      </trkpt>
      <trkpt lat="42.82986" lon="0.19411">
        <ele>1933.35</ele>
        <time>2014-03-21T08:05:19Z</time>
      </trkpt>
      <trkpt lat="42.82982" lon="0.19408">
        <ele>1934.79</ele>
        <time>2014-03-21T08:05:27Z</time>
      </trkpt>
      <trkpt lat="42.82979" lon="0.19408">
        <ele>1934.79</ele>
        <time>2014-03-21T08:05:35Z</time>
      </trkpt>
      <trkpt lat="42.82978" lon="0.19407">
        <ele>1934.79</ele>
        <time>2014-03-21T08:05:49Z</time>
      </trkpt>
      <trkpt lat="42.82977" lon="0.19405">
        <ele>1934.31</ele>
        <time>2014-03-21T08:05:58Z</time>
      </trkpt>
      <trkpt lat="42.82977" lon="0.19405">
        <ele>1934.79</ele>
        <time>2014-03-21T08:06:09Z</time>
      </trkpt>
      <trkpt lat="42.8298" lon="0.19402">
        <ele>1935.27</ele>
        <time>2014-03-21T08:06:19Z</time>
      </trkpt>
      <trkpt lat="42.82981" lon="0.19402">
        <ele>1936.71</ele>
        <time>2014-03-21T08:06:30Z</time>
      </trkpt>
      <trkpt lat="42.82983" lon="0.194">
        <ele>1936.71</ele>
        <time>2014-03-21T08:06:39Z</time>
      </trkpt>
      <trkpt lat="42.82985" lon="0.19395">
        <ele>1937.67</ele>
        <time>2014-03-21T08:06:46Z</time>
      </trkpt>
      <trkpt lat="42.82989" lon="0.19393">
        <ele>1939.6</ele>
        <time>2014-03-21T08:06:53Z</time>
      </trkpt>
      <trkpt lat="42.82996" lon="0.1939">
        <ele>1944.4</ele>
        <time>2014-03-21T08:06:59Z</time>
      </trkpt>
      <trkpt lat="42.82999" lon="0.19388">
        <ele>1945.85</ele>
        <time>2014-03-21T08:07:08Z</time>
      </trkpt>
      <trkpt lat="42.83004" lon="0.19385">
        <ele>1950.17</ele>
        <time>2014-03-21T08:07:17Z</time>
      </trkpt>
      <trkpt lat="42.83008" lon="0.19381">
        <ele>1952.57</ele>
        <time>2014-03-21T08:07:26Z</time>
      </trkpt>
      <trkpt lat="42.83011" lon="0.19379">
        <ele>1954.02</ele>
        <time>2014-03-21T08:07:32Z</time>
      </trkpt>
      <trkpt lat="42.83012" lon="0.19377">
        <ele>1954.5</ele>
        <time>2014-03-21T08:07:40Z</time>
      </trkpt>
      <trkpt lat="42.83012" lon="0.19375">
        <ele>1954.5</ele>
        <time>2014-03-21T08:07:48Z</time>
      </trkpt>
      <trkpt lat="42.83012" lon="0.19373">
        <ele>1955.94</ele>
        <time>2014-03-21T08:07:58Z</time>
      </trkpt>
      <trkpt lat="42.83012" lon="0.19372">
        <ele>1956.9</ele>
        <time>2014-03-21T08:08:09Z</time>
      </trkpt>
      <trkpt lat="42.83013" lon="0.1937">
        <ele>1956.9</ele>
        <time>2014-03-21T08:08:22Z</time>
      </trkpt>
      <trkpt lat="42.83013" lon="0.19369">
        <ele>1957.38</ele>
        <time>2014-03-21T08:08:35Z</time>
      </trkpt>
      <trkpt lat="42.83014" lon="0.19369">
        <ele>1957.38</ele>
        <time>2014-03-21T08:08:46Z</time>
      </trkpt>
      <trkpt lat="42.83014" lon="0.19368">
        <ele>1957.86</ele>
        <time>2014-03-21T08:08:57Z</time>
      </trkpt>
      <trkpt lat="42.83015" lon="0.19368">
        <ele>1957.86</ele>
        <time>2014-03-21T08:09:08Z</time>
      </trkpt>
      <trkpt lat="42.83016" lon="0.19364">
        <ele>1957.86</ele>
        <time>2014-03-21T08:09:19Z</time>
      </trkpt>
      <trkpt lat="42.83018" lon="0.19361">
        <ele>1958.34</ele>
        <time>2014-03-21T08:09:30Z</time>
      </trkpt>
      <trkpt lat="42.8302" lon="0.19359">
        <ele>1958.82</ele>
        <time>2014-03-21T08:09:40Z</time>
      </trkpt>
      <trkpt lat="42.83021" lon="0.19357">
        <ele>1959.3</ele>
        <time>2014-03-21T08:09:50Z</time>
      </trkpt>
      <trkpt lat="42.83021" lon="0.19356">
        <ele>1959.3</ele>
        <time>2014-03-21T08:10:05Z</time>
      </trkpt>
      <trkpt lat="42.83021" lon="0.19353">
        <ele>1959.3</ele>
        <time>2014-03-21T08:10:17Z</time>
      </trkpt>
      <trkpt lat="42.83022" lon="0.19352">
        <ele>1960.27</ele>
        <time>2014-03-21T08:10:36Z</time>
      </trkpt>
      <trkpt lat="42.8302" lon="0.19352">
        <ele>1960.75</ele>
        <time>2014-03-21T08:10:46Z</time>
      </trkpt>
      <trkpt lat="42.83019" lon="0.1935">
        <ele>1961.23</ele>
        <time>2014-03-21T08:10:55Z</time>
      </trkpt>
      <trkpt lat="42.83019" lon="0.19349">
        <ele>1961.23</ele>
        <time>2014-03-21T08:11:08Z</time>
      </trkpt>
      <trkpt lat="42.83019" lon="0.19349">
        <ele>1961.23</ele>
        <time>2014-03-21T08:11:21Z</time>
      </trkpt>
      <trkpt lat="42.83018" lon="0.19348">
        <ele>1961.71</ele>
        <time>2014-03-21T08:11:31Z</time>
      </trkpt>
      <trkpt lat="42.83013" lon="0.19346">
        <ele>1961.71</ele>
        <time>2014-03-21T08:11:41Z</time>
      </trkpt>
      <trkpt lat="42.83011" lon="0.19344">
        <ele>1961.71</ele>
        <time>2014-03-21T08:11:51Z</time>
      </trkpt>
      <trkpt lat="42.83006" lon="0.19341">
        <ele>1962.19</ele>
        <time>2014-03-21T08:11:59Z</time>
      </trkpt>
      <trkpt lat="42.83001" lon="0.19339">
        <ele>1962.67</ele>
        <time>2014-03-21T08:12:08Z</time>
      </trkpt>
      <trkpt lat="42.83" lon="0.19338">
        <ele>1963.15</ele>
        <time>2014-03-21T08:12:15Z</time>
      </trkpt>
      <trkpt lat="42.82995" lon="0.19335">
        <ele>1963.63</ele>
        <time>2014-03-21T08:12:24Z</time>
      </trkpt>
      <trkpt lat="42.82988" lon="0.19332">
        <ele>1963.63</ele>
        <time>2014-03-21T08:12:34Z</time>
      </trkpt>
      <trkpt lat="42.82984" lon="0.19329">
        <ele>1964.59</ele>
        <time>2014-03-21T08:12:44Z</time>
      </trkpt>
      <trkpt lat="42.82979" lon="0.19329">
        <ele>1965.55</ele>
        <time>2014-03-21T08:12:53Z</time>
      </trkpt>
      <trkpt lat="42.82975" lon="0.19327">
        <ele>1965.55</ele>
        <time>2014-03-21T08:13:03Z</time>
      </trkpt>
      <trkpt lat="42.82969" lon="0.19324">
        <ele>1966.03</ele>
        <time>2014-03-21T08:13:13Z</time>
      </trkpt>
      <trkpt lat="42.82964" lon="0.19322">
        <ele>1966.03</ele>
        <time>2014-03-21T08:13:23Z</time>
      </trkpt>
      <trkpt lat="42.82964" lon="0.19323">
        <ele>1966.51</ele>
        <time>2014-03-21T08:13:36Z</time>
      </trkpt>
      <trkpt lat="42.82965" lon="0.19322">
        <ele>1966.99</ele>
        <time>2014-03-21T08:13:44Z</time>
      </trkpt>
      <trkpt lat="42.82965" lon="0.1932">
        <ele>1967.48</ele>
        <time>2014-03-21T08:13:51Z</time>
      </trkpt>
      <trkpt lat="42.82968" lon="0.19318">
        <ele>1968.92</ele>
        <time>2014-03-21T08:14:02Z</time>
      </trkpt>
      <trkpt lat="42.82971" lon="0.19317">
        <ele>1970.36</ele>
        <time>2014-03-21T08:14:12Z</time>
      </trkpt>
      <trkpt lat="42.82974" lon="0.19316">
        <ele>1971.32</ele>
        <time>2014-03-21T08:14:21Z</time>
      </trkpt>
      <trkpt lat="42.82978" lon="0.19315">
        <ele>1973.72</ele>
        <time>2014-03-21T08:14:36Z</time>
      </trkpt>
      <trkpt lat="42.82976" lon="0.19313">
        <ele>1976.13</ele>
        <time>2014-03-21T08:14:46Z</time>
      </trkpt>
      <trkpt lat="42.8297" lon="0.19308">
        <ele>1979.01</ele>
        <time>2014-03-21T08:14:55Z</time>
      </trkpt>
      <trkpt lat="42.82966" lon="0.19305">
        <ele>1982.38</ele>
        <time>2014-03-21T08:15:05Z</time>
      </trkpt>
      <trkpt lat="42.82966" lon="0.19304">
        <ele>1983.34</ele>
        <time>2014-03-21T08:15:21Z</time>
      </trkpt>
      <trkpt lat="42.82964" lon="0.19304">
        <ele>1984.78</ele>
        <time>2014-03-21T08:15:33Z</time>
      </trkpt>
      <trkpt lat="42.82962" lon="0.19303">
        <ele>1985.74</ele>
        <time>2014-03-21T08:15:45Z</time>
      </trkpt>
      <trkpt lat="42.8296" lon="0.19307">
        <ele>1987.18</ele>
        <time>2014-03-21T08:15:57Z</time>
      </trkpt>
      <trkpt lat="42.82957" lon="0.19301">
        <ele>1988.62</ele>
        <time>2014-03-21T08:16:08Z</time>
      </trkpt>
      <trkpt lat="42.82955" lon="0.19302">
        <ele>1991.51</ele>
        <time>2014-03-21T08:16:29Z</time>
      </trkpt>
      <trkpt lat="42.82955" lon="0.19301">
        <ele>1991.03</ele>
        <time>2014-03-21T08:16:49Z</time>
      </trkpt>
      <trkpt lat="42.82955" lon="0.19301">
        <ele>1990.07</ele>
        <time>2014-03-21T08:17:06Z</time>
      </trkpt>
      <trkpt lat="42.82955" lon="0.193">
        <ele>1990.55</ele>
        <time>2014-03-21T08:17:20Z</time>
      </trkpt>
      <trkpt lat="42.82956" lon="0.19299">
        <ele>1990.07</ele>
        <time>2014-03-21T08:17:30Z</time>
      </trkpt>
      <trkpt lat="42.82957" lon="0.19298">
        <ele>1990.07</ele>
        <time>2014-03-21T08:17:42Z</time>
      </trkpt>
      <trkpt lat="42.82958" lon="0.19297">
        <ele>1990.55</ele>
        <time>2014-03-21T08:17:53Z</time>
      </trkpt>
      <trkpt lat="42.82959" lon="0.19295">
        <ele>1992.47</ele>
        <time>2014-03-21T08:18:03Z</time>
      </trkpt>
      <trkpt lat="42.82959" lon="0.19294">
        <ele>1992.95</ele>
        <time>2014-03-21T08:18:13Z</time>
      </trkpt>
      <trkpt lat="42.82957" lon="0.19294">
        <ele>1993.43</ele>
        <time>2014-03-21T08:18:22Z</time>
      </trkpt>
      <trkpt lat="42.82956" lon="0.19294">
        <ele>1993.91</ele>
        <time>2014-03-21T08:18:34Z</time>
      </trkpt>
      <trkpt lat="42.82954" lon="0.19294">
        <ele>1994.39</ele>
        <time>2014-03-21T08:18:43Z</time>
      </trkpt>
      <trkpt lat="42.8295" lon="0.19296">
        <ele>1995.35</ele>
        <time>2014-03-21T08:18:54Z</time>
      </trkpt>
      <trkpt lat="42.82948" lon="0.19296">
        <ele>1995.83</ele>
        <time>2014-03-21T08:19:05Z</time>
      </trkpt>
      <trkpt lat="42.82946" lon="0.19295">
        <ele>1995.83</ele>
        <time>2014-03-21T08:19:17Z</time>
      </trkpt>
      <trkpt lat="42.8294" lon="0.19296">
        <ele>1996.8</ele>
        <time>2014-03-21T08:19:28Z</time>
      </trkpt>
      <trkpt lat="42.82939" lon="0.19297">
        <ele>1997.28</ele>
        <time>2014-03-21T08:19:40Z</time>
      </trkpt>
      <trkpt lat="42.82937" lon="0.19297">
        <ele>1997.28</ele>
        <time>2014-03-21T08:19:53Z</time>
      </trkpt>
      <trkpt lat="42.82936" lon="0.19296">
        <ele>1997.28</ele>
        <time>2014-03-21T08:20:05Z</time>
      </trkpt>
      <trkpt lat="42.82933" lon="0.19294">
        <ele>1998.24</ele>
        <time>2014-03-21T08:20:14Z</time>
      </trkpt>
      <trkpt lat="42.8293" lon="0.19295">
        <ele>1998.24</ele>
        <time>2014-03-21T08:20:18Z</time>
      </trkpt>
      <trkpt lat="42.82921" lon="0.19293">
        <ele>1998.72</ele>
        <time>2014-03-21T08:20:32Z</time>
      </trkpt>
      <trkpt lat="42.82922" lon="0.19291">
        <ele>1998.72</ele>
        <time>2014-03-21T08:20:43Z</time>
      </trkpt>
      <trkpt lat="42.82924" lon="0.1929">
        <ele>1999.2</ele>
        <time>2014-03-21T08:20:51Z</time>
      </trkpt>
      <trkpt lat="42.82928" lon="0.19288">
        <ele>1999.2</ele>
        <time>2014-03-21T08:20:59Z</time>
      </trkpt>
      <trkpt lat="42.82934" lon="0.19287">
        <ele>1998.24</ele>
        <time>2014-03-21T08:21:07Z</time>
      </trkpt>
      <trkpt lat="42.82934" lon="0.19286">
        <ele>1998.24</ele>
        <time>2014-03-21T08:21:18Z</time>
      </trkpt>
      <trkpt lat="42.82934" lon="0.19284">
        <ele>1998.24</ele>
        <time>2014-03-21T08:21:28Z</time>
      </trkpt>
      <trkpt lat="42.82934" lon="0.19283">
        <ele>1998.24</ele>
        <time>2014-03-21T08:21:38Z</time>
      </trkpt>
      <trkpt lat="42.82935" lon="0.19282">
        <ele>1998.24</ele>
        <time>2014-03-21T08:21:48Z</time>
      </trkpt>
      <trkpt lat="42.82934" lon="0.19281">
        <ele>1998.24</ele>
        <time>2014-03-21T08:21:58Z</time>
      </trkpt>
      <trkpt lat="42.82934" lon="0.19279">
        <ele>1998.72</ele>
        <time>2014-03-21T08:22:09Z</time>
      </trkpt>
      <trkpt lat="42.82937" lon="0.19277">
        <ele>1999.2</ele>
        <time>2014-03-21T08:22:20Z</time>
      </trkpt>
      <trkpt lat="42.82942" lon="0.19273">
        <ele>1999.2</ele>
        <time>2014-03-21T08:22:28Z</time>
      </trkpt>
      <trkpt lat="42.82941" lon="0.19271">
        <ele>1999.2</ele>
        <time>2014-03-21T08:22:37Z</time>
      </trkpt>
      <trkpt lat="42.82939" lon="0.19267">
        <ele>2000.16</ele>
        <time>2014-03-21T08:22:49Z</time>
      </trkpt>
      <trkpt lat="42.8294" lon="0.19263">
        <ele>2000.64</ele>
        <time>2014-03-21T08:22:58Z</time>
      </trkpt>
      <trkpt lat="42.8294" lon="0.19261">
        <ele>2001.12</ele>
        <time>2014-03-21T08:23:10Z</time>
      </trkpt>
      <trkpt lat="42.82939" lon="0.1926">
        <ele>2001.12</ele>
        <time>2014-03-21T08:23:18Z</time>
      </trkpt>
      <trkpt lat="42.82939" lon="0.19258">
        <ele>2001.6</ele>
        <time>2014-03-21T08:23:25Z</time>
      </trkpt>
      <trkpt lat="42.82939" lon="0.19256">
        <ele>2002.08</ele>
        <time>2014-03-21T08:23:33Z</time>
      </trkpt>
      <trkpt lat="42.8294" lon="0.19253">
        <ele>2002.56</ele>
        <time>2014-03-21T08:23:43Z</time>
      </trkpt>
      <trkpt lat="42.82947" lon="0.19251">
        <ele>2003.04</ele>
        <time>2014-03-21T08:23:52Z</time>
      </trkpt>
      <trkpt lat="42.82955" lon="0.19248">
        <ele>2005.93</ele>
        <time>2014-03-21T08:24:02Z</time>
      </trkpt>
      <trkpt lat="42.82957" lon="0.19248">
        <ele>2007.37</ele>
        <time>2014-03-21T08:24:10Z</time>
      </trkpt>
      <trkpt lat="42.82958" lon="0.19247">
        <ele>2008.81</ele>
        <time>2014-03-21T08:24:17Z</time>
      </trkpt>
      <trkpt lat="42.82957" lon="0.19245">
        <ele>2010.25</ele>
        <time>2014-03-21T08:24:27Z</time>
      </trkpt>
      <trkpt lat="42.82958" lon="0.19245">
        <ele>2010.25</ele>
        <time>2014-03-21T08:24:36Z</time>
      </trkpt>
      <trkpt lat="42.82959" lon="0.19244">
        <ele>2012.18</ele>
        <time>2014-03-21T08:24:46Z</time>
      </trkpt>
      <trkpt lat="42.82957" lon="0.19243">
        <ele>2013.14</ele>
        <time>2014-03-21T08:24:57Z</time>
      </trkpt>
      <trkpt lat="42.82958" lon="0.19242">
        <ele>2013.62</ele>
        <time>2014-03-21T08:25:08Z</time>
      </trkpt>
      <trkpt lat="42.82958" lon="0.19242">
        <ele>2014.1</ele>
        <time>2014-03-21T08:25:18Z</time>
      </trkpt>
      <trkpt lat="42.82956" lon="0.1924">
        <ele>2014.58</ele>
        <time>2014-03-21T08:25:27Z</time>
      </trkpt>
      <trkpt lat="42.82955" lon="0.19239">
        <ele>2015.54</ele>
        <time>2014-03-21T08:25:37Z</time>
      </trkpt>
      <trkpt lat="42.82954" lon="0.19237">
        <ele>2016.02</ele>
        <time>2014-03-21T08:25:48Z</time>
      </trkpt>
      <trkpt lat="42.82952" lon="0.19236">
        <ele>2016.5</ele>
        <time>2014-03-21T08:25:58Z</time>
      </trkpt>
      <trkpt lat="42.8295" lon="0.19236">
        <ele>2016.98</ele>
        <time>2014-03-21T08:26:09Z</time>
      </trkpt>
      <trkpt lat="42.82947" lon="0.19235">
        <ele>2017.46</ele>
        <time>2014-03-21T08:26:19Z</time>
      </trkpt>
      <trkpt lat="42.82944" lon="0.19235">
        <ele>2017.46</ele>
        <time>2014-03-21T08:26:30Z</time>
      </trkpt>
      <trkpt lat="42.8294" lon="0.19235">
        <ele>2017.94</ele>
        <time>2014-03-21T08:26:40Z</time>
      </trkpt>
      <trkpt lat="42.8294" lon="0.19236">
        <ele>2018.43</ele>
        <time>2014-03-21T08:26:51Z</time>
      </trkpt>
      <trkpt lat="42.82939" lon="0.19232">
        <ele>2018.91</ele>
        <time>2014-03-21T08:27:02Z</time>
      </trkpt>
      <trkpt lat="42.82939" lon="0.19228">
        <ele>2019.39</ele>
        <time>2014-03-21T08:27:14Z</time>
      </trkpt>
      <trkpt lat="42.82936" lon="0.19227">
        <ele>2021.79</ele>
        <time>2014-03-21T08:27:27Z</time>
      </trkpt>
      <trkpt lat="42.82932" lon="0.19225">
        <ele>2021.79</ele>
        <time>2014-03-21T08:27:41Z</time>
      </trkpt>
      <trkpt lat="42.82928" lon="0.19231">
        <ele>2020.83</ele>
        <time>2014-03-21T08:27:49Z</time>
      </trkpt>
      <trkpt lat="42.82927" lon="0.19228">
        <ele>2019.87</ele>
        <time>2014-03-21T08:27:59Z</time>
      </trkpt>
      <trkpt lat="42.82933" lon="0.19223">
        <ele>2019.39</ele>
        <time>2014-03-21T08:28:08Z</time>
      </trkpt>
      <trkpt lat="42.82933" lon="0.19219">
        <ele>2020.35</ele>
        <time>2014-03-21T08:28:16Z</time>
      </trkpt>
      <trkpt lat="42.82934" lon="0.19217">
        <ele>2021.31</ele>
        <time>2014-03-21T08:28:26Z</time>
      </trkpt>
      <trkpt lat="42.82935" lon="0.19214">
        <ele>2022.27</ele>
        <time>2014-03-21T08:28:37Z</time>
      </trkpt>
      <trkpt lat="42.82931" lon="0.19211">
        <ele>2024.19</ele>
        <time>2014-03-21T08:28:51Z</time>
      </trkpt>
      <trkpt lat="42.82931" lon="0.19209">
        <ele>2025.15</ele>
        <time>2014-03-21T08:29:02Z</time>
      </trkpt>
      <trkpt lat="42.82928" lon="0.19206">
        <ele>2023.71</ele>
        <time>2014-03-21T08:29:13Z</time>
      </trkpt>
      <trkpt lat="42.82927" lon="0.19205">
        <ele>2024.19</ele>
        <time>2014-03-21T08:29:23Z</time>
      </trkpt>
      <trkpt lat="42.82928" lon="0.19204">
        <ele>2025.15</ele>
        <time>2014-03-21T08:29:37Z</time>
      </trkpt>
      <trkpt lat="42.82927" lon="0.19203">
        <ele>2025.64</ele>
        <time>2014-03-21T08:29:50Z</time>
      </trkpt>
      <trkpt lat="42.82925" lon="0.192">
        <ele>2026.12</ele>
        <time>2014-03-21T08:30:00Z</time>
      </trkpt>
      <trkpt lat="42.82924" lon="0.192">
        <ele>2026.12</ele>
        <time>2014-03-21T08:30:13Z</time>
      </trkpt>
      <trkpt lat="42.82924" lon="0.192">
        <ele>2025.64</ele>
        <time>2014-03-21T08:30:19Z</time>
      </trkpt>
      <trkpt lat="42.8292" lon="0.19201">
        <ele>2025.15</ele>
        <time>2014-03-21T08:30:27Z</time>
      </trkpt>
      <trkpt lat="42.82918" lon="0.19202">
        <ele>2025.64</ele>
        <time>2014-03-21T08:30:34Z</time>
      </trkpt>
      <trkpt lat="42.82914" lon="0.19205">
        <ele>2026.12</ele>
        <time>2014-03-21T08:30:45Z</time>
      </trkpt>
      <trkpt lat="42.82907" lon="0.1921">
        <ele>2027.08</ele>
        <time>2014-03-21T08:30:56Z</time>
      </trkpt>
      <trkpt lat="42.82904" lon="0.19216">
        <ele>2028.04</ele>
        <time>2014-03-21T08:31:07Z</time>
      </trkpt>
      <trkpt lat="42.82904" lon="0.19217">
        <ele>2029</ele>
        <time>2014-03-21T08:31:22Z</time>
      </trkpt>
      <trkpt lat="42.82909" lon="0.19217">
        <ele>2029</ele>
        <time>2014-03-21T08:31:35Z</time>
      </trkpt>
      <trkpt lat="42.82909" lon="0.19225">
        <ele>2029.48</ele>
        <time>2014-03-21T08:31:47Z</time>
      </trkpt>
      <trkpt lat="42.82908" lon="0.19224">
        <ele>2029.48</ele>
        <time>2014-03-21T08:31:56Z</time>
      </trkpt>
      <trkpt lat="42.82913" lon="0.1921">
        <ele>2029.96</ele>
        <time>2014-03-21T08:32:25Z</time>
      </trkpt>
      <trkpt lat="42.82913" lon="0.19209">
        <ele>2029.48</ele>
        <time>2014-03-21T08:32:47Z</time>
      </trkpt>
      <trkpt lat="42.82902" lon="0.19213">
        <ele>2029.48</ele>
        <time>2014-03-21T08:32:59Z</time>
      </trkpt>
      <trkpt lat="42.829" lon="0.19216">
        <ele>2029.48</ele>
        <time>2014-03-21T08:33:06Z</time>
      </trkpt>
      <trkpt lat="42.82884" lon="0.19217">
        <ele>2029.96</ele>
        <time>2014-03-21T08:33:50Z</time>
      </trkpt>
      <trkpt lat="42.82896" lon="0.19222">
        <ele>2032.84</ele>
        <time>2014-03-21T08:34:08Z</time>
      </trkpt>
      <trkpt lat="42.82899" lon="0.19219">
        <ele>2035.25</ele>
        <time>2014-03-21T08:34:18Z</time>
      </trkpt>
      <trkpt lat="42.829" lon="0.19222">
        <ele>2039.57</ele>
        <time>2014-03-21T08:34:32Z</time>
      </trkpt>
      <trkpt lat="42.829" lon="0.19221">
        <ele>2040.05</ele>
        <time>2014-03-21T08:34:43Z</time>
      </trkpt>
      <trkpt lat="42.82898" lon="0.1922">
        <ele>2040.54</ele>
        <time>2014-03-21T08:34:53Z</time>
      </trkpt>
      <trkpt lat="42.82896" lon="0.19216">
        <ele>2039.57</ele>
        <time>2014-03-21T08:35:06Z</time>
      </trkpt>
      <trkpt lat="42.82895" lon="0.19215">
        <ele>2040.05</ele>
        <time>2014-03-21T08:35:17Z</time>
      </trkpt>
      <trkpt lat="42.82898" lon="0.19214">
        <ele>2039.09</ele>
        <time>2014-03-21T08:35:26Z</time>
      </trkpt>
      <trkpt lat="42.82901" lon="0.19209">
        <ele>2040.54</ele>
        <time>2014-03-21T08:35:34Z</time>
      </trkpt>
      <trkpt lat="42.82902" lon="0.19204">
        <ele>2040.05</ele>
        <time>2014-03-21T08:35:43Z</time>
      </trkpt>
      <trkpt lat="42.82905" lon="0.19203">
        <ele>2038.61</ele>
        <time>2014-03-21T08:35:51Z</time>
      </trkpt>
      <trkpt lat="42.82908" lon="0.19202">
        <ele>2038.13</ele>
        <time>2014-03-21T08:35:59Z</time>
      </trkpt>
      <trkpt lat="42.82908" lon="0.19199">
        <ele>2038.13</ele>
        <time>2014-03-21T08:36:09Z</time>
      </trkpt>
      <trkpt lat="42.82909" lon="0.19195">
        <ele>2038.13</ele>
        <time>2014-03-21T08:36:17Z</time>
      </trkpt>
      <trkpt lat="42.8291" lon="0.19193">
        <ele>2038.13</ele>
        <time>2014-03-21T08:36:24Z</time>
      </trkpt>
      <trkpt lat="42.82909" lon="0.19192">
        <ele>2038.61</ele>
        <time>2014-03-21T08:36:33Z</time>
      </trkpt>
      <trkpt lat="42.82908" lon="0.1919">
        <ele>2041.02</ele>
        <time>2014-03-21T08:36:45Z</time>
      </trkpt>
      <trkpt lat="42.82907" lon="0.19188">
        <ele>2041.98</ele>
        <time>2014-03-21T08:36:54Z</time>
      </trkpt>
      <trkpt lat="42.82904" lon="0.19186">
        <ele>2042.94</ele>
        <time>2014-03-21T08:37:05Z</time>
      </trkpt>
      <trkpt lat="42.82904" lon="0.19184">
        <ele>2044.86</ele>
        <time>2014-03-21T08:37:13Z</time>
      </trkpt>
      <trkpt lat="42.82903" lon="0.19181">
        <ele>2046.3</ele>
        <time>2014-03-21T08:37:25Z</time>
      </trkpt>
      <trkpt lat="42.82903" lon="0.19179">
        <ele>2047.75</ele>
        <time>2014-03-21T08:37:36Z</time>
      </trkpt>
      <trkpt lat="42.82904" lon="0.19176">
        <ele>2050.15</ele>
        <time>2014-03-21T08:37:47Z</time>
      </trkpt>
      <trkpt lat="42.82902" lon="0.19172">
        <ele>2053.03</ele>
        <time>2014-03-21T08:37:57Z</time>
      </trkpt>
      <trkpt lat="42.829" lon="0.19166">
        <ele>2052.55</ele>
        <time>2014-03-21T08:38:04Z</time>
      </trkpt>
      <trkpt lat="42.82899" lon="0.19164">
        <ele>2053.03</ele>
        <time>2014-03-21T08:38:13Z</time>
      </trkpt>
      <trkpt lat="42.82897" lon="0.19162">
        <ele>2053.51</ele>
        <time>2014-03-21T08:38:23Z</time>
      </trkpt>
      <trkpt lat="42.82894" lon="0.19157">
        <ele>2054.47</ele>
        <time>2014-03-21T08:38:32Z</time>
      </trkpt>
      <trkpt lat="42.82892" lon="0.19157">
        <ele>2054.96</ele>
        <time>2014-03-21T08:38:46Z</time>
      </trkpt>
      <trkpt lat="42.82888" lon="0.19155">
        <ele>2055.44</ele>
        <time>2014-03-21T08:38:57Z</time>
      </trkpt>
      <trkpt lat="42.82887" lon="0.19155">
        <ele>2054.96</ele>
        <time>2014-03-21T08:39:07Z</time>
      </trkpt>
      <trkpt lat="42.82887" lon="0.19155">
        <ele>2055.44</ele>
        <time>2014-03-21T08:39:18Z</time>
      </trkpt>
      <trkpt lat="42.82886" lon="0.19157">
        <ele>2056.4</ele>
        <time>2014-03-21T08:39:29Z</time>
      </trkpt>
      <trkpt lat="42.82884" lon="0.19158">
        <ele>2057.84</ele>
        <time>2014-03-21T08:39:53Z</time>
      </trkpt>
      <trkpt lat="42.82884" lon="0.19159">
        <ele>2058.32</ele>
        <time>2014-03-21T08:40:17Z</time>
      </trkpt>
      <trkpt lat="42.82886" lon="0.19159">
        <ele>2060.24</ele>
        <time>2014-03-21T08:40:37Z</time>
      </trkpt>
      <trkpt lat="42.82888" lon="0.19159">
        <ele>2062.17</ele>
        <time>2014-03-21T08:40:55Z</time>
      </trkpt>
      <trkpt lat="42.82889" lon="0.19159">
        <ele>2063.13</ele>
        <time>2014-03-21T08:41:17Z</time>
      </trkpt>
      <trkpt lat="42.82891" lon="0.19159">
        <ele>2065.05</ele>
        <time>2014-03-21T08:41:41Z</time>
      </trkpt>
      <trkpt lat="42.8289" lon="0.19159">
        <ele>2065.05</ele>
        <time>2014-03-21T08:42:02Z</time>
      </trkpt>
      <trkpt lat="42.8289" lon="0.19158">
        <ele>2066.97</ele>
        <time>2014-03-21T08:42:23Z</time>
      </trkpt>
      <trkpt lat="42.8289" lon="0.1916">
        <ele>2068.41</ele>
        <time>2014-03-21T08:42:42Z</time>
      </trkpt>
      <trkpt lat="42.8289" lon="0.1916">
        <ele>2068.41</ele>
        <time>2014-03-21T08:42:53Z</time>
      </trkpt>
      <trkpt lat="42.82891" lon="0.19157">
        <ele>2068.89</ele>
        <time>2014-03-21T08:43:07Z</time>
      </trkpt>
      <trkpt lat="42.82891" lon="0.19154">
        <ele>2068.41</ele>
        <time>2014-03-21T08:43:17Z</time>
      </trkpt>
      <trkpt lat="42.82889" lon="0.19152">
        <ele>2068.41</ele>
        <time>2014-03-21T08:43:26Z</time>
      </trkpt>
      <trkpt lat="42.82887" lon="0.1915">
        <ele>2067.93</ele>
        <time>2014-03-21T08:43:36Z</time>
      </trkpt>
      <trkpt lat="42.82885" lon="0.19146">
        <ele>2067.93</ele>
        <time>2014-03-21T08:43:46Z</time>
      </trkpt>
      <trkpt lat="42.8288" lon="0.19143">
        <ele>2068.89</ele>
        <time>2014-03-21T08:43:55Z</time>
      </trkpt>
      <trkpt lat="42.82879" lon="0.1914">
        <ele>2069.38</ele>
        <time>2014-03-21T08:44:05Z</time>
      </trkpt>
      <trkpt lat="42.82877" lon="0.19138">
        <ele>2069.38</ele>
        <time>2014-03-21T08:44:16Z</time>
      </trkpt>
      <trkpt lat="42.82876" lon="0.19136">
        <ele>2069.86</ele>
        <time>2014-03-21T08:44:24Z</time>
      </trkpt>
      <trkpt lat="42.82877" lon="0.19132">
        <ele>2070.82</ele>
        <time>2014-03-21T08:44:32Z</time>
      </trkpt>
      <trkpt lat="42.82876" lon="0.19128">
        <ele>2071.3</ele>
        <time>2014-03-21T08:44:40Z</time>
      </trkpt>
      <trkpt lat="42.82878" lon="0.19123">
        <ele>2071.3</ele>
        <time>2014-03-21T08:44:48Z</time>
      </trkpt>
      <trkpt lat="42.82879" lon="0.19119">
        <ele>2071.78</ele>
        <time>2014-03-21T08:44:56Z</time>
      </trkpt>
      <trkpt lat="42.82878" lon="0.19117">
        <ele>2072.74</ele>
        <time>2014-03-21T08:45:05Z</time>
      </trkpt>
      <trkpt lat="42.82875" lon="0.19112">
        <ele>2072.74</ele>
        <time>2014-03-21T08:45:14Z</time>
      </trkpt>
      <trkpt lat="42.82873" lon="0.19109">
        <ele>2073.22</ele>
        <time>2014-03-21T08:45:23Z</time>
      </trkpt>
      <trkpt lat="42.82869" lon="0.19106">
        <ele>2074.66</ele>
        <time>2014-03-21T08:45:31Z</time>
      </trkpt>
      <trkpt lat="42.82862" lon="0.19101">
        <ele>2076.59</ele>
        <time>2014-03-21T08:45:40Z</time>
      </trkpt>
      <trkpt lat="42.82859" lon="0.19097">
        <ele>2078.51</ele>
        <time>2014-03-21T08:45:48Z</time>
      </trkpt>
      <trkpt lat="42.82858" lon="0.19094">
        <ele>2079.47</ele>
        <time>2014-03-21T08:45:55Z</time>
      </trkpt>
      <trkpt lat="42.82858" lon="0.19088">
        <ele>2081.39</ele>
        <time>2014-03-21T08:46:03Z</time>
      </trkpt>
      <trkpt lat="42.82859" lon="0.19083">
        <ele>2082.35</ele>
        <time>2014-03-21T08:46:12Z</time>
      </trkpt>
      <trkpt lat="42.82859" lon="0.1908">
        <ele>2082.83</ele>
        <time>2014-03-21T08:46:21Z</time>
      </trkpt>
      <trkpt lat="42.82857" lon="0.19076">
        <ele>2083.31</ele>
        <time>2014-03-21T08:46:29Z</time>
      </trkpt>
      <trkpt lat="42.82858" lon="0.19071">
        <ele>2083.79</ele>
        <time>2014-03-21T08:46:37Z</time>
      </trkpt>
      <trkpt lat="42.82858" lon="0.19066">
        <ele>2083.79</ele>
        <time>2014-03-21T08:46:45Z</time>
      </trkpt>
      <trkpt lat="42.82859" lon="0.19062">
        <ele>2084.76</ele>
        <time>2014-03-21T08:46:53Z</time>
      </trkpt>
      <trkpt lat="42.82856" lon="0.19058">
        <ele>2085.24</ele>
        <time>2014-03-21T08:47:02Z</time>
      </trkpt>
      <trkpt lat="42.82855" lon="0.19056">
        <ele>2086.2</ele>
        <time>2014-03-21T08:47:10Z</time>
      </trkpt>
      <trkpt lat="42.82856" lon="0.19052">
        <ele>2087.16</ele>
        <time>2014-03-21T08:47:18Z</time>
      </trkpt>
      <trkpt lat="42.82857" lon="0.19046">
        <ele>2087.16</ele>
        <time>2014-03-21T08:47:27Z</time>
      </trkpt>
      <trkpt lat="42.82856" lon="0.1904">
        <ele>2087.16</ele>
        <time>2014-03-21T08:47:35Z</time>
      </trkpt>
      <trkpt lat="42.82853" lon="0.19032">
        <ele>2086.68</ele>
        <time>2014-03-21T08:47:45Z</time>
      </trkpt>
      <trkpt lat="42.82851" lon="0.19028">
        <ele>2087.64</ele>
        <time>2014-03-21T08:47:54Z</time>
      </trkpt>
      <trkpt lat="42.82848" lon="0.19023">
        <ele>2087.64</ele>
        <time>2014-03-21T08:48:02Z</time>
      </trkpt>
      <trkpt lat="42.82848" lon="0.19018">
        <ele>2088.12</ele>
        <time>2014-03-21T08:48:11Z</time>
      </trkpt>
      <trkpt lat="42.82847" lon="0.19017">
        <ele>2089.56</ele>
        <time>2014-03-21T08:48:23Z</time>
      </trkpt>
      <trkpt lat="42.82849" lon="0.19015">
        <ele>2091.97</ele>
        <time>2014-03-21T08:48:39Z</time>
      </trkpt>
      <trkpt lat="42.8285" lon="0.19015">
        <ele>2092.45</ele>
        <time>2014-03-21T08:48:52Z</time>
      </trkpt>
      <trkpt lat="42.8285" lon="0.19015">
        <ele>2092.45</ele>
        <time>2014-03-21T08:49:01Z</time>
      </trkpt>
      <trkpt lat="42.82847" lon="0.19013">
        <ele>2092.93</ele>
        <time>2014-03-21T08:49:10Z</time>
      </trkpt>
      <trkpt lat="42.82847" lon="0.19011">
        <ele>2093.41</ele>
        <time>2014-03-21T08:49:20Z</time>
      </trkpt>
      <trkpt lat="42.82846" lon="0.19008">
        <ele>2093.41</ele>
        <time>2014-03-21T08:49:28Z</time>
      </trkpt>
      <trkpt lat="42.82844" lon="0.19003">
        <ele>2093.89</ele>
        <time>2014-03-21T08:49:37Z</time>
      </trkpt>
      <trkpt lat="42.82843" lon="0.19">
        <ele>2094.37</ele>
        <time>2014-03-21T08:49:47Z</time>
      </trkpt>
      <trkpt lat="42.82842" lon="0.18997">
        <ele>2095.81</ele>
        <time>2014-03-21T08:49:57Z</time>
      </trkpt>
      <trkpt lat="42.82841" lon="0.18994">
        <ele>2097.73</ele>
        <time>2014-03-21T08:50:06Z</time>
      </trkpt>
      <trkpt lat="42.82839" lon="0.1899">
        <ele>2097.73</ele>
        <time>2014-03-21T08:50:22Z</time>
      </trkpt>
      <trkpt lat="42.82841" lon="0.18987">
        <ele>2098.21</ele>
        <time>2014-03-21T08:50:36Z</time>
      </trkpt>
      <trkpt lat="42.82838" lon="0.18986">
        <ele>2099.18</ele>
        <time>2014-03-21T08:50:49Z</time>
      </trkpt>
      <trkpt lat="42.82837" lon="0.18985">
        <ele>2100.14</ele>
        <time>2014-03-21T08:51:04Z</time>
      </trkpt>
      <trkpt lat="42.82838" lon="0.18984">
        <ele>2100.14</ele>
        <time>2014-03-21T08:51:17Z</time>
      </trkpt>
      <trkpt lat="42.82845" lon="0.18983">
        <ele>2100.62</ele>
        <time>2014-03-21T08:51:35Z</time>
      </trkpt>
      <trkpt lat="42.82848" lon="0.18982">
        <ele>2101.1</ele>
        <time>2014-03-21T08:51:48Z</time>
      </trkpt>
      <trkpt lat="42.82848" lon="0.18982">
        <ele>2103.5</ele>
        <time>2014-03-21T08:52:01Z</time>
      </trkpt>
      <trkpt lat="42.82848" lon="0.18983">
        <ele>2105.91</ele>
        <time>2014-03-21T08:52:21Z</time>
      </trkpt>
      <trkpt lat="42.8285" lon="0.18982">
        <ele>2106.87</ele>
        <time>2014-03-21T08:52:35Z</time>
      </trkpt>
      <trkpt lat="42.82849" lon="0.18982">
        <ele>2107.83</ele>
        <time>2014-03-21T08:52:52Z</time>
      </trkpt>
      <trkpt lat="42.82849" lon="0.18982">
        <ele>2107.35</ele>
        <time>2014-03-21T08:53:11Z</time>
      </trkpt>
      <trkpt lat="42.82849" lon="0.18982">
        <ele>2107.35</ele>
        <time>2014-03-21T08:53:26Z</time>
      </trkpt>
      <trkpt lat="42.82849" lon="0.18982">
        <ele>2107.35</ele>
        <time>2014-03-21T08:53:40Z</time>
      </trkpt>
      <trkpt lat="42.82848" lon="0.18982">
        <ele>2107.35</ele>
        <time>2014-03-21T08:53:55Z</time>
      </trkpt>
      <trkpt lat="42.82848" lon="0.18983">
        <ele>2107.35</ele>
        <time>2014-03-21T08:54:11Z</time>
      </trkpt>
      <trkpt lat="42.82849" lon="0.18983">
        <ele>2108.31</ele>
        <time>2014-03-21T08:54:27Z</time>
      </trkpt>
      <trkpt lat="42.82848" lon="0.18982">
        <ele>2109.27</ele>
        <time>2014-03-21T08:54:43Z</time>
      </trkpt>
      <trkpt lat="42.8285" lon="0.1898">
        <ele>2111.19</ele>
        <time>2014-03-21T08:55:03Z</time>
      </trkpt>
      <trkpt lat="42.8285" lon="0.18981">
        <ele>2111.67</ele>
        <time>2014-03-21T08:55:19Z</time>
      </trkpt>
      <trkpt lat="42.8285" lon="0.1898">
        <ele>2111.67</ele>
        <time>2014-03-21T08:55:28Z</time>
      </trkpt>
      <trkpt lat="42.8285" lon="0.1898">
        <ele>2111.67</ele>
        <time>2014-03-21T08:55:40Z</time>
      </trkpt>
      <trkpt lat="42.82851" lon="0.18982">
        <ele>2111.19</ele>
        <time>2014-03-21T08:55:56Z</time>
      </trkpt>
      <trkpt lat="42.82848" lon="0.18985">
        <ele>2117.44</ele>
        <time>2014-03-21T08:56:10Z</time>
      </trkpt>
      <trkpt lat="42.82847" lon="0.18987">
        <ele>2116</ele>
        <time>2014-03-21T08:56:17Z</time>
      </trkpt>
      <trkpt lat="42.8285" lon="0.18989">
        <ele>2115.52</ele>
        <time>2014-03-21T08:56:24Z</time>
      </trkpt>
      <trkpt lat="42.8285" lon="0.1899">
        <ele>2115.52</ele>
        <time>2014-03-21T08:56:38Z</time>
      </trkpt>
      <trkpt lat="42.82851" lon="0.18988">
        <ele>2115.04</ele>
        <time>2014-03-21T08:56:53Z</time>
      </trkpt>
      <trkpt lat="42.82851" lon="0.18988">
        <ele>2115.52</ele>
        <time>2014-03-21T08:57:08Z</time>
      </trkpt>
      <trkpt lat="42.82851" lon="0.18988">
        <ele>2115.52</ele>
        <time>2014-03-21T08:57:17Z</time>
      </trkpt>
      <trkpt lat="42.82851" lon="0.18986">
        <ele>2115.52</ele>
        <time>2014-03-21T08:57:27Z</time>
      </trkpt>
      <trkpt lat="42.82854" lon="0.18985">
        <ele>2116</ele>
        <time>2014-03-21T08:57:41Z</time>
      </trkpt>
      <trkpt lat="42.82852" lon="0.18987">
        <ele>2117.92</ele>
        <time>2014-03-21T08:57:53Z</time>
      </trkpt>
      <trkpt lat="42.82852" lon="0.18986">
        <ele>2118.88</ele>
        <time>2014-03-21T08:58:08Z</time>
      </trkpt>
      <trkpt lat="42.82851" lon="0.18984">
        <ele>2118.4</ele>
        <time>2014-03-21T08:58:16Z</time>
      </trkpt>
      <trkpt lat="42.82844" lon="0.1898">
        <ele>2119.84</ele>
        <time>2014-03-21T08:58:25Z</time>
      </trkpt>
      <trkpt lat="42.8284" lon="0.18975">
        <ele>2121.29</ele>
        <time>2014-03-21T08:58:34Z</time>
      </trkpt>
      <trkpt lat="42.82838" lon="0.18971">
        <ele>2122.25</ele>
        <time>2014-03-21T08:58:43Z</time>
      </trkpt>
      <trkpt lat="42.82836" lon="0.18964">
        <ele>2122.73</ele>
        <time>2014-03-21T08:58:52Z</time>
      </trkpt>
      <trkpt lat="42.82835" lon="0.18958">
        <ele>2125.13</ele>
        <time>2014-03-21T08:58:59Z</time>
      </trkpt>
      <trkpt lat="42.82834" lon="0.1895">
        <ele>2127.53</ele>
        <time>2014-03-21T08:59:09Z</time>
      </trkpt>
      <trkpt lat="42.82835" lon="0.18945">
        <ele>2128.98</ele>
        <time>2014-03-21T08:59:17Z</time>
      </trkpt>
      <trkpt lat="42.82836" lon="0.18941">
        <ele>2129.94</ele>
        <time>2014-03-21T08:59:24Z</time>
      </trkpt>
      <trkpt lat="42.82838" lon="0.18936">
        <ele>2130.9</ele>
        <time>2014-03-21T08:59:35Z</time>
      </trkpt>
      <trkpt lat="42.8284" lon="0.1893">
        <ele>2131.86</ele>
        <time>2014-03-21T08:59:44Z</time>
      </trkpt>
      <trkpt lat="42.82839" lon="0.18926">
        <ele>2131.86</ele>
        <time>2014-03-21T08:59:52Z</time>
      </trkpt>
      <trkpt lat="42.8284" lon="0.1892">
        <ele>2131.86</ele>
        <time>2014-03-21T08:59:59Z</time>
      </trkpt>
      <trkpt lat="42.8284" lon="0.18915">
        <ele>2133.3</ele>
        <time>2014-03-21T09:00:06Z</time>
      </trkpt>
      <trkpt lat="42.82841" lon="0.18909">
        <ele>2135.23</ele>
        <time>2014-03-21T09:00:13Z</time>
      </trkpt>
      <trkpt lat="42.82843" lon="0.18904">
        <ele>2136.67</ele>
        <time>2014-03-21T09:00:22Z</time>
      </trkpt>
      <trkpt lat="42.82847" lon="0.18901">
        <ele>2137.15</ele>
        <time>2014-03-21T09:00:30Z</time>
      </trkpt>
      <trkpt lat="42.82852" lon="0.18901">
        <ele>2138.11</ele>
        <time>2014-03-21T09:00:41Z</time>
      </trkpt>
      <trkpt lat="42.82857" lon="0.18903">
        <ele>2137.63</ele>
        <time>2014-03-21T09:00:50Z</time>
      </trkpt>
      <trkpt lat="42.82859" lon="0.18907">
        <ele>2138.11</ele>
        <time>2014-03-21T09:00:56Z</time>
      </trkpt>
      <trkpt lat="42.82862" lon="0.18913">
        <ele>2140.51</ele>
        <time>2014-03-21T09:01:02Z</time>
      </trkpt>
      <trkpt lat="42.82863" lon="0.18917">
        <ele>2140.99</ele>
        <time>2014-03-21T09:01:09Z</time>
      </trkpt>
      <trkpt lat="42.82864" lon="0.18918">
        <ele>2140.99</ele>
        <time>2014-03-21T09:01:15Z</time>
      </trkpt>
      <trkpt lat="42.82865" lon="0.1892">
        <ele>2141.47</ele>
        <time>2014-03-21T09:01:21Z</time>
      </trkpt>
      <trkpt lat="42.82867" lon="0.18921">
        <ele>2142.92</ele>
        <time>2014-03-21T09:01:27Z</time>
      </trkpt>
      <trkpt lat="42.8287" lon="0.18921">
        <ele>2143.88</ele>
        <time>2014-03-21T09:01:33Z</time>
      </trkpt>
      <trkpt lat="42.82873" lon="0.18922">
        <ele>2144.84</ele>
        <time>2014-03-21T09:01:39Z</time>
      </trkpt>
      <trkpt lat="42.82877" lon="0.18921">
        <ele>2147.24</ele>
        <time>2014-03-21T09:01:48Z</time>
      </trkpt>
      <trkpt lat="42.8288" lon="0.18918">
        <ele>2149.65</ele>
        <time>2014-03-21T09:01:55Z</time>
      </trkpt>
      <trkpt lat="42.82884" lon="0.18917">
        <ele>2151.09</ele>
        <time>2014-03-21T09:02:03Z</time>
      </trkpt>
      <trkpt lat="42.82887" lon="0.18913">
        <ele>2153.01</ele>
        <time>2014-03-21T09:02:11Z</time>
      </trkpt>
      <trkpt lat="42.82889" lon="0.18907">
        <ele>2156.37</ele>
        <time>2014-03-21T09:02:20Z</time>
      </trkpt>
      <trkpt lat="42.8289" lon="0.189">
        <ele>2158.3</ele>
        <time>2014-03-21T09:02:28Z</time>
      </trkpt>
      <trkpt lat="42.82891" lon="0.18896">
        <ele>2159.74</ele>
        <time>2014-03-21T09:02:36Z</time>
      </trkpt>
      <trkpt lat="42.82894" lon="0.18891">
        <ele>2160.7</ele>
        <time>2014-03-21T09:02:44Z</time>
      </trkpt>
      <trkpt lat="42.82895" lon="0.18885">
        <ele>2162.14</ele>
        <time>2014-03-21T09:02:52Z</time>
      </trkpt>
      <trkpt lat="42.82897" lon="0.1888">
        <ele>2163.1</ele>
        <time>2014-03-21T09:03:00Z</time>
      </trkpt>
      <trkpt lat="42.82897" lon="0.18876">
        <ele>2162.62</ele>
        <time>2014-03-21T09:03:06Z</time>
      </trkpt>
      <trkpt lat="42.82899" lon="0.18871">
        <ele>2163.58</ele>
        <time>2014-03-21T09:03:15Z</time>
      </trkpt>
      <trkpt lat="42.82901" lon="0.18864">
        <ele>2164.06</ele>
        <time>2014-03-21T09:03:24Z</time>
      </trkpt>
      <trkpt lat="42.82902" lon="0.18859">
        <ele>2165.99</ele>
        <time>2014-03-21T09:03:31Z</time>
      </trkpt>
      <trkpt lat="42.82904" lon="0.18857">
        <ele>2166.95</ele>
        <time>2014-03-21T09:03:39Z</time>
      </trkpt>
      <trkpt lat="42.82907" lon="0.18852">
        <ele>2167.43</ele>
        <time>2014-03-21T09:03:47Z</time>
      </trkpt>
      <trkpt lat="42.8291" lon="0.18847">
        <ele>2168.87</ele>
        <time>2014-03-21T09:03:54Z</time>
      </trkpt>
      <trkpt lat="42.82911" lon="0.18848">
        <ele>2169.35</ele>
        <time>2014-03-21T09:04:05Z</time>
      </trkpt>
      <trkpt lat="42.82911" lon="0.18848">
        <ele>2169.35</ele>
        <time>2014-03-21T09:04:15Z</time>
      </trkpt>
      <trkpt lat="42.82911" lon="0.18848">
        <ele>2168.87</ele>
        <time>2014-03-21T09:04:27Z</time>
      </trkpt>
      <trkpt lat="42.82911" lon="0.18848">
        <ele>2168.87</ele>
        <time>2014-03-21T09:04:40Z</time>
      </trkpt>
      <trkpt lat="42.82912" lon="0.18847">
        <ele>2168.39</ele>
        <time>2014-03-21T09:04:54Z</time>
      </trkpt>
      <trkpt lat="42.82912" lon="0.18847">
        <ele>2167.91</ele>
        <time>2014-03-21T09:05:07Z</time>
      </trkpt>
      <trkpt lat="42.82912" lon="0.18848">
        <ele>2167.91</ele>
        <time>2014-03-21T09:05:18Z</time>
      </trkpt>
      <trkpt lat="42.82912" lon="0.18848">
        <ele>2167.91</ele>
        <time>2014-03-21T09:05:30Z</time>
      </trkpt>
      <trkpt lat="42.82912" lon="0.18848">
        <ele>2167.91</ele>
        <time>2014-03-21T09:05:41Z</time>
      </trkpt>
      <trkpt lat="42.82912" lon="0.18848">
        <ele>2167.43</ele>
        <time>2014-03-21T09:05:55Z</time>
      </trkpt>
      <trkpt lat="42.82911" lon="0.18848">
        <ele>2166.95</ele>
        <time>2014-03-21T09:06:10Z</time>
      </trkpt>
      <trkpt lat="42.82911" lon="0.18848">
        <ele>2167.43</ele>
        <time>2014-03-21T09:06:23Z</time>
      </trkpt>
      <trkpt lat="42.82911" lon="0.18848">
        <ele>2166.95</ele>
        <time>2014-03-21T09:06:39Z</time>
      </trkpt>
      <trkpt lat="42.82911" lon="0.18849">
        <ele>2166.95</ele>
        <time>2014-03-21T09:06:53Z</time>
      </trkpt>
      <trkpt lat="42.82911" lon="0.18848">
        <ele>2166.95</ele>
        <time>2014-03-21T09:07:08Z</time>
      </trkpt>
      <trkpt lat="42.82914" lon="0.1885">
        <ele>2167.43</ele>
        <time>2014-03-21T09:07:19Z</time>
      </trkpt>
      <trkpt lat="42.82918" lon="0.18851">
        <ele>2168.39</ele>
        <time>2014-03-21T09:07:25Z</time>
      </trkpt>
      <trkpt lat="42.82924" lon="0.18853">
        <ele>2169.35</ele>
        <time>2014-03-21T09:07:32Z</time>
      </trkpt>
      <trkpt lat="42.82929" lon="0.18855">
        <ele>2171.27</ele>
        <time>2014-03-21T09:07:40Z</time>
      </trkpt>
      <trkpt lat="42.82931" lon="0.18853">
        <ele>2172.72</ele>
        <time>2014-03-21T09:07:49Z</time>
      </trkpt>
      <trkpt lat="42.82935" lon="0.18852">
        <ele>2174.64</ele>
        <time>2014-03-21T09:07:57Z</time>
      </trkpt>
      <trkpt lat="42.82939" lon="0.18851">
        <ele>2175.12</ele>
        <time>2014-03-21T09:08:05Z</time>
      </trkpt>
      <trkpt lat="42.82943" lon="0.1885">
        <ele>2175.12</ele>
        <time>2014-03-21T09:08:13Z</time>
      </trkpt>
      <trkpt lat="42.82946" lon="0.18847">
        <ele>2176.08</ele>
        <time>2014-03-21T09:08:21Z</time>
      </trkpt>
      <trkpt lat="42.82946" lon="0.1884">
        <ele>2179.45</ele>
        <time>2014-03-21T09:08:30Z</time>
      </trkpt>
      <trkpt lat="42.82946" lon="0.18837">
        <ele>2179.93</ele>
        <time>2014-03-21T09:08:39Z</time>
      </trkpt>
      <trkpt lat="42.82948" lon="0.18832">
        <ele>2180.41</ele>
        <time>2014-03-21T09:08:48Z</time>
      </trkpt>
      <trkpt lat="42.82949" lon="0.18825">
        <ele>2181.37</ele>
        <time>2014-03-21T09:08:56Z</time>
      </trkpt>
      <trkpt lat="42.82949" lon="0.18819">
        <ele>2182.81</ele>
        <time>2014-03-21T09:09:05Z</time>
      </trkpt>
      <trkpt lat="42.82952" lon="0.18813">
        <ele>2185.69</ele>
        <time>2014-03-21T09:09:14Z</time>
      </trkpt>
      <trkpt lat="42.82953" lon="0.18808">
        <ele>2187.14</ele>
        <time>2014-03-21T09:09:22Z</time>
      </trkpt>
      <trkpt lat="42.82955" lon="0.188">
        <ele>2189.54</ele>
        <time>2014-03-21T09:09:33Z</time>
      </trkpt>
      <trkpt lat="42.82956" lon="0.18794">
        <ele>2190.98</ele>
        <time>2014-03-21T09:09:41Z</time>
      </trkpt>
      <trkpt lat="42.82957" lon="0.18789">
        <ele>2191.94</ele>
        <time>2014-03-21T09:09:48Z</time>
      </trkpt>
      <trkpt lat="42.82957" lon="0.18783">
        <ele>2192.42</ele>
        <time>2014-03-21T09:09:56Z</time>
      </trkpt>
      <trkpt lat="42.82959" lon="0.18776">
        <ele>2193.39</ele>
        <time>2014-03-21T09:10:06Z</time>
      </trkpt>
      <trkpt lat="42.8296" lon="0.18768">
        <ele>2195.79</ele>
        <time>2014-03-21T09:10:14Z</time>
      </trkpt>
      <trkpt lat="42.82962" lon="0.18762">
        <ele>2197.23</ele>
        <time>2014-03-21T09:10:22Z</time>
      </trkpt>
      <trkpt lat="42.82962" lon="0.18755">
        <ele>2197.71</ele>
        <time>2014-03-21T09:10:31Z</time>
      </trkpt>
      <trkpt lat="42.82962" lon="0.1875">
        <ele>2198.67</ele>
        <time>2014-03-21T09:10:37Z</time>
      </trkpt>
      <trkpt lat="42.82962" lon="0.18741">
        <ele>2199.63</ele>
        <time>2014-03-21T09:10:45Z</time>
      </trkpt>
      <trkpt lat="42.82962" lon="0.18735">
        <ele>2200.11</ele>
        <time>2014-03-21T09:10:53Z</time>
      </trkpt>
      <trkpt lat="42.82961" lon="0.1873">
        <ele>2201.08</ele>
        <time>2014-03-21T09:11:01Z</time>
      </trkpt>
      <trkpt lat="42.8296" lon="0.18725">
        <ele>2202.04</ele>
        <time>2014-03-21T09:11:09Z</time>
      </trkpt>
      <trkpt lat="42.8296" lon="0.1872">
        <ele>2202.52</ele>
        <time>2014-03-21T09:11:18Z</time>
      </trkpt>
      <trkpt lat="42.8296" lon="0.18715">
        <ele>2203.48</ele>
        <time>2014-03-21T09:11:26Z</time>
      </trkpt>
      <trkpt lat="42.82959" lon="0.1871">
        <ele>2204.92</ele>
        <time>2014-03-21T09:11:34Z</time>
      </trkpt>
      <trkpt lat="42.82959" lon="0.18707">
        <ele>2204.92</ele>
        <time>2014-03-21T09:11:41Z</time>
      </trkpt>
      <trkpt lat="42.82958" lon="0.18703">
        <ele>2205.4</ele>
        <time>2014-03-21T09:11:49Z</time>
      </trkpt>
      <trkpt lat="42.82958" lon="0.18697">
        <ele>2206.36</ele>
        <time>2014-03-21T09:11:57Z</time>
      </trkpt>
      <trkpt lat="42.82957" lon="0.18691">
        <ele>2207.81</ele>
        <time>2014-03-21T09:12:03Z</time>
      </trkpt>
      <trkpt lat="42.82957" lon="0.18689">
        <ele>2208.29</ele>
        <time>2014-03-21T09:12:10Z</time>
      </trkpt>
      <trkpt lat="42.82956" lon="0.18683">
        <ele>2208.29</ele>
        <time>2014-03-21T09:12:18Z</time>
      </trkpt>
      <trkpt lat="42.82957" lon="0.1868">
        <ele>2207.81</ele>
        <time>2014-03-21T09:12:25Z</time>
      </trkpt>
      <trkpt lat="42.82956" lon="0.18674">
        <ele>2208.29</ele>
        <time>2014-03-21T09:12:33Z</time>
      </trkpt>
      <trkpt lat="42.82955" lon="0.18667">
        <ele>2209.25</ele>
        <time>2014-03-21T09:12:41Z</time>
      </trkpt>
      <trkpt lat="42.82955" lon="0.18663">
        <ele>2209.73</ele>
        <time>2014-03-21T09:12:48Z</time>
      </trkpt>
      <trkpt lat="42.82954" lon="0.18658">
        <ele>2211.17</ele>
        <time>2014-03-21T09:12:56Z</time>
      </trkpt>
      <trkpt lat="42.82954" lon="0.18653">
        <ele>2213.09</ele>
        <time>2014-03-21T09:13:05Z</time>
      </trkpt>
      <trkpt lat="42.82954" lon="0.1865">
        <ele>2213.09</ele>
        <time>2014-03-21T09:13:12Z</time>
      </trkpt>
      <trkpt lat="42.82953" lon="0.18645">
        <ele>2213.57</ele>
        <time>2014-03-21T09:13:19Z</time>
      </trkpt>
      <trkpt lat="42.82954" lon="0.18641">
        <ele>2212.61</ele>
        <time>2014-03-21T09:13:27Z</time>
      </trkpt>
      <trkpt lat="42.82954" lon="0.18635">
        <ele>2213.57</ele>
        <time>2014-03-21T09:13:34Z</time>
      </trkpt>
      <trkpt lat="42.82955" lon="0.18631">
        <ele>2215.5</ele>
        <time>2014-03-21T09:13:41Z</time>
      </trkpt>
      <trkpt lat="42.82955" lon="0.18625">
        <ele>2215.5</ele>
        <time>2014-03-21T09:13:49Z</time>
      </trkpt>
      <trkpt lat="42.82954" lon="0.18619">
        <ele>2215.98</ele>
        <time>2014-03-21T09:13:58Z</time>
      </trkpt>
      <trkpt lat="42.82954" lon="0.18615">
        <ele>2217.42</ele>
        <time>2014-03-21T09:14:05Z</time>
      </trkpt>
      <trkpt lat="42.82954" lon="0.18609">
        <ele>2217.9</ele>
        <time>2014-03-21T09:14:12Z</time>
      </trkpt>
      <trkpt lat="42.82954" lon="0.18604">
        <ele>2217.42</ele>
        <time>2014-03-21T09:14:19Z</time>
      </trkpt>
      <trkpt lat="42.82955" lon="0.186">
        <ele>2218.38</ele>
        <time>2014-03-21T09:14:26Z</time>
      </trkpt>
      <trkpt lat="42.82958" lon="0.18595">
        <ele>2220.3</ele>
        <time>2014-03-21T09:14:34Z</time>
      </trkpt>
      <trkpt lat="42.82958" lon="0.18591">
        <ele>2220.78</ele>
        <time>2014-03-21T09:14:41Z</time>
      </trkpt>
      <trkpt lat="42.8296" lon="0.18587">
        <ele>2222.71</ele>
        <time>2014-03-21T09:14:49Z</time>
      </trkpt>
      <trkpt lat="42.82961" lon="0.18583">
        <ele>2223.19</ele>
        <time>2014-03-21T09:14:57Z</time>
      </trkpt>
      <trkpt lat="42.82964" lon="0.18581">
        <ele>2224.15</ele>
        <time>2014-03-21T09:15:03Z</time>
      </trkpt>
      <trkpt lat="42.82967" lon="0.18579">
        <ele>2225.59</ele>
        <time>2014-03-21T09:15:11Z</time>
      </trkpt>
      <trkpt lat="42.82971" lon="0.18577">
        <ele>2226.07</ele>
        <time>2014-03-21T09:15:19Z</time>
      </trkpt>
      <trkpt lat="42.82974" lon="0.18575">
        <ele>2225.59</ele>
        <time>2014-03-21T09:15:27Z</time>
      </trkpt>
      <trkpt lat="42.82976" lon="0.18571">
        <ele>2226.55</ele>
        <time>2014-03-21T09:15:34Z</time>
      </trkpt>
      <trkpt lat="42.82978" lon="0.18568">
        <ele>2228.47</ele>
        <time>2014-03-21T09:15:43Z</time>
      </trkpt>
      <trkpt lat="42.8298" lon="0.18565">
        <ele>2229.43</ele>
        <time>2014-03-21T09:15:50Z</time>
      </trkpt>
      <trkpt lat="42.82982" lon="0.18559">
        <ele>2231.84</ele>
        <time>2014-03-21T09:15:59Z</time>
      </trkpt>
      <trkpt lat="42.82985" lon="0.18555">
        <ele>2232.8</ele>
        <time>2014-03-21T09:16:08Z</time>
      </trkpt>
      <trkpt lat="42.82987" lon="0.18551">
        <ele>2233.28</ele>
        <time>2014-03-21T09:16:16Z</time>
      </trkpt>
      <trkpt lat="42.82988" lon="0.18547">
        <ele>2232.8</ele>
        <time>2014-03-21T09:16:22Z</time>
      </trkpt>
      <trkpt lat="42.82991" lon="0.18542">
        <ele>2233.28</ele>
        <time>2014-03-21T09:16:30Z</time>
      </trkpt>
      <trkpt lat="42.82992" lon="0.18538">
        <ele>2232.32</ele>
        <time>2014-03-21T09:16:38Z</time>
      </trkpt>
      <trkpt lat="42.82992" lon="0.18535">
        <ele>2233.28</ele>
        <time>2014-03-21T09:16:45Z</time>
      </trkpt>
      <trkpt lat="42.82994" lon="0.18529">
        <ele>2234.72</ele>
        <time>2014-03-21T09:16:52Z</time>
      </trkpt>
      <trkpt lat="42.82994" lon="0.18523">
        <ele>2237.13</ele>
        <time>2014-03-21T09:17:02Z</time>
      </trkpt>
      <trkpt lat="42.82994" lon="0.18517">
        <ele>2238.57</ele>
        <time>2014-03-21T09:17:10Z</time>
      </trkpt>
      <trkpt lat="42.82995" lon="0.18511">
        <ele>2240.49</ele>
        <time>2014-03-21T09:17:18Z</time>
      </trkpt>
      <trkpt lat="42.82995" lon="0.18505">
        <ele>2241.45</ele>
        <time>2014-03-21T09:17:27Z</time>
      </trkpt>
      <trkpt lat="42.82994" lon="0.185">
        <ele>2241.93</ele>
        <time>2014-03-21T09:17:35Z</time>
      </trkpt>
      <trkpt lat="42.82995" lon="0.18494">
        <ele>2243.37</ele>
        <time>2014-03-21T09:17:43Z</time>
      </trkpt>
      <trkpt lat="42.82995" lon="0.1849">
        <ele>2244.33</ele>
        <time>2014-03-21T09:17:50Z</time>
      </trkpt>
      <trkpt lat="42.82995" lon="0.18485">
        <ele>2245.78</ele>
        <time>2014-03-21T09:17:58Z</time>
      </trkpt>
      <trkpt lat="42.82995" lon="0.18479">
        <ele>2247.22</ele>
        <time>2014-03-21T09:18:07Z</time>
      </trkpt>
      <trkpt lat="42.82996" lon="0.18473">
        <ele>2248.66</ele>
        <time>2014-03-21T09:18:15Z</time>
      </trkpt>
      <trkpt lat="42.82996" lon="0.1847">
        <ele>2248.66</ele>
        <time>2014-03-21T09:18:23Z</time>
      </trkpt>
      <trkpt lat="42.82997" lon="0.18465">
        <ele>2249.62</ele>
        <time>2014-03-21T09:18:31Z</time>
      </trkpt>
      <trkpt lat="42.82999" lon="0.18462">
        <ele>2251.06</ele>
        <time>2014-03-21T09:18:38Z</time>
      </trkpt>
      <trkpt lat="42.83001" lon="0.18459">
        <ele>2253.47</ele>
        <time>2014-03-21T09:18:45Z</time>
      </trkpt>
      <trkpt lat="42.83002" lon="0.18458">
        <ele>2254.43</ele>
        <time>2014-03-21T09:18:53Z</time>
      </trkpt>
      <trkpt lat="42.83005" lon="0.18455">
        <ele>2255.87</ele>
        <time>2014-03-21T09:19:01Z</time>
      </trkpt>
      <trkpt lat="42.83009" lon="0.18453">
        <ele>2257.79</ele>
        <time>2014-03-21T09:19:08Z</time>
      </trkpt>
      <trkpt lat="42.83012" lon="0.18451">
        <ele>2258.27</ele>
        <time>2014-03-21T09:19:16Z</time>
      </trkpt>
      <trkpt lat="42.83016" lon="0.18448">
        <ele>2259.24</ele>
        <time>2014-03-21T09:19:25Z</time>
      </trkpt>
      <trkpt lat="42.83021" lon="0.18446">
        <ele>2260.2</ele>
        <time>2014-03-21T09:19:34Z</time>
      </trkpt>
      <trkpt lat="42.83022" lon="0.18445">
        <ele>2260.68</ele>
        <time>2014-03-21T09:19:42Z</time>
      </trkpt>
      <trkpt lat="42.83025" lon="0.18443">
        <ele>2261.64</ele>
        <time>2014-03-21T09:19:51Z</time>
      </trkpt>
      <trkpt lat="42.83031" lon="0.18442">
        <ele>2261.16</ele>
        <time>2014-03-21T09:19:59Z</time>
      </trkpt>
      <trkpt lat="42.83032" lon="0.18442">
        <ele>2261.16</ele>
        <time>2014-03-21T09:20:06Z</time>
      </trkpt>
      <trkpt lat="42.83035" lon="0.18441">
        <ele>2262.12</ele>
        <time>2014-03-21T09:20:13Z</time>
      </trkpt>
      <trkpt lat="42.83038" lon="0.18443">
        <ele>2262.6</ele>
        <time>2014-03-21T09:20:21Z</time>
      </trkpt>
      <trkpt lat="42.83039" lon="0.18444">
        <ele>2263.56</ele>
        <time>2014-03-21T09:20:27Z</time>
      </trkpt>
      <trkpt lat="42.83043" lon="0.18444">
        <ele>2265</ele>
        <time>2014-03-21T09:20:35Z</time>
      </trkpt>
      <trkpt lat="42.83045" lon="0.18445">
        <ele>2265.48</ele>
        <time>2014-03-21T09:20:42Z</time>
      </trkpt>
      <trkpt lat="42.8305" lon="0.18446">
        <ele>2266.93</ele>
        <time>2014-03-21T09:20:50Z</time>
      </trkpt>
      <trkpt lat="42.83053" lon="0.18447">
        <ele>2268.85</ele>
        <time>2014-03-21T09:20:59Z</time>
      </trkpt>
      <trkpt lat="42.8306" lon="0.18449">
        <ele>2270.77</ele>
        <time>2014-03-21T09:21:09Z</time>
      </trkpt>
      <trkpt lat="42.83063" lon="0.1845">
        <ele>2271.25</ele>
        <time>2014-03-21T09:21:17Z</time>
      </trkpt>
      <trkpt lat="42.83068" lon="0.18451">
        <ele>2270.77</ele>
        <time>2014-03-21T09:21:25Z</time>
      </trkpt>
      <trkpt lat="42.83072" lon="0.1845">
        <ele>2271.25</ele>
        <time>2014-03-21T09:21:32Z</time>
      </trkpt>
      <trkpt lat="42.83076" lon="0.1845">
        <ele>2270.77</ele>
        <time>2014-03-21T09:21:39Z</time>
      </trkpt>
      <trkpt lat="42.8308" lon="0.18449">
        <ele>2270.77</ele>
        <time>2014-03-21T09:21:48Z</time>
      </trkpt>
      <trkpt lat="42.83085" lon="0.18449">
        <ele>2271.25</ele>
        <time>2014-03-21T09:21:56Z</time>
      </trkpt>
      <trkpt lat="42.83088" lon="0.18449">
        <ele>2271.73</ele>
        <time>2014-03-21T09:22:04Z</time>
      </trkpt>
      <trkpt lat="42.83092" lon="0.18447">
        <ele>2273.66</ele>
        <time>2014-03-21T09:22:12Z</time>
      </trkpt>
      <trkpt lat="42.83096" lon="0.18446">
        <ele>2275.1</ele>
        <time>2014-03-21T09:22:20Z</time>
      </trkpt>
      <trkpt lat="42.83098" lon="0.18444">
        <ele>2276.06</ele>
        <time>2014-03-21T09:22:28Z</time>
      </trkpt>
      <trkpt lat="42.83101" lon="0.18443">
        <ele>2276.06</ele>
        <time>2014-03-21T09:22:36Z</time>
      </trkpt>
      <trkpt lat="42.83103" lon="0.18442">
        <ele>2276.06</ele>
        <time>2014-03-21T09:22:44Z</time>
      </trkpt>
      <trkpt lat="42.83107" lon="0.18441">
        <ele>2275.58</ele>
        <time>2014-03-21T09:22:51Z</time>
      </trkpt>
      <trkpt lat="42.83111" lon="0.1844">
        <ele>2276.54</ele>
        <time>2014-03-21T09:23:01Z</time>
      </trkpt>
      <trkpt lat="42.83114" lon="0.1844">
        <ele>2277.5</ele>
        <time>2014-03-21T09:23:08Z</time>
      </trkpt>
      <trkpt lat="42.83117" lon="0.1844">
        <ele>2277.98</ele>
        <time>2014-03-21T09:23:14Z</time>
      </trkpt>
      <trkpt lat="42.83119" lon="0.18439">
        <ele>2278.94</ele>
        <time>2014-03-21T09:23:20Z</time>
      </trkpt>
      <trkpt lat="42.83122" lon="0.18436">
        <ele>2280.38</ele>
        <time>2014-03-21T09:23:28Z</time>
      </trkpt>
      <trkpt lat="42.83123" lon="0.18432">
        <ele>2281.35</ele>
        <time>2014-03-21T09:23:35Z</time>
      </trkpt>
      <trkpt lat="42.83122" lon="0.18426">
        <ele>2282.79</ele>
        <time>2014-03-21T09:23:42Z</time>
      </trkpt>
      <trkpt lat="42.8312" lon="0.1842">
        <ele>2284.23</ele>
        <time>2014-03-21T09:23:50Z</time>
      </trkpt>
      <trkpt lat="42.8312" lon="0.18421">
        <ele>2283.75</ele>
        <time>2014-03-21T09:24:00Z</time>
      </trkpt>
      <trkpt lat="42.8312" lon="0.18421">
        <ele>2283.75</ele>
        <time>2014-03-21T09:24:11Z</time>
      </trkpt>
      <trkpt lat="42.8312" lon="0.18419">
        <ele>2283.27</ele>
        <time>2014-03-21T09:24:28Z</time>
      </trkpt>
      <trkpt lat="42.8312" lon="0.18419">
        <ele>2283.75</ele>
        <time>2014-03-21T09:24:38Z</time>
      </trkpt>
      <trkpt lat="42.8312" lon="0.18419">
        <ele>2284.23</ele>
        <time>2014-03-21T09:24:49Z</time>
      </trkpt>
      <trkpt lat="42.8312" lon="0.18419">
        <ele>2283.75</ele>
        <time>2014-03-21T09:25:01Z</time>
      </trkpt>
      <trkpt lat="42.8312" lon="0.18419">
        <ele>2284.23</ele>
        <time>2014-03-21T09:25:12Z</time>
      </trkpt>
      <trkpt lat="42.8312" lon="0.1842">
        <ele>2284.71</ele>
        <time>2014-03-21T09:25:25Z</time>
      </trkpt>
      <trkpt lat="42.8312" lon="0.18419">
        <ele>2284.71</ele>
        <time>2014-03-21T09:25:39Z</time>
      </trkpt>
      <trkpt lat="42.83121" lon="0.18419">
        <ele>2285.19</ele>
        <time>2014-03-21T09:25:53Z</time>
      </trkpt>
      <trkpt lat="42.83121" lon="0.1842">
        <ele>2285.19</ele>
        <time>2014-03-21T09:26:05Z</time>
      </trkpt>
      <trkpt lat="42.8312" lon="0.1842">
        <ele>2285.19</ele>
        <time>2014-03-21T09:26:21Z</time>
      </trkpt>
      <trkpt lat="42.8312" lon="0.1842">
        <ele>2285.19</ele>
        <time>2014-03-21T09:26:38Z</time>
      </trkpt>
      <trkpt lat="42.8312" lon="0.1842">
        <ele>2285.19</ele>
        <time>2014-03-21T09:26:53Z</time>
      </trkpt>
      <trkpt lat="42.8312" lon="0.1842">
        <ele>2285.19</ele>
        <time>2014-03-21T09:27:04Z</time>
      </trkpt>
      <trkpt lat="42.8312" lon="0.1842">
        <ele>2284.71</ele>
        <time>2014-03-21T09:27:15Z</time>
      </trkpt>
      <trkpt lat="42.83119" lon="0.18419">
        <ele>2284.23</ele>
        <time>2014-03-21T09:27:34Z</time>
      </trkpt>
      <trkpt lat="42.83119" lon="0.18419">
        <ele>2284.23</ele>
        <time>2014-03-21T09:27:44Z</time>
      </trkpt>
      <trkpt lat="42.83119" lon="0.18419">
        <ele>2283.75</ele>
        <time>2014-03-21T09:28:01Z</time>
      </trkpt>
      <trkpt lat="42.83119" lon="0.18419">
        <ele>2283.75</ele>
        <time>2014-03-21T09:28:16Z</time>
      </trkpt>
      <trkpt lat="42.83119" lon="0.1842">
        <ele>2283.75</ele>
        <time>2014-03-21T09:28:27Z</time>
      </trkpt>
      <trkpt lat="42.83119" lon="0.1842">
        <ele>2283.75</ele>
        <time>2014-03-21T09:28:42Z</time>
      </trkpt>
      <trkpt lat="42.83119" lon="0.1842">
        <ele>2283.75</ele>
        <time>2014-03-21T09:28:57Z</time>
      </trkpt>
      <trkpt lat="42.8312" lon="0.1842">
        <ele>2283.27</ele>
        <time>2014-03-21T09:29:10Z</time>
      </trkpt>
      <trkpt lat="42.8312" lon="0.1842">
        <ele>2283.75</ele>
        <time>2014-03-21T09:29:25Z</time>
      </trkpt>
      <trkpt lat="42.8312" lon="0.1842">
        <ele>2283.27</ele>
        <time>2014-03-21T09:29:33Z</time>
      </trkpt>
      <trkpt lat="42.83121" lon="0.1842">
        <ele>2282.31</ele>
        <time>2014-03-21T09:29:51Z</time>
      </trkpt>
      <trkpt lat="42.8312" lon="0.1842">
        <ele>2282.79</ele>
        <time>2014-03-21T09:30:06Z</time>
      </trkpt>
      <trkpt lat="42.8312" lon="0.1842">
        <ele>2282.31</ele>
        <time>2014-03-21T09:30:21Z</time>
      </trkpt>
      <trkpt lat="42.8312" lon="0.1842">
        <ele>2282.79</ele>
        <time>2014-03-21T09:30:34Z</time>
      </trkpt>
      <trkpt lat="42.83121" lon="0.1842">
        <ele>2283.27</ele>
        <time>2014-03-21T09:30:47Z</time>
      </trkpt>
      <trkpt lat="42.83121" lon="0.1842">
        <ele>2283.27</ele>
        <time>2014-03-21T09:30:58Z</time>
      </trkpt>
      <trkpt lat="42.83121" lon="0.18419">
        <ele>2283.75</ele>
        <time>2014-03-21T09:31:12Z</time>
      </trkpt>
      <trkpt lat="42.8312" lon="0.18419">
        <ele>2284.23</ele>
        <time>2014-03-21T09:31:28Z</time>
      </trkpt>
      <trkpt lat="42.83121" lon="0.18419">
        <ele>2283.27</ele>
        <time>2014-03-21T09:31:45Z</time>
      </trkpt>
      <trkpt lat="42.83121" lon="0.18419">
        <ele>2283.75</ele>
        <time>2014-03-21T09:31:58Z</time>
      </trkpt>
      <trkpt lat="42.83121" lon="0.18419">
        <ele>2283.75</ele>
        <time>2014-03-21T09:32:13Z</time>
      </trkpt>
      <trkpt lat="42.83121" lon="0.18419">
        <ele>2283.75</ele>
        <time>2014-03-21T09:32:28Z</time>
      </trkpt>
      <trkpt lat="42.83121" lon="0.18419">
        <ele>2283.27</ele>
        <time>2014-03-21T09:32:46Z</time>
      </trkpt>
      <trkpt lat="42.83121" lon="0.18419">
        <ele>2283.27</ele>
        <time>2014-03-21T09:32:57Z</time>
      </trkpt>
      <trkpt lat="42.83122" lon="0.18415">
        <ele>2284.23</ele>
        <time>2014-03-21T09:33:08Z</time>
      </trkpt>
      <trkpt lat="42.83122" lon="0.18411">
        <ele>2284.71</ele>
        <time>2014-03-21T09:33:18Z</time>
      </trkpt>
      <trkpt lat="42.83123" lon="0.18405">
        <ele>2286.15</ele>
        <time>2014-03-21T09:33:28Z</time>
      </trkpt>
      <trkpt lat="42.83124" lon="0.18397">
        <ele>2288.56</ele>
        <time>2014-03-21T09:33:36Z</time>
      </trkpt>
      <trkpt lat="42.83123" lon="0.18394">
        <ele>2290</ele>
        <time>2014-03-21T09:33:42Z</time>
      </trkpt>
      <trkpt lat="42.83123" lon="0.18394">
        <ele>2290</ele>
        <time>2014-03-21T09:33:43Z</time>
      </trkpt>
      <trkpt lat="42.83123" lon="0.18387">
        <ele>2290.48</ele>
        <time>2014-03-21T09:33:50Z</time>
      </trkpt>
      <trkpt lat="42.83123" lon="0.18384">
        <ele>2290.48</ele>
        <time>2014-03-21T09:33:58Z</time>
      </trkpt>
      <trkpt lat="42.83124" lon="0.1838">
        <ele>2291.92</ele>
        <time>2014-03-21T09:34:07Z</time>
      </trkpt>
      <trkpt lat="42.83123" lon="0.18377">
        <ele>2292.88</ele>
        <time>2014-03-21T09:34:18Z</time>
      </trkpt>
      <trkpt lat="42.83123" lon="0.18371">
        <ele>2296.25</ele>
        <time>2014-03-21T09:34:29Z</time>
      </trkpt>
      <trkpt lat="42.83123" lon="0.18368">
        <ele>2297.21</ele>
        <time>2014-03-21T09:34:40Z</time>
      </trkpt>
      <trkpt lat="42.83122" lon="0.18363">
        <ele>2299.13</ele>
        <time>2014-03-21T09:34:50Z</time>
      </trkpt>
      <trkpt lat="42.83122" lon="0.18357">
        <ele>2300.57</ele>
        <time>2014-03-21T09:34:58Z</time>
      </trkpt>
      <trkpt lat="42.83122" lon="0.18352">
        <ele>2301.05</ele>
        <time>2014-03-21T09:35:06Z</time>
      </trkpt>
      <trkpt lat="42.83121" lon="0.1835">
        <ele>2301.53</ele>
        <time>2014-03-21T09:35:15Z</time>
      </trkpt>
      <trkpt lat="42.83121" lon="0.18347">
        <ele>2302.01</ele>
        <time>2014-03-21T09:35:23Z</time>
      </trkpt>
      <trkpt lat="42.8312" lon="0.18342">
        <ele>2303.94</ele>
        <time>2014-03-21T09:35:34Z</time>
      </trkpt>
      <trkpt lat="42.8312" lon="0.1834">
        <ele>2304.42</ele>
        <time>2014-03-21T09:35:41Z</time>
      </trkpt>
      <trkpt lat="42.83119" lon="0.18337">
        <ele>2305.38</ele>
        <time>2014-03-21T09:35:50Z</time>
      </trkpt>
      <trkpt lat="42.83118" lon="0.18334">
        <ele>2307.3</ele>
        <time>2014-03-21T09:35:59Z</time>
      </trkpt>
      <trkpt lat="42.83117" lon="0.18331">
        <ele>2307.78</ele>
        <time>2014-03-21T09:36:07Z</time>
      </trkpt>
      <trkpt lat="42.83115" lon="0.18326">
        <ele>2310.67</ele>
        <time>2014-03-21T09:36:15Z</time>
      </trkpt>
      <trkpt lat="42.83114" lon="0.18322">
        <ele>2311.63</ele>
        <time>2014-03-21T09:36:23Z</time>
      </trkpt>
      <trkpt lat="42.83114" lon="0.18317">
        <ele>2313.07</ele>
        <time>2014-03-21T09:36:32Z</time>
      </trkpt>
      <trkpt lat="42.83114" lon="0.18315">
        <ele>2314.03</ele>
        <time>2014-03-21T09:36:39Z</time>
      </trkpt>
      <trkpt lat="42.83113" lon="0.18314">
        <ele>2314.99</ele>
        <time>2014-03-21T09:36:47Z</time>
      </trkpt>
      <trkpt lat="42.83112" lon="0.18309">
        <ele>2315.95</ele>
        <time>2014-03-21T09:36:55Z</time>
      </trkpt>
      <trkpt lat="42.83112" lon="0.18309">
        <ele>2315.95</ele>
        <time>2014-03-21T09:37:04Z</time>
      </trkpt>
      <trkpt lat="42.83111" lon="0.18306">
        <ele>2316.91</ele>
        <time>2014-03-21T09:37:13Z</time>
      </trkpt>
      <trkpt lat="42.8311" lon="0.18304">
        <ele>2317.4</ele>
        <time>2014-03-21T09:37:21Z</time>
      </trkpt>
      <trkpt lat="42.83108" lon="0.18299">
        <ele>2318.84</ele>
        <time>2014-03-21T09:37:32Z</time>
      </trkpt>
      <trkpt lat="42.83108" lon="0.18297">
        <ele>2319.32</ele>
        <time>2014-03-21T09:37:38Z</time>
      </trkpt>
      <trkpt lat="42.83108" lon="0.18291">
        <ele>2320.28</ele>
        <time>2014-03-21T09:37:46Z</time>
      </trkpt>
      <trkpt lat="42.83107" lon="0.1829">
        <ele>2320.28</ele>
        <time>2014-03-21T09:37:56Z</time>
      </trkpt>
      <trkpt lat="42.83107" lon="0.18289">
        <ele>2320.28</ele>
        <time>2014-03-21T09:38:06Z</time>
      </trkpt>
      <trkpt lat="42.83105" lon="0.18284">
        <ele>2320.76</ele>
        <time>2014-03-21T09:38:15Z</time>
      </trkpt>
      <trkpt lat="42.83105" lon="0.18283">
        <ele>2321.24</ele>
        <time>2014-03-21T09:38:24Z</time>
      </trkpt>
      <trkpt lat="42.83103" lon="0.18275">
        <ele>2322.2</ele>
        <time>2014-03-21T09:38:36Z</time>
      </trkpt>
      <trkpt lat="42.83103" lon="0.18275">
        <ele>2322.2</ele>
        <time>2014-03-21T09:38:50Z</time>
      </trkpt>
      <trkpt lat="42.83102" lon="0.18273">
        <ele>2322.68</ele>
        <time>2014-03-21T09:39:01Z</time>
      </trkpt>
      <trkpt lat="42.83104" lon="0.18274">
        <ele>2323.16</ele>
        <time>2014-03-21T09:39:10Z</time>
      </trkpt>
      <trkpt lat="42.83108" lon="0.18276">
        <ele>2323.64</ele>
        <time>2014-03-21T09:39:18Z</time>
      </trkpt>
      <trkpt lat="42.83111" lon="0.18277">
        <ele>2324.12</ele>
        <time>2014-03-21T09:39:25Z</time>
      </trkpt>
      <trkpt lat="42.83114" lon="0.18278">
        <ele>2325.09</ele>
        <time>2014-03-21T09:39:33Z</time>
      </trkpt>
      <trkpt lat="42.83116" lon="0.1828">
        <ele>2326.05</ele>
        <time>2014-03-21T09:39:40Z</time>
      </trkpt>
      <trkpt lat="42.83118" lon="0.18279">
        <ele>2327.01</ele>
        <time>2014-03-21T09:39:47Z</time>
      </trkpt>
      <trkpt lat="42.83121" lon="0.18281">
        <ele>2327.97</ele>
        <time>2014-03-21T09:39:55Z</time>
      </trkpt>
      <trkpt lat="42.83125" lon="0.18281">
        <ele>2328.45</ele>
        <time>2014-03-21T09:40:03Z</time>
      </trkpt>
      <trkpt lat="42.83126" lon="0.18282">
        <ele>2328.93</ele>
        <time>2014-03-21T09:40:09Z</time>
      </trkpt>
      <trkpt lat="42.83129" lon="0.18284">
        <ele>2329.41</ele>
        <time>2014-03-21T09:40:17Z</time>
      </trkpt>
      <trkpt lat="42.8313" lon="0.18284">
        <ele>2329.89</ele>
        <time>2014-03-21T09:40:24Z</time>
      </trkpt>
      <trkpt lat="42.83132" lon="0.18285">
        <ele>2330.37</ele>
        <time>2014-03-21T09:40:33Z</time>
      </trkpt>
      <trkpt lat="42.83136" lon="0.18287">
        <ele>2331.81</ele>
        <time>2014-03-21T09:40:41Z</time>
      </trkpt>
      <trkpt lat="42.83138" lon="0.18288">
        <ele>2332.3</ele>
        <time>2014-03-21T09:40:49Z</time>
      </trkpt>
      <trkpt lat="42.8314" lon="0.1829">
        <ele>2333.26</ele>
        <time>2014-03-21T09:40:57Z</time>
      </trkpt>
      <trkpt lat="42.83143" lon="0.1829">
        <ele>2334.22</ele>
        <time>2014-03-21T09:41:08Z</time>
      </trkpt>
      <trkpt lat="42.83143" lon="0.1829">
        <ele>2334.22</ele>
        <time>2014-03-21T09:41:18Z</time>
      </trkpt>
      <trkpt lat="42.83145" lon="0.1829">
        <ele>2334.7</ele>
        <time>2014-03-21T09:41:27Z</time>
      </trkpt>
      <trkpt lat="42.83148" lon="0.18292">
        <ele>2336.62</ele>
        <time>2014-03-21T09:41:35Z</time>
      </trkpt>
      <trkpt lat="42.83151" lon="0.18294">
        <ele>2338.06</ele>
        <time>2014-03-21T09:41:42Z</time>
      </trkpt>
      <trkpt lat="42.83154" lon="0.18296">
        <ele>2338.54</ele>
        <time>2014-03-21T09:41:50Z</time>
      </trkpt>
      <trkpt lat="42.83157" lon="0.18298">
        <ele>2339.51</ele>
        <time>2014-03-21T09:41:57Z</time>
      </trkpt>
      <trkpt lat="42.8316" lon="0.183">
        <ele>2339.99</ele>
        <time>2014-03-21T09:42:05Z</time>
      </trkpt>
      <trkpt lat="42.83163" lon="0.18301">
        <ele>2340.95</ele>
        <time>2014-03-21T09:42:14Z</time>
      </trkpt>
      <trkpt lat="42.83166" lon="0.18303">
        <ele>2342.87</ele>
        <time>2014-03-21T09:42:23Z</time>
      </trkpt>
      <trkpt lat="42.83168" lon="0.18304">
        <ele>2343.83</ele>
        <time>2014-03-21T09:42:31Z</time>
      </trkpt>
      <trkpt lat="42.83169" lon="0.18306">
        <ele>2343.83</ele>
        <time>2014-03-21T09:42:38Z</time>
      </trkpt>
      <trkpt lat="42.83171" lon="0.18307">
        <ele>2345.27</ele>
        <time>2014-03-21T09:42:46Z</time>
      </trkpt>
      <trkpt lat="42.83174" lon="0.18309">
        <ele>2346.72</ele>
        <time>2014-03-21T09:42:53Z</time>
      </trkpt>
      <trkpt lat="42.83176" lon="0.18312">
        <ele>2347.68</ele>
        <time>2014-03-21T09:43:01Z</time>
      </trkpt>
      <trkpt lat="42.83178" lon="0.18313">
        <ele>2347.2</ele>
        <time>2014-03-21T09:43:08Z</time>
      </trkpt>
      <trkpt lat="42.8318" lon="0.18314">
        <ele>2347.68</ele>
        <time>2014-03-21T09:43:15Z</time>
      </trkpt>
      <trkpt lat="42.83182" lon="0.18317">
        <ele>2348.16</ele>
        <time>2014-03-21T09:43:23Z</time>
      </trkpt>
      <trkpt lat="42.83183" lon="0.18319">
        <ele>2348.16</ele>
        <time>2014-03-21T09:43:31Z</time>
      </trkpt>
      <trkpt lat="42.83186" lon="0.18321">
        <ele>2349.12</ele>
        <time>2014-03-21T09:43:39Z</time>
      </trkpt>
      <trkpt lat="42.83188" lon="0.18322">
        <ele>2349.6</ele>
        <time>2014-03-21T09:43:47Z</time>
      </trkpt>
      <trkpt lat="42.83191" lon="0.18324">
        <ele>2350.56</ele>
        <time>2014-03-21T09:43:54Z</time>
      </trkpt>
      <trkpt lat="42.83194" lon="0.18326">
        <ele>2352</ele>
        <time>2014-03-21T09:44:03Z</time>
      </trkpt>
      <trkpt lat="42.83198" lon="0.18327">
        <ele>2353.93</ele>
        <time>2014-03-21T09:44:11Z</time>
      </trkpt>
      <trkpt lat="42.832" lon="0.18328">
        <ele>2355.37</ele>
        <time>2014-03-21T09:44:17Z</time>
      </trkpt>
      <trkpt lat="42.83201" lon="0.18329">
        <ele>2356.33</ele>
        <time>2014-03-21T09:44:28Z</time>
      </trkpt>
      <trkpt lat="42.83202" lon="0.18328">
        <ele>2356.81</ele>
        <time>2014-03-21T09:44:44Z</time>
      </trkpt>
      <trkpt lat="42.83202" lon="0.18329">
        <ele>2356.81</ele>
        <time>2014-03-21T09:44:56Z</time>
      </trkpt>
      <trkpt lat="42.83207" lon="0.1833">
        <ele>2356.33</ele>
        <time>2014-03-21T09:45:04Z</time>
      </trkpt>
      <trkpt lat="42.83212" lon="0.18331">
        <ele>2356.81</ele>
        <time>2014-03-21T09:45:12Z</time>
      </trkpt>
      <trkpt lat="42.83216" lon="0.18331">
        <ele>2357.29</ele>
        <time>2014-03-21T09:45:21Z</time>
      </trkpt>
      <trkpt lat="42.83219" lon="0.1833">
        <ele>2357.77</ele>
        <time>2014-03-21T09:45:28Z</time>
      </trkpt>
      <trkpt lat="42.83223" lon="0.18332">
        <ele>2359.21</ele>
        <time>2014-03-21T09:45:36Z</time>
      </trkpt>
      <trkpt lat="42.83227" lon="0.18335">
        <ele>2361.14</ele>
        <time>2014-03-21T09:45:46Z</time>
      </trkpt>
      <trkpt lat="42.8323" lon="0.18334">
        <ele>2361.62</ele>
        <time>2014-03-21T09:45:55Z</time>
      </trkpt>
      <trkpt lat="42.83233" lon="0.18335">
        <ele>2363.06</ele>
        <time>2014-03-21T09:46:02Z</time>
      </trkpt>
      <trkpt lat="42.83238" lon="0.18337">
        <ele>2364.5</ele>
        <time>2014-03-21T09:46:11Z</time>
      </trkpt>
      <trkpt lat="42.83241" lon="0.18337">
        <ele>2365.94</ele>
        <time>2014-03-21T09:46:19Z</time>
      </trkpt>
      <trkpt lat="42.83244" lon="0.18337">
        <ele>2366.42</ele>
        <time>2014-03-21T09:46:28Z</time>
      </trkpt>
      <trkpt lat="42.83248" lon="0.18337">
        <ele>2367.38</ele>
        <time>2014-03-21T09:46:36Z</time>
      </trkpt>
      <trkpt lat="42.83254" lon="0.18338">
        <ele>2368.83</ele>
        <time>2014-03-21T09:46:46Z</time>
      </trkpt>
      <trkpt lat="42.83258" lon="0.18338">
        <ele>2368.83</ele>
        <time>2014-03-21T09:46:55Z</time>
      </trkpt>
      <trkpt lat="42.8326" lon="0.18337">
        <ele>2369.79</ele>
        <time>2014-03-21T09:47:05Z</time>
      </trkpt>
      <trkpt lat="42.83263" lon="0.18336">
        <ele>2370.75</ele>
        <time>2014-03-21T09:47:14Z</time>
      </trkpt>
      <trkpt lat="42.83268" lon="0.18335">
        <ele>2371.71</ele>
        <time>2014-03-21T09:47:24Z</time>
      </trkpt>
      <trkpt lat="42.83271" lon="0.18334">
        <ele>2373.15</ele>
        <time>2014-03-21T09:47:34Z</time>
      </trkpt>
      <trkpt lat="42.83275" lon="0.18333">
        <ele>2374.59</ele>
        <time>2014-03-21T09:47:44Z</time>
      </trkpt>
      <trkpt lat="42.83277" lon="0.18333">
        <ele>2375.07</ele>
        <time>2014-03-21T09:47:53Z</time>
      </trkpt>
      <trkpt lat="42.8328" lon="0.18332">
        <ele>2376.04</ele>
        <time>2014-03-21T09:48:03Z</time>
      </trkpt>
      <trkpt lat="42.83284" lon="0.18332">
        <ele>2377.48</ele>
        <time>2014-03-21T09:48:11Z</time>
      </trkpt>
      <trkpt lat="42.83288" lon="0.18331">
        <ele>2378.44</ele>
        <time>2014-03-21T09:48:20Z</time>
      </trkpt>
      <trkpt lat="42.83291" lon="0.1833">
        <ele>2379.4</ele>
        <time>2014-03-21T09:48:29Z</time>
      </trkpt>
      <trkpt lat="42.83295" lon="0.18329">
        <ele>2379.4</ele>
        <time>2014-03-21T09:48:40Z</time>
      </trkpt>
      <trkpt lat="42.83298" lon="0.18328">
        <ele>2379.88</ele>
        <time>2014-03-21T09:48:48Z</time>
      </trkpt>
      <trkpt lat="42.83299" lon="0.18324">
        <ele>2380.84</ele>
        <time>2014-03-21T09:48:56Z</time>
      </trkpt>
      <trkpt lat="42.83298" lon="0.18321">
        <ele>2381.8</ele>
        <time>2014-03-21T09:49:04Z</time>
      </trkpt>
      <trkpt lat="42.83297" lon="0.18318">
        <ele>2383.73</ele>
        <time>2014-03-21T09:49:12Z</time>
      </trkpt>
      <trkpt lat="42.83295" lon="0.18313">
        <ele>2385.17</ele>
        <time>2014-03-21T09:49:22Z</time>
      </trkpt>
      <trkpt lat="42.83295" lon="0.18308">
        <ele>2387.57</ele>
        <time>2014-03-21T09:49:30Z</time>
      </trkpt>
      <trkpt lat="42.83293" lon="0.18302">
        <ele>2389.49</ele>
        <time>2014-03-21T09:49:39Z</time>
      </trkpt>
      <trkpt lat="42.83292" lon="0.183">
        <ele>2390.46</ele>
        <time>2014-03-21T09:49:47Z</time>
      </trkpt>
      <trkpt lat="42.83291" lon="0.18298">
        <ele>2390.94</ele>
        <time>2014-03-21T09:49:56Z</time>
      </trkpt>
      <trkpt lat="42.8329" lon="0.18295">
        <ele>2392.38</ele>
        <time>2014-03-21T09:50:05Z</time>
      </trkpt>
      <trkpt lat="42.83289" lon="0.18292">
        <ele>2393.82</ele>
        <time>2014-03-21T09:50:13Z</time>
      </trkpt>
      <trkpt lat="42.83287" lon="0.18288">
        <ele>2395.26</ele>
        <time>2014-03-21T09:50:21Z</time>
      </trkpt>
      <trkpt lat="42.83286" lon="0.18284">
        <ele>2396.7</ele>
        <time>2014-03-21T09:50:30Z</time>
      </trkpt>
      <trkpt lat="42.83285" lon="0.18282">
        <ele>2397.67</ele>
        <time>2014-03-21T09:50:38Z</time>
      </trkpt>
      <trkpt lat="42.83284" lon="0.18278">
        <ele>2398.63</ele>
        <time>2014-03-21T09:50:47Z</time>
      </trkpt>
      <trkpt lat="42.83283" lon="0.18276">
        <ele>2399.59</ele>
        <time>2014-03-21T09:50:54Z</time>
      </trkpt>
      <trkpt lat="42.83281" lon="0.18272">
        <ele>2401.03</ele>
        <time>2014-03-21T09:51:05Z</time>
      </trkpt>
      <trkpt lat="42.83281" lon="0.1827">
        <ele>2401.51</ele>
        <time>2014-03-21T09:51:13Z</time>
      </trkpt>
      <trkpt lat="42.83278" lon="0.18264">
        <ele>2401.99</ele>
        <time>2014-03-21T09:51:20Z</time>
      </trkpt>
      <trkpt lat="42.83278" lon="0.18261">
        <ele>2402.47</ele>
        <time>2014-03-21T09:51:28Z</time>
      </trkpt>
      <trkpt lat="42.83277" lon="0.18258">
        <ele>2403.43</ele>
        <time>2014-03-21T09:51:37Z</time>
      </trkpt>
      <trkpt lat="42.83275" lon="0.18253">
        <ele>2404.39</ele>
        <time>2014-03-21T09:51:46Z</time>
      </trkpt>
      <trkpt lat="42.83273" lon="0.18247">
        <ele>2405.84</ele>
        <time>2014-03-21T09:51:57Z</time>
      </trkpt>
      <trkpt lat="42.83271" lon="0.18243">
        <ele>2406.8</ele>
        <time>2014-03-21T09:52:06Z</time>
      </trkpt>
      <trkpt lat="42.83269" lon="0.1824">
        <ele>2407.76</ele>
        <time>2014-03-21T09:52:15Z</time>
      </trkpt>
      <trkpt lat="42.83268" lon="0.18238">
        <ele>2408.72</ele>
        <time>2014-03-21T09:52:23Z</time>
      </trkpt>
      <trkpt lat="42.83266" lon="0.18234">
        <ele>2409.68</ele>
        <time>2014-03-21T09:52:32Z</time>
      </trkpt>
      <trkpt lat="42.83265" lon="0.18232">
        <ele>2410.64</ele>
        <time>2014-03-21T09:52:40Z</time>
      </trkpt>
      <trkpt lat="42.83263" lon="0.1823">
        <ele>2411.6</ele>
        <time>2014-03-21T09:52:48Z</time>
      </trkpt>
      <trkpt lat="42.83262" lon="0.18227">
        <ele>2412.09</ele>
        <time>2014-03-21T09:52:57Z</time>
      </trkpt>
      <trkpt lat="42.8326" lon="0.18224">
        <ele>2413.53</ele>
        <time>2014-03-21T09:53:07Z</time>
      </trkpt>
      <trkpt lat="42.83258" lon="0.1822">
        <ele>2413.53</ele>
        <time>2014-03-21T09:53:16Z</time>
      </trkpt>
      <trkpt lat="42.83255" lon="0.18215">
        <ele>2414.49</ele>
        <time>2014-03-21T09:53:27Z</time>
      </trkpt>
      <trkpt lat="42.83252" lon="0.18211">
        <ele>2416.41</ele>
        <time>2014-03-21T09:53:36Z</time>
      </trkpt>
      <trkpt lat="42.83251" lon="0.1821">
        <ele>2416.89</ele>
        <time>2014-03-21T09:53:45Z</time>
      </trkpt>
      <trkpt lat="42.8325" lon="0.18207">
        <ele>2417.85</ele>
        <time>2014-03-21T09:53:53Z</time>
      </trkpt>
      <trkpt lat="42.83248" lon="0.18203">
        <ele>2418.81</ele>
        <time>2014-03-21T09:54:03Z</time>
      </trkpt>
      <trkpt lat="42.83246" lon="0.18198">
        <ele>2419.78</ele>
        <time>2014-03-21T09:54:11Z</time>
      </trkpt>
      <trkpt lat="42.83244" lon="0.18195">
        <ele>2420.74</ele>
        <time>2014-03-21T09:54:19Z</time>
      </trkpt>
      <trkpt lat="42.83242" lon="0.18192">
        <ele>2421.7</ele>
        <time>2014-03-21T09:54:28Z</time>
      </trkpt>
      <trkpt lat="42.83241" lon="0.1819">
        <ele>2422.66</ele>
        <time>2014-03-21T09:54:36Z</time>
      </trkpt>
      <trkpt lat="42.8324" lon="0.18186">
        <ele>2423.62</ele>
        <time>2014-03-21T09:54:44Z</time>
      </trkpt>
      <trkpt lat="42.83238" lon="0.18184">
        <ele>2425.06</ele>
        <time>2014-03-21T09:54:52Z</time>
      </trkpt>
      <trkpt lat="42.83237" lon="0.1818">
        <ele>2426.5</ele>
        <time>2014-03-21T09:55:00Z</time>
      </trkpt>
      <trkpt lat="42.83235" lon="0.18177">
        <ele>2427.95</ele>
        <time>2014-03-21T09:55:10Z</time>
      </trkpt>
      <trkpt lat="42.83234" lon="0.18173">
        <ele>2428.43</ele>
        <time>2014-03-21T09:55:18Z</time>
      </trkpt>
      <trkpt lat="42.83233" lon="0.18172">
        <ele>2428.43</ele>
        <time>2014-03-21T09:55:28Z</time>
      </trkpt>
      <trkpt lat="42.8323" lon="0.18167">
        <ele>2430.35</ele>
        <time>2014-03-21T09:55:36Z</time>
      </trkpt>
      <trkpt lat="42.83228" lon="0.18164">
        <ele>2431.79</ele>
        <time>2014-03-21T09:55:46Z</time>
      </trkpt>
      <trkpt lat="42.83227" lon="0.1816">
        <ele>2433.23</ele>
        <time>2014-03-21T09:55:55Z</time>
      </trkpt>
      <trkpt lat="42.83224" lon="0.18155">
        <ele>2435.16</ele>
        <time>2014-03-21T09:56:04Z</time>
      </trkpt>
      <trkpt lat="42.83223" lon="0.18154">
        <ele>2435.64</ele>
        <time>2014-03-21T09:56:11Z</time>
      </trkpt>
      <trkpt lat="42.83223" lon="0.18152">
        <ele>2435.64</ele>
        <time>2014-03-21T09:56:19Z</time>
      </trkpt>
      <trkpt lat="42.83222" lon="0.1815">
        <ele>2436.6</ele>
        <time>2014-03-21T09:56:27Z</time>
      </trkpt>
      <trkpt lat="42.83219" lon="0.18145">
        <ele>2437.08</ele>
        <time>2014-03-21T09:56:35Z</time>
      </trkpt>
      <trkpt lat="42.83218" lon="0.18142">
        <ele>2437.56</ele>
        <time>2014-03-21T09:56:43Z</time>
      </trkpt>
      <trkpt lat="42.83217" lon="0.18138">
        <ele>2438.52</ele>
        <time>2014-03-21T09:56:53Z</time>
      </trkpt>
      <trkpt lat="42.83215" lon="0.18133">
        <ele>2439.96</ele>
        <time>2014-03-21T09:57:03Z</time>
      </trkpt>
      <trkpt lat="42.83214" lon="0.1813">
        <ele>2441.41</ele>
        <time>2014-03-21T09:57:11Z</time>
      </trkpt>
      <trkpt lat="42.83214" lon="0.18127">
        <ele>2441.89</ele>
        <time>2014-03-21T09:57:19Z</time>
      </trkpt>
      <trkpt lat="42.83214" lon="0.18126">
        <ele>2441.89</ele>
        <time>2014-03-21T09:57:28Z</time>
      </trkpt>
      <trkpt lat="42.83214" lon="0.18124">
        <ele>2442.37</ele>
        <time>2014-03-21T09:57:37Z</time>
      </trkpt>
      <trkpt lat="42.83216" lon="0.18122">
        <ele>2443.33</ele>
        <time>2014-03-21T09:57:46Z</time>
      </trkpt>
      <trkpt lat="42.8322" lon="0.1812">
        <ele>2443.81</ele>
        <time>2014-03-21T09:57:56Z</time>
      </trkpt>
      <trkpt lat="42.83222" lon="0.18119">
        <ele>2444.29</ele>
        <time>2014-03-21T09:58:05Z</time>
      </trkpt>
      <trkpt lat="42.83223" lon="0.18119">
        <ele>2444.77</ele>
        <time>2014-03-21T09:58:15Z</time>
      </trkpt>
      <trkpt lat="42.83224" lon="0.1812">
        <ele>2444.77</ele>
        <time>2014-03-21T09:58:26Z</time>
      </trkpt>
      <trkpt lat="42.83224" lon="0.18118">
        <ele>2444.77</ele>
        <time>2014-03-21T09:58:34Z</time>
      </trkpt>
      <trkpt lat="42.83224" lon="0.18117">
        <ele>2444.77</ele>
        <time>2014-03-21T09:58:41Z</time>
      </trkpt>
      <trkpt lat="42.83224" lon="0.18117">
        <ele>2444.77</ele>
        <time>2014-03-21T09:58:58Z</time>
      </trkpt>
      <trkpt lat="42.83224" lon="0.18115">
        <ele>2445.25</ele>
        <time>2014-03-21T09:59:12Z</time>
      </trkpt>
      <trkpt lat="42.83224" lon="0.18114">
        <ele>2445.25</ele>
        <time>2014-03-21T09:59:22Z</time>
      </trkpt>
      <trkpt lat="42.83223" lon="0.18113">
        <ele>2445.25</ele>
        <time>2014-03-21T09:59:31Z</time>
      </trkpt>
      <trkpt lat="42.83225" lon="0.18112">
        <ele>2446.21</ele>
        <time>2014-03-21T09:59:40Z</time>
      </trkpt>
      <trkpt lat="42.83226" lon="0.18111">
        <ele>2446.69</ele>
        <time>2014-03-21T09:59:53Z</time>
      </trkpt>
      <trkpt lat="42.83227" lon="0.18111">
        <ele>2447.17</ele>
        <time>2014-03-21T10:00:02Z</time>
      </trkpt>
      <trkpt lat="42.83227" lon="0.1811">
        <ele>2448.13</ele>
        <time>2014-03-21T10:00:13Z</time>
      </trkpt>
      <trkpt lat="42.83228" lon="0.1811">
        <ele>2449.1</ele>
        <time>2014-03-21T10:00:29Z</time>
      </trkpt>
      <trkpt lat="42.8323" lon="0.18109">
        <ele>2450.06</ele>
        <time>2014-03-21T10:00:42Z</time>
      </trkpt>
      <trkpt lat="42.8323" lon="0.18108">
        <ele>2450.54</ele>
        <time>2014-03-21T10:00:51Z</time>
      </trkpt>
      <trkpt lat="42.83231" lon="0.18108">
        <ele>2451.02</ele>
        <time>2014-03-21T10:01:00Z</time>
      </trkpt>
      <trkpt lat="42.83232" lon="0.18108">
        <ele>2451.5</ele>
        <time>2014-03-21T10:01:09Z</time>
      </trkpt>
      <trkpt lat="42.83234" lon="0.18108">
        <ele>2451.98</ele>
        <time>2014-03-21T10:01:18Z</time>
      </trkpt>
      <trkpt lat="42.83236" lon="0.18108">
        <ele>2452.46</ele>
        <time>2014-03-21T10:01:24Z</time>
      </trkpt>
      <trkpt lat="42.83238" lon="0.18107">
        <ele>2452.46</ele>
        <time>2014-03-21T10:01:32Z</time>
      </trkpt>
      <trkpt lat="42.83243" lon="0.18107">
        <ele>2453.42</ele>
        <time>2014-03-21T10:01:41Z</time>
      </trkpt>
      <trkpt lat="42.83246" lon="0.18106">
        <ele>2454.86</ele>
        <time>2014-03-21T10:01:49Z</time>
      </trkpt>
      <trkpt lat="42.83249" lon="0.18104">
        <ele>2455.34</ele>
        <time>2014-03-21T10:01:57Z</time>
      </trkpt>
      <trkpt lat="42.83249" lon="0.18103">
        <ele>2455.34</ele>
        <time>2014-03-21T10:02:08Z</time>
      </trkpt>
      <trkpt lat="42.83251" lon="0.18102">
        <ele>2456.79</ele>
        <time>2014-03-21T10:02:16Z</time>
      </trkpt>
      <trkpt lat="42.83256" lon="0.18103">
        <ele>2457.75</ele>
        <time>2014-03-21T10:02:27Z</time>
      </trkpt>
      <trkpt lat="42.83262" lon="0.181">
        <ele>2458.71</ele>
        <time>2014-03-21T10:02:37Z</time>
      </trkpt>
      <trkpt lat="42.83265" lon="0.181">
        <ele>2459.67</ele>
        <time>2014-03-21T10:02:45Z</time>
      </trkpt>
      <trkpt lat="42.83268" lon="0.18102">
        <ele>2461.11</ele>
        <time>2014-03-21T10:02:52Z</time>
      </trkpt>
      <trkpt lat="42.83271" lon="0.18104">
        <ele>2462.07</ele>
        <time>2014-03-21T10:03:00Z</time>
      </trkpt>
      <trkpt lat="42.83272" lon="0.18104">
        <ele>2463.04</ele>
        <time>2014-03-21T10:03:11Z</time>
      </trkpt>
      <trkpt lat="42.83276" lon="0.18105">
        <ele>2464.96</ele>
        <time>2014-03-21T10:03:20Z</time>
      </trkpt>
      <trkpt lat="42.83279" lon="0.18103">
        <ele>2466.4</ele>
        <time>2014-03-21T10:03:28Z</time>
      </trkpt>
      <trkpt lat="42.83281" lon="0.18103">
        <ele>2467.36</ele>
        <time>2014-03-21T10:03:37Z</time>
      </trkpt>
      <trkpt lat="42.83283" lon="0.18103">
        <ele>2469.28</ele>
        <time>2014-03-21T10:03:45Z</time>
      </trkpt>
      <trkpt lat="42.83286" lon="0.18107">
        <ele>2471.69</ele>
        <time>2014-03-21T10:03:54Z</time>
      </trkpt>
      <trkpt lat="42.83288" lon="0.18108">
        <ele>2472.65</ele>
        <time>2014-03-21T10:04:03Z</time>
      </trkpt>
      <trkpt lat="42.83292" lon="0.18106">
        <ele>2473.13</ele>
        <time>2014-03-21T10:04:13Z</time>
      </trkpt>
      <trkpt lat="42.83297" lon="0.18102">
        <ele>2473.13</ele>
        <time>2014-03-21T10:04:22Z</time>
      </trkpt>
      <trkpt lat="42.83296" lon="0.18101">
        <ele>2473.61</ele>
        <time>2014-03-21T10:04:30Z</time>
      </trkpt>
      <trkpt lat="42.83296" lon="0.18101">
        <ele>2473.61</ele>
        <time>2014-03-21T10:04:42Z</time>
      </trkpt>
      <trkpt lat="42.83296" lon="0.18099">
        <ele>2473.13</ele>
        <time>2014-03-21T10:04:54Z</time>
      </trkpt>
      <trkpt lat="42.83296" lon="0.18099">
        <ele>2473.13</ele>
        <time>2014-03-21T10:05:04Z</time>
      </trkpt>
      <trkpt lat="42.83297" lon="0.18099">
        <ele>2473.13</ele>
        <time>2014-03-21T10:05:16Z</time>
      </trkpt>
      <trkpt lat="42.83297" lon="0.18098">
        <ele>2473.61</ele>
        <time>2014-03-21T10:05:31Z</time>
      </trkpt>
      <trkpt lat="42.83297" lon="0.18098">
        <ele>2473.61</ele>
        <time>2014-03-21T10:05:46Z</time>
      </trkpt>
      <trkpt lat="42.83297" lon="0.18098">
        <ele>2474.09</ele>
        <time>2014-03-21T10:06:02Z</time>
      </trkpt>
      <trkpt lat="42.83297" lon="0.18098">
        <ele>2474.09</ele>
        <time>2014-03-21T10:06:15Z</time>
      </trkpt>
      <trkpt lat="42.83297" lon="0.18098">
        <ele>2474.57</ele>
        <time>2014-03-21T10:06:29Z</time>
      </trkpt>
      <trkpt lat="42.83297" lon="0.18098">
        <ele>2474.57</ele>
        <time>2014-03-21T10:06:40Z</time>
      </trkpt>
      <trkpt lat="42.83297" lon="0.18098">
        <ele>2474.57</ele>
        <time>2014-03-21T10:06:58Z</time>
      </trkpt>
      <trkpt lat="42.83297" lon="0.18098">
        <ele>2474.57</ele>
        <time>2014-03-21T10:07:08Z</time>
      </trkpt>
      <trkpt lat="42.83297" lon="0.18098">
        <ele>2474.57</ele>
        <time>2014-03-21T10:07:22Z</time>
      </trkpt>
      <trkpt lat="42.83297" lon="0.18098">
        <ele>2475.05</ele>
        <time>2014-03-21T10:07:40Z</time>
      </trkpt>
      <trkpt lat="42.83297" lon="0.18099">
        <ele>2475.05</ele>
        <time>2014-03-21T10:07:56Z</time>
      </trkpt>
      <trkpt lat="42.83297" lon="0.18098">
        <ele>2475.05</ele>
        <time>2014-03-21T10:08:13Z</time>
      </trkpt>
      <trkpt lat="42.83297" lon="0.18098">
        <ele>2475.05</ele>
        <time>2014-03-21T10:08:26Z</time>
      </trkpt>
      <trkpt lat="42.83297" lon="0.18098">
        <ele>2475.05</ele>
        <time>2014-03-21T10:08:42Z</time>
      </trkpt>
      <trkpt lat="42.83297" lon="0.18098">
        <ele>2475.05</ele>
        <time>2014-03-21T10:08:58Z</time>
      </trkpt>
      <trkpt lat="42.83297" lon="0.18098">
        <ele>2475.05</ele>
        <time>2014-03-21T10:09:11Z</time>
      </trkpt>
      <trkpt lat="42.83297" lon="0.18098">
        <ele>2475.53</ele>
        <time>2014-03-21T10:09:26Z</time>
      </trkpt>
      <trkpt lat="42.83297" lon="0.18098">
        <ele>2475.53</ele>
        <time>2014-03-21T10:09:40Z</time>
      </trkpt>
      <trkpt lat="42.83297" lon="0.18098">
        <ele>2475.53</ele>
        <time>2014-03-21T10:09:58Z</time>
      </trkpt>
      <trkpt lat="42.83297" lon="0.18098">
        <ele>2475.53</ele>
        <time>2014-03-21T10:10:09Z</time>
      </trkpt>
      <trkpt lat="42.83297" lon="0.18098">
        <ele>2475.53</ele>
        <time>2014-03-21T10:10:22Z</time>
      </trkpt>
      <trkpt lat="42.83297" lon="0.18098">
        <ele>2475.53</ele>
        <time>2014-03-21T10:10:39Z</time>
      </trkpt>
      <trkpt lat="42.83297" lon="0.18098">
        <ele>2475.53</ele>
        <time>2014-03-21T10:10:51Z</time>
      </trkpt>
      <trkpt lat="42.83297" lon="0.18098">
        <ele>2475.53</ele>
        <time>2014-03-21T10:11:07Z</time>
      </trkpt>
      <trkpt lat="42.83297" lon="0.18098">
        <ele>2475.53</ele>
        <time>2014-03-21T10:11:22Z</time>
      </trkpt>
      <trkpt lat="42.83297" lon="0.18098">
        <ele>2475.53</ele>
        <time>2014-03-21T10:11:36Z</time>
      </trkpt>
      <trkpt lat="42.83297" lon="0.18098">
        <ele>2475.53</ele>
        <time>2014-03-21T10:11:54Z</time>
      </trkpt>
      <trkpt lat="42.83297" lon="0.18098">
        <ele>2475.53</ele>
        <time>2014-03-21T10:12:07Z</time>
      </trkpt>
      <trkpt lat="42.83297" lon="0.18098">
        <ele>2475.53</ele>
        <time>2014-03-21T10:12:19Z</time>
      </trkpt>
      <trkpt lat="42.83297" lon="0.18098">
        <ele>2476.01</ele>
        <time>2014-03-21T10:12:35Z</time>
      </trkpt>
      <trkpt lat="42.83297" lon="0.18098">
        <ele>2476.01</ele>
        <time>2014-03-21T10:12:49Z</time>
      </trkpt>
      <trkpt lat="42.83297" lon="0.18098">
        <ele>2476.01</ele>
        <time>2014-03-21T10:13:03Z</time>
      </trkpt>
      <trkpt lat="42.83297" lon="0.18098">
        <ele>2476.01</ele>
        <time>2014-03-21T10:13:17Z</time>
      </trkpt>
      <trkpt lat="42.83297" lon="0.18098">
        <ele>2476.01</ele>
        <time>2014-03-21T10:13:31Z</time>
      </trkpt>
      <trkpt lat="42.83296" lon="0.18098">
        <ele>2475.53</ele>
        <time>2014-03-21T10:13:41Z</time>
      </trkpt>
      <trkpt lat="42.83296" lon="0.18098">
        <ele>2475.53</ele>
        <time>2014-03-21T10:13:51Z</time>
      </trkpt>
      <trkpt lat="42.83299" lon="0.181">
        <ele>2475.53</ele>
        <time>2014-03-21T10:13:59Z</time>
      </trkpt>
      <trkpt lat="42.833" lon="0.18099">
        <ele>2475.05</ele>
        <time>2014-03-21T10:14:05Z</time>
      </trkpt>
      <trkpt lat="42.833" lon="0.18099">
        <ele>2474.57</ele>
        <time>2014-03-21T10:14:19Z</time>
      </trkpt>
      <trkpt lat="42.833" lon="0.18099">
        <ele>2474.57</ele>
        <time>2014-03-21T10:14:29Z</time>
      </trkpt>
      <trkpt lat="42.833" lon="0.18099">
        <ele>2474.57</ele>
        <time>2014-03-21T10:14:44Z</time>
      </trkpt>
      <trkpt lat="42.833" lon="0.18099">
        <ele>2475.05</ele>
        <time>2014-03-21T10:14:52Z</time>
      </trkpt>
      <trkpt lat="42.83299" lon="0.18098">
        <ele>2475.53</ele>
        <time>2014-03-21T10:14:59Z</time>
      </trkpt>
      <trkpt lat="42.83298" lon="0.18097">
        <ele>2476.01</ele>
        <time>2014-03-21T10:15:10Z</time>
      </trkpt>
      <trkpt lat="42.83295" lon="0.18097">
        <ele>2476.97</ele>
        <time>2014-03-21T10:15:16Z</time>
      </trkpt>
      <trkpt lat="42.83295" lon="0.18097">
        <ele>2476.97</ele>
        <time>2014-03-21T10:15:31Z</time>
      </trkpt>
      <trkpt lat="42.83295" lon="0.18096">
        <ele>2476.97</ele>
        <time>2014-03-21T10:15:46Z</time>
      </trkpt>
      <trkpt lat="42.83293" lon="0.18095">
        <ele>2477.94</ele>
        <time>2014-03-21T10:15:54Z</time>
      </trkpt>
      <trkpt lat="42.83292" lon="0.18094">
        <ele>2477.45</ele>
        <time>2014-03-21T10:16:02Z</time>
      </trkpt>
      <trkpt lat="42.83293" lon="0.18095">
        <ele>2476.97</ele>
        <time>2014-03-21T10:16:16Z</time>
      </trkpt>
      <trkpt lat="42.83294" lon="0.18096">
        <ele>2476.49</ele>
        <time>2014-03-21T10:16:24Z</time>
      </trkpt>
      <trkpt lat="42.83294" lon="0.18097">
        <ele>2476.49</ele>
        <time>2014-03-21T10:16:39Z</time>
      </trkpt>
      <trkpt lat="42.83296" lon="0.18098">
        <ele>2476.49</ele>
        <time>2014-03-21T10:16:49Z</time>
      </trkpt>
      <trkpt lat="42.83296" lon="0.18098">
        <ele>2476.49</ele>
        <time>2014-03-21T10:16:59Z</time>
      </trkpt>
      <trkpt lat="42.83296" lon="0.18099">
        <ele>2476.01</ele>
        <time>2014-03-21T10:17:11Z</time>
      </trkpt>
      <trkpt lat="42.83298" lon="0.18097">
        <ele>2476.49</ele>
        <time>2014-03-21T10:17:19Z</time>
      </trkpt>
      <trkpt lat="42.83298" lon="0.18095">
        <ele>2476.49</ele>
        <time>2014-03-21T10:17:26Z</time>
      </trkpt>
      <trkpt lat="42.83299" lon="0.18096">
        <ele>2476.49</ele>
        <time>2014-03-21T10:17:34Z</time>
      </trkpt>
      <trkpt lat="42.83299" lon="0.18095">
        <ele>2476.49</ele>
        <time>2014-03-21T10:17:45Z</time>
      </trkpt>
      <trkpt lat="42.83299" lon="0.18095">
        <ele>2476.49</ele>
        <time>2014-03-21T10:17:57Z</time>
      </trkpt>
      <trkpt lat="42.83299" lon="0.18096">
        <ele>2476.01</ele>
        <time>2014-03-21T10:18:06Z</time>
      </trkpt>
      <trkpt lat="42.83299" lon="0.18096">
        <ele>2476.01</ele>
        <time>2014-03-21T10:18:17Z</time>
      </trkpt>
      <trkpt lat="42.83299" lon="0.18096">
        <ele>2476.01</ele>
        <time>2014-03-21T10:18:31Z</time>
      </trkpt>
      <trkpt lat="42.83299" lon="0.18097">
        <ele>2476.01</ele>
        <time>2014-03-21T10:18:44Z</time>
      </trkpt>
      <trkpt lat="42.83299" lon="0.18097">
        <ele>2475.53</ele>
        <time>2014-03-21T10:19:02Z</time>
      </trkpt>
      <trkpt lat="42.83299" lon="0.18097">
        <ele>2475.53</ele>
        <time>2014-03-21T10:19:15Z</time>
      </trkpt>
      <trkpt lat="42.83299" lon="0.18097">
        <ele>2475.53</ele>
        <time>2014-03-21T10:19:29Z</time>
      </trkpt>
      <trkpt lat="42.83299" lon="0.181">
        <ele>2476.01</ele>
        <time>2014-03-21T10:19:34Z</time>
      </trkpt>
      <trkpt lat="42.833" lon="0.18104">
        <ele>2474.57</ele>
        <time>2014-03-21T10:19:46Z</time>
      </trkpt>
      <trkpt lat="42.83298" lon="0.18104">
        <ele>2474.57</ele>
        <time>2014-03-21T10:19:57Z</time>
      </trkpt>
      <trkpt lat="42.83298" lon="0.18099">
        <ele>2474.57</ele>
        <time>2014-03-21T10:20:11Z</time>
      </trkpt>
      <trkpt lat="42.83299" lon="0.18097">
        <ele>2475.05</ele>
        <time>2014-03-21T10:20:23Z</time>
      </trkpt>
      <trkpt lat="42.83299" lon="0.18097">
        <ele>2475.05</ele>
        <time>2014-03-21T10:20:38Z</time>
      </trkpt>
      <trkpt lat="42.83299" lon="0.18098">
        <ele>2474.57</ele>
        <time>2014-03-21T10:20:50Z</time>
      </trkpt>
      <trkpt lat="42.83299" lon="0.18098">
        <ele>2474.57</ele>
        <time>2014-03-21T10:21:04Z</time>
      </trkpt>
      <trkpt lat="42.83299" lon="0.18098">
        <ele>2474.57</ele>
        <time>2014-03-21T10:21:17Z</time>
      </trkpt>
      <trkpt lat="42.83298" lon="0.18099">
        <ele>2473.61</ele>
        <time>2014-03-21T10:21:31Z</time>
      </trkpt>
      <trkpt lat="42.83298" lon="0.18099">
        <ele>2473.61</ele>
        <time>2014-03-21T10:21:44Z</time>
      </trkpt>
      <trkpt lat="42.83298" lon="0.18098">
        <ele>2473.61</ele>
        <time>2014-03-21T10:22:00Z</time>
      </trkpt>
      <trkpt lat="42.83299" lon="0.18099">
        <ele>2473.61</ele>
        <time>2014-03-21T10:22:18Z</time>
      </trkpt>
      <trkpt lat="42.83299" lon="0.18099">
        <ele>2474.09</ele>
        <time>2014-03-21T10:22:36Z</time>
      </trkpt>
      <trkpt lat="42.833" lon="0.18099">
        <ele>2474.57</ele>
        <time>2014-03-21T10:23:01Z</time>
      </trkpt>
      <trkpt lat="42.83296" lon="0.18098">
        <ele>2473.61</ele>
        <time>2014-03-21T10:23:14Z</time>
      </trkpt>
      <trkpt lat="42.83296" lon="0.18098">
        <ele>2473.61</ele>
        <time>2014-03-21T10:23:28Z</time>
      </trkpt>
      <trkpt lat="42.83296" lon="0.18098">
        <ele>2473.61</ele>
        <time>2014-03-21T10:23:42Z</time>
      </trkpt>
      <trkpt lat="42.83296" lon="0.18098">
        <ele>2473.61</ele>
        <time>2014-03-21T10:23:57Z</time>
      </trkpt>
      <trkpt lat="42.83296" lon="0.18098">
        <ele>2473.13</ele>
        <time>2014-03-21T10:24:13Z</time>
      </trkpt>
      <trkpt lat="42.83296" lon="0.18098">
        <ele>2473.13</ele>
        <time>2014-03-21T10:24:29Z</time>
      </trkpt>
      <trkpt lat="42.83297" lon="0.18098">
        <ele>2472.65</ele>
        <time>2014-03-21T10:24:47Z</time>
      </trkpt>
      <trkpt lat="42.83297" lon="0.18098">
        <ele>2473.13</ele>
        <time>2014-03-21T10:25:01Z</time>
      </trkpt>
      <trkpt lat="42.83298" lon="0.18097">
        <ele>2473.13</ele>
        <time>2014-03-21T10:25:16Z</time>
      </trkpt>
      <trkpt lat="42.83299" lon="0.18098">
        <ele>2473.13</ele>
        <time>2014-03-21T10:25:31Z</time>
      </trkpt>
      <trkpt lat="42.83299" lon="0.18098">
        <ele>2473.13</ele>
        <time>2014-03-21T10:25:45Z</time>
      </trkpt>
      <trkpt lat="42.83299" lon="0.18097">
        <ele>2473.61</ele>
        <time>2014-03-21T10:25:59Z</time>
      </trkpt>
      <trkpt lat="42.83299" lon="0.18097">
        <ele>2473.61</ele>
        <time>2014-03-21T10:26:11Z</time>
      </trkpt>
      <trkpt lat="42.83299" lon="0.18097">
        <ele>2473.61</ele>
        <time>2014-03-21T10:26:30Z</time>
      </trkpt>
      <trkpt lat="42.83299" lon="0.18097">
        <ele>2473.61</ele>
        <time>2014-03-21T10:26:47Z</time>
      </trkpt>
      <trkpt lat="42.83299" lon="0.18098">
        <ele>2473.61</ele>
        <time>2014-03-21T10:27:02Z</time>
      </trkpt>
      <trkpt lat="42.83299" lon="0.18098">
        <ele>2473.61</ele>
        <time>2014-03-21T10:27:17Z</time>
      </trkpt>
      <trkpt lat="42.83303" lon="0.18099">
        <ele>2475.05</ele>
        <time>2014-03-21T10:27:32Z</time>
      </trkpt>
      <trkpt lat="42.83302" lon="0.18099">
        <ele>2475.05</ele>
        <time>2014-03-21T10:27:48Z</time>
      </trkpt>
      <trkpt lat="42.83302" lon="0.18099">
        <ele>2475.53</ele>
        <time>2014-03-21T10:28:05Z</time>
      </trkpt>
      <trkpt lat="42.83301" lon="0.18099">
        <ele>2475.53</ele>
        <time>2014-03-21T10:28:23Z</time>
      </trkpt>
      <trkpt lat="42.83301" lon="0.18099">
        <ele>2475.53</ele>
        <time>2014-03-21T10:28:38Z</time>
      </trkpt>
      <trkpt lat="42.83301" lon="0.18099">
        <ele>2475.53</ele>
        <time>2014-03-21T10:28:52Z</time>
      </trkpt>
      <trkpt lat="42.83301" lon="0.18099">
        <ele>2475.53</ele>
        <time>2014-03-21T10:29:06Z</time>
      </trkpt>
      <trkpt lat="42.83301" lon="0.18099">
        <ele>2476.01</ele>
        <time>2014-03-21T10:29:22Z</time>
      </trkpt>
      <trkpt lat="42.83301" lon="0.18099">
        <ele>2476.49</ele>
        <time>2014-03-21T10:29:39Z</time>
      </trkpt>
      <trkpt lat="42.833" lon="0.18099">
        <ele>2476.49</ele>
        <time>2014-03-21T10:29:55Z</time>
      </trkpt>
      <trkpt lat="42.833" lon="0.18099">
        <ele>2476.49</ele>
        <time>2014-03-21T10:30:09Z</time>
      </trkpt>
      <trkpt lat="42.833" lon="0.18099">
        <ele>2476.49</ele>
        <time>2014-03-21T10:30:23Z</time>
      </trkpt>
      <trkpt lat="42.833" lon="0.18099">
        <ele>2476.49</ele>
        <time>2014-03-21T10:30:37Z</time>
      </trkpt>
      <trkpt lat="42.833" lon="0.18098">
        <ele>2476.49</ele>
        <time>2014-03-21T10:30:53Z</time>
      </trkpt>
      <trkpt lat="42.833" lon="0.18098">
        <ele>2476.49</ele>
        <time>2014-03-21T10:31:08Z</time>
      </trkpt>
      <trkpt lat="42.833" lon="0.18099">
        <ele>2476.49</ele>
        <time>2014-03-21T10:31:23Z</time>
      </trkpt>
      <trkpt lat="42.833" lon="0.18099">
        <ele>2476.49</ele>
        <time>2014-03-21T10:31:36Z</time>
      </trkpt>
      <trkpt lat="42.833" lon="0.18099">
        <ele>2476.97</ele>
        <time>2014-03-21T10:31:49Z</time>
      </trkpt>
      <trkpt lat="42.833" lon="0.18099">
        <ele>2476.49</ele>
        <time>2014-03-21T10:32:07Z</time>
      </trkpt>
      <trkpt lat="42.833" lon="0.18099">
        <ele>2476.49</ele>
        <time>2014-03-21T10:32:24Z</time>
      </trkpt>
      <trkpt lat="42.833" lon="0.18099">
        <ele>2476.49</ele>
        <time>2014-03-21T10:32:44Z</time>
      </trkpt>
      <trkpt lat="42.833" lon="0.18099">
        <ele>2476.49</ele>
        <time>2014-03-21T10:32:57Z</time>
      </trkpt>
      <trkpt lat="42.833" lon="0.18099">
        <ele>2476.49</ele>
        <time>2014-03-21T10:33:09Z</time>
      </trkpt>
      <trkpt lat="42.83299" lon="0.18098">
        <ele>2476.01</ele>
        <time>2014-03-21T10:33:23Z</time>
      </trkpt>
      <trkpt lat="42.83299" lon="0.18098">
        <ele>2476.01</ele>
        <time>2014-03-21T10:33:36Z</time>
      </trkpt>
      <trkpt lat="42.83299" lon="0.18099">
        <ele>2476.01</ele>
        <time>2014-03-21T10:33:46Z</time>
      </trkpt>
      <trkpt lat="42.83301" lon="0.181">
        <ele>2475.05</ele>
        <time>2014-03-21T10:33:54Z</time>
      </trkpt>
      <trkpt lat="42.83301" lon="0.181">
        <ele>2475.05</ele>
        <time>2014-03-21T10:34:02Z</time>
      </trkpt>
      <trkpt lat="42.83302" lon="0.181">
        <ele>2475.05</ele>
        <time>2014-03-21T10:34:19Z</time>
      </trkpt>
      <trkpt lat="42.83302" lon="0.181">
        <ele>2474.09</ele>
        <time>2014-03-21T10:34:37Z</time>
      </trkpt>
      <trkpt lat="42.83302" lon="0.18099">
        <ele>2473.61</ele>
        <time>2014-03-21T10:34:46Z</time>
      </trkpt>
      <trkpt lat="42.83302" lon="0.18099">
        <ele>2473.61</ele>
        <time>2014-03-21T10:34:58Z</time>
      </trkpt>
      <trkpt lat="42.833" lon="0.181">
        <ele>2473.13</ele>
        <time>2014-03-21T10:35:13Z</time>
      </trkpt>
      <trkpt lat="42.83301" lon="0.181">
        <ele>2473.13</ele>
        <time>2014-03-21T10:35:26Z</time>
      </trkpt>
      <trkpt lat="42.833" lon="0.181">
        <ele>2472.65</ele>
        <time>2014-03-21T10:35:42Z</time>
      </trkpt>
      <trkpt lat="42.83299" lon="0.18099">
        <ele>2472.65</ele>
        <time>2014-03-21T10:35:53Z</time>
      </trkpt>
      <trkpt lat="42.833" lon="0.18099">
        <ele>2472.65</ele>
        <time>2014-03-21T10:36:07Z</time>
      </trkpt>
      <trkpt lat="42.833" lon="0.18099">
        <ele>2472.65</ele>
        <time>2014-03-21T10:36:19Z</time>
      </trkpt>
      <trkpt lat="42.83301" lon="0.181">
        <ele>2472.65</ele>
        <time>2014-03-21T10:36:36Z</time>
      </trkpt>
      <trkpt lat="42.83302" lon="0.181">
        <ele>2473.13</ele>
        <time>2014-03-21T10:36:56Z</time>
      </trkpt>
      <trkpt lat="42.83302" lon="0.181">
        <ele>2473.13</ele>
        <time>2014-03-21T10:37:17Z</time>
      </trkpt>
      <trkpt lat="42.83302" lon="0.181">
        <ele>2473.13</ele>
        <time>2014-03-21T10:37:33Z</time>
      </trkpt>
      <trkpt lat="42.83302" lon="0.181">
        <ele>2473.13</ele>
        <time>2014-03-21T10:37:53Z</time>
      </trkpt>
      <trkpt lat="42.83302" lon="0.181">
        <ele>2473.61</ele>
        <time>2014-03-21T10:38:09Z</time>
      </trkpt>
      <trkpt lat="42.83302" lon="0.181">
        <ele>2473.61</ele>
        <time>2014-03-21T10:38:25Z</time>
      </trkpt>
      <trkpt lat="42.83302" lon="0.181">
        <ele>2473.61</ele>
        <time>2014-03-21T10:38:41Z</time>
      </trkpt>
      <trkpt lat="42.83302" lon="0.181">
        <ele>2473.61</ele>
        <time>2014-03-21T10:38:57Z</time>
      </trkpt>
      <trkpt lat="42.83302" lon="0.181">
        <ele>2473.61</ele>
        <time>2014-03-21T10:39:11Z</time>
      </trkpt>
      <trkpt lat="42.83302" lon="0.181">
        <ele>2473.61</ele>
        <time>2014-03-21T10:39:22Z</time>
      </trkpt>
      <trkpt lat="42.833" lon="0.18101">
        <ele>2474.09</ele>
        <time>2014-03-21T10:39:33Z</time>
      </trkpt>
      <trkpt lat="42.833" lon="0.18106">
        <ele>2474.09</ele>
        <time>2014-03-21T10:39:44Z</time>
      </trkpt>
      <trkpt lat="42.833" lon="0.18105">
        <ele>2474.57</ele>
        <time>2014-03-21T10:39:59Z</time>
      </trkpt>
      <trkpt lat="42.833" lon="0.18105">
        <ele>2474.57</ele>
        <time>2014-03-21T10:40:11Z</time>
      </trkpt>
      <trkpt lat="42.83301" lon="0.18103">
        <ele>2474.09</ele>
        <time>2014-03-21T10:40:23Z</time>
      </trkpt>
      <trkpt lat="42.83301" lon="0.18101">
        <ele>2474.09</ele>
        <time>2014-03-21T10:40:36Z</time>
      </trkpt>
      <trkpt lat="42.83301" lon="0.18101">
        <ele>2474.57</ele>
        <time>2014-03-21T10:40:49Z</time>
      </trkpt>
      <trkpt lat="42.83301" lon="0.18101">
        <ele>2474.57</ele>
        <time>2014-03-21T10:41:07Z</time>
      </trkpt>
      <trkpt lat="42.83302" lon="0.18101">
        <ele>2474.09</ele>
        <time>2014-03-21T10:41:23Z</time>
      </trkpt>
      <trkpt lat="42.83302" lon="0.181">
        <ele>2474.09</ele>
        <time>2014-03-21T10:41:40Z</time>
      </trkpt>
      <trkpt lat="42.83302" lon="0.181">
        <ele>2474.09</ele>
        <time>2014-03-21T10:41:55Z</time>
      </trkpt>
      <trkpt lat="42.83302" lon="0.181">
        <ele>2474.57</ele>
        <time>2014-03-21T10:42:10Z</time>
      </trkpt>
      <trkpt lat="42.83302" lon="0.181">
        <ele>2474.57</ele>
        <time>2014-03-21T10:42:26Z</time>
      </trkpt>
      <trkpt lat="42.833" lon="0.18099">
        <ele>2473.61</ele>
        <time>2014-03-21T10:42:37Z</time>
      </trkpt>
      <trkpt lat="42.83301" lon="0.18101">
        <ele>2472.65</ele>
        <time>2014-03-21T10:42:52Z</time>
      </trkpt>
      <trkpt lat="42.83302" lon="0.18101">
        <ele>2472.65</ele>
        <time>2014-03-21T10:43:04Z</time>
      </trkpt>
      <trkpt lat="42.83302" lon="0.18101">
        <ele>2472.65</ele>
        <time>2014-03-21T10:43:17Z</time>
      </trkpt>
      <trkpt lat="42.83302" lon="0.18102">
        <ele>2472.65</ele>
        <time>2014-03-21T10:43:28Z</time>
      </trkpt>
      <trkpt lat="42.83302" lon="0.18103">
        <ele>2472.65</ele>
        <time>2014-03-21T10:43:42Z</time>
      </trkpt>
      <trkpt lat="42.83298" lon="0.18103">
        <ele>2469.76</ele>
        <time>2014-03-21T10:43:55Z</time>
      </trkpt>
      <trkpt lat="42.833" lon="0.18105">
        <ele>2468.8</ele>
        <time>2014-03-21T10:44:05Z</time>
      </trkpt>
      <trkpt lat="42.833" lon="0.18104">
        <ele>2468.8</ele>
        <time>2014-03-21T10:44:18Z</time>
      </trkpt>
      <trkpt lat="42.833" lon="0.18104">
        <ele>2469.28</ele>
        <time>2014-03-21T10:44:30Z</time>
      </trkpt>
      <trkpt lat="42.833" lon="0.18103">
        <ele>2469.28</ele>
        <time>2014-03-21T10:44:44Z</time>
      </trkpt>
      <trkpt lat="42.833" lon="0.18101">
        <ele>2469.28</ele>
        <time>2014-03-21T10:44:59Z</time>
      </trkpt>
      <trkpt lat="42.833" lon="0.18099">
        <ele>2469.28</ele>
        <time>2014-03-21T10:45:13Z</time>
      </trkpt>
      <trkpt lat="42.83302" lon="0.18097">
        <ele>2468.8</ele>
        <time>2014-03-21T10:45:26Z</time>
      </trkpt>
      <trkpt lat="42.83302" lon="0.18097">
        <ele>2468.8</ele>
        <time>2014-03-21T10:45:38Z</time>
      </trkpt>
      <trkpt lat="42.83302" lon="0.18097">
        <ele>2468.8</ele>
        <time>2014-03-21T10:45:51Z</time>
      </trkpt>
      <trkpt lat="42.833" lon="0.18099">
        <ele>2468.8</ele>
        <time>2014-03-21T10:46:02Z</time>
      </trkpt>
      <trkpt lat="42.833" lon="0.18099">
        <ele>2469.28</ele>
        <time>2014-03-21T10:46:18Z</time>
      </trkpt>
      <trkpt lat="42.833" lon="0.181">
        <ele>2469.76</ele>
        <time>2014-03-21T10:46:31Z</time>
      </trkpt>
      <trkpt lat="42.83299" lon="0.18099">
        <ele>2470.24</ele>
        <time>2014-03-21T10:46:38Z</time>
      </trkpt>
      <trkpt lat="42.83298" lon="0.18099">
        <ele>2471.69</ele>
        <time>2014-03-21T10:46:45Z</time>
      </trkpt>
      <trkpt lat="42.83298" lon="0.18098">
        <ele>2471.69</ele>
        <time>2014-03-21T10:47:00Z</time>
      </trkpt>
      <trkpt lat="42.83298" lon="0.18099">
        <ele>2471.69</ele>
        <time>2014-03-21T10:47:15Z</time>
      </trkpt>
      <trkpt lat="42.83299" lon="0.18098">
        <ele>2471.69</ele>
        <time>2014-03-21T10:47:28Z</time>
      </trkpt>
      <trkpt lat="42.83299" lon="0.18098">
        <ele>2472.17</ele>
        <time>2014-03-21T10:47:42Z</time>
      </trkpt>
      <trkpt lat="42.83299" lon="0.18097">
        <ele>2472.17</ele>
        <time>2014-03-21T10:47:55Z</time>
      </trkpt>
      <trkpt lat="42.83298" lon="0.18098">
        <ele>2472.65</ele>
        <time>2014-03-21T10:48:05Z</time>
      </trkpt>
      <trkpt lat="42.83296" lon="0.18098">
        <ele>2472.17</ele>
        <time>2014-03-21T10:48:12Z</time>
      </trkpt>
      <trkpt lat="42.83296" lon="0.18098">
        <ele>2471.69</ele>
        <time>2014-03-21T10:48:21Z</time>
      </trkpt>
      <trkpt lat="42.83296" lon="0.18099">
        <ele>2471.69</ele>
        <time>2014-03-21T10:48:39Z</time>
      </trkpt>
      <trkpt lat="42.83296" lon="0.18099">
        <ele>2471.69</ele>
        <time>2014-03-21T10:48:53Z</time>
      </trkpt>
      <trkpt lat="42.83296" lon="0.18099">
        <ele>2471.69</ele>
        <time>2014-03-21T10:49:09Z</time>
      </trkpt>
      <trkpt lat="42.83296" lon="0.18099">
        <ele>2471.69</ele>
        <time>2014-03-21T10:49:27Z</time>
      </trkpt>
      <trkpt lat="42.83296" lon="0.18099">
        <ele>2472.17</ele>
        <time>2014-03-21T10:49:44Z</time>
      </trkpt>
      <trkpt lat="42.83296" lon="0.18099">
        <ele>2472.17</ele>
        <time>2014-03-21T10:50:00Z</time>
      </trkpt>
      <trkpt lat="42.83296" lon="0.18099">
        <ele>2472.17</ele>
        <time>2014-03-21T10:50:15Z</time>
      </trkpt>
      <trkpt lat="42.83296" lon="0.18099">
        <ele>2472.17</ele>
        <time>2014-03-21T10:50:27Z</time>
      </trkpt>
      <trkpt lat="42.83296" lon="0.18099">
        <ele>2472.65</ele>
        <time>2014-03-21T10:50:38Z</time>
      </trkpt>
      <trkpt lat="42.83296" lon="0.18099">
        <ele>2472.65</ele>
        <time>2014-03-21T10:50:49Z</time>
      </trkpt>
      <trkpt lat="42.83296" lon="0.18099">
        <ele>2472.65</ele>
        <time>2014-03-21T10:51:00Z</time>
      </trkpt>
      <trkpt lat="42.83296" lon="0.18099">
        <ele>2472.65</ele>
        <time>2014-03-21T10:51:13Z</time>
      </trkpt>
      <trkpt lat="42.83295" lon="0.18099">
        <ele>2472.65</ele>
        <time>2014-03-21T10:51:27Z</time>
      </trkpt>
      <trkpt lat="42.83295" lon="0.18099">
        <ele>2472.65</ele>
        <time>2014-03-21T10:51:42Z</time>
      </trkpt>
      <trkpt lat="42.83295" lon="0.18099">
        <ele>2472.65</ele>
        <time>2014-03-21T10:51:54Z</time>
      </trkpt>
      <trkpt lat="42.83295" lon="0.18099">
        <ele>2472.65</ele>
        <time>2014-03-21T10:52:10Z</time>
      </trkpt>
      <trkpt lat="42.83295" lon="0.181">
        <ele>2472.65</ele>
        <time>2014-03-21T10:52:26Z</time>
      </trkpt>
      <trkpt lat="42.83295" lon="0.18099">
        <ele>2472.17</ele>
        <time>2014-03-21T10:52:42Z</time>
      </trkpt>
      <trkpt lat="42.83295" lon="0.18099">
        <ele>2472.17</ele>
        <time>2014-03-21T10:53:00Z</time>
      </trkpt>
      <trkpt lat="42.83295" lon="0.18099">
        <ele>2472.17</ele>
        <time>2014-03-21T10:53:12Z</time>
      </trkpt>
      <trkpt lat="42.83295" lon="0.18099">
        <ele>2471.69</ele>
        <time>2014-03-21T10:53:26Z</time>
      </trkpt>
      <trkpt lat="42.83295" lon="0.181">
        <ele>2471.69</ele>
        <time>2014-03-21T10:53:44Z</time>
      </trkpt>
      <trkpt lat="42.83295" lon="0.181">
        <ele>2471.69</ele>
        <time>2014-03-21T10:53:57Z</time>
      </trkpt>
      <trkpt lat="42.83295" lon="0.181">
        <ele>2471.69</ele>
        <time>2014-03-21T10:54:13Z</time>
      </trkpt>
      <trkpt lat="42.83295" lon="0.181">
        <ele>2471.69</ele>
        <time>2014-03-21T10:54:31Z</time>
      </trkpt>
      <trkpt lat="42.83295" lon="0.181">
        <ele>2472.17</ele>
        <time>2014-03-21T10:54:47Z</time>
      </trkpt>
      <trkpt lat="42.83295" lon="0.181">
        <ele>2471.69</ele>
        <time>2014-03-21T10:54:57Z</time>
      </trkpt>
      <trkpt lat="42.83295" lon="0.181">
        <ele>2471.69</ele>
        <time>2014-03-21T10:55:10Z</time>
      </trkpt>
      <trkpt lat="42.83295" lon="0.181">
        <ele>2471.69</ele>
        <time>2014-03-21T10:55:26Z</time>
      </trkpt>
      <trkpt lat="42.83295" lon="0.181">
        <ele>2471.69</ele>
        <time>2014-03-21T10:55:41Z</time>
      </trkpt>
      <trkpt lat="42.83295" lon="0.18101">
        <ele>2471.21</ele>
        <time>2014-03-21T10:55:50Z</time>
      </trkpt>
      <trkpt lat="42.83295" lon="0.18101">
        <ele>2471.21</ele>
        <time>2014-03-21T10:55:58Z</time>
      </trkpt>
      <trkpt lat="42.83295" lon="0.18101">
        <ele>2470.73</ele>
        <time>2014-03-21T10:56:09Z</time>
      </trkpt>
      <trkpt lat="42.83296" lon="0.18105">
        <ele>2470.24</ele>
        <time>2014-03-21T10:56:14Z</time>
      </trkpt>
      <trkpt lat="42.83299" lon="0.18111">
        <ele>2468.32</ele>
        <time>2014-03-21T10:56:18Z</time>
      </trkpt>
      <trkpt lat="42.83299" lon="0.18114">
        <ele>2467.36</ele>
        <time>2014-03-21T10:56:25Z</time>
      </trkpt>
      <trkpt lat="42.83302" lon="0.18116">
        <ele>2466.88</ele>
        <time>2014-03-21T10:56:26Z</time>
      </trkpt>
      <trkpt lat="42.83302" lon="0.18126">
        <ele>2463.52</ele>
        <time>2014-03-21T10:56:30Z</time>
      </trkpt>
      <trkpt lat="42.8331" lon="0.18133">
        <ele>2459.19</ele>
        <time>2014-03-21T10:56:34Z</time>
      </trkpt>
      <trkpt lat="42.83312" lon="0.18132">
        <ele>2456.79</ele>
        <time>2014-03-21T10:56:39Z</time>
      </trkpt>
      <trkpt lat="42.83314" lon="0.1813">
        <ele>2454.38</ele>
        <time>2014-03-21T10:56:45Z</time>
      </trkpt>
      <trkpt lat="42.83322" lon="0.18123">
        <ele>2453.42</ele>
        <time>2014-03-21T10:56:52Z</time>
      </trkpt>
      <trkpt lat="42.83326" lon="0.18123">
        <ele>2452.46</ele>
        <time>2014-03-21T10:56:58Z</time>
      </trkpt>
      <trkpt lat="42.83326" lon="0.18123">
        <ele>2452.46</ele>
        <time>2014-03-21T10:57:09Z</time>
      </trkpt>
      <trkpt lat="42.83326" lon="0.18123">
        <ele>2452.94</ele>
        <time>2014-03-21T10:57:22Z</time>
      </trkpt>
      <trkpt lat="42.83326" lon="0.18124">
        <ele>2452.94</ele>
        <time>2014-03-21T10:57:34Z</time>
      </trkpt>
      <trkpt lat="42.83326" lon="0.18124">
        <ele>2453.42</ele>
        <time>2014-03-21T10:57:44Z</time>
      </trkpt>
      <trkpt lat="42.83326" lon="0.18124">
        <ele>2453.9</ele>
        <time>2014-03-21T10:57:56Z</time>
      </trkpt>
      <trkpt lat="42.83326" lon="0.18123">
        <ele>2454.86</ele>
        <time>2014-03-21T10:58:11Z</time>
      </trkpt>
      <trkpt lat="42.83326" lon="0.18123">
        <ele>2455.34</ele>
        <time>2014-03-21T10:58:25Z</time>
      </trkpt>
      <trkpt lat="42.83326" lon="0.18123">
        <ele>2455.34</ele>
        <time>2014-03-21T10:58:41Z</time>
      </trkpt>
      <trkpt lat="42.83326" lon="0.18123">
        <ele>2454.86</ele>
        <time>2014-03-21T10:58:58Z</time>
      </trkpt>
      <trkpt lat="42.83326" lon="0.18123">
        <ele>2454.86</ele>
        <time>2014-03-21T10:59:03Z</time>
      </trkpt>
      <trkpt lat="42.83328" lon="0.18128">
        <ele>2454.86</ele>
        <time>2014-03-21T10:59:05Z</time>
      </trkpt>
      <trkpt lat="42.83331" lon="0.18146">
        <ele>2453.9</ele>
        <time>2014-03-21T10:59:08Z</time>
      </trkpt>
      <trkpt lat="42.83342" lon="0.18169">
        <ele>2450.06</ele>
        <time>2014-03-21T10:59:12Z</time>
      </trkpt>
      <trkpt lat="42.83353" lon="0.1818">
        <ele>2445.73</ele>
        <time>2014-03-21T10:59:15Z</time>
      </trkpt>
      <trkpt lat="42.83361" lon="0.18188">
        <ele>2442.85</ele>
        <time>2014-03-21T10:59:17Z</time>
      </trkpt>
      <trkpt lat="42.83374" lon="0.18208">
        <ele>2437.56</ele>
        <time>2014-03-21T10:59:21Z</time>
      </trkpt>
      <trkpt lat="42.83381" lon="0.18217">
        <ele>2434.68</ele>
        <time>2014-03-21T10:59:23Z</time>
      </trkpt>
      <trkpt lat="42.83387" lon="0.18228">
        <ele>2432.27</ele>
        <time>2014-03-21T10:59:25Z</time>
      </trkpt>
      <trkpt lat="42.83395" lon="0.18224">
        <ele>2425.54</ele>
        <time>2014-03-21T10:59:31Z</time>
      </trkpt>
      <trkpt lat="42.83396" lon="0.18223">
        <ele>2424.58</ele>
        <time>2014-03-21T10:59:33Z</time>
      </trkpt>
      <trkpt lat="42.83403" lon="0.1823">
        <ele>2423.14</ele>
        <time>2014-03-21T10:59:37Z</time>
      </trkpt>
      <trkpt lat="42.83406" lon="0.18233">
        <ele>2423.14</ele>
        <time>2014-03-21T10:59:43Z</time>
      </trkpt>
      <trkpt lat="42.83407" lon="0.18231">
        <ele>2422.18</ele>
        <time>2014-03-21T10:59:51Z</time>
      </trkpt>
      <trkpt lat="42.83407" lon="0.1823">
        <ele>2422.18</ele>
        <time>2014-03-21T11:00:02Z</time>
      </trkpt>
      <trkpt lat="42.83408" lon="0.1823">
        <ele>2422.18</ele>
        <time>2014-03-21T11:00:22Z</time>
      </trkpt>
      <trkpt lat="42.83408" lon="0.1823">
        <ele>2422.18</ele>
        <time>2014-03-21T11:00:39Z</time>
      </trkpt>
      <trkpt lat="42.83408" lon="0.1823">
        <ele>2422.18</ele>
        <time>2014-03-21T11:00:55Z</time>
      </trkpt>
      <trkpt lat="42.83408" lon="0.1823">
        <ele>2421.7</ele>
        <time>2014-03-21T11:01:12Z</time>
      </trkpt>
      <trkpt lat="42.83408" lon="0.1823">
        <ele>2421.22</ele>
        <time>2014-03-21T11:01:31Z</time>
      </trkpt>
      <trkpt lat="42.83408" lon="0.1823">
        <ele>2421.22</ele>
        <time>2014-03-21T11:01:49Z</time>
      </trkpt>
      <trkpt lat="42.83408" lon="0.1823">
        <ele>2421.22</ele>
        <time>2014-03-21T11:02:05Z</time>
      </trkpt>
      <trkpt lat="42.83408" lon="0.1823">
        <ele>2421.22</ele>
        <time>2014-03-21T11:02:06Z</time>
      </trkpt>
      <trkpt lat="42.83409" lon="0.18236">
        <ele>2421.22</ele>
        <time>2014-03-21T11:02:13Z</time>
      </trkpt>
      <trkpt lat="42.83407" lon="0.18251">
        <ele>2420.74</ele>
        <time>2014-03-21T11:02:18Z</time>
      </trkpt>
      <trkpt lat="42.83406" lon="0.18256">
        <ele>2420.26</ele>
        <time>2014-03-21T11:02:19Z</time>
      </trkpt>
      <trkpt lat="42.83411" lon="0.18287">
        <ele>2417.37</ele>
        <time>2014-03-21T11:02:24Z</time>
      </trkpt>
      <trkpt lat="42.83428" lon="0.18295">
        <ele>2414.01</ele>
        <time>2014-03-21T11:02:28Z</time>
      </trkpt>
      <trkpt lat="42.83445" lon="0.18287">
        <ele>2410.64</ele>
        <time>2014-03-21T11:02:32Z</time>
      </trkpt>
      <trkpt lat="42.83452" lon="0.18278">
        <ele>2408.72</ele>
        <time>2014-03-21T11:02:35Z</time>
      </trkpt>
      <trkpt lat="42.83466" lon="0.18256">
        <ele>2404.88</ele>
        <time>2014-03-21T11:02:43Z</time>
      </trkpt>
      <trkpt lat="42.83474" lon="0.1826">
        <ele>2402.47</ele>
        <time>2014-03-21T11:02:47Z</time>
      </trkpt>
      <trkpt lat="42.83485" lon="0.18284">
        <ele>2399.59</ele>
        <time>2014-03-21T11:02:54Z</time>
      </trkpt>
      <trkpt lat="42.83487" lon="0.18298">
        <ele>2398.15</ele>
        <time>2014-03-21T11:02:57Z</time>
      </trkpt>
      <trkpt lat="42.83483" lon="0.18312">
        <ele>2396.22</ele>
        <time>2014-03-21T11:03:04Z</time>
      </trkpt>
      <trkpt lat="42.83483" lon="0.18315">
        <ele>2394.3</ele>
        <time>2014-03-21T11:03:20Z</time>
      </trkpt>
      <trkpt lat="42.83483" lon="0.18316">
        <ele>2393.82</ele>
        <time>2014-03-21T11:03:33Z</time>
      </trkpt>
      <trkpt lat="42.83478" lon="0.18335">
        <ele>2392.38</ele>
        <time>2014-03-21T11:03:39Z</time>
      </trkpt>
      <trkpt lat="42.83474" lon="0.1834">
        <ele>2391.42</ele>
        <time>2014-03-21T11:03:41Z</time>
      </trkpt>
      <trkpt lat="42.83469" lon="0.18345">
        <ele>2389.49</ele>
        <time>2014-03-21T11:03:48Z</time>
      </trkpt>
      <trkpt lat="42.8346" lon="0.18353">
        <ele>2388.05</ele>
        <time>2014-03-21T11:03:54Z</time>
      </trkpt>
      <trkpt lat="42.83446" lon="0.18367">
        <ele>2385.17</ele>
        <time>2014-03-21T11:03:59Z</time>
      </trkpt>
      <trkpt lat="42.8345" lon="0.18385">
        <ele>2379.88</ele>
        <time>2014-03-21T11:04:03Z</time>
      </trkpt>
      <trkpt lat="42.83451" lon="0.1839">
        <ele>2378.44</ele>
        <time>2014-03-21T11:04:04Z</time>
      </trkpt>
      <trkpt lat="42.83451" lon="0.184">
        <ele>2372.19</ele>
        <time>2014-03-21T11:04:09Z</time>
      </trkpt>
      <trkpt lat="42.83449" lon="0.18399">
        <ele>2370.27</ele>
        <time>2014-03-21T11:04:18Z</time>
      </trkpt>
      <trkpt lat="42.83449" lon="0.184">
        <ele>2369.31</ele>
        <time>2014-03-21T11:04:37Z</time>
      </trkpt>
      <trkpt lat="42.83449" lon="0.184">
        <ele>2368.35</ele>
        <time>2014-03-21T11:04:53Z</time>
      </trkpt>
      <trkpt lat="42.83449" lon="0.184">
        <ele>2367.86</ele>
        <time>2014-03-21T11:05:11Z</time>
      </trkpt>
      <trkpt lat="42.83449" lon="0.184">
        <ele>2367.86</ele>
        <time>2014-03-21T11:05:18Z</time>
      </trkpt>
      <trkpt lat="42.83443" lon="0.18409">
        <ele>2366.42</ele>
        <time>2014-03-21T11:05:22Z</time>
      </trkpt>
      <trkpt lat="42.83424" lon="0.18424">
        <ele>2362.58</ele>
        <time>2014-03-21T11:05:29Z</time>
      </trkpt>
      <trkpt lat="42.83423" lon="0.18448">
        <ele>2358.25</ele>
        <time>2014-03-21T11:05:34Z</time>
      </trkpt>
      <trkpt lat="42.83415" lon="0.18461">
        <ele>2354.89</ele>
        <time>2014-03-21T11:05:37Z</time>
      </trkpt>
      <trkpt lat="42.83415" lon="0.18484">
        <ele>2349.12</ele>
        <time>2014-03-21T11:05:41Z</time>
      </trkpt>
      <trkpt lat="42.83417" lon="0.18501">
        <ele>2342.87</ele>
        <time>2014-03-21T11:05:45Z</time>
      </trkpt>
      <trkpt lat="42.83418" lon="0.18516">
        <ele>2336.14</ele>
        <time>2014-03-21T11:05:49Z</time>
      </trkpt>
      <trkpt lat="42.83424" lon="0.18515">
        <ele>2327.49</ele>
        <time>2014-03-21T11:05:54Z</time>
      </trkpt>
      <trkpt lat="42.83425" lon="0.18508">
        <ele>2309.7</ele>
        <time>2014-03-21T11:06:05Z</time>
      </trkpt>
      <trkpt lat="42.83427" lon="0.18509">
        <ele>2301.53</ele>
        <time>2014-03-21T11:06:18Z</time>
      </trkpt>
      <trkpt lat="42.83427" lon="0.18508">
        <ele>2300.57</ele>
        <time>2014-03-21T11:06:36Z</time>
      </trkpt>
      <trkpt lat="42.83426" lon="0.18508">
        <ele>2299.61</ele>
        <time>2014-03-21T11:06:57Z</time>
      </trkpt>
      <trkpt lat="42.83427" lon="0.18507">
        <ele>2299.61</ele>
        <time>2014-03-21T11:07:13Z</time>
      </trkpt>
      <trkpt lat="42.83426" lon="0.18508">
        <ele>2299.61</ele>
        <time>2014-03-21T11:07:21Z</time>
      </trkpt>
      <trkpt lat="42.83437" lon="0.18516">
        <ele>2298.17</ele>
        <time>2014-03-21T11:07:26Z</time>
      </trkpt>
      <trkpt lat="42.83445" lon="0.18524">
        <ele>2295.77</ele>
        <time>2014-03-21T11:07:30Z</time>
      </trkpt>
      <trkpt lat="42.83443" lon="0.18524">
        <ele>2294.8</ele>
        <time>2014-03-21T11:07:37Z</time>
      </trkpt>
      <trkpt lat="42.83447" lon="0.18527">
        <ele>2289.52</ele>
        <time>2014-03-21T11:07:43Z</time>
      </trkpt>
      <trkpt lat="42.83448" lon="0.18527">
        <ele>2287.59</ele>
        <time>2014-03-21T11:07:46Z</time>
      </trkpt>
      <trkpt lat="42.83457" lon="0.18522">
        <ele>2284.23</ele>
        <time>2014-03-21T11:07:52Z</time>
      </trkpt>
      <trkpt lat="42.83467" lon="0.18516">
        <ele>2282.31</ele>
        <time>2014-03-21T11:07:57Z</time>
      </trkpt>
      <trkpt lat="42.83485" lon="0.18518">
        <ele>2279.9</ele>
        <time>2014-03-21T11:08:00Z</time>
      </trkpt>
      <trkpt lat="42.83522" lon="0.18517">
        <ele>2276.06</ele>
        <time>2014-03-21T11:08:06Z</time>
      </trkpt>
      <trkpt lat="42.83535" lon="0.18524">
        <ele>2274.14</ele>
        <time>2014-03-21T11:08:09Z</time>
      </trkpt>
      <trkpt lat="42.83544" lon="0.18554">
        <ele>2271.73</ele>
        <time>2014-03-21T11:08:14Z</time>
      </trkpt>
      <trkpt lat="42.83544" lon="0.18559">
        <ele>2268.85</ele>
        <time>2014-03-21T11:08:19Z</time>
      </trkpt>
      <trkpt lat="42.83543" lon="0.18558">
        <ele>2265.96</ele>
        <time>2014-03-21T11:08:31Z</time>
      </trkpt>
      <trkpt lat="42.83542" lon="0.18556">
        <ele>2264.52</ele>
        <time>2014-03-21T11:08:46Z</time>
      </trkpt>
      <trkpt lat="42.8354" lon="0.18556">
        <ele>2260.68</ele>
        <time>2014-03-21T11:08:59Z</time>
      </trkpt>
      <trkpt lat="42.83541" lon="0.18558">
        <ele>2259.24</ele>
        <time>2014-03-21T11:09:06Z</time>
      </trkpt>
      <trkpt lat="42.83552" lon="0.18555">
        <ele>2257.79</ele>
        <time>2014-03-21T11:09:11Z</time>
      </trkpt>
      <trkpt lat="42.83559" lon="0.18547">
        <ele>2255.39</ele>
        <time>2014-03-21T11:09:19Z</time>
      </trkpt>
      <trkpt lat="42.83564" lon="0.18543">
        <ele>2254.43</ele>
        <time>2014-03-21T11:09:22Z</time>
      </trkpt>
      <trkpt lat="42.83574" lon="0.18545">
        <ele>2252.51</ele>
        <time>2014-03-21T11:09:25Z</time>
      </trkpt>
      <trkpt lat="42.83583" lon="0.18553">
        <ele>2250.1</ele>
        <time>2014-03-21T11:09:29Z</time>
      </trkpt>
      <trkpt lat="42.83587" lon="0.18555">
        <ele>2248.18</ele>
        <time>2014-03-21T11:09:32Z</time>
      </trkpt>
      <trkpt lat="42.83602" lon="0.18541">
        <ele>2244.82</ele>
        <time>2014-03-21T11:09:37Z</time>
      </trkpt>
      <trkpt lat="42.83605" lon="0.18538">
        <ele>2244.33</ele>
        <time>2014-03-21T11:09:38Z</time>
      </trkpt>
      <trkpt lat="42.83624" lon="0.18537">
        <ele>2242.89</ele>
        <time>2014-03-21T11:09:42Z</time>
      </trkpt>
      <trkpt lat="42.83657" lon="0.18563">
        <ele>2241.45</ele>
        <time>2014-03-21T11:09:48Z</time>
      </trkpt>
      <trkpt lat="42.83663" lon="0.1857">
        <ele>2241.45</ele>
        <time>2014-03-21T11:09:49Z</time>
      </trkpt>
      <trkpt lat="42.83684" lon="0.18596">
        <ele>2240.01</ele>
        <time>2014-03-21T11:09:53Z</time>
      </trkpt>
      <trkpt lat="42.8368" lon="0.18616">
        <ele>2236.16</ele>
        <time>2014-03-21T11:09:57Z</time>
      </trkpt>
      <trkpt lat="42.83669" lon="0.18609">
        <ele>2224.63</ele>
        <time>2014-03-21T11:10:08Z</time>
      </trkpt>
      <trkpt lat="42.83667" lon="0.18609">
        <ele>2219.82</ele>
        <time>2014-03-21T11:10:19Z</time>
      </trkpt>
      <trkpt lat="42.83662" lon="0.18611">
        <ele>2214.53</ele>
        <time>2014-03-21T11:10:34Z</time>
      </trkpt>
      <trkpt lat="42.83661" lon="0.18613">
        <ele>2211.65</ele>
        <time>2014-03-21T11:10:51Z</time>
      </trkpt>
      <trkpt lat="42.83662" lon="0.18617">
        <ele>2207.81</ele>
        <time>2014-03-21T11:10:59Z</time>
      </trkpt>
      <trkpt lat="42.83662" lon="0.18618">
        <ele>2205.4</ele>
        <time>2014-03-21T11:11:04Z</time>
      </trkpt>
      <trkpt lat="42.83664" lon="0.18629">
        <ele>2203.96</ele>
        <time>2014-03-21T11:11:08Z</time>
      </trkpt>
      <trkpt lat="42.83671" lon="0.18634">
        <ele>2202.52</ele>
        <time>2014-03-21T11:11:11Z</time>
      </trkpt>
      <trkpt lat="42.83684" lon="0.18642">
        <ele>2199.63</ele>
        <time>2014-03-21T11:11:15Z</time>
      </trkpt>
      <trkpt lat="42.83698" lon="0.18658">
        <ele>2195.79</ele>
        <time>2014-03-21T11:11:19Z</time>
      </trkpt>
      <trkpt lat="42.83715" lon="0.18673">
        <ele>2195.31</ele>
        <time>2014-03-21T11:11:23Z</time>
      </trkpt>
      <trkpt lat="42.83726" lon="0.18667">
        <ele>2193.87</ele>
        <time>2014-03-21T11:11:29Z</time>
      </trkpt>
      <trkpt lat="42.83736" lon="0.18658">
        <ele>2192.42</ele>
        <time>2014-03-21T11:11:35Z</time>
      </trkpt>
      <trkpt lat="42.83748" lon="0.18626">
        <ele>2186.18</ele>
        <time>2014-03-21T11:11:40Z</time>
      </trkpt>
      <trkpt lat="42.8375" lon="0.18615">
        <ele>2180.89</ele>
        <time>2014-03-21T11:11:44Z</time>
      </trkpt>
      <trkpt lat="42.83749" lon="0.1861">
        <ele>2174.64</ele>
        <time>2014-03-21T11:11:54Z</time>
      </trkpt>
      <trkpt lat="42.8375" lon="0.18608">
        <ele>2173.2</ele>
        <time>2014-03-21T11:12:02Z</time>
      </trkpt>
      <trkpt lat="42.83752" lon="0.18607">
        <ele>2170.79</ele>
        <time>2014-03-21T11:12:19Z</time>
      </trkpt>
      <trkpt lat="42.83752" lon="0.18606">
        <ele>2169.83</ele>
        <time>2014-03-21T11:12:32Z</time>
      </trkpt>
      <trkpt lat="42.83752" lon="0.18606">
        <ele>2169.83</ele>
        <time>2014-03-21T11:12:43Z</time>
      </trkpt>
      <trkpt lat="42.83752" lon="0.18606">
        <ele>2169.35</ele>
        <time>2014-03-21T11:12:58Z</time>
      </trkpt>
      <trkpt lat="42.83752" lon="0.18606">
        <ele>2168.87</ele>
        <time>2014-03-21T11:13:13Z</time>
      </trkpt>
      <trkpt lat="42.83752" lon="0.18606">
        <ele>2168.39</ele>
        <time>2014-03-21T11:13:28Z</time>
      </trkpt>
      <trkpt lat="42.83752" lon="0.18607">
        <ele>2168.39</ele>
        <time>2014-03-21T11:13:42Z</time>
      </trkpt>
      <trkpt lat="42.83752" lon="0.18607">
        <ele>2167.43</ele>
        <time>2014-03-21T11:13:57Z</time>
      </trkpt>
      <trkpt lat="42.83752" lon="0.18607">
        <ele>2166.47</ele>
        <time>2014-03-21T11:14:11Z</time>
      </trkpt>
      <trkpt lat="42.83752" lon="0.18608">
        <ele>2165.99</ele>
        <time>2014-03-21T11:14:25Z</time>
      </trkpt>
      <trkpt lat="42.83752" lon="0.18608">
        <ele>2165.51</ele>
        <time>2014-03-21T11:14:38Z</time>
      </trkpt>
      <trkpt lat="42.83752" lon="0.18608">
        <ele>2165.51</ele>
        <time>2014-03-21T11:14:52Z</time>
      </trkpt>
      <trkpt lat="42.83751" lon="0.18608">
        <ele>2164.55</ele>
        <time>2014-03-21T11:15:06Z</time>
      </trkpt>
      <trkpt lat="42.83751" lon="0.18607">
        <ele>2164.06</ele>
        <time>2014-03-21T11:15:19Z</time>
      </trkpt>
      <trkpt lat="42.83751" lon="0.18607">
        <ele>2163.58</ele>
        <time>2014-03-21T11:15:32Z</time>
      </trkpt>
      <trkpt lat="42.83749" lon="0.18604">
        <ele>2163.58</ele>
        <time>2014-03-21T11:15:44Z</time>
      </trkpt>
      <trkpt lat="42.8375" lon="0.18609">
        <ele>2163.58</ele>
        <time>2014-03-21T11:15:57Z</time>
      </trkpt>
      <trkpt lat="42.83751" lon="0.18608">
        <ele>2163.58</ele>
        <time>2014-03-21T11:16:07Z</time>
      </trkpt>
      <trkpt lat="42.8375" lon="0.18611">
        <ele>2163.1</ele>
        <time>2014-03-21T11:16:17Z</time>
      </trkpt>
      <trkpt lat="42.8375" lon="0.18612">
        <ele>2163.1</ele>
        <time>2014-03-21T11:16:29Z</time>
      </trkpt>
      <trkpt lat="42.83751" lon="0.1861">
        <ele>2162.14</ele>
        <time>2014-03-21T11:16:34Z</time>
      </trkpt>
      <trkpt lat="42.8375" lon="0.18609">
        <ele>2161.18</ele>
        <time>2014-03-21T11:16:41Z</time>
      </trkpt>
      <trkpt lat="42.83751" lon="0.18609">
        <ele>2160.7</ele>
        <time>2014-03-21T11:16:52Z</time>
      </trkpt>
      <trkpt lat="42.83752" lon="0.18609">
        <ele>2160.7</ele>
        <time>2014-03-21T11:17:03Z</time>
      </trkpt>
      <trkpt lat="42.83751" lon="0.18608">
        <ele>2159.26</ele>
        <time>2014-03-21T11:17:13Z</time>
      </trkpt>
      <trkpt lat="42.83751" lon="0.18608">
        <ele>2159.26</ele>
        <time>2014-03-21T11:17:23Z</time>
      </trkpt>
      <trkpt lat="42.83752" lon="0.18609">
        <ele>2158.78</ele>
        <time>2014-03-21T11:17:34Z</time>
      </trkpt>
      <trkpt lat="42.83752" lon="0.18608">
        <ele>2158.78</ele>
        <time>2014-03-21T11:17:44Z</time>
      </trkpt>
      <trkpt lat="42.83752" lon="0.18609">
        <ele>2158.3</ele>
        <time>2014-03-21T11:17:58Z</time>
      </trkpt>
      <trkpt lat="42.83752" lon="0.18609">
        <ele>2158.3</ele>
        <time>2014-03-21T11:18:09Z</time>
      </trkpt>
      <trkpt lat="42.83752" lon="0.18609">
        <ele>2157.82</ele>
        <time>2014-03-21T11:18:22Z</time>
      </trkpt>
      <trkpt lat="42.83752" lon="0.18609">
        <ele>2157.82</ele>
        <time>2014-03-21T11:18:35Z</time>
      </trkpt>
      <trkpt lat="42.83752" lon="0.18609">
        <ele>2157.34</ele>
        <time>2014-03-21T11:18:47Z</time>
      </trkpt>
      <trkpt lat="42.83752" lon="0.18609">
        <ele>2157.34</ele>
        <time>2014-03-21T11:18:58Z</time>
      </trkpt>
      <trkpt lat="42.83753" lon="0.18609">
        <ele>2157.34</ele>
        <time>2014-03-21T11:19:11Z</time>
      </trkpt>
      <trkpt lat="42.83753" lon="0.1861">
        <ele>2156.86</ele>
        <time>2014-03-21T11:19:22Z</time>
      </trkpt>
      <trkpt lat="42.83753" lon="0.1861">
        <ele>2156.86</ele>
        <time>2014-03-21T11:19:36Z</time>
      </trkpt>
      <trkpt lat="42.83752" lon="0.18608">
        <ele>2157.34</ele>
        <time>2014-03-21T11:19:51Z</time>
      </trkpt>
      <trkpt lat="42.8375" lon="0.18609">
        <ele>2157.82</ele>
        <time>2014-03-21T11:19:59Z</time>
      </trkpt>
      <trkpt lat="42.8375" lon="0.1861">
        <ele>2157.34</ele>
        <time>2014-03-21T11:20:12Z</time>
      </trkpt>
      <trkpt lat="42.8375" lon="0.1861">
        <ele>2156.37</ele>
        <time>2014-03-21T11:20:24Z</time>
      </trkpt>
      <trkpt lat="42.8375" lon="0.18611">
        <ele>2156.37</ele>
        <time>2014-03-21T11:20:41Z</time>
      </trkpt>
      <trkpt lat="42.83751" lon="0.18611">
        <ele>2156.37</ele>
        <time>2014-03-21T11:20:56Z</time>
      </trkpt>
      <trkpt lat="42.83751" lon="0.18611">
        <ele>2156.37</ele>
        <time>2014-03-21T11:21:12Z</time>
      </trkpt>
      <trkpt lat="42.83751" lon="0.18611">
        <ele>2156.37</ele>
        <time>2014-03-21T11:21:27Z</time>
      </trkpt>
      <trkpt lat="42.83751" lon="0.18611">
        <ele>2157.34</ele>
        <time>2014-03-21T11:21:40Z</time>
      </trkpt>
      <trkpt lat="42.83751" lon="0.18611">
        <ele>2157.34</ele>
        <time>2014-03-21T11:21:51Z</time>
      </trkpt>
      <trkpt lat="42.83751" lon="0.18611">
        <ele>2157.34</ele>
        <time>2014-03-21T11:22:05Z</time>
      </trkpt>
      <trkpt lat="42.83751" lon="0.18611">
        <ele>2156.86</ele>
        <time>2014-03-21T11:22:19Z</time>
      </trkpt>
      <trkpt lat="42.83751" lon="0.18611">
        <ele>2156.37</ele>
        <time>2014-03-21T11:22:30Z</time>
      </trkpt>
      <trkpt lat="42.83751" lon="0.1861">
        <ele>2156.86</ele>
        <time>2014-03-21T11:22:45Z</time>
      </trkpt>
      <trkpt lat="42.83751" lon="0.18609">
        <ele>2157.34</ele>
        <time>2014-03-21T11:22:52Z</time>
      </trkpt>
      <trkpt lat="42.83751" lon="0.1861">
        <ele>2157.82</ele>
        <time>2014-03-21T11:22:58Z</time>
      </trkpt>
      <trkpt lat="42.83752" lon="0.18612">
        <ele>2158.78</ele>
        <time>2014-03-21T11:23:03Z</time>
      </trkpt>
      <trkpt lat="42.83751" lon="0.18612">
        <ele>2158.78</ele>
        <time>2014-03-21T11:23:16Z</time>
      </trkpt>
      <trkpt lat="42.83751" lon="0.18612">
        <ele>2158.3</ele>
        <time>2014-03-21T11:23:28Z</time>
      </trkpt>
      <trkpt lat="42.83751" lon="0.18613">
        <ele>2158.3</ele>
        <time>2014-03-21T11:23:40Z</time>
      </trkpt>
      <trkpt lat="42.83752" lon="0.18613">
        <ele>2157.82</ele>
        <time>2014-03-21T11:23:48Z</time>
      </trkpt>
      <trkpt lat="42.83751" lon="0.18614">
        <ele>2157.82</ele>
        <time>2014-03-21T11:23:57Z</time>
      </trkpt>
      <trkpt lat="42.83751" lon="0.18613">
        <ele>2157.82</ele>
        <time>2014-03-21T11:24:05Z</time>
      </trkpt>
      <trkpt lat="42.83751" lon="0.18613">
        <ele>2157.82</ele>
        <time>2014-03-21T11:24:11Z</time>
      </trkpt>
      <trkpt lat="42.8375" lon="0.18613">
        <ele>2157.82</ele>
        <time>2014-03-21T11:24:20Z</time>
      </trkpt>
      <trkpt lat="42.8375" lon="0.18613">
        <ele>2157.82</ele>
        <time>2014-03-21T11:24:26Z</time>
      </trkpt>
      <trkpt lat="42.8375" lon="0.18614">
        <ele>2157.34</ele>
        <time>2014-03-21T11:24:33Z</time>
      </trkpt>
      <trkpt lat="42.83752" lon="0.18615">
        <ele>2157.82</ele>
        <time>2014-03-21T11:24:50Z</time>
      </trkpt>
      <trkpt lat="42.83751" lon="0.18613">
        <ele>2157.34</ele>
        <time>2014-03-21T11:25:06Z</time>
      </trkpt>
      <trkpt lat="42.8375" lon="0.18613">
        <ele>2156.86</ele>
        <time>2014-03-21T11:25:22Z</time>
      </trkpt>
      <trkpt lat="42.8375" lon="0.18612">
        <ele>2156.86</ele>
        <time>2014-03-21T11:25:28Z</time>
      </trkpt>
      <trkpt lat="42.8375" lon="0.18606">
        <ele>2157.82</ele>
        <time>2014-03-21T11:25:35Z</time>
      </trkpt>
      <trkpt lat="42.83752" lon="0.18599">
        <ele>2158.78</ele>
        <time>2014-03-21T11:25:42Z</time>
      </trkpt>
      <trkpt lat="42.83753" lon="0.18593">
        <ele>2159.74</ele>
        <time>2014-03-21T11:25:48Z</time>
      </trkpt>
      <trkpt lat="42.83753" lon="0.18585">
        <ele>2160.22</ele>
        <time>2014-03-21T11:25:55Z</time>
      </trkpt>
      <trkpt lat="42.83754" lon="0.18578">
        <ele>2160.7</ele>
        <time>2014-03-21T11:26:02Z</time>
      </trkpt>
      <trkpt lat="42.83754" lon="0.1857">
        <ele>2159.74</ele>
        <time>2014-03-21T11:26:09Z</time>
      </trkpt>
      <trkpt lat="42.83754" lon="0.18565">
        <ele>2158.78</ele>
        <time>2014-03-21T11:26:15Z</time>
      </trkpt>
      <trkpt lat="42.83755" lon="0.18559">
        <ele>2158.78</ele>
        <time>2014-03-21T11:26:21Z</time>
      </trkpt>
      <trkpt lat="42.83756" lon="0.18552">
        <ele>2159.26</ele>
        <time>2014-03-21T11:26:28Z</time>
      </trkpt>
      <trkpt lat="42.83757" lon="0.18549">
        <ele>2159.74</ele>
        <time>2014-03-21T11:26:31Z</time>
      </trkpt>
      <trkpt lat="42.83759" lon="0.18541">
        <ele>2160.22</ele>
        <time>2014-03-21T11:26:38Z</time>
      </trkpt>
      <trkpt lat="42.83762" lon="0.18536">
        <ele>2161.18</ele>
        <time>2014-03-21T11:26:46Z</time>
      </trkpt>
      <trkpt lat="42.83767" lon="0.1853">
        <ele>2162.62</ele>
        <time>2014-03-21T11:26:53Z</time>
      </trkpt>
      <trkpt lat="42.8377" lon="0.18523">
        <ele>2164.06</ele>
        <time>2014-03-21T11:27:00Z</time>
      </trkpt>
      <trkpt lat="42.83774" lon="0.18515">
        <ele>2165.51</ele>
        <time>2014-03-21T11:27:08Z</time>
      </trkpt>
      <trkpt lat="42.83777" lon="0.18511">
        <ele>2166.95</ele>
        <time>2014-03-21T11:27:15Z</time>
      </trkpt>
      <trkpt lat="42.8378" lon="0.18505">
        <ele>2166.95</ele>
        <time>2014-03-21T11:27:22Z</time>
      </trkpt>
      <trkpt lat="42.83781" lon="0.18503">
        <ele>2166.95</ele>
        <time>2014-03-21T11:27:24Z</time>
      </trkpt>
      <trkpt lat="42.83784" lon="0.185">
        <ele>2166.47</ele>
        <time>2014-03-21T11:27:31Z</time>
      </trkpt>
      <trkpt lat="42.83785" lon="0.18498">
        <ele>2166.95</ele>
        <time>2014-03-21T11:27:36Z</time>
      </trkpt>
      <trkpt lat="42.83785" lon="0.18489">
        <ele>2168.87</ele>
        <time>2014-03-21T11:27:43Z</time>
      </trkpt>
      <trkpt lat="42.83785" lon="0.18488">
        <ele>2168.87</ele>
        <time>2014-03-21T11:27:44Z</time>
      </trkpt>
      <trkpt lat="42.83788" lon="0.18481">
        <ele>2170.31</ele>
        <time>2014-03-21T11:27:52Z</time>
      </trkpt>
      <trkpt lat="42.83788" lon="0.1848">
        <ele>2170.31</ele>
        <time>2014-03-21T11:27:55Z</time>
      </trkpt>
      <trkpt lat="42.8379" lon="0.18475">
        <ele>2170.79</ele>
        <time>2014-03-21T11:28:03Z</time>
      </trkpt>
      <trkpt lat="42.83793" lon="0.18468">
        <ele>2171.27</ele>
        <time>2014-03-21T11:28:11Z</time>
      </trkpt>
      <trkpt lat="42.83793" lon="0.18463">
        <ele>2172.24</ele>
        <time>2014-03-21T11:28:17Z</time>
      </trkpt>
      <trkpt lat="42.83793" lon="0.1846">
        <ele>2172.72</ele>
        <time>2014-03-21T11:28:24Z</time>
      </trkpt>
      <trkpt lat="42.83794" lon="0.18456">
        <ele>2173.68</ele>
        <time>2014-03-21T11:28:30Z</time>
      </trkpt>
      <trkpt lat="42.83795" lon="0.18454">
        <ele>2173.68</ele>
        <time>2014-03-21T11:28:36Z</time>
      </trkpt>
      <trkpt lat="42.83797" lon="0.18451">
        <ele>2173.2</ele>
        <time>2014-03-21T11:28:42Z</time>
      </trkpt>
      <trkpt lat="42.83799" lon="0.18448">
        <ele>2174.64</ele>
        <time>2014-03-21T11:28:48Z</time>
      </trkpt>
      <trkpt lat="42.83802" lon="0.18442">
        <ele>2174.64</ele>
        <time>2014-03-21T11:28:57Z</time>
      </trkpt>
      <trkpt lat="42.83806" lon="0.18438">
        <ele>2175.12</ele>
        <time>2014-03-21T11:29:03Z</time>
      </trkpt>
      <trkpt lat="42.83813" lon="0.18434">
        <ele>2175.12</ele>
        <time>2014-03-21T11:29:11Z</time>
      </trkpt>
      <trkpt lat="42.83817" lon="0.18432">
        <ele>2175.12</ele>
        <time>2014-03-21T11:29:18Z</time>
      </trkpt>
      <trkpt lat="42.83819" lon="0.18429">
        <ele>2175.12</ele>
        <time>2014-03-21T11:29:24Z</time>
      </trkpt>
      <trkpt lat="42.83823" lon="0.18426">
        <ele>2175.12</ele>
        <time>2014-03-21T11:29:31Z</time>
      </trkpt>
      <trkpt lat="42.83824" lon="0.18425">
        <ele>2175.12</ele>
        <time>2014-03-21T11:29:41Z</time>
      </trkpt>
      <trkpt lat="42.83824" lon="0.18424">
        <ele>2175.12</ele>
        <time>2014-03-21T11:29:42Z</time>
      </trkpt>
      <trkpt lat="42.83827" lon="0.18418">
        <ele>2176.08</ele>
        <time>2014-03-21T11:29:48Z</time>
      </trkpt>
      <trkpt lat="42.83831" lon="0.18412">
        <ele>2176.56</ele>
        <time>2014-03-21T11:29:56Z</time>
      </trkpt>
      <trkpt lat="42.83837" lon="0.18406">
        <ele>2175.6</ele>
        <time>2014-03-21T11:30:05Z</time>
      </trkpt>
      <trkpt lat="42.83837" lon="0.18406">
        <ele>2175.6</ele>
        <time>2014-03-21T11:30:06Z</time>
      </trkpt>
      <trkpt lat="42.83841" lon="0.184">
        <ele>2175.6</ele>
        <time>2014-03-21T11:30:12Z</time>
      </trkpt>
      <trkpt lat="42.83844" lon="0.18397">
        <ele>2175.6</ele>
        <time>2014-03-21T11:30:18Z</time>
      </trkpt>
      <trkpt lat="42.83848" lon="0.18391">
        <ele>2175.6</ele>
        <time>2014-03-21T11:30:24Z</time>
      </trkpt>
      <trkpt lat="42.8385" lon="0.18386">
        <ele>2175.6</ele>
        <time>2014-03-21T11:30:28Z</time>
      </trkpt>
      <trkpt lat="42.83853" lon="0.1838">
        <ele>2175.12</ele>
        <time>2014-03-21T11:30:34Z</time>
      </trkpt>
      <trkpt lat="42.83854" lon="0.18371">
        <ele>2175.12</ele>
        <time>2014-03-21T11:30:42Z</time>
      </trkpt>
      <trkpt lat="42.83854" lon="0.18363">
        <ele>2176.08</ele>
        <time>2014-03-21T11:30:49Z</time>
      </trkpt>
      <trkpt lat="42.83855" lon="0.18356">
        <ele>2176.08</ele>
        <time>2014-03-21T11:30:57Z</time>
      </trkpt>
      <trkpt lat="42.83854" lon="0.18345">
        <ele>2175.6</ele>
        <time>2014-03-21T11:31:05Z</time>
      </trkpt>
      <trkpt lat="42.83854" lon="0.18335">
        <ele>2174.64</ele>
        <time>2014-03-21T11:31:14Z</time>
      </trkpt>
      <trkpt lat="42.83854" lon="0.18327">
        <ele>2173.68</ele>
        <time>2014-03-21T11:31:21Z</time>
      </trkpt>
      <trkpt lat="42.83854" lon="0.18318">
        <ele>2173.2</ele>
        <time>2014-03-21T11:31:29Z</time>
      </trkpt>
      <trkpt lat="42.83854" lon="0.18311">
        <ele>2174.16</ele>
        <time>2014-03-21T11:31:37Z</time>
      </trkpt>
      <trkpt lat="42.83853" lon="0.18305">
        <ele>2174.64</ele>
        <time>2014-03-21T11:31:43Z</time>
      </trkpt>
      <trkpt lat="42.83852" lon="0.18301">
        <ele>2175.6</ele>
        <time>2014-03-21T11:31:50Z</time>
      </trkpt>
      <trkpt lat="42.8385" lon="0.18297">
        <ele>2175.12</ele>
        <time>2014-03-21T11:31:56Z</time>
      </trkpt>
      <trkpt lat="42.8385" lon="0.18293">
        <ele>2176.08</ele>
        <time>2014-03-21T11:32:04Z</time>
      </trkpt>
      <trkpt lat="42.8385" lon="0.18289">
        <ele>2175.6</ele>
        <time>2014-03-21T11:32:13Z</time>
      </trkpt>
      <trkpt lat="42.83854" lon="0.18274">
        <ele>2173.2</ele>
        <time>2014-03-21T11:32:20Z</time>
      </trkpt>
      <trkpt lat="42.83854" lon="0.18267">
        <ele>2172.72</ele>
        <time>2014-03-21T11:32:26Z</time>
      </trkpt>
      <trkpt lat="42.83853" lon="0.18254">
        <ele>2172.24</ele>
        <time>2014-03-21T11:32:34Z</time>
      </trkpt>
      <trkpt lat="42.83848" lon="0.18233">
        <ele>2168.39</ele>
        <time>2014-03-21T11:32:39Z</time>
      </trkpt>
      <trkpt lat="42.83846" lon="0.18212">
        <ele>2164.55</ele>
        <time>2014-03-21T11:32:45Z</time>
      </trkpt>
      <trkpt lat="42.83845" lon="0.1821">
        <ele>2163.1</ele>
        <time>2014-03-21T11:32:48Z</time>
      </trkpt>
      <trkpt lat="42.83847" lon="0.18203">
        <ele>2162.14</ele>
        <time>2014-03-21T11:32:54Z</time>
      </trkpt>
      <trkpt lat="42.83848" lon="0.18197">
        <ele>2161.18</ele>
        <time>2014-03-21T11:33:01Z</time>
      </trkpt>
      <trkpt lat="42.83849" lon="0.18194">
        <ele>2161.18</ele>
        <time>2014-03-21T11:33:06Z</time>
      </trkpt>
      <trkpt lat="42.83849" lon="0.18194">
        <ele>2162.14</ele>
        <time>2014-03-21T11:33:09Z</time>
      </trkpt>
      <trkpt lat="42.8385" lon="0.18189">
        <ele>2163.58</ele>
        <time>2014-03-21T11:33:15Z</time>
      </trkpt>
      <trkpt lat="42.83854" lon="0.18183">
        <ele>2164.55</ele>
        <time>2014-03-21T11:33:23Z</time>
      </trkpt>
      <trkpt lat="42.83855" lon="0.18179">
        <ele>2164.55</ele>
        <time>2014-03-21T11:33:32Z</time>
      </trkpt>
      <trkpt lat="42.83855" lon="0.1817">
        <ele>2163.1</ele>
        <time>2014-03-21T11:33:39Z</time>
      </trkpt>
      <trkpt lat="42.83857" lon="0.18158">
        <ele>2162.14</ele>
        <time>2014-03-21T11:33:47Z</time>
      </trkpt>
      <trkpt lat="42.83857" lon="0.18137">
        <ele>2160.22</ele>
        <time>2014-03-21T11:33:53Z</time>
      </trkpt>
      <trkpt lat="42.83855" lon="0.18126">
        <ele>2158.78</ele>
        <time>2014-03-21T11:33:59Z</time>
      </trkpt>
      <trkpt lat="42.83855" lon="0.18107">
        <ele>2155.89</ele>
        <time>2014-03-21T11:34:04Z</time>
      </trkpt>
      <trkpt lat="42.83854" lon="0.18092">
        <ele>2152.05</ele>
        <time>2014-03-21T11:34:10Z</time>
      </trkpt>
      <trkpt lat="42.83854" lon="0.18089">
        <ele>2150.61</ele>
        <time>2014-03-21T11:34:12Z</time>
      </trkpt>
      <trkpt lat="42.83856" lon="0.18079">
        <ele>2150.13</ele>
        <time>2014-03-21T11:34:18Z</time>
      </trkpt>
      <trkpt lat="42.83857" lon="0.18068">
        <ele>2149.65</ele>
        <time>2014-03-21T11:34:24Z</time>
      </trkpt>
      <trkpt lat="42.83859" lon="0.18053">
        <ele>2150.13</ele>
        <time>2014-03-21T11:34:32Z</time>
      </trkpt>
      <trkpt lat="42.8386" lon="0.18043">
        <ele>2151.09</ele>
        <time>2014-03-21T11:34:38Z</time>
      </trkpt>
      <trkpt lat="42.83861" lon="0.18034">
        <ele>2151.57</ele>
        <time>2014-03-21T11:34:46Z</time>
      </trkpt>
      <trkpt lat="42.83862" lon="0.18025">
        <ele>2151.57</ele>
        <time>2014-03-21T11:34:53Z</time>
      </trkpt>
      <trkpt lat="42.83862" lon="0.18021">
        <ele>2151.09</ele>
        <time>2014-03-21T11:34:56Z</time>
      </trkpt>
      <trkpt lat="42.83864" lon="0.18017">
        <ele>2151.09</ele>
        <time>2014-03-21T11:35:01Z</time>
      </trkpt>
      <trkpt lat="42.83865" lon="0.18008">
        <ele>2151.57</ele>
        <time>2014-03-21T11:35:08Z</time>
      </trkpt>
      <trkpt lat="42.83866" lon="0.17998">
        <ele>2151.09</ele>
        <time>2014-03-21T11:35:16Z</time>
      </trkpt>
      <trkpt lat="42.83868" lon="0.17992">
        <ele>2151.57</ele>
        <time>2014-03-21T11:35:23Z</time>
      </trkpt>
      <trkpt lat="42.8387" lon="0.17984">
        <ele>2151.09</ele>
        <time>2014-03-21T11:35:29Z</time>
      </trkpt>
      <trkpt lat="42.83871" lon="0.17981">
        <ele>2150.61</ele>
        <time>2014-03-21T11:35:33Z</time>
      </trkpt>
      <trkpt lat="42.83872" lon="0.17975">
        <ele>2150.13</ele>
        <time>2014-03-21T11:35:41Z</time>
      </trkpt>
      <trkpt lat="42.83873" lon="0.17967">
        <ele>2150.13</ele>
        <time>2014-03-21T11:35:48Z</time>
      </trkpt>
      <trkpt lat="42.83872" lon="0.1796">
        <ele>2150.13</ele>
        <time>2014-03-21T11:35:54Z</time>
      </trkpt>
      <trkpt lat="42.83873" lon="0.17951">
        <ele>2150.61</ele>
        <time>2014-03-21T11:36:03Z</time>
      </trkpt>
      <trkpt lat="42.83873" lon="0.17946">
        <ele>2151.57</ele>
        <time>2014-03-21T11:36:09Z</time>
      </trkpt>
      <trkpt lat="42.83874" lon="0.1794">
        <ele>2151.57</ele>
        <time>2014-03-21T11:36:15Z</time>
      </trkpt>
      <trkpt lat="42.83874" lon="0.17934">
        <ele>2152.05</ele>
        <time>2014-03-21T11:36:22Z</time>
      </trkpt>
      <trkpt lat="42.83874" lon="0.17927">
        <ele>2151.57</ele>
        <time>2014-03-21T11:36:29Z</time>
      </trkpt>
      <trkpt lat="42.83876" lon="0.17922">
        <ele>2152.05</ele>
        <time>2014-03-21T11:36:37Z</time>
      </trkpt>
      <trkpt lat="42.83877" lon="0.17921">
        <ele>2151.57</ele>
        <time>2014-03-21T11:36:46Z</time>
      </trkpt>
      <trkpt lat="42.83878" lon="0.17916">
        <ele>2152.05</ele>
        <time>2014-03-21T11:36:51Z</time>
      </trkpt>
      <trkpt lat="42.83877" lon="0.1791">
        <ele>2153.49</ele>
        <time>2014-03-21T11:36:58Z</time>
      </trkpt>
      <trkpt lat="42.83877" lon="0.17908">
        <ele>2153.49</ele>
        <time>2014-03-21T11:37:00Z</time>
      </trkpt>
      <trkpt lat="42.83879" lon="0.17904">
        <ele>2154.45</ele>
        <time>2014-03-21T11:37:08Z</time>
      </trkpt>
      <trkpt lat="42.83879" lon="0.17905">
        <ele>2154.45</ele>
        <time>2014-03-21T11:37:11Z</time>
      </trkpt>
      <trkpt lat="42.8388" lon="0.17905">
        <ele>2154.45</ele>
        <time>2014-03-21T11:37:18Z</time>
      </trkpt>
      <trkpt lat="42.83881" lon="0.17906">
        <ele>2155.89</ele>
        <time>2014-03-21T11:37:31Z</time>
      </trkpt>
      <trkpt lat="42.83881" lon="0.17905">
        <ele>2154.93</ele>
        <time>2014-03-21T11:37:44Z</time>
      </trkpt>
      <trkpt lat="42.8388" lon="0.17905">
        <ele>2154.93</ele>
        <time>2014-03-21T11:37:53Z</time>
      </trkpt>
      <trkpt lat="42.8388" lon="0.17906">
        <ele>2154.45</ele>
        <time>2014-03-21T11:37:59Z</time>
      </trkpt>
      <trkpt lat="42.8388" lon="0.17906">
        <ele>2153.97</ele>
        <time>2014-03-21T11:38:10Z</time>
      </trkpt>
      <trkpt lat="42.8388" lon="0.17905">
        <ele>2153.97</ele>
        <time>2014-03-21T11:38:16Z</time>
      </trkpt>
      <trkpt lat="42.83881" lon="0.17901">
        <ele>2153.97</ele>
        <time>2014-03-21T11:38:20Z</time>
      </trkpt>
      <trkpt lat="42.83885" lon="0.17894">
        <ele>2154.93</ele>
        <time>2014-03-21T11:38:26Z</time>
      </trkpt>
      <trkpt lat="42.83888" lon="0.17889">
        <ele>2156.86</ele>
        <time>2014-03-21T11:38:32Z</time>
      </trkpt>
      <trkpt lat="42.83891" lon="0.17883">
        <ele>2159.26</ele>
        <time>2014-03-21T11:38:38Z</time>
      </trkpt>
      <trkpt lat="42.83894" lon="0.17875">
        <ele>2160.22</ele>
        <time>2014-03-21T11:38:45Z</time>
      </trkpt>
      <trkpt lat="42.83898" lon="0.17869">
        <ele>2161.18</ele>
        <time>2014-03-21T11:38:51Z</time>
      </trkpt>
      <trkpt lat="42.83899" lon="0.17865">
        <ele>2161.18</ele>
        <time>2014-03-21T11:38:54Z</time>
      </trkpt>
      <trkpt lat="42.83903" lon="0.17858">
        <ele>2161.18</ele>
        <time>2014-03-21T11:39:01Z</time>
      </trkpt>
      <trkpt lat="42.83904" lon="0.1785">
        <ele>2161.66</ele>
        <time>2014-03-21T11:39:08Z</time>
      </trkpt>
      <trkpt lat="42.83905" lon="0.17842">
        <ele>2162.14</ele>
        <time>2014-03-21T11:39:14Z</time>
      </trkpt>
      <trkpt lat="42.83909" lon="0.17827">
        <ele>2161.66</ele>
        <time>2014-03-21T11:39:22Z</time>
      </trkpt>
      <trkpt lat="42.83913" lon="0.17817">
        <ele>2160.22</ele>
        <time>2014-03-21T11:39:29Z</time>
      </trkpt>
      <trkpt lat="42.83914" lon="0.17809">
        <ele>2160.22</ele>
        <time>2014-03-21T11:39:38Z</time>
      </trkpt>
      <trkpt lat="42.83917" lon="0.17803">
        <ele>2159.74</ele>
        <time>2014-03-21T11:39:44Z</time>
      </trkpt>
      <trkpt lat="42.83918" lon="0.17796">
        <ele>2160.7</ele>
        <time>2014-03-21T11:39:51Z</time>
      </trkpt>
      <trkpt lat="42.8392" lon="0.17789">
        <ele>2162.62</ele>
        <time>2014-03-21T11:39:59Z</time>
      </trkpt>
      <trkpt lat="42.83921" lon="0.17786">
        <ele>2164.55</ele>
        <time>2014-03-21T11:40:05Z</time>
      </trkpt>
      <trkpt lat="42.83923" lon="0.17779">
        <ele>2165.51</ele>
        <time>2014-03-21T11:40:11Z</time>
      </trkpt>
      <trkpt lat="42.83924" lon="0.17774">
        <ele>2165.99</ele>
        <time>2014-03-21T11:40:20Z</time>
      </trkpt>
      <trkpt lat="42.83925" lon="0.17768">
        <ele>2165.99</ele>
        <time>2014-03-21T11:40:28Z</time>
      </trkpt>
      <trkpt lat="42.83927" lon="0.17762">
        <ele>2165.99</ele>
        <time>2014-03-21T11:40:35Z</time>
      </trkpt>
      <trkpt lat="42.83928" lon="0.17756">
        <ele>2165.51</ele>
        <time>2014-03-21T11:40:41Z</time>
      </trkpt>
      <trkpt lat="42.83932" lon="0.17751">
        <ele>2165.99</ele>
        <time>2014-03-21T11:40:48Z</time>
      </trkpt>
      <trkpt lat="42.83934" lon="0.17746">
        <ele>2167.91</ele>
        <time>2014-03-21T11:40:54Z</time>
      </trkpt>
      <trkpt lat="42.83935" lon="0.17742">
        <ele>2168.39</ele>
        <time>2014-03-21T11:41:00Z</time>
      </trkpt>
      <trkpt lat="42.83938" lon="0.1774">
        <ele>2168.39</ele>
        <time>2014-03-21T11:41:04Z</time>
      </trkpt>
      <trkpt lat="42.83943" lon="0.17734">
        <ele>2169.83</ele>
        <time>2014-03-21T11:41:12Z</time>
      </trkpt>
      <trkpt lat="42.83947" lon="0.1773">
        <ele>2169.83</ele>
        <time>2014-03-21T11:41:19Z</time>
      </trkpt>
      <trkpt lat="42.8395" lon="0.17726">
        <ele>2169.83</ele>
        <time>2014-03-21T11:41:26Z</time>
      </trkpt>
      <trkpt lat="42.83954" lon="0.17721">
        <ele>2170.31</ele>
        <time>2014-03-21T11:41:33Z</time>
      </trkpt>
      <trkpt lat="42.83957" lon="0.17719">
        <ele>2171.76</ele>
        <time>2014-03-21T11:41:40Z</time>
      </trkpt>
      <trkpt lat="42.83961" lon="0.17718">
        <ele>2173.2</ele>
        <time>2014-03-21T11:41:48Z</time>
      </trkpt>
      <trkpt lat="42.83962" lon="0.17718">
        <ele>2173.2</ele>
        <time>2014-03-21T11:41:49Z</time>
      </trkpt>
      <trkpt lat="42.83966" lon="0.17716">
        <ele>2174.64</ele>
        <time>2014-03-21T11:41:56Z</time>
      </trkpt>
      <trkpt lat="42.8397" lon="0.17711">
        <ele>2175.6</ele>
        <time>2014-03-21T11:42:04Z</time>
      </trkpt>
      <trkpt lat="42.83973" lon="0.17707">
        <ele>2175.6</ele>
        <time>2014-03-21T11:42:12Z</time>
      </trkpt>
      <trkpt lat="42.83976" lon="0.17701">
        <ele>2175.6</ele>
        <time>2014-03-21T11:42:19Z</time>
      </trkpt>
      <trkpt lat="42.83977" lon="0.17699">
        <ele>2175.6</ele>
        <time>2014-03-21T11:42:21Z</time>
      </trkpt>
      <trkpt lat="42.83979" lon="0.1769">
        <ele>2176.08</ele>
        <time>2014-03-21T11:42:29Z</time>
      </trkpt>
      <trkpt lat="42.83981" lon="0.17684">
        <ele>2175.6</ele>
        <time>2014-03-21T11:42:36Z</time>
      </trkpt>
      <trkpt lat="42.83983" lon="0.17682">
        <ele>2177.04</ele>
        <time>2014-03-21T11:42:42Z</time>
      </trkpt>
      <trkpt lat="42.83986" lon="0.17676">
        <ele>2178</ele>
        <time>2014-03-21T11:42:51Z</time>
      </trkpt>
      <trkpt lat="42.8399" lon="0.17671">
        <ele>2179.45</ele>
        <time>2014-03-21T11:42:59Z</time>
      </trkpt>
      <trkpt lat="42.83992" lon="0.17667">
        <ele>2181.37</ele>
        <time>2014-03-21T11:43:06Z</time>
      </trkpt>
      <trkpt lat="42.83994" lon="0.17665">
        <ele>2182.81</ele>
        <time>2014-03-21T11:43:14Z</time>
      </trkpt>
      <trkpt lat="42.83995" lon="0.17663">
        <ele>2183.77</ele>
        <time>2014-03-21T11:43:18Z</time>
      </trkpt>
      <trkpt lat="42.83999" lon="0.17657">
        <ele>2184.25</ele>
        <time>2014-03-21T11:43:26Z</time>
      </trkpt>
      <trkpt lat="42.84002" lon="0.17652">
        <ele>2183.77</ele>
        <time>2014-03-21T11:43:33Z</time>
      </trkpt>
      <trkpt lat="42.84005" lon="0.17648">
        <ele>2184.25</ele>
        <time>2014-03-21T11:43:37Z</time>
      </trkpt>
      <trkpt lat="42.84009" lon="0.17643">
        <ele>2183.77</ele>
        <time>2014-03-21T11:43:44Z</time>
      </trkpt>
      <trkpt lat="42.84012" lon="0.17639">
        <ele>2184.25</ele>
        <time>2014-03-21T11:43:51Z</time>
      </trkpt>
      <trkpt lat="42.84016" lon="0.17633">
        <ele>2184.73</ele>
        <time>2014-03-21T11:43:59Z</time>
      </trkpt>
      <trkpt lat="42.84021" lon="0.17628">
        <ele>2184.73</ele>
        <time>2014-03-21T11:44:07Z</time>
      </trkpt>
      <trkpt lat="42.84026" lon="0.17625">
        <ele>2185.69</ele>
        <time>2014-03-21T11:44:14Z</time>
      </trkpt>
      <trkpt lat="42.84028" lon="0.17624">
        <ele>2186.66</ele>
        <time>2014-03-21T11:44:21Z</time>
      </trkpt>
      <trkpt lat="42.84029" lon="0.17624">
        <ele>2187.62</ele>
        <time>2014-03-21T11:44:28Z</time>
      </trkpt>
      <trkpt lat="42.84034" lon="0.17625">
        <ele>2188.58</ele>
        <time>2014-03-21T11:44:34Z</time>
      </trkpt>
      <trkpt lat="42.84039" lon="0.1762">
        <ele>2190.02</ele>
        <time>2014-03-21T11:44:42Z</time>
      </trkpt>
      <trkpt lat="42.84042" lon="0.17614">
        <ele>2190.5</ele>
        <time>2014-03-21T11:44:50Z</time>
      </trkpt>
      <trkpt lat="42.84045" lon="0.17609">
        <ele>2190.98</ele>
        <time>2014-03-21T11:44:57Z</time>
      </trkpt>
      <trkpt lat="42.84049" lon="0.17604">
        <ele>2191.46</ele>
        <time>2014-03-21T11:45:05Z</time>
      </trkpt>
      <trkpt lat="42.84051" lon="0.17601">
        <ele>2192.42</ele>
        <time>2014-03-21T11:45:11Z</time>
      </trkpt>
      <trkpt lat="42.84055" lon="0.17596">
        <ele>2192.9</ele>
        <time>2014-03-21T11:45:18Z</time>
      </trkpt>
      <trkpt lat="42.84058" lon="0.17589">
        <ele>2192.9</ele>
        <time>2014-03-21T11:45:26Z</time>
      </trkpt>
      <trkpt lat="42.84061" lon="0.17583">
        <ele>2191.94</ele>
        <time>2014-03-21T11:45:34Z</time>
      </trkpt>
      <trkpt lat="42.84063" lon="0.1758">
        <ele>2193.39</ele>
        <time>2014-03-21T11:45:40Z</time>
      </trkpt>
      <trkpt lat="42.84065" lon="0.17576">
        <ele>2194.35</ele>
        <time>2014-03-21T11:45:47Z</time>
      </trkpt>
      <trkpt lat="42.84066" lon="0.17574">
        <ele>2195.31</ele>
        <time>2014-03-21T11:45:54Z</time>
      </trkpt>
      <trkpt lat="42.8407" lon="0.17569">
        <ele>2196.27</ele>
        <time>2014-03-21T11:46:01Z</time>
      </trkpt>
      <trkpt lat="42.84074" lon="0.17565">
        <ele>2197.23</ele>
        <time>2014-03-21T11:46:08Z</time>
      </trkpt>
      <trkpt lat="42.84075" lon="0.17564">
        <ele>2197.71</ele>
        <time>2014-03-21T11:46:13Z</time>
      </trkpt>
      <trkpt lat="42.84081" lon="0.17561">
        <ele>2197.71</ele>
        <time>2014-03-21T11:46:22Z</time>
      </trkpt>
      <trkpt lat="42.84085" lon="0.17559">
        <ele>2197.71</ele>
        <time>2014-03-21T11:46:28Z</time>
      </trkpt>
      <trkpt lat="42.84085" lon="0.17559">
        <ele>2198.19</ele>
        <time>2014-03-21T11:46:35Z</time>
      </trkpt>
      <trkpt lat="42.84085" lon="0.17559">
        <ele>2197.71</ele>
        <time>2014-03-21T11:46:43Z</time>
      </trkpt>
      <trkpt lat="42.84085" lon="0.17559">
        <ele>2197.23</ele>
        <time>2014-03-21T11:46:57Z</time>
      </trkpt>
      <trkpt lat="42.84084" lon="0.17558">
        <ele>2196.75</ele>
        <time>2014-03-21T11:47:13Z</time>
      </trkpt>
      <trkpt lat="42.84084" lon="0.17557">
        <ele>2197.23</ele>
        <time>2014-03-21T11:47:30Z</time>
      </trkpt>
      <trkpt lat="42.84085" lon="0.17558">
        <ele>2197.23</ele>
        <time>2014-03-21T11:47:45Z</time>
      </trkpt>
      <trkpt lat="42.84085" lon="0.17558">
        <ele>2197.23</ele>
        <time>2014-03-21T11:47:59Z</time>
      </trkpt>
      <trkpt lat="42.84085" lon="0.17558">
        <ele>2197.23</ele>
        <time>2014-03-21T11:48:13Z</time>
      </trkpt>
      <trkpt lat="42.84085" lon="0.17558">
        <ele>2197.71</ele>
        <time>2014-03-21T11:48:29Z</time>
      </trkpt>
      <trkpt lat="42.84085" lon="0.17559">
        <ele>2197.71</ele>
        <time>2014-03-21T11:48:43Z</time>
      </trkpt>
      <trkpt lat="42.84085" lon="0.17559">
        <ele>2197.71</ele>
        <time>2014-03-21T11:48:55Z</time>
      </trkpt>
      <trkpt lat="42.84085" lon="0.17559">
        <ele>2198.19</ele>
        <time>2014-03-21T11:49:10Z</time>
      </trkpt>
      <trkpt lat="42.84085" lon="0.17559">
        <ele>2197.71</ele>
        <time>2014-03-21T11:49:14Z</time>
      </trkpt>
      <trkpt lat="42.84084" lon="0.17558">
        <ele>2197.71</ele>
        <time>2014-03-21T11:49:20Z</time>
      </trkpt>
      <trkpt lat="42.84084" lon="0.17557">
        <ele>2198.19</ele>
        <time>2014-03-21T11:49:33Z</time>
      </trkpt>
      <trkpt lat="42.84085" lon="0.17558">
        <ele>2198.19</ele>
        <time>2014-03-21T11:49:42Z</time>
      </trkpt>
      <trkpt lat="42.84086" lon="0.17557">
        <ele>2198.67</ele>
        <time>2014-03-21T11:49:46Z</time>
      </trkpt>
      <trkpt lat="42.84089" lon="0.17555">
        <ele>2197.71</ele>
        <time>2014-03-21T11:49:50Z</time>
      </trkpt>
      <trkpt lat="42.84091" lon="0.17549">
        <ele>2198.19</ele>
        <time>2014-03-21T11:49:57Z</time>
      </trkpt>
      <trkpt lat="42.8409" lon="0.17545">
        <ele>2196.27</ele>
        <time>2014-03-21T11:50:02Z</time>
      </trkpt>
      <trkpt lat="42.8409" lon="0.17541">
        <ele>2196.27</ele>
        <time>2014-03-21T11:50:08Z</time>
      </trkpt>
      <trkpt lat="42.84093" lon="0.17536">
        <ele>2195.79</ele>
        <time>2014-03-21T11:50:11Z</time>
      </trkpt>
      <trkpt lat="42.84094" lon="0.17529">
        <ele>2195.79</ele>
        <time>2014-03-21T11:50:17Z</time>
      </trkpt>
      <trkpt lat="42.84094" lon="0.17528">
        <ele>2195.79</ele>
        <time>2014-03-21T11:50:18Z</time>
      </trkpt>
      <trkpt lat="42.84092" lon="0.17514">
        <ele>2193.39</ele>
        <time>2014-03-21T11:50:25Z</time>
      </trkpt>
      <trkpt lat="42.84092" lon="0.17511">
        <ele>2193.39</ele>
        <time>2014-03-21T11:50:27Z</time>
      </trkpt>
      <trkpt lat="42.8409" lon="0.17491">
        <ele>2191.94</ele>
        <time>2014-03-21T11:50:36Z</time>
      </trkpt>
      <trkpt lat="42.84089" lon="0.17484">
        <ele>2192.42</ele>
        <time>2014-03-21T11:50:42Z</time>
      </trkpt>
      <trkpt lat="42.84088" lon="0.17477">
        <ele>2192.42</ele>
        <time>2014-03-21T11:50:48Z</time>
      </trkpt>
      <trkpt lat="42.84087" lon="0.17471">
        <ele>2193.39</ele>
        <time>2014-03-21T11:50:54Z</time>
      </trkpt>
      <trkpt lat="42.84087" lon="0.17464">
        <ele>2193.39</ele>
        <time>2014-03-21T11:50:59Z</time>
      </trkpt>
      <trkpt lat="42.84089" lon="0.17451">
        <ele>2192.42</ele>
        <time>2014-03-21T11:51:07Z</time>
      </trkpt>
      <trkpt lat="42.8409" lon="0.17443">
        <ele>2191.46</ele>
        <time>2014-03-21T11:51:12Z</time>
      </trkpt>
      <trkpt lat="42.84092" lon="0.17433">
        <ele>2191.46</ele>
        <time>2014-03-21T11:51:20Z</time>
      </trkpt>
      <trkpt lat="42.84093" lon="0.17428">
        <ele>2190.98</ele>
        <time>2014-03-21T11:51:26Z</time>
      </trkpt>
      <trkpt lat="42.84094" lon="0.17423">
        <ele>2190.98</ele>
        <time>2014-03-21T11:51:30Z</time>
      </trkpt>
      <trkpt lat="42.84096" lon="0.17413">
        <ele>2190.98</ele>
        <time>2014-03-21T11:51:38Z</time>
      </trkpt>
      <trkpt lat="42.84099" lon="0.17407">
        <ele>2191.46</ele>
        <time>2014-03-21T11:51:45Z</time>
      </trkpt>
      <trkpt lat="42.841" lon="0.174">
        <ele>2190.98</ele>
        <time>2014-03-21T11:51:52Z</time>
      </trkpt>
      <trkpt lat="42.841" lon="0.17399">
        <ele>2191.46</ele>
        <time>2014-03-21T11:51:53Z</time>
      </trkpt>
      <trkpt lat="42.84101" lon="0.17393">
        <ele>2191.46</ele>
        <time>2014-03-21T11:52:00Z</time>
      </trkpt>
      <trkpt lat="42.84103" lon="0.17383">
        <ele>2192.42</ele>
        <time>2014-03-21T11:52:08Z</time>
      </trkpt>
      <trkpt lat="42.84105" lon="0.17377">
        <ele>2192.42</ele>
        <time>2014-03-21T11:52:14Z</time>
      </trkpt>
      <trkpt lat="42.84107" lon="0.1737">
        <ele>2192.42</ele>
        <time>2014-03-21T11:52:21Z</time>
      </trkpt>
      <trkpt lat="42.84108" lon="0.17364">
        <ele>2190.98</ele>
        <time>2014-03-21T11:52:29Z</time>
      </trkpt>
      <trkpt lat="42.84113" lon="0.1736">
        <ele>2190.02</ele>
        <time>2014-03-21T11:52:38Z</time>
      </trkpt>
      <trkpt lat="42.84113" lon="0.17358">
        <ele>2190.5</ele>
        <time>2014-03-21T11:52:46Z</time>
      </trkpt>
      <trkpt lat="42.84113" lon="0.17356">
        <ele>2191.46</ele>
        <time>2014-03-21T11:52:50Z</time>
      </trkpt>
      <trkpt lat="42.84116" lon="0.1735">
        <ele>2192.9</ele>
        <time>2014-03-21T11:52:57Z</time>
      </trkpt>
      <trkpt lat="42.84118" lon="0.17346">
        <ele>2193.87</ele>
        <time>2014-03-21T11:53:00Z</time>
      </trkpt>
      <trkpt lat="42.8412" lon="0.17341">
        <ele>2195.31</ele>
        <time>2014-03-21T11:53:08Z</time>
      </trkpt>
      <trkpt lat="42.84122" lon="0.17335">
        <ele>2195.79</ele>
        <time>2014-03-21T11:53:14Z</time>
      </trkpt>
      <trkpt lat="42.84124" lon="0.1733">
        <ele>2195.79</ele>
        <time>2014-03-21T11:53:21Z</time>
      </trkpt>
      <trkpt lat="42.84127" lon="0.17324">
        <ele>2195.79</ele>
        <time>2014-03-21T11:53:28Z</time>
      </trkpt>
      <trkpt lat="42.84128" lon="0.17321">
        <ele>2197.71</ele>
        <time>2014-03-21T11:53:37Z</time>
      </trkpt>
      <trkpt lat="42.84129" lon="0.17318">
        <ele>2197.23</ele>
        <time>2014-03-21T11:53:44Z</time>
      </trkpt>
      <trkpt lat="42.84131" lon="0.17316">
        <ele>2197.23</ele>
        <time>2014-03-21T11:53:50Z</time>
      </trkpt>
      <trkpt lat="42.84133" lon="0.17314">
        <ele>2198.19</ele>
        <time>2014-03-21T11:53:57Z</time>
      </trkpt>
      <trkpt lat="42.84135" lon="0.1731">
        <ele>2199.15</ele>
        <time>2014-03-21T11:54:04Z</time>
      </trkpt>
      <trkpt lat="42.84136" lon="0.17306">
        <ele>2200.11</ele>
        <time>2014-03-21T11:54:11Z</time>
      </trkpt>
      <trkpt lat="42.84138" lon="0.17305">
        <ele>2200.59</ele>
        <time>2014-03-21T11:54:12Z</time>
      </trkpt>
      <trkpt lat="42.84141" lon="0.17301">
        <ele>2201.56</ele>
        <time>2014-03-21T11:54:18Z</time>
      </trkpt>
      <trkpt lat="42.84143" lon="0.17298">
        <ele>2202.04</ele>
        <time>2014-03-21T11:54:23Z</time>
      </trkpt>
      <trkpt lat="42.84144" lon="0.17295">
        <ele>2202.04</ele>
        <time>2014-03-21T11:54:28Z</time>
      </trkpt>
      <trkpt lat="42.84145" lon="0.17294">
        <ele>2203</ele>
        <time>2014-03-21T11:54:34Z</time>
      </trkpt>
      <trkpt lat="42.84146" lon="0.17291">
        <ele>2203</ele>
        <time>2014-03-21T11:54:39Z</time>
      </trkpt>
      <trkpt lat="42.84147" lon="0.17289">
        <ele>2204.44</ele>
        <time>2014-03-21T11:54:45Z</time>
      </trkpt>
      <trkpt lat="42.84148" lon="0.17285">
        <ele>2205.88</ele>
        <time>2014-03-21T11:54:49Z</time>
      </trkpt>
      <trkpt lat="42.84148" lon="0.17283">
        <ele>2207.81</ele>
        <time>2014-03-21T11:54:54Z</time>
      </trkpt>
      <trkpt lat="42.84149" lon="0.1728">
        <ele>2207.81</ele>
        <time>2014-03-21T11:55:01Z</time>
      </trkpt>
      <trkpt lat="42.8415" lon="0.17277">
        <ele>2208.29</ele>
        <time>2014-03-21T11:55:08Z</time>
      </trkpt>
      <trkpt lat="42.84152" lon="0.17276">
        <ele>2207.81</ele>
        <time>2014-03-21T11:55:14Z</time>
      </trkpt>
      <trkpt lat="42.84154" lon="0.17272">
        <ele>2207.32</ele>
        <time>2014-03-21T11:55:20Z</time>
      </trkpt>
      <trkpt lat="42.84156" lon="0.17271">
        <ele>2208.29</ele>
        <time>2014-03-21T11:55:27Z</time>
      </trkpt>
      <trkpt lat="42.84159" lon="0.17269">
        <ele>2211.17</ele>
        <time>2014-03-21T11:55:32Z</time>
      </trkpt>
      <trkpt lat="42.8416" lon="0.17269">
        <ele>2212.13</ele>
        <time>2014-03-21T11:55:33Z</time>
      </trkpt>
      <trkpt lat="42.84162" lon="0.17267">
        <ele>2214.53</ele>
        <time>2014-03-21T11:55:38Z</time>
      </trkpt>
      <trkpt lat="42.84163" lon="0.17264">
        <ele>2215.98</ele>
        <time>2014-03-21T11:55:44Z</time>
      </trkpt>
      <trkpt lat="42.84164" lon="0.17261">
        <ele>2215.5</ele>
        <time>2014-03-21T11:55:50Z</time>
      </trkpt>
      <trkpt lat="42.84167" lon="0.17254">
        <ele>2215.01</ele>
        <time>2014-03-21T11:55:57Z</time>
      </trkpt>
      <trkpt lat="42.84169" lon="0.17251">
        <ele>2215.5</ele>
        <time>2014-03-21T11:56:02Z</time>
      </trkpt>
      <trkpt lat="42.84171" lon="0.17247">
        <ele>2215.5</ele>
        <time>2014-03-21T11:56:08Z</time>
      </trkpt>
      <trkpt lat="42.84173" lon="0.17243">
        <ele>2215.5</ele>
        <time>2014-03-21T11:56:15Z</time>
      </trkpt>
      <trkpt lat="42.84175" lon="0.17243">
        <ele>2216.46</ele>
        <time>2014-03-21T11:56:22Z</time>
      </trkpt>
      <trkpt lat="42.84176" lon="0.1724">
        <ele>2217.9</ele>
        <time>2014-03-21T11:56:28Z</time>
      </trkpt>
      <trkpt lat="42.84178" lon="0.17234">
        <ele>2218.38</ele>
        <time>2014-03-21T11:56:34Z</time>
      </trkpt>
      <trkpt lat="42.84178" lon="0.17234">
        <ele>2218.86</ele>
        <time>2014-03-21T11:56:40Z</time>
      </trkpt>
      <trkpt lat="42.84179" lon="0.17231">
        <ele>2219.82</ele>
        <time>2014-03-21T11:56:46Z</time>
      </trkpt>
      <trkpt lat="42.84181" lon="0.17226">
        <ele>2222.22</ele>
        <time>2014-03-21T11:56:52Z</time>
      </trkpt>
      <trkpt lat="42.84183" lon="0.17223">
        <ele>2222.71</ele>
        <time>2014-03-21T11:56:59Z</time>
      </trkpt>
      <trkpt lat="42.84183" lon="0.17217">
        <ele>2222.71</ele>
        <time>2014-03-21T11:57:08Z</time>
      </trkpt>
      <trkpt lat="42.84186" lon="0.17212">
        <ele>2222.22</ele>
        <time>2014-03-21T11:57:15Z</time>
      </trkpt>
      <trkpt lat="42.84187" lon="0.17208">
        <ele>2222.22</ele>
        <time>2014-03-21T11:57:23Z</time>
      </trkpt>
      <trkpt lat="42.84189" lon="0.17203">
        <ele>2223.67</ele>
        <time>2014-03-21T11:57:31Z</time>
      </trkpt>
      <trkpt lat="42.84192" lon="0.17199">
        <ele>2223.19</ele>
        <time>2014-03-21T11:57:40Z</time>
      </trkpt>
      <trkpt lat="42.84193" lon="0.17195">
        <ele>2222.71</ele>
        <time>2014-03-21T11:57:47Z</time>
      </trkpt>
      <trkpt lat="42.84194" lon="0.17191">
        <ele>2223.19</ele>
        <time>2014-03-21T11:57:57Z</time>
      </trkpt>
      <trkpt lat="42.84196" lon="0.17185">
        <ele>2224.63</ele>
        <time>2014-03-21T11:58:04Z</time>
      </trkpt>
      <trkpt lat="42.84197" lon="0.17179">
        <ele>2225.59</ele>
        <time>2014-03-21T11:58:15Z</time>
      </trkpt>
      <trkpt lat="42.84198" lon="0.17175">
        <ele>2226.07</ele>
        <time>2014-03-21T11:58:24Z</time>
      </trkpt>
      <trkpt lat="42.84198" lon="0.17173">
        <ele>2226.55</ele>
        <time>2014-03-21T11:58:31Z</time>
      </trkpt>
      <trkpt lat="42.84198" lon="0.17172">
        <ele>2226.55</ele>
        <time>2014-03-21T11:58:39Z</time>
      </trkpt>
      <trkpt lat="42.84197" lon="0.17171">
        <ele>2227.03</ele>
        <time>2014-03-21T11:58:47Z</time>
      </trkpt>
      <trkpt lat="42.84196" lon="0.17171">
        <ele>2227.99</ele>
        <time>2014-03-21T11:58:56Z</time>
      </trkpt>
      <trkpt lat="42.84194" lon="0.1717">
        <ele>2227.99</ele>
        <time>2014-03-21T11:59:02Z</time>
      </trkpt>
      <trkpt lat="42.84194" lon="0.17169">
        <ele>2228.47</ele>
        <time>2014-03-21T11:59:08Z</time>
      </trkpt>
      <trkpt lat="42.84194" lon="0.17169">
        <ele>2228.95</ele>
        <time>2014-03-21T11:59:16Z</time>
      </trkpt>
      <trkpt lat="42.84191" lon="0.1717">
        <ele>2230.4</ele>
        <time>2014-03-21T11:59:23Z</time>
      </trkpt>
      <trkpt lat="42.84185" lon="0.17169">
        <ele>2232.32</ele>
        <time>2014-03-21T11:59:31Z</time>
      </trkpt>
      <trkpt lat="42.8418" lon="0.17167">
        <ele>2233.28</ele>
        <time>2014-03-21T11:59:37Z</time>
      </trkpt>
      <trkpt lat="42.84178" lon="0.17168">
        <ele>2233.76</ele>
        <time>2014-03-21T11:59:44Z</time>
      </trkpt>
      <trkpt lat="42.84173" lon="0.17167">
        <ele>2235.2</ele>
        <time>2014-03-21T11:59:52Z</time>
      </trkpt>
      <trkpt lat="42.84168" lon="0.17168">
        <ele>2238.09</ele>
        <time>2014-03-21T11:59:59Z</time>
      </trkpt>
      <trkpt lat="42.84168" lon="0.17168">
        <ele>2239.05</ele>
        <time>2014-03-21T12:00:05Z</time>
      </trkpt>
      <trkpt lat="42.84164" lon="0.17167">
        <ele>2240.97</ele>
        <time>2014-03-21T12:00:14Z</time>
      </trkpt>
      <trkpt lat="42.84159" lon="0.17165">
        <ele>2241.93</ele>
        <time>2014-03-21T12:00:20Z</time>
      </trkpt>
      <trkpt lat="42.84153" lon="0.17161">
        <ele>2244.33</ele>
        <time>2014-03-21T12:00:27Z</time>
      </trkpt>
      <trkpt lat="42.84149" lon="0.17161">
        <ele>2248.18</ele>
        <time>2014-03-21T12:00:34Z</time>
      </trkpt>
      <trkpt lat="42.84142" lon="0.17158">
        <ele>2252.99</ele>
        <time>2014-03-21T12:00:40Z</time>
      </trkpt>
      <trkpt lat="42.84141" lon="0.17164">
        <ele>2254.91</ele>
        <time>2014-03-21T12:00:47Z</time>
      </trkpt>
      <trkpt lat="42.84139" lon="0.17165">
        <ele>2256.83</ele>
        <time>2014-03-21T12:00:53Z</time>
      </trkpt>
      <trkpt lat="42.84135" lon="0.17168">
        <ele>2258.75</ele>
        <time>2014-03-21T12:00:59Z</time>
      </trkpt>
      <trkpt lat="42.84133" lon="0.17168">
        <ele>2258.27</ele>
        <time>2014-03-21T12:01:03Z</time>
      </trkpt>
      <trkpt lat="42.84131" lon="0.17169">
        <ele>2259.24</ele>
        <time>2014-03-21T12:01:10Z</time>
      </trkpt>
      <trkpt lat="42.8413" lon="0.17168">
        <ele>2259.24</ele>
        <time>2014-03-21T12:01:15Z</time>
      </trkpt>
      <trkpt lat="42.8413" lon="0.1717">
        <ele>2260.68</ele>
        <time>2014-03-21T12:01:21Z</time>
      </trkpt>
      <trkpt lat="42.84128" lon="0.1717">
        <ele>2261.16</ele>
        <time>2014-03-21T12:01:26Z</time>
      </trkpt>
      <trkpt lat="42.84126" lon="0.17169">
        <ele>2262.6</ele>
        <time>2014-03-21T12:01:31Z</time>
      </trkpt>
      <trkpt lat="42.84124" lon="0.17169">
        <ele>2261.64</ele>
        <time>2014-03-21T12:01:36Z</time>
      </trkpt>
      <trkpt lat="42.84122" lon="0.17168">
        <ele>2261.16</ele>
        <time>2014-03-21T12:01:41Z</time>
      </trkpt>
      <trkpt lat="42.84121" lon="0.17169">
        <ele>2261.16</ele>
        <time>2014-03-21T12:01:48Z</time>
      </trkpt>
      <trkpt lat="42.84122" lon="0.17172">
        <ele>2260.2</ele>
        <time>2014-03-21T12:01:54Z</time>
      </trkpt>
      <trkpt lat="42.84122" lon="0.17171">
        <ele>2259.72</ele>
        <time>2014-03-21T12:02:01Z</time>
      </trkpt>
      <trkpt lat="42.84122" lon="0.17167">
        <ele>2259.24</ele>
        <time>2014-03-21T12:02:10Z</time>
      </trkpt>
      <trkpt lat="42.84121" lon="0.17159">
        <ele>2258.27</ele>
        <time>2014-03-21T12:02:16Z</time>
      </trkpt>
      <trkpt lat="42.84119" lon="0.17152">
        <ele>2257.79</ele>
        <time>2014-03-21T12:02:24Z</time>
      </trkpt>
      <trkpt lat="42.8412" lon="0.17149">
        <ele>2257.79</ele>
        <time>2014-03-21T12:02:30Z</time>
      </trkpt>
      <trkpt lat="42.84119" lon="0.17141">
        <ele>2256.83</ele>
        <time>2014-03-21T12:02:37Z</time>
      </trkpt>
      <trkpt lat="42.84119" lon="0.17137">
        <ele>2256.83</ele>
        <time>2014-03-21T12:02:44Z</time>
      </trkpt>
      <trkpt lat="42.84119" lon="0.17131">
        <ele>2255.87</ele>
        <time>2014-03-21T12:02:52Z</time>
      </trkpt>
      <trkpt lat="42.8412" lon="0.17126">
        <ele>2254.91</ele>
        <time>2014-03-21T12:02:55Z</time>
      </trkpt>
      <trkpt lat="42.8412" lon="0.17118">
        <ele>2255.39</ele>
        <time>2014-03-21T12:03:04Z</time>
      </trkpt>
      <trkpt lat="42.84121" lon="0.17116">
        <ele>2256.35</ele>
        <time>2014-03-21T12:03:12Z</time>
      </trkpt>
      <trkpt lat="42.84123" lon="0.17111">
        <ele>2257.79</ele>
        <time>2014-03-21T12:03:19Z</time>
      </trkpt>
      <trkpt lat="42.84124" lon="0.17107">
        <ele>2259.24</ele>
        <time>2014-03-21T12:03:26Z</time>
      </trkpt>
      <trkpt lat="42.84126" lon="0.17103">
        <ele>2259.72</ele>
        <time>2014-03-21T12:03:33Z</time>
      </trkpt>
      <trkpt lat="42.84127" lon="0.17101">
        <ele>2260.2</ele>
        <time>2014-03-21T12:03:36Z</time>
      </trkpt>
      <trkpt lat="42.84129" lon="0.17097">
        <ele>2259.72</ele>
        <time>2014-03-21T12:03:43Z</time>
      </trkpt>
      <trkpt lat="42.84131" lon="0.17092">
        <ele>2261.64</ele>
        <time>2014-03-21T12:03:51Z</time>
      </trkpt>
      <trkpt lat="42.84134" lon="0.17089">
        <ele>2261.64</ele>
        <time>2014-03-21T12:03:57Z</time>
      </trkpt>
      <trkpt lat="42.84137" lon="0.17087">
        <ele>2262.12</ele>
        <time>2014-03-21T12:04:04Z</time>
      </trkpt>
      <trkpt lat="42.8414" lon="0.17085">
        <ele>2262.6</ele>
        <time>2014-03-21T12:04:10Z</time>
      </trkpt>
      <trkpt lat="42.84141" lon="0.17082">
        <ele>2262.12</ele>
        <time>2014-03-21T12:04:16Z</time>
      </trkpt>
      <trkpt lat="42.84144" lon="0.1708">
        <ele>2263.08</ele>
        <time>2014-03-21T12:04:23Z</time>
      </trkpt>
      <trkpt lat="42.84143" lon="0.17077">
        <ele>2263.56</ele>
        <time>2014-03-21T12:04:26Z</time>
      </trkpt>
      <trkpt lat="42.84148" lon="0.17077">
        <ele>2264.52</ele>
        <time>2014-03-21T12:04:33Z</time>
      </trkpt>
      <trkpt lat="42.84151" lon="0.17074">
        <ele>2265.48</ele>
        <time>2014-03-21T12:04:38Z</time>
      </trkpt>
      <trkpt lat="42.84152" lon="0.17072">
        <ele>2265.96</ele>
        <time>2014-03-21T12:04:44Z</time>
      </trkpt>
      <trkpt lat="42.84157" lon="0.17071">
        <ele>2265.96</ele>
        <time>2014-03-21T12:04:49Z</time>
      </trkpt>
      <trkpt lat="42.84159" lon="0.17069">
        <ele>2267.89</ele>
        <time>2014-03-21T12:04:55Z</time>
      </trkpt>
      <trkpt lat="42.84163" lon="0.17066">
        <ele>2269.81</ele>
        <time>2014-03-21T12:05:01Z</time>
      </trkpt>
      <trkpt lat="42.84162" lon="0.17063">
        <ele>2271.25</ele>
        <time>2014-03-21T12:05:07Z</time>
      </trkpt>
      <trkpt lat="42.84163" lon="0.17062">
        <ele>2271.73</ele>
        <time>2014-03-21T12:05:08Z</time>
      </trkpt>
      <trkpt lat="42.84165" lon="0.1706">
        <ele>2270.77</ele>
        <time>2014-03-21T12:05:14Z</time>
      </trkpt>
      <trkpt lat="42.84169" lon="0.17059">
        <ele>2271.73</ele>
        <time>2014-03-21T12:05:21Z</time>
      </trkpt>
      <trkpt lat="42.84171" lon="0.17056">
        <ele>2271.73</ele>
        <time>2014-03-21T12:05:26Z</time>
      </trkpt>
      <trkpt lat="42.84173" lon="0.17055">
        <ele>2271.73</ele>
        <time>2014-03-21T12:05:31Z</time>
      </trkpt>
      <trkpt lat="42.84175" lon="0.17053">
        <ele>2272.21</ele>
        <time>2014-03-21T12:05:38Z</time>
      </trkpt>
      <trkpt lat="42.84179" lon="0.17051">
        <ele>2273.17</ele>
        <time>2014-03-21T12:05:45Z</time>
      </trkpt>
      <trkpt lat="42.84183" lon="0.17048">
        <ele>2274.14</ele>
        <time>2014-03-21T12:05:53Z</time>
      </trkpt>
      <trkpt lat="42.84186" lon="0.17044">
        <ele>2273.17</ele>
        <time>2014-03-21T12:05:59Z</time>
      </trkpt>
      <trkpt lat="42.8419" lon="0.17044">
        <ele>2273.17</ele>
        <time>2014-03-21T12:06:06Z</time>
      </trkpt>
      <trkpt lat="42.84189" lon="0.17044">
        <ele>2274.14</ele>
        <time>2014-03-21T12:06:15Z</time>
      </trkpt>
      <trkpt lat="42.8419" lon="0.17039">
        <ele>2275.1</ele>
        <time>2014-03-21T12:06:23Z</time>
      </trkpt>
      <trkpt lat="42.84192" lon="0.17039">
        <ele>2275.1</ele>
        <time>2014-03-21T12:06:25Z</time>
      </trkpt>
      <trkpt lat="42.84197" lon="0.17033">
        <ele>2277.98</ele>
        <time>2014-03-21T12:06:34Z</time>
      </trkpt>
      <trkpt lat="42.84198" lon="0.17027">
        <ele>2278.46</ele>
        <time>2014-03-21T12:06:40Z</time>
      </trkpt>
      <trkpt lat="42.84198" lon="0.17026">
        <ele>2278.46</ele>
        <time>2014-03-21T12:06:42Z</time>
      </trkpt>
      <trkpt lat="42.84203" lon="0.17022">
        <ele>2277.98</ele>
        <time>2014-03-21T12:06:50Z</time>
      </trkpt>
      <trkpt lat="42.84206" lon="0.17018">
        <ele>2278.46</ele>
        <time>2014-03-21T12:06:57Z</time>
      </trkpt>
      <trkpt lat="42.84209" lon="0.17015">
        <ele>2279.42</ele>
        <time>2014-03-21T12:07:04Z</time>
      </trkpt>
      <trkpt lat="42.8421" lon="0.17012">
        <ele>2279.9</ele>
        <time>2014-03-21T12:07:07Z</time>
      </trkpt>
      <trkpt lat="42.8421" lon="0.17007">
        <ele>2279.42</ele>
        <time>2014-03-21T12:07:10Z</time>
      </trkpt>
      <trkpt lat="42.84212" lon="0.17005">
        <ele>2280.38</ele>
        <time>2014-03-21T12:07:17Z</time>
      </trkpt>
      <trkpt lat="42.84213" lon="0.17005">
        <ele>2279.9</ele>
        <time>2014-03-21T12:07:18Z</time>
      </trkpt>
      <trkpt lat="42.84218" lon="0.17005">
        <ele>2281.35</ele>
        <time>2014-03-21T12:07:25Z</time>
      </trkpt>
      <trkpt lat="42.84221" lon="0.17001">
        <ele>2280.87</ele>
        <time>2014-03-21T12:07:30Z</time>
      </trkpt>
      <trkpt lat="42.84226" lon="0.17001">
        <ele>2280.87</ele>
        <time>2014-03-21T12:07:37Z</time>
      </trkpt>
      <trkpt lat="42.84232" lon="0.16997">
        <ele>2279.9</ele>
        <time>2014-03-21T12:07:45Z</time>
      </trkpt>
      <trkpt lat="42.84231" lon="0.16993">
        <ele>2279.42</ele>
        <time>2014-03-21T12:07:50Z</time>
      </trkpt>
      <trkpt lat="42.84235" lon="0.1699">
        <ele>2280.38</ele>
        <time>2014-03-21T12:07:56Z</time>
      </trkpt>
      <trkpt lat="42.84238" lon="0.16987">
        <ele>2280.38</ele>
        <time>2014-03-21T12:08:02Z</time>
      </trkpt>
      <trkpt lat="42.84241" lon="0.16983">
        <ele>2280.87</ele>
        <time>2014-03-21T12:08:09Z</time>
      </trkpt>
      <trkpt lat="42.84243" lon="0.16979">
        <ele>2281.83</ele>
        <time>2014-03-21T12:08:15Z</time>
      </trkpt>
      <trkpt lat="42.84244" lon="0.16977">
        <ele>2280.87</ele>
        <time>2014-03-21T12:08:18Z</time>
      </trkpt>
      <trkpt lat="42.84249" lon="0.16974">
        <ele>2281.35</ele>
        <time>2014-03-21T12:08:25Z</time>
      </trkpt>
      <trkpt lat="42.84252" lon="0.16969">
        <ele>2281.83</ele>
        <time>2014-03-21T12:08:32Z</time>
      </trkpt>
      <trkpt lat="42.84254" lon="0.16965">
        <ele>2280.38</ele>
        <time>2014-03-21T12:08:38Z</time>
      </trkpt>
      <trkpt lat="42.84256" lon="0.16964">
        <ele>2279.42</ele>
        <time>2014-03-21T12:08:45Z</time>
      </trkpt>
      <trkpt lat="42.8426" lon="0.16963">
        <ele>2281.35</ele>
        <time>2014-03-21T12:08:50Z</time>
      </trkpt>
      <trkpt lat="42.84262" lon="0.16959">
        <ele>2283.27</ele>
        <time>2014-03-21T12:08:57Z</time>
      </trkpt>
      <trkpt lat="42.84263" lon="0.16956">
        <ele>2284.23</ele>
        <time>2014-03-21T12:09:02Z</time>
      </trkpt>
      <trkpt lat="42.84266" lon="0.16953">
        <ele>2282.31</ele>
        <time>2014-03-21T12:09:08Z</time>
      </trkpt>
      <trkpt lat="42.84268" lon="0.16952">
        <ele>2282.79</ele>
        <time>2014-03-21T12:09:11Z</time>
      </trkpt>
      <trkpt lat="42.84268" lon="0.16947">
        <ele>2281.35</ele>
        <time>2014-03-21T12:09:18Z</time>
      </trkpt>
      <trkpt lat="42.84268" lon="0.16947">
        <ele>2281.35</ele>
        <time>2014-03-21T12:09:25Z</time>
      </trkpt>
      <trkpt lat="42.84269" lon="0.16944">
        <ele>2281.83</ele>
        <time>2014-03-21T12:09:32Z</time>
      </trkpt>
      <trkpt lat="42.84272" lon="0.16939">
        <ele>2285.67</ele>
        <time>2014-03-21T12:09:40Z</time>
      </trkpt>
      <trkpt lat="42.84275" lon="0.16934">
        <ele>2288.08</ele>
        <time>2014-03-21T12:09:47Z</time>
      </trkpt>
      <trkpt lat="42.84277" lon="0.16931">
        <ele>2288.08</ele>
        <time>2014-03-21T12:09:50Z</time>
      </trkpt>
      <trkpt lat="42.84284" lon="0.16929">
        <ele>2289.52</ele>
        <time>2014-03-21T12:09:58Z</time>
      </trkpt>
      <trkpt lat="42.84289" lon="0.16926">
        <ele>2290.96</ele>
        <time>2014-03-21T12:10:05Z</time>
      </trkpt>
      <trkpt lat="42.84295" lon="0.16926">
        <ele>2292.4</ele>
        <time>2014-03-21T12:10:13Z</time>
      </trkpt>
      <trkpt lat="42.84298" lon="0.16926">
        <ele>2294.8</ele>
        <time>2014-03-21T12:10:19Z</time>
      </trkpt>
      <trkpt lat="42.843" lon="0.16926">
        <ele>2295.77</ele>
        <time>2014-03-21T12:10:27Z</time>
      </trkpt>
      <trkpt lat="42.843" lon="0.16926">
        <ele>2295.77</ele>
        <time>2014-03-21T12:10:29Z</time>
      </trkpt>
      <trkpt lat="42.84303" lon="0.16923">
        <ele>2296.73</ele>
        <time>2014-03-21T12:10:37Z</time>
      </trkpt>
      <trkpt lat="42.84305" lon="0.1692">
        <ele>2298.65</ele>
        <time>2014-03-21T12:10:43Z</time>
      </trkpt>
      <trkpt lat="42.84309" lon="0.16919">
        <ele>2298.65</ele>
        <time>2014-03-21T12:10:48Z</time>
      </trkpt>
      <trkpt lat="42.84313" lon="0.16918">
        <ele>2300.57</ele>
        <time>2014-03-21T12:10:54Z</time>
      </trkpt>
      <trkpt lat="42.84317" lon="0.16917">
        <ele>2302.49</ele>
        <time>2014-03-21T12:11:00Z</time>
      </trkpt>
      <trkpt lat="42.8432" lon="0.16916">
        <ele>2303.94</ele>
        <time>2014-03-21T12:11:07Z</time>
      </trkpt>
      <trkpt lat="42.84324" lon="0.16913">
        <ele>2303.94</ele>
        <time>2014-03-21T12:11:15Z</time>
      </trkpt>
      <trkpt lat="42.84329" lon="0.16912">
        <ele>2303.46</ele>
        <time>2014-03-21T12:11:25Z</time>
      </trkpt>
      <trkpt lat="42.84332" lon="0.16911">
        <ele>2303.46</ele>
        <time>2014-03-21T12:11:31Z</time>
      </trkpt>
      <trkpt lat="42.84336" lon="0.16908">
        <ele>2301.53</ele>
        <time>2014-03-21T12:11:37Z</time>
      </trkpt>
      <trkpt lat="42.84337" lon="0.16906">
        <ele>2301.53</ele>
        <time>2014-03-21T12:11:42Z</time>
      </trkpt>
      <trkpt lat="42.8434" lon="0.169">
        <ele>2302.49</ele>
        <time>2014-03-21T12:11:50Z</time>
      </trkpt>
      <trkpt lat="42.84343" lon="0.16895">
        <ele>2302.01</ele>
        <time>2014-03-21T12:11:57Z</time>
      </trkpt>
      <trkpt lat="42.84344" lon="0.16893">
        <ele>2302.49</ele>
        <time>2014-03-21T12:12:04Z</time>
      </trkpt>
      <trkpt lat="42.84346" lon="0.16889">
        <ele>2302.98</ele>
        <time>2014-03-21T12:12:10Z</time>
      </trkpt>
      <trkpt lat="42.84349" lon="0.16884">
        <ele>2305.38</ele>
        <time>2014-03-21T12:12:17Z</time>
      </trkpt>
      <trkpt lat="42.84353" lon="0.16878">
        <ele>2307.78</ele>
        <time>2014-03-21T12:12:24Z</time>
      </trkpt>
      <trkpt lat="42.84355" lon="0.1687">
        <ele>2310.67</ele>
        <time>2014-03-21T12:12:32Z</time>
      </trkpt>
      <trkpt lat="42.84357" lon="0.16866">
        <ele>2310.19</ele>
        <time>2014-03-21T12:12:40Z</time>
      </trkpt>
      <trkpt lat="42.84359" lon="0.16863">
        <ele>2308.74</ele>
        <time>2014-03-21T12:12:47Z</time>
      </trkpt>
      <trkpt lat="42.84361" lon="0.16862">
        <ele>2308.26</ele>
        <time>2014-03-21T12:12:55Z</time>
      </trkpt>
      <trkpt lat="42.84362" lon="0.16862">
        <ele>2307.78</ele>
        <time>2014-03-21T12:13:02Z</time>
      </trkpt>
      <trkpt lat="42.84367" lon="0.16863">
        <ele>2307.3</ele>
        <time>2014-03-21T12:13:10Z</time>
      </trkpt>
      <trkpt lat="42.84373" lon="0.16865">
        <ele>2307.78</ele>
        <time>2014-03-21T12:13:16Z</time>
      </trkpt>
      <trkpt lat="42.8438" lon="0.16866">
        <ele>2306.34</ele>
        <time>2014-03-21T12:13:23Z</time>
      </trkpt>
      <trkpt lat="42.84382" lon="0.16865">
        <ele>2307.3</ele>
        <time>2014-03-21T12:13:30Z</time>
      </trkpt>
      <trkpt lat="42.84385" lon="0.16867">
        <ele>2307.3</ele>
        <time>2014-03-21T12:13:36Z</time>
      </trkpt>
      <trkpt lat="42.8439" lon="0.16872">
        <ele>2304.9</ele>
        <time>2014-03-21T12:13:44Z</time>
      </trkpt>
      <trkpt lat="42.84392" lon="0.16874">
        <ele>2303.94</ele>
        <time>2014-03-21T12:13:51Z</time>
      </trkpt>
      <trkpt lat="42.84393" lon="0.16875">
        <ele>2303.46</ele>
        <time>2014-03-21T12:13:56Z</time>
      </trkpt>
      <trkpt lat="42.84394" lon="0.16881">
        <ele>2302.01</ele>
        <time>2014-03-21T12:14:02Z</time>
      </trkpt>
      <trkpt lat="42.84391" lon="0.16884">
        <ele>2301.53</ele>
        <time>2014-03-21T12:14:07Z</time>
      </trkpt>
      <trkpt lat="42.84391" lon="0.16891">
        <ele>2300.57</ele>
        <time>2014-03-21T12:14:14Z</time>
      </trkpt>
      <trkpt lat="42.8439" lon="0.16892">
        <ele>2300.57</ele>
        <time>2014-03-21T12:14:22Z</time>
      </trkpt>
      <trkpt lat="42.84389" lon="0.16892">
        <ele>2300.57</ele>
        <time>2014-03-21T12:14:32Z</time>
      </trkpt>
      <trkpt lat="42.84389" lon="0.16892">
        <ele>2299.13</ele>
        <time>2014-03-21T12:14:45Z</time>
      </trkpt>
      <trkpt lat="42.8439" lon="0.16891">
        <ele>2297.69</ele>
        <time>2014-03-21T12:14:52Z</time>
      </trkpt>
      <trkpt lat="42.8439" lon="0.16891">
        <ele>2297.69</ele>
        <time>2014-03-21T12:14:58Z</time>
      </trkpt>
      <trkpt lat="42.84386" lon="0.16906">
        <ele>2294.8</ele>
        <time>2014-03-21T12:15:03Z</time>
      </trkpt>
      <trkpt lat="42.84384" lon="0.1691">
        <ele>2294.32</ele>
        <time>2014-03-21T12:15:04Z</time>
      </trkpt>
      <trkpt lat="42.84389" lon="0.16927">
        <ele>2290.48</ele>
        <time>2014-03-21T12:15:10Z</time>
      </trkpt>
      <trkpt lat="42.84394" lon="0.16925">
        <ele>2288.56</ele>
        <time>2014-03-21T12:15:14Z</time>
      </trkpt>
      <trkpt lat="42.84394" lon="0.16924">
        <ele>2288.08</ele>
        <time>2014-03-21T12:15:21Z</time>
      </trkpt>
      <trkpt lat="42.84394" lon="0.16924">
        <ele>2288.08</ele>
        <time>2014-03-21T12:15:30Z</time>
      </trkpt>
      <trkpt lat="42.84395" lon="0.16923">
        <ele>2288.08</ele>
        <time>2014-03-21T12:15:39Z</time>
      </trkpt>
      <trkpt lat="42.84396" lon="0.16919">
        <ele>2288.56</ele>
        <time>2014-03-21T12:15:45Z</time>
      </trkpt>
      <trkpt lat="42.84397" lon="0.16918">
        <ele>2288.56</ele>
        <time>2014-03-21T12:15:46Z</time>
      </trkpt>
      <trkpt lat="42.84399" lon="0.16911">
        <ele>2289.52</ele>
        <time>2014-03-21T12:15:53Z</time>
      </trkpt>
      <trkpt lat="42.84405" lon="0.16905">
        <ele>2289.04</ele>
        <time>2014-03-21T12:16:02Z</time>
      </trkpt>
      <trkpt lat="42.84407" lon="0.16903">
        <ele>2289.52</ele>
        <time>2014-03-21T12:16:09Z</time>
      </trkpt>
      <trkpt lat="42.84408" lon="0.169">
        <ele>2290</ele>
        <time>2014-03-21T12:16:17Z</time>
      </trkpt>
      <trkpt lat="42.84414" lon="0.16892">
        <ele>2287.11</ele>
        <time>2014-03-21T12:16:25Z</time>
      </trkpt>
      <trkpt lat="42.84417" lon="0.16886">
        <ele>2287.11</ele>
        <time>2014-03-21T12:16:32Z</time>
      </trkpt>
      <trkpt lat="42.84422" lon="0.16883">
        <ele>2287.59</ele>
        <time>2014-03-21T12:16:39Z</time>
      </trkpt>
      <trkpt lat="42.84427" lon="0.16879">
        <ele>2286.63</ele>
        <time>2014-03-21T12:16:46Z</time>
      </trkpt>
      <trkpt lat="42.84427" lon="0.16878">
        <ele>2287.11</ele>
        <time>2014-03-21T12:16:47Z</time>
      </trkpt>
      <trkpt lat="42.8443" lon="0.16874">
        <ele>2287.11</ele>
        <time>2014-03-21T12:16:53Z</time>
      </trkpt>
      <trkpt lat="42.84432" lon="0.16867">
        <ele>2286.63</ele>
        <time>2014-03-21T12:17:01Z</time>
      </trkpt>
      <trkpt lat="42.84436" lon="0.1686">
        <ele>2285.67</ele>
        <time>2014-03-21T12:17:09Z</time>
      </trkpt>
      <trkpt lat="42.84437" lon="0.16856">
        <ele>2285.67</ele>
        <time>2014-03-21T12:17:16Z</time>
      </trkpt>
      <trkpt lat="42.84438" lon="0.1685">
        <ele>2285.19</ele>
        <time>2014-03-21T12:17:23Z</time>
      </trkpt>
      <trkpt lat="42.84441" lon="0.16844">
        <ele>2285.67</ele>
        <time>2014-03-21T12:17:31Z</time>
      </trkpt>
      <trkpt lat="42.84441" lon="0.16843">
        <ele>2286.15</ele>
        <time>2014-03-21T12:17:37Z</time>
      </trkpt>
      <trkpt lat="42.84442" lon="0.16844">
        <ele>2287.59</ele>
        <time>2014-03-21T12:17:48Z</time>
      </trkpt>
      <trkpt lat="42.84441" lon="0.16844">
        <ele>2289.52</ele>
        <time>2014-03-21T12:18:03Z</time>
      </trkpt>
      <trkpt lat="42.84441" lon="0.16844">
        <ele>2288.56</ele>
        <time>2014-03-21T12:18:13Z</time>
      </trkpt>
      <trkpt lat="42.84442" lon="0.16842">
        <ele>2288.56</ele>
        <time>2014-03-21T12:18:25Z</time>
      </trkpt>
      <trkpt lat="42.84442" lon="0.16835">
        <ele>2287.59</ele>
        <time>2014-03-21T12:18:31Z</time>
      </trkpt>
      <trkpt lat="42.84445" lon="0.16829">
        <ele>2288.08</ele>
        <time>2014-03-21T12:18:38Z</time>
      </trkpt>
      <trkpt lat="42.84446" lon="0.16826">
        <ele>2288.08</ele>
        <time>2014-03-21T12:18:44Z</time>
      </trkpt>
      <trkpt lat="42.84447" lon="0.1682">
        <ele>2287.59</ele>
        <time>2014-03-21T12:18:51Z</time>
      </trkpt>
      <trkpt lat="42.84449" lon="0.16812">
        <ele>2288.08</ele>
        <time>2014-03-21T12:18:59Z</time>
      </trkpt>
      <trkpt lat="42.8445" lon="0.16806">
        <ele>2289.52</ele>
        <time>2014-03-21T12:19:06Z</time>
      </trkpt>
      <trkpt lat="42.84451" lon="0.16799">
        <ele>2290.48</ele>
        <time>2014-03-21T12:19:14Z</time>
      </trkpt>
      <trkpt lat="42.84451" lon="0.16794">
        <ele>2290.96</ele>
        <time>2014-03-21T12:19:21Z</time>
      </trkpt>
      <trkpt lat="42.84452" lon="0.16791">
        <ele>2291.44</ele>
        <time>2014-03-21T12:19:29Z</time>
      </trkpt>
      <trkpt lat="42.84453" lon="0.16782">
        <ele>2291.92</ele>
        <time>2014-03-21T12:19:38Z</time>
      </trkpt>
      <trkpt lat="42.84454" lon="0.16774">
        <ele>2291.92</ele>
        <time>2014-03-21T12:19:47Z</time>
      </trkpt>
      <trkpt lat="42.84455" lon="0.1677">
        <ele>2293.36</ele>
        <time>2014-03-21T12:19:52Z</time>
      </trkpt>
      <trkpt lat="42.84458" lon="0.16764">
        <ele>2294.32</ele>
        <time>2014-03-21T12:20:01Z</time>
      </trkpt>
      <trkpt lat="42.84459" lon="0.16759">
        <ele>2295.77</ele>
        <time>2014-03-21T12:20:08Z</time>
      </trkpt>
      <trkpt lat="42.84461" lon="0.16754">
        <ele>2297.21</ele>
        <time>2014-03-21T12:20:16Z</time>
      </trkpt>
      <trkpt lat="42.84462" lon="0.16746">
        <ele>2298.65</ele>
        <time>2014-03-21T12:20:24Z</time>
      </trkpt>
      <trkpt lat="42.84466" lon="0.16741">
        <ele>2298.65</ele>
        <time>2014-03-21T12:20:32Z</time>
      </trkpt>
      <trkpt lat="42.84467" lon="0.16737">
        <ele>2300.57</ele>
        <time>2014-03-21T12:20:40Z</time>
      </trkpt>
      <trkpt lat="42.8447" lon="0.16735">
        <ele>2300.57</ele>
        <time>2014-03-21T12:20:45Z</time>
      </trkpt>
      <trkpt lat="42.84471" lon="0.16734">
        <ele>2300.57</ele>
        <time>2014-03-21T12:20:50Z</time>
      </trkpt>
      <trkpt lat="42.84472" lon="0.16734">
        <ele>2301.05</ele>
        <time>2014-03-21T12:20:57Z</time>
      </trkpt>
      <trkpt lat="42.84474" lon="0.16733">
        <ele>2301.53</ele>
        <time>2014-03-21T12:21:07Z</time>
      </trkpt>
      <trkpt lat="42.84478" lon="0.16726">
        <ele>2302.01</ele>
        <time>2014-03-21T12:21:17Z</time>
      </trkpt>
      <trkpt lat="42.8448" lon="0.16724">
        <ele>2303.46</ele>
        <time>2014-03-21T12:21:24Z</time>
      </trkpt>
      <trkpt lat="42.84482" lon="0.16721">
        <ele>2306.82</ele>
        <time>2014-03-21T12:21:34Z</time>
      </trkpt>
      <trkpt lat="42.84483" lon="0.1672">
        <ele>2307.3</ele>
        <time>2014-03-21T12:21:47Z</time>
      </trkpt>
      <trkpt lat="42.84485" lon="0.16721">
        <ele>2307.3</ele>
        <time>2014-03-21T12:21:59Z</time>
      </trkpt>
      <trkpt lat="42.84486" lon="0.16722">
        <ele>2307.78</ele>
        <time>2014-03-21T12:22:11Z</time>
      </trkpt>
      <trkpt lat="42.84487" lon="0.16722">
        <ele>2308.26</ele>
        <time>2014-03-21T12:22:25Z</time>
      </trkpt>
      <trkpt lat="42.84488" lon="0.16719">
        <ele>2310.19</ele>
        <time>2014-03-21T12:22:30Z</time>
      </trkpt>
      <trkpt lat="42.84489" lon="0.16718">
        <ele>2310.19</ele>
        <time>2014-03-21T12:22:38Z</time>
      </trkpt>
      <trkpt lat="42.84488" lon="0.16718">
        <ele>2310.19</ele>
        <time>2014-03-21T12:22:46Z</time>
      </trkpt>
      <trkpt lat="42.8449" lon="0.16717">
        <ele>2310.67</ele>
        <time>2014-03-21T12:22:54Z</time>
      </trkpt>
      <trkpt lat="42.84491" lon="0.16715">
        <ele>2311.15</ele>
        <time>2014-03-21T12:23:01Z</time>
      </trkpt>
      <trkpt lat="42.84492" lon="0.16712">
        <ele>2311.15</ele>
        <time>2014-03-21T12:23:07Z</time>
      </trkpt>
      <trkpt lat="42.84492" lon="0.16708">
        <ele>2311.63</ele>
        <time>2014-03-21T12:23:11Z</time>
      </trkpt>
      <trkpt lat="42.84493" lon="0.16703">
        <ele>2311.15</ele>
        <time>2014-03-21T12:23:18Z</time>
      </trkpt>
      <trkpt lat="42.84494" lon="0.16704">
        <ele>2312.11</ele>
        <time>2014-03-21T12:23:26Z</time>
      </trkpt>
      <trkpt lat="42.84493" lon="0.16704">
        <ele>2312.59</ele>
        <time>2014-03-21T12:23:41Z</time>
      </trkpt>
      <trkpt lat="42.84493" lon="0.16706">
        <ele>2311.15</ele>
        <time>2014-03-21T12:23:54Z</time>
      </trkpt>
      <trkpt lat="42.84494" lon="0.16707">
        <ele>2310.19</ele>
        <time>2014-03-21T12:24:05Z</time>
      </trkpt>
      <trkpt lat="42.84494" lon="0.16709">
        <ele>2309.7</ele>
        <time>2014-03-21T12:24:14Z</time>
      </trkpt>
      <trkpt lat="42.84494" lon="0.1671">
        <ele>2308.74</ele>
        <time>2014-03-21T12:24:33Z</time>
      </trkpt>
      <trkpt lat="42.84495" lon="0.16709">
        <ele>2308.26</ele>
        <time>2014-03-21T12:24:43Z</time>
      </trkpt>
      <trkpt lat="42.84495" lon="0.16708">
        <ele>2308.26</ele>
        <time>2014-03-21T12:24:53Z</time>
      </trkpt>
      <trkpt lat="42.84496" lon="0.16707">
        <ele>2308.26</ele>
        <time>2014-03-21T12:25:12Z</time>
      </trkpt>
      <trkpt lat="42.84497" lon="0.16707">
        <ele>2309.22</ele>
        <time>2014-03-21T12:25:27Z</time>
      </trkpt>
      <trkpt lat="42.84497" lon="0.16707">
        <ele>2309.7</ele>
        <time>2014-03-21T12:25:43Z</time>
      </trkpt>
      <trkpt lat="42.84497" lon="0.16707">
        <ele>2309.22</ele>
        <time>2014-03-21T12:25:50Z</time>
      </trkpt>
      <trkpt lat="42.84497" lon="0.16707">
        <ele>2309.7</ele>
        <time>2014-03-21T12:26:05Z</time>
      </trkpt>
      <trkpt lat="42.84497" lon="0.16706">
        <ele>2309.7</ele>
        <time>2014-03-21T12:26:22Z</time>
      </trkpt>
      <trkpt lat="42.84497" lon="0.16706">
        <ele>2309.7</ele>
        <time>2014-03-21T12:26:41Z</time>
      </trkpt>
      <trkpt lat="42.84496" lon="0.16705">
        <ele>2309.7</ele>
        <time>2014-03-21T12:27:00Z</time>
      </trkpt>
      <trkpt lat="42.84496" lon="0.16704">
        <ele>2309.22</ele>
        <time>2014-03-21T12:27:18Z</time>
      </trkpt>
      <trkpt lat="42.84496" lon="0.16703">
        <ele>2309.22</ele>
        <time>2014-03-21T12:27:29Z</time>
      </trkpt>
      <trkpt lat="42.84497" lon="0.16705">
        <ele>2309.22</ele>
        <time>2014-03-21T12:27:34Z</time>
      </trkpt>
      <trkpt lat="42.84497" lon="0.16705">
        <ele>2309.22</ele>
        <time>2014-03-21T12:27:43Z</time>
      </trkpt>
      <trkpt lat="42.84498" lon="0.16705">
        <ele>2309.7</ele>
        <time>2014-03-21T12:27:57Z</time>
      </trkpt>
      <trkpt lat="42.84498" lon="0.16706">
        <ele>2309.7</ele>
        <time>2014-03-21T12:28:12Z</time>
      </trkpt>
      <trkpt lat="42.84499" lon="0.16707">
        <ele>2309.22</ele>
        <time>2014-03-21T12:28:25Z</time>
      </trkpt>
      <trkpt lat="42.84499" lon="0.16707">
        <ele>2310.19</ele>
        <time>2014-03-21T12:28:38Z</time>
      </trkpt>
      <trkpt lat="42.84498" lon="0.16707">
        <ele>2310.19</ele>
        <time>2014-03-21T12:28:51Z</time>
      </trkpt>
      <trkpt lat="42.84498" lon="0.16707">
        <ele>2310.19</ele>
        <time>2014-03-21T12:28:59Z</time>
      </trkpt>
      <trkpt lat="42.84499" lon="0.16707">
        <ele>2310.19</ele>
        <time>2014-03-21T12:29:17Z</time>
      </trkpt>
      <trkpt lat="42.84499" lon="0.16707">
        <ele>2309.7</ele>
        <time>2014-03-21T12:29:34Z</time>
      </trkpt>
      <trkpt lat="42.84499" lon="0.16707">
        <ele>2309.7</ele>
        <time>2014-03-21T12:29:54Z</time>
      </trkpt>
      <trkpt lat="42.84499" lon="0.16707">
        <ele>2308.74</ele>
        <time>2014-03-21T12:30:13Z</time>
      </trkpt>
      <trkpt lat="42.84499" lon="0.16707">
        <ele>2309.22</ele>
        <time>2014-03-21T12:30:28Z</time>
      </trkpt>
      <trkpt lat="42.84499" lon="0.16706">
        <ele>2309.22</ele>
        <time>2014-03-21T12:30:35Z</time>
      </trkpt>
      <trkpt lat="42.84497" lon="0.16705">
        <ele>2309.7</ele>
        <time>2014-03-21T12:30:43Z</time>
      </trkpt>
      <trkpt lat="42.84497" lon="0.16705">
        <ele>2310.19</ele>
        <time>2014-03-21T12:30:46Z</time>
      </trkpt>
      <trkpt lat="42.84494" lon="0.16691">
        <ele>2308.26</ele>
        <time>2014-03-21T12:30:52Z</time>
      </trkpt>
      <trkpt lat="42.84493" lon="0.16683">
        <ele>2306.34</ele>
        <time>2014-03-21T12:30:58Z</time>
      </trkpt>
      <trkpt lat="42.84493" lon="0.16678">
        <ele>2304.9</ele>
        <time>2014-03-21T12:31:02Z</time>
      </trkpt>
      <trkpt lat="42.84491" lon="0.16672">
        <ele>2304.42</ele>
        <time>2014-03-21T12:31:08Z</time>
      </trkpt>
      <trkpt lat="42.84489" lon="0.16666">
        <ele>2303.94</ele>
        <time>2014-03-21T12:31:12Z</time>
      </trkpt>
      <trkpt lat="42.84488" lon="0.16663">
        <ele>2304.42</ele>
        <time>2014-03-21T12:31:14Z</time>
      </trkpt>
      <trkpt lat="42.84489" lon="0.16649">
        <ele>2303.46</ele>
        <time>2014-03-21T12:31:20Z</time>
      </trkpt>
      <trkpt lat="42.84489" lon="0.16647">
        <ele>2303.46</ele>
        <time>2014-03-21T12:31:21Z</time>
      </trkpt>
      <trkpt lat="42.8449" lon="0.16635">
        <ele>2303.46</ele>
        <time>2014-03-21T12:31:30Z</time>
      </trkpt>
      <trkpt lat="42.84491" lon="0.16628">
        <ele>2302.98</ele>
        <time>2014-03-21T12:31:36Z</time>
      </trkpt>
      <trkpt lat="42.84493" lon="0.16621">
        <ele>2302.98</ele>
        <time>2014-03-21T12:31:44Z</time>
      </trkpt>
      <trkpt lat="42.84496" lon="0.16613">
        <ele>2302.98</ele>
        <time>2014-03-21T12:31:52Z</time>
      </trkpt>
      <trkpt lat="42.84498" lon="0.16606">
        <ele>2304.9</ele>
        <time>2014-03-21T12:32:01Z</time>
      </trkpt>
      <trkpt lat="42.84499" lon="0.16605">
        <ele>2304.9</ele>
        <time>2014-03-21T12:32:03Z</time>
      </trkpt>
      <trkpt lat="42.845" lon="0.16596">
        <ele>2305.86</ele>
        <time>2014-03-21T12:32:12Z</time>
      </trkpt>
      <trkpt lat="42.84499" lon="0.16591">
        <ele>2306.34</ele>
        <time>2014-03-21T12:32:19Z</time>
      </trkpt>
      <trkpt lat="42.84498" lon="0.16584">
        <ele>2306.34</ele>
        <time>2014-03-21T12:32:26Z</time>
      </trkpt>
      <trkpt lat="42.84497" lon="0.16574">
        <ele>2304.9</ele>
        <time>2014-03-21T12:32:35Z</time>
      </trkpt>
      <trkpt lat="42.84497" lon="0.16565">
        <ele>2304.9</ele>
        <time>2014-03-21T12:32:42Z</time>
      </trkpt>
      <trkpt lat="42.84497" lon="0.16563">
        <ele>2305.38</ele>
        <time>2014-03-21T12:32:44Z</time>
      </trkpt>
      <trkpt lat="42.84497" lon="0.16555">
        <ele>2306.34</ele>
        <time>2014-03-21T12:32:51Z</time>
      </trkpt>
      <trkpt lat="42.84497" lon="0.16548">
        <ele>2307.3</ele>
        <time>2014-03-21T12:32:59Z</time>
      </trkpt>
      <trkpt lat="42.84498" lon="0.1654">
        <ele>2308.26</ele>
        <time>2014-03-21T12:33:07Z</time>
      </trkpt>
      <trkpt lat="42.84499" lon="0.16532">
        <ele>2309.22</ele>
        <time>2014-03-21T12:33:15Z</time>
      </trkpt>
      <trkpt lat="42.84499" lon="0.16528">
        <ele>2310.19</ele>
        <time>2014-03-21T12:33:19Z</time>
      </trkpt>
      <trkpt lat="42.84499" lon="0.16519">
        <ele>2310.19</ele>
        <time>2014-03-21T12:33:28Z</time>
      </trkpt>
      <trkpt lat="42.845" lon="0.16512">
        <ele>2310.19</ele>
        <time>2014-03-21T12:33:35Z</time>
      </trkpt>
      <trkpt lat="42.845" lon="0.16506">
        <ele>2310.19</ele>
        <time>2014-03-21T12:33:41Z</time>
      </trkpt>
      <trkpt lat="42.845" lon="0.16497">
        <ele>2309.7</ele>
        <time>2014-03-21T12:33:48Z</time>
      </trkpt>
      <trkpt lat="42.84501" lon="0.1649">
        <ele>2309.7</ele>
        <time>2014-03-21T12:33:55Z</time>
      </trkpt>
      <trkpt lat="42.84501" lon="0.16487">
        <ele>2310.19</ele>
        <time>2014-03-21T12:33:59Z</time>
      </trkpt>
      <trkpt lat="42.84504" lon="0.16482">
        <ele>2310.67</ele>
        <time>2014-03-21T12:34:07Z</time>
      </trkpt>
      <trkpt lat="42.84506" lon="0.16478">
        <ele>2311.63</ele>
        <time>2014-03-21T12:34:13Z</time>
      </trkpt>
      <trkpt lat="42.84508" lon="0.16473">
        <ele>2313.55</ele>
        <time>2014-03-21T12:34:21Z</time>
      </trkpt>
      <trkpt lat="42.84509" lon="0.1647">
        <ele>2314.51</ele>
        <time>2014-03-21T12:34:28Z</time>
      </trkpt>
      <trkpt lat="42.84511" lon="0.16464">
        <ele>2314.51</ele>
        <time>2014-03-21T12:34:35Z</time>
      </trkpt>
      <trkpt lat="42.84512" lon="0.16458">
        <ele>2314.99</ele>
        <time>2014-03-21T12:34:43Z</time>
      </trkpt>
      <trkpt lat="42.84512" lon="0.16451">
        <ele>2316.91</ele>
        <time>2014-03-21T12:34:50Z</time>
      </trkpt>
      <trkpt lat="42.84512" lon="0.16446">
        <ele>2316.43</ele>
        <time>2014-03-21T12:34:57Z</time>
      </trkpt>
      <trkpt lat="42.84512" lon="0.1644">
        <ele>2315.95</ele>
        <time>2014-03-21T12:35:04Z</time>
      </trkpt>
      <trkpt lat="42.84512" lon="0.16435">
        <ele>2316.43</ele>
        <time>2014-03-21T12:35:10Z</time>
      </trkpt>
      <trkpt lat="42.84513" lon="0.1643">
        <ele>2316.91</ele>
        <time>2014-03-21T12:35:18Z</time>
      </trkpt>
      <trkpt lat="42.84514" lon="0.16424">
        <ele>2317.88</ele>
        <time>2014-03-21T12:35:26Z</time>
      </trkpt>
      <trkpt lat="42.84513" lon="0.16419">
        <ele>2318.84</ele>
        <time>2014-03-21T12:35:31Z</time>
      </trkpt>
      <trkpt lat="42.84514" lon="0.16413">
        <ele>2319.32</ele>
        <time>2014-03-21T12:35:38Z</time>
      </trkpt>
      <trkpt lat="42.84514" lon="0.16407">
        <ele>2318.84</ele>
        <time>2014-03-21T12:35:45Z</time>
      </trkpt>
      <trkpt lat="42.84513" lon="0.16399">
        <ele>2318.36</ele>
        <time>2014-03-21T12:35:52Z</time>
      </trkpt>
      <trkpt lat="42.84512" lon="0.16396">
        <ele>2319.32</ele>
        <time>2014-03-21T12:35:55Z</time>
      </trkpt>
      <trkpt lat="42.84512" lon="0.16388">
        <ele>2318.36</ele>
        <time>2014-03-21T12:36:03Z</time>
      </trkpt>
      <trkpt lat="42.84509" lon="0.16381">
        <ele>2318.84</ele>
        <time>2014-03-21T12:36:11Z</time>
      </trkpt>
      <trkpt lat="42.84507" lon="0.16375">
        <ele>2320.76</ele>
        <time>2014-03-21T12:36:18Z</time>
      </trkpt>
      <trkpt lat="42.84505" lon="0.16367">
        <ele>2320.28</ele>
        <time>2014-03-21T12:36:25Z</time>
      </trkpt>
      <trkpt lat="42.84503" lon="0.1636">
        <ele>2319.8</ele>
        <time>2014-03-21T12:36:32Z</time>
      </trkpt>
      <trkpt lat="42.84501" lon="0.16351">
        <ele>2320.76</ele>
        <time>2014-03-21T12:36:40Z</time>
      </trkpt>
      <trkpt lat="42.84502" lon="0.16347">
        <ele>2320.76</ele>
        <time>2014-03-21T12:36:47Z</time>
      </trkpt>
      <trkpt lat="42.84502" lon="0.16343">
        <ele>2320.76</ele>
        <time>2014-03-21T12:36:54Z</time>
      </trkpt>
      <trkpt lat="42.84504" lon="0.16335">
        <ele>2320.76</ele>
        <time>2014-03-21T12:37:02Z</time>
      </trkpt>
      <trkpt lat="42.84504" lon="0.16331">
        <ele>2320.76</ele>
        <time>2014-03-21T12:37:09Z</time>
      </trkpt>
      <trkpt lat="42.84505" lon="0.16323">
        <ele>2321.72</ele>
        <time>2014-03-21T12:37:17Z</time>
      </trkpt>
      <trkpt lat="42.84506" lon="0.16317">
        <ele>2322.2</ele>
        <time>2014-03-21T12:37:25Z</time>
      </trkpt>
      <trkpt lat="42.84507" lon="0.16311">
        <ele>2321.72</ele>
        <time>2014-03-21T12:37:32Z</time>
      </trkpt>
      <trkpt lat="42.84506" lon="0.16304">
        <ele>2322.68</ele>
        <time>2014-03-21T12:37:40Z</time>
      </trkpt>
      <trkpt lat="42.84506" lon="0.16302">
        <ele>2322.68</ele>
        <time>2014-03-21T12:37:43Z</time>
      </trkpt>
      <trkpt lat="42.84506" lon="0.16295">
        <ele>2322.68</ele>
        <time>2014-03-21T12:37:50Z</time>
      </trkpt>
      <trkpt lat="42.84506" lon="0.16289">
        <ele>2323.64</ele>
        <time>2014-03-21T12:37:57Z</time>
      </trkpt>
      <trkpt lat="42.84506" lon="0.16285">
        <ele>2323.64</ele>
        <time>2014-03-21T12:38:03Z</time>
      </trkpt>
      <trkpt lat="42.84507" lon="0.16282">
        <ele>2324.12</ele>
        <time>2014-03-21T12:38:09Z</time>
      </trkpt>
      <trkpt lat="42.84507" lon="0.16277">
        <ele>2325.09</ele>
        <time>2014-03-21T12:38:16Z</time>
      </trkpt>
      <trkpt lat="42.84509" lon="0.16274">
        <ele>2325.09</ele>
        <time>2014-03-21T12:38:22Z</time>
      </trkpt>
      <trkpt lat="42.8451" lon="0.16268">
        <ele>2325.57</ele>
        <time>2014-03-21T12:38:31Z</time>
      </trkpt>
      <trkpt lat="42.8451" lon="0.16266">
        <ele>2325.57</ele>
        <time>2014-03-21T12:38:41Z</time>
      </trkpt>
      <trkpt lat="42.84509" lon="0.16261">
        <ele>2326.53</ele>
        <time>2014-03-21T12:38:48Z</time>
      </trkpt>
      <trkpt lat="42.8451" lon="0.16256">
        <ele>2327.01</ele>
        <time>2014-03-21T12:38:56Z</time>
      </trkpt>
      <trkpt lat="42.84511" lon="0.16252">
        <ele>2328.45</ele>
        <time>2014-03-21T12:39:03Z</time>
      </trkpt>
      <trkpt lat="42.84511" lon="0.16248">
        <ele>2328.45</ele>
        <time>2014-03-21T12:39:11Z</time>
      </trkpt>
      <trkpt lat="42.84512" lon="0.16246">
        <ele>2328.93</ele>
        <time>2014-03-21T12:39:17Z</time>
      </trkpt>
      <trkpt lat="42.84512" lon="0.16241">
        <ele>2329.89</ele>
        <time>2014-03-21T12:39:24Z</time>
      </trkpt>
      <trkpt lat="42.8451" lon="0.16236">
        <ele>2329.89</ele>
        <time>2014-03-21T12:39:32Z</time>
      </trkpt>
      <trkpt lat="42.8451" lon="0.16232">
        <ele>2330.37</ele>
        <time>2014-03-21T12:39:39Z</time>
      </trkpt>
      <trkpt lat="42.84509" lon="0.16226">
        <ele>2331.33</ele>
        <time>2014-03-21T12:39:47Z</time>
      </trkpt>
      <trkpt lat="42.84507" lon="0.16223">
        <ele>2332.3</ele>
        <time>2014-03-21T12:39:53Z</time>
      </trkpt>
      <trkpt lat="42.84507" lon="0.16221">
        <ele>2332.3</ele>
        <time>2014-03-21T12:39:55Z</time>
      </trkpt>
      <trkpt lat="42.84505" lon="0.16215">
        <ele>2334.7</ele>
        <time>2014-03-21T12:40:02Z</time>
      </trkpt>
      <trkpt lat="42.84506" lon="0.16214">
        <ele>2335.66</ele>
        <time>2014-03-21T12:40:09Z</time>
      </trkpt>
      <trkpt lat="42.84504" lon="0.16209">
        <ele>2336.62</ele>
        <time>2014-03-21T12:40:16Z</time>
      </trkpt>
      <trkpt lat="42.84504" lon="0.16206">
        <ele>2337.1</ele>
        <time>2014-03-21T12:40:23Z</time>
      </trkpt>
      <trkpt lat="42.84502" lon="0.16202">
        <ele>2338.54</ele>
        <time>2014-03-21T12:40:29Z</time>
      </trkpt>
      <trkpt lat="42.845" lon="0.16197">
        <ele>2339.99</ele>
        <time>2014-03-21T12:40:36Z</time>
      </trkpt>
      <trkpt lat="42.84499" lon="0.16195">
        <ele>2339.99</ele>
        <time>2014-03-21T12:40:43Z</time>
      </trkpt>
      <trkpt lat="42.84499" lon="0.16193">
        <ele>2340.47</ele>
        <time>2014-03-21T12:40:49Z</time>
      </trkpt>
      <trkpt lat="42.84497" lon="0.1619">
        <ele>2339.99</ele>
        <time>2014-03-21T12:40:57Z</time>
      </trkpt>
      <trkpt lat="42.84495" lon="0.16185">
        <ele>2340.47</ele>
        <time>2014-03-21T12:41:04Z</time>
      </trkpt>
      <trkpt lat="42.84495" lon="0.16184">
        <ele>2340.95</ele>
        <time>2014-03-21T12:41:11Z</time>
      </trkpt>
      <trkpt lat="42.84494" lon="0.16181">
        <ele>2341.91</ele>
        <time>2014-03-21T12:41:17Z</time>
      </trkpt>
      <trkpt lat="42.84493" lon="0.16178">
        <ele>2341.91</ele>
        <time>2014-03-21T12:41:24Z</time>
      </trkpt>
      <trkpt lat="42.84491" lon="0.16174">
        <ele>2342.39</ele>
        <time>2014-03-21T12:41:31Z</time>
      </trkpt>
      <trkpt lat="42.84489" lon="0.16169">
        <ele>2343.35</ele>
        <time>2014-03-21T12:41:38Z</time>
      </trkpt>
      <trkpt lat="42.84488" lon="0.16165">
        <ele>2343.83</ele>
        <time>2014-03-21T12:41:42Z</time>
      </trkpt>
      <trkpt lat="42.84486" lon="0.1616">
        <ele>2345.27</ele>
        <time>2014-03-21T12:41:48Z</time>
      </trkpt>
      <trkpt lat="42.84485" lon="0.16159">
        <ele>2345.75</ele>
        <time>2014-03-21T12:41:54Z</time>
      </trkpt>
      <trkpt lat="42.84485" lon="0.16158">
        <ele>2346.23</ele>
        <time>2014-03-21T12:42:02Z</time>
      </trkpt>
      <trkpt lat="42.84484" lon="0.16153">
        <ele>2345.75</ele>
        <time>2014-03-21T12:42:09Z</time>
      </trkpt>
      <trkpt lat="42.84483" lon="0.16148">
        <ele>2347.68</ele>
        <time>2014-03-21T12:42:17Z</time>
      </trkpt>
      <trkpt lat="42.84483" lon="0.16147">
        <ele>2347.68</ele>
        <time>2014-03-21T12:42:23Z</time>
      </trkpt>
      <trkpt lat="42.84483" lon="0.16145">
        <ele>2349.12</ele>
        <time>2014-03-21T12:42:31Z</time>
      </trkpt>
      <trkpt lat="42.84481" lon="0.16139">
        <ele>2350.56</ele>
        <time>2014-03-21T12:42:37Z</time>
      </trkpt>
      <trkpt lat="42.84479" lon="0.16135">
        <ele>2351.52</ele>
        <time>2014-03-21T12:42:45Z</time>
      </trkpt>
      <trkpt lat="42.84479" lon="0.16134">
        <ele>2352</ele>
        <time>2014-03-21T12:42:53Z</time>
      </trkpt>
      <trkpt lat="42.84479" lon="0.16127">
        <ele>2352.96</ele>
        <time>2014-03-21T12:43:01Z</time>
      </trkpt>
      <trkpt lat="42.84479" lon="0.16122">
        <ele>2354.41</ele>
        <time>2014-03-21T12:43:08Z</time>
      </trkpt>
      <trkpt lat="42.84478" lon="0.16121">
        <ele>2354.41</ele>
        <time>2014-03-21T12:43:14Z</time>
      </trkpt>
      <trkpt lat="42.84478" lon="0.1612">
        <ele>2355.37</ele>
        <time>2014-03-21T12:43:21Z</time>
      </trkpt>
      <trkpt lat="42.84475" lon="0.16121">
        <ele>2357.77</ele>
        <time>2014-03-21T12:43:29Z</time>
      </trkpt>
      <trkpt lat="42.84472" lon="0.1612">
        <ele>2358.25</ele>
        <time>2014-03-21T12:43:36Z</time>
      </trkpt>
      <trkpt lat="42.84472" lon="0.16118">
        <ele>2358.25</ele>
        <time>2014-03-21T12:43:43Z</time>
      </trkpt>
      <trkpt lat="42.84471" lon="0.16113">
        <ele>2359.69</ele>
        <time>2014-03-21T12:43:52Z</time>
      </trkpt>
      <trkpt lat="42.84471" lon="0.16109">
        <ele>2360.17</ele>
        <time>2014-03-21T12:43:59Z</time>
      </trkpt>
      <trkpt lat="42.84471" lon="0.16104">
        <ele>2361.62</ele>
        <time>2014-03-21T12:44:06Z</time>
      </trkpt>
      <trkpt lat="42.84472" lon="0.16098">
        <ele>2361.62</ele>
        <time>2014-03-21T12:44:14Z</time>
      </trkpt>
      <trkpt lat="42.84472" lon="0.16094">
        <ele>2363.06</ele>
        <time>2014-03-21T12:44:19Z</time>
      </trkpt>
      <trkpt lat="42.84471" lon="0.1609">
        <ele>2364.02</ele>
        <time>2014-03-21T12:44:25Z</time>
      </trkpt>
      <trkpt lat="42.84471" lon="0.16087">
        <ele>2364.98</ele>
        <time>2014-03-21T12:44:32Z</time>
      </trkpt>
      <trkpt lat="42.84471" lon="0.16083">
        <ele>2364.98</ele>
        <time>2014-03-21T12:44:39Z</time>
      </trkpt>
      <trkpt lat="42.8447" lon="0.16078">
        <ele>2365.46</ele>
        <time>2014-03-21T12:44:46Z</time>
      </trkpt>
      <trkpt lat="42.8447" lon="0.16073">
        <ele>2364.98</ele>
        <time>2014-03-21T12:44:55Z</time>
      </trkpt>
      <trkpt lat="42.84469" lon="0.16067">
        <ele>2365.46</ele>
        <time>2014-03-21T12:45:02Z</time>
      </trkpt>
      <trkpt lat="42.8447" lon="0.16062">
        <ele>2365.46</ele>
        <time>2014-03-21T12:45:11Z</time>
      </trkpt>
      <trkpt lat="42.84469" lon="0.16057">
        <ele>2364.98</ele>
        <time>2014-03-21T12:45:19Z</time>
      </trkpt>
      <trkpt lat="42.8447" lon="0.16053">
        <ele>2365.94</ele>
        <time>2014-03-21T12:45:25Z</time>
      </trkpt>
      <trkpt lat="42.8447" lon="0.16047">
        <ele>2366.42</ele>
        <time>2014-03-21T12:45:35Z</time>
      </trkpt>
      <trkpt lat="42.84471" lon="0.16043">
        <ele>2366.9</ele>
        <time>2014-03-21T12:45:42Z</time>
      </trkpt>
      <trkpt lat="42.84471" lon="0.16039">
        <ele>2368.35</ele>
        <time>2014-03-21T12:45:51Z</time>
      </trkpt>
      <trkpt lat="42.84472" lon="0.16036">
        <ele>2368.83</ele>
        <time>2014-03-21T12:45:57Z</time>
      </trkpt>
      <trkpt lat="42.84473" lon="0.1603">
        <ele>2369.79</ele>
        <time>2014-03-21T12:46:07Z</time>
      </trkpt>
      <trkpt lat="42.84472" lon="0.16027">
        <ele>2371.71</ele>
        <time>2014-03-21T12:46:13Z</time>
      </trkpt>
      <trkpt lat="42.84473" lon="0.16021">
        <ele>2372.19</ele>
        <time>2014-03-21T12:46:21Z</time>
      </trkpt>
      <trkpt lat="42.84474" lon="0.16014">
        <ele>2373.15</ele>
        <time>2014-03-21T12:46:30Z</time>
      </trkpt>
      <trkpt lat="42.84474" lon="0.16008">
        <ele>2375.55</ele>
        <time>2014-03-21T12:46:38Z</time>
      </trkpt>
      <trkpt lat="42.84474" lon="0.16004">
        <ele>2376.52</ele>
        <time>2014-03-21T12:46:46Z</time>
      </trkpt>
      <trkpt lat="42.84476" lon="0.16002">
        <ele>2376.52</ele>
        <time>2014-03-21T12:46:53Z</time>
      </trkpt>
      <trkpt lat="42.84476" lon="0.15997">
        <ele>2377.96</ele>
        <time>2014-03-21T12:46:59Z</time>
      </trkpt>
      <trkpt lat="42.84478" lon="0.15993">
        <ele>2378.44</ele>
        <time>2014-03-21T12:47:06Z</time>
      </trkpt>
      <trkpt lat="42.84478" lon="0.15988">
        <ele>2379.4</ele>
        <time>2014-03-21T12:47:15Z</time>
      </trkpt>
      <trkpt lat="42.84479" lon="0.15986">
        <ele>2380.36</ele>
        <time>2014-03-21T12:47:20Z</time>
      </trkpt>
      <trkpt lat="42.8448" lon="0.15982">
        <ele>2380.84</ele>
        <time>2014-03-21T12:47:27Z</time>
      </trkpt>
      <trkpt lat="42.8448" lon="0.15981">
        <ele>2380.36</ele>
        <time>2014-03-21T12:47:33Z</time>
      </trkpt>
      <trkpt lat="42.8448" lon="0.15977">
        <ele>2380.84</ele>
        <time>2014-03-21T12:47:39Z</time>
      </trkpt>
      <trkpt lat="42.8448" lon="0.15971">
        <ele>2381.32</ele>
        <time>2014-03-21T12:47:48Z</time>
      </trkpt>
      <trkpt lat="42.8448" lon="0.15966">
        <ele>2382.28</ele>
        <time>2014-03-21T12:47:56Z</time>
      </trkpt>
      <trkpt lat="42.8448" lon="0.15964">
        <ele>2382.76</ele>
        <time>2014-03-21T12:48:03Z</time>
      </trkpt>
      <trkpt lat="42.84479" lon="0.15958">
        <ele>2383.25</ele>
        <time>2014-03-21T12:48:10Z</time>
      </trkpt>
      <trkpt lat="42.84479" lon="0.15954">
        <ele>2384.21</ele>
        <time>2014-03-21T12:48:17Z</time>
      </trkpt>
      <trkpt lat="42.8448" lon="0.1595">
        <ele>2386.13</ele>
        <time>2014-03-21T12:48:25Z</time>
      </trkpt>
      <trkpt lat="42.84483" lon="0.15947">
        <ele>2386.61</ele>
        <time>2014-03-21T12:48:33Z</time>
      </trkpt>
      <trkpt lat="42.84485" lon="0.15945">
        <ele>2386.61</ele>
        <time>2014-03-21T12:48:41Z</time>
      </trkpt>
      <trkpt lat="42.84487" lon="0.15944">
        <ele>2388.05</ele>
        <time>2014-03-21T12:48:47Z</time>
      </trkpt>
      <trkpt lat="42.84489" lon="0.15942">
        <ele>2389.01</ele>
        <time>2014-03-21T12:48:53Z</time>
      </trkpt>
      <trkpt lat="42.84492" lon="0.15938">
        <ele>2389.97</ele>
        <time>2014-03-21T12:49:02Z</time>
      </trkpt>
      <trkpt lat="42.84494" lon="0.15936">
        <ele>2390.46</ele>
        <time>2014-03-21T12:49:08Z</time>
      </trkpt>
      <trkpt lat="42.84496" lon="0.15933">
        <ele>2392.38</ele>
        <time>2014-03-21T12:49:14Z</time>
      </trkpt>
      <trkpt lat="42.84497" lon="0.15928">
        <ele>2392.86</ele>
        <time>2014-03-21T12:49:22Z</time>
      </trkpt>
      <trkpt lat="42.845" lon="0.15924">
        <ele>2391.9</ele>
        <time>2014-03-21T12:49:30Z</time>
      </trkpt>
      <trkpt lat="42.84501" lon="0.1592">
        <ele>2391.9</ele>
        <time>2014-03-21T12:49:38Z</time>
      </trkpt>
      <trkpt lat="42.84502" lon="0.15916">
        <ele>2392.38</ele>
        <time>2014-03-21T12:49:45Z</time>
      </trkpt>
      <trkpt lat="42.84503" lon="0.15912">
        <ele>2392.86</ele>
        <time>2014-03-21T12:49:53Z</time>
      </trkpt>
      <trkpt lat="42.84503" lon="0.15909">
        <ele>2393.34</ele>
        <time>2014-03-21T12:49:59Z</time>
      </trkpt>
      <trkpt lat="42.84505" lon="0.15902">
        <ele>2393.34</ele>
        <time>2014-03-21T12:50:07Z</time>
      </trkpt>
      <trkpt lat="42.84506" lon="0.15899">
        <ele>2393.34</ele>
        <time>2014-03-21T12:50:14Z</time>
      </trkpt>
      <trkpt lat="42.84507" lon="0.15894">
        <ele>2394.78</ele>
        <time>2014-03-21T12:50:21Z</time>
      </trkpt>
      <trkpt lat="42.84508" lon="0.15893">
        <ele>2395.26</ele>
        <time>2014-03-21T12:50:28Z</time>
      </trkpt>
      <trkpt lat="42.84508" lon="0.1589">
        <ele>2396.22</ele>
        <time>2014-03-21T12:50:38Z</time>
      </trkpt>
      <trkpt lat="42.84509" lon="0.15887">
        <ele>2396.7</ele>
        <time>2014-03-21T12:50:46Z</time>
      </trkpt>
      <trkpt lat="42.84511" lon="0.15882">
        <ele>2398.63</ele>
        <time>2014-03-21T12:50:54Z</time>
      </trkpt>
      <trkpt lat="42.84512" lon="0.15877">
        <ele>2398.15</ele>
        <time>2014-03-21T12:51:01Z</time>
      </trkpt>
      <trkpt lat="42.84513" lon="0.15873">
        <ele>2398.63</ele>
        <time>2014-03-21T12:51:08Z</time>
      </trkpt>
      <trkpt lat="42.84513" lon="0.15869">
        <ele>2399.11</ele>
        <time>2014-03-21T12:51:15Z</time>
      </trkpt>
      <trkpt lat="42.84514" lon="0.15863">
        <ele>2399.59</ele>
        <time>2014-03-21T12:51:22Z</time>
      </trkpt>
      <trkpt lat="42.84514" lon="0.15857">
        <ele>2400.07</ele>
        <time>2014-03-21T12:51:29Z</time>
      </trkpt>
      <trkpt lat="42.84515" lon="0.1585">
        <ele>2400.55</ele>
        <time>2014-03-21T12:51:36Z</time>
      </trkpt>
      <trkpt lat="42.84516" lon="0.15845">
        <ele>2401.51</ele>
        <time>2014-03-21T12:51:43Z</time>
      </trkpt>
      <trkpt lat="42.84517" lon="0.15839">
        <ele>2401.51</ele>
        <time>2014-03-21T12:51:51Z</time>
      </trkpt>
      <trkpt lat="42.84518" lon="0.15833">
        <ele>2402.47</ele>
        <time>2014-03-21T12:52:00Z</time>
      </trkpt>
      <trkpt lat="42.84518" lon="0.15827">
        <ele>2401.99</ele>
        <time>2014-03-21T12:52:09Z</time>
      </trkpt>
      <trkpt lat="42.84519" lon="0.15823">
        <ele>2402.95</ele>
        <time>2014-03-21T12:52:16Z</time>
      </trkpt>
      <trkpt lat="42.84519" lon="0.15818">
        <ele>2404.39</ele>
        <time>2014-03-21T12:52:24Z</time>
      </trkpt>
      <trkpt lat="42.8452" lon="0.15813">
        <ele>2404.88</ele>
        <time>2014-03-21T12:52:31Z</time>
      </trkpt>
      <trkpt lat="42.8452" lon="0.15809">
        <ele>2405.36</ele>
        <time>2014-03-21T12:52:38Z</time>
      </trkpt>
      <trkpt lat="42.8452" lon="0.15804">
        <ele>2406.8</ele>
        <time>2014-03-21T12:52:44Z</time>
      </trkpt>
      <trkpt lat="42.8452" lon="0.15798">
        <ele>2407.28</ele>
        <time>2014-03-21T12:52:51Z</time>
      </trkpt>
      <trkpt lat="42.8452" lon="0.15795">
        <ele>2407.28</ele>
        <time>2014-03-21T12:52:57Z</time>
      </trkpt>
      <trkpt lat="42.84521" lon="0.15789">
        <ele>2407.76</ele>
        <time>2014-03-21T12:53:04Z</time>
      </trkpt>
      <trkpt lat="42.8452" lon="0.15782">
        <ele>2409.68</ele>
        <time>2014-03-21T12:53:11Z</time>
      </trkpt>
      <trkpt lat="42.8452" lon="0.15777">
        <ele>2410.64</ele>
        <time>2014-03-21T12:53:18Z</time>
      </trkpt>
      <trkpt lat="42.84521" lon="0.15772">
        <ele>2411.6</ele>
        <time>2014-03-21T12:53:25Z</time>
      </trkpt>
      <trkpt lat="42.84522" lon="0.15768">
        <ele>2412.57</ele>
        <time>2014-03-21T12:53:32Z</time>
      </trkpt>
      <trkpt lat="42.84522" lon="0.15766">
        <ele>2412.57</ele>
        <time>2014-03-21T12:53:39Z</time>
      </trkpt>
      <trkpt lat="42.84523" lon="0.15763">
        <ele>2413.05</ele>
        <time>2014-03-21T12:53:45Z</time>
      </trkpt>
      <trkpt lat="42.84524" lon="0.15762">
        <ele>2412.09</ele>
        <time>2014-03-21T12:53:52Z</time>
      </trkpt>
      <trkpt lat="42.84525" lon="0.15757">
        <ele>2412.57</ele>
        <time>2014-03-21T12:53:59Z</time>
      </trkpt>
      <trkpt lat="42.84527" lon="0.15753">
        <ele>2412.57</ele>
        <time>2014-03-21T12:54:07Z</time>
      </trkpt>
      <trkpt lat="42.84528" lon="0.15749">
        <ele>2412.09</ele>
        <time>2014-03-21T12:54:14Z</time>
      </trkpt>
      <trkpt lat="42.84527" lon="0.15745">
        <ele>2412.57</ele>
        <time>2014-03-21T12:54:21Z</time>
      </trkpt>
      <trkpt lat="42.84528" lon="0.15739">
        <ele>2413.53</ele>
        <time>2014-03-21T12:54:27Z</time>
      </trkpt>
      <trkpt lat="42.84529" lon="0.15738">
        <ele>2414.49</ele>
        <time>2014-03-21T12:54:33Z</time>
      </trkpt>
      <trkpt lat="42.8453" lon="0.15736">
        <ele>2414.97</ele>
        <time>2014-03-21T12:54:40Z</time>
      </trkpt>
      <trkpt lat="42.84531" lon="0.15731">
        <ele>2414.97</ele>
        <time>2014-03-21T12:54:46Z</time>
      </trkpt>
      <trkpt lat="42.84531" lon="0.1573">
        <ele>2414.97</ele>
        <time>2014-03-21T12:54:48Z</time>
      </trkpt>
      <trkpt lat="42.84532" lon="0.15725">
        <ele>2414.97</ele>
        <time>2014-03-21T12:54:54Z</time>
      </trkpt>
      <trkpt lat="42.84533" lon="0.15717">
        <ele>2416.89</ele>
        <time>2014-03-21T12:55:02Z</time>
      </trkpt>
      <trkpt lat="42.84533" lon="0.15713">
        <ele>2417.85</ele>
        <time>2014-03-21T12:55:09Z</time>
      </trkpt>
      <trkpt lat="42.84533" lon="0.15707">
        <ele>2417.85</ele>
        <time>2014-03-21T12:55:15Z</time>
      </trkpt>
      <trkpt lat="42.84532" lon="0.15702">
        <ele>2419.78</ele>
        <time>2014-03-21T12:55:21Z</time>
      </trkpt>
      <trkpt lat="42.84529" lon="0.15704">
        <ele>2420.26</ele>
        <time>2014-03-21T12:55:28Z</time>
      </trkpt>
      <trkpt lat="42.84523" lon="0.15706">
        <ele>2420.74</ele>
        <time>2014-03-21T12:55:36Z</time>
      </trkpt>
      <trkpt lat="42.8452" lon="0.15707">
        <ele>2422.18</ele>
        <time>2014-03-21T12:55:42Z</time>
      </trkpt>
      <trkpt lat="42.84519" lon="0.15707">
        <ele>2422.18</ele>
        <time>2014-03-21T12:55:43Z</time>
      </trkpt>
      <trkpt lat="42.84518" lon="0.15706">
        <ele>2424.58</ele>
        <time>2014-03-21T12:55:49Z</time>
      </trkpt>
      <trkpt lat="42.84518" lon="0.15703">
        <ele>2426.02</ele>
        <time>2014-03-21T12:55:56Z</time>
      </trkpt>
      <trkpt lat="42.84517" lon="0.157">
        <ele>2426.5</ele>
        <time>2014-03-21T12:56:02Z</time>
      </trkpt>
      <trkpt lat="42.84514" lon="0.15696">
        <ele>2428.43</ele>
        <time>2014-03-21T12:56:09Z</time>
      </trkpt>
      <trkpt lat="42.84512" lon="0.15696">
        <ele>2428.43</ele>
        <time>2014-03-21T12:56:15Z</time>
      </trkpt>
      <trkpt lat="42.84512" lon="0.15695">
        <ele>2428.43</ele>
        <time>2014-03-21T12:56:24Z</time>
      </trkpt>
      <trkpt lat="42.84512" lon="0.15694">
        <ele>2427.95</ele>
        <time>2014-03-21T12:56:30Z</time>
      </trkpt>
      <trkpt lat="42.84512" lon="0.15694">
        <ele>2427.95</ele>
        <time>2014-03-21T12:56:45Z</time>
      </trkpt>
      <trkpt lat="42.84512" lon="0.15694">
        <ele>2428.43</ele>
        <time>2014-03-21T12:57:02Z</time>
      </trkpt>
      <trkpt lat="42.84512" lon="0.15694">
        <ele>2428.43</ele>
        <time>2014-03-21T12:57:17Z</time>
      </trkpt>
      <trkpt lat="42.84512" lon="0.15694">
        <ele>2427.95</ele>
        <time>2014-03-21T12:57:33Z</time>
      </trkpt>
      <trkpt lat="42.84512" lon="0.15694">
        <ele>2427.47</ele>
        <time>2014-03-21T12:57:47Z</time>
      </trkpt>
      <trkpt lat="42.84513" lon="0.15695">
        <ele>2426.5</ele>
        <time>2014-03-21T12:58:04Z</time>
      </trkpt>
      <trkpt lat="42.84513" lon="0.15695">
        <ele>2426.5</ele>
        <time>2014-03-21T12:58:17Z</time>
      </trkpt>
      <trkpt lat="42.84513" lon="0.15695">
        <ele>2426.99</ele>
        <time>2014-03-21T12:58:25Z</time>
      </trkpt>
      <trkpt lat="42.84514" lon="0.15694">
        <ele>2427.47</ele>
        <time>2014-03-21T12:58:45Z</time>
      </trkpt>
      <trkpt lat="42.84514" lon="0.15694">
        <ele>2427.47</ele>
        <time>2014-03-21T12:59:09Z</time>
      </trkpt>
      <trkpt lat="42.84514" lon="0.15695">
        <ele>2428.43</ele>
        <time>2014-03-21T12:59:33Z</time>
      </trkpt>
      <trkpt lat="42.84513" lon="0.15695">
        <ele>2428.91</ele>
        <time>2014-03-21T12:59:55Z</time>
      </trkpt>
      <trkpt lat="42.84513" lon="0.15695">
        <ele>2428.91</ele>
        <time>2014-03-21T13:00:19Z</time>
      </trkpt>
      <trkpt lat="42.84513" lon="0.15695">
        <ele>2428.91</ele>
        <time>2014-03-21T13:00:38Z</time>
      </trkpt>
      <trkpt lat="42.84513" lon="0.15695">
        <ele>2428.91</ele>
        <time>2014-03-21T13:00:54Z</time>
      </trkpt>
      <trkpt lat="42.84513" lon="0.15694">
        <ele>2429.39</ele>
        <time>2014-03-21T13:01:02Z</time>
      </trkpt>
      <trkpt lat="42.84513" lon="0.15694">
        <ele>2428.91</ele>
        <time>2014-03-21T13:01:18Z</time>
      </trkpt>
      <trkpt lat="42.84513" lon="0.15694">
        <ele>2427.95</ele>
        <time>2014-03-21T13:01:28Z</time>
      </trkpt>
      <trkpt lat="42.84513" lon="0.15693">
        <ele>2428.43</ele>
        <time>2014-03-21T13:01:44Z</time>
      </trkpt>
      <trkpt lat="42.84512" lon="0.15693">
        <ele>2427.95</ele>
        <time>2014-03-21T13:01:53Z</time>
      </trkpt>
      <trkpt lat="42.84512" lon="0.15694">
        <ele>2427.95</ele>
        <time>2014-03-21T13:02:08Z</time>
      </trkpt>
      <trkpt lat="42.84511" lon="0.15693">
        <ele>2427.95</ele>
        <time>2014-03-21T13:02:12Z</time>
      </trkpt>
      <trkpt lat="42.84512" lon="0.15692">
        <ele>2427.95</ele>
        <time>2014-03-21T13:02:17Z</time>
      </trkpt>
      <trkpt lat="42.84515" lon="0.15689">
        <ele>2428.91</ele>
        <time>2014-03-21T13:02:23Z</time>
      </trkpt>
      <trkpt lat="42.84517" lon="0.15684">
        <ele>2428.43</ele>
        <time>2014-03-21T13:02:29Z</time>
      </trkpt>
      <trkpt lat="42.84519" lon="0.1568">
        <ele>2429.39</ele>
        <time>2014-03-21T13:02:34Z</time>
      </trkpt>
      <trkpt lat="42.8452" lon="0.15672">
        <ele>2430.35</ele>
        <time>2014-03-21T13:02:43Z</time>
      </trkpt>
      <trkpt lat="42.8452" lon="0.15668">
        <ele>2430.35</ele>
        <time>2014-03-21T13:02:50Z</time>
      </trkpt>
      <trkpt lat="42.8452" lon="0.15665">
        <ele>2430.83</ele>
        <time>2014-03-21T13:02:55Z</time>
      </trkpt>
      <trkpt lat="42.84523" lon="0.15661">
        <ele>2431.79</ele>
        <time>2014-03-21T13:03:01Z</time>
      </trkpt>
      <trkpt lat="42.84524" lon="0.1566">
        <ele>2432.27</ele>
        <time>2014-03-21T13:03:09Z</time>
      </trkpt>
      <trkpt lat="42.84525" lon="0.15659">
        <ele>2432.75</ele>
        <time>2014-03-21T13:03:11Z</time>
      </trkpt>
      <trkpt lat="42.84529" lon="0.15658">
        <ele>2432.27</ele>
        <time>2014-03-21T13:03:19Z</time>
      </trkpt>
      <trkpt lat="42.8453" lon="0.15656">
        <ele>2434.2</ele>
        <time>2014-03-21T13:03:26Z</time>
      </trkpt>
      <trkpt lat="42.84534" lon="0.15652">
        <ele>2437.08</ele>
        <time>2014-03-21T13:03:32Z</time>
      </trkpt>
      <trkpt lat="42.84537" lon="0.1565">
        <ele>2439</ele>
        <time>2014-03-21T13:03:39Z</time>
      </trkpt>
      <trkpt lat="42.84539" lon="0.15647">
        <ele>2440.44</ele>
        <time>2014-03-21T13:03:45Z</time>
      </trkpt>
      <trkpt lat="42.84539" lon="0.15646">
        <ele>2440.44</ele>
        <time>2014-03-21T13:03:52Z</time>
      </trkpt>
      <trkpt lat="42.84539" lon="0.15644">
        <ele>2439.96</ele>
        <time>2014-03-21T13:04:00Z</time>
      </trkpt>
      <trkpt lat="42.8454" lon="0.15641">
        <ele>2439</ele>
        <time>2014-03-21T13:04:08Z</time>
      </trkpt>
      <trkpt lat="42.8454" lon="0.1564">
        <ele>2440.44</ele>
        <time>2014-03-21T13:04:16Z</time>
      </trkpt>
      <trkpt lat="42.84542" lon="0.15633">
        <ele>2441.41</ele>
        <time>2014-03-21T13:04:23Z</time>
      </trkpt>
      <trkpt lat="42.84545" lon="0.15624">
        <ele>2441.41</ele>
        <time>2014-03-21T13:04:30Z</time>
      </trkpt>
      <trkpt lat="42.84547" lon="0.1562">
        <ele>2442.85</ele>
        <time>2014-03-21T13:04:39Z</time>
      </trkpt>
      <trkpt lat="42.84548" lon="0.15617">
        <ele>2443.33</ele>
        <time>2014-03-21T13:04:45Z</time>
      </trkpt>
      <trkpt lat="42.84549" lon="0.15616">
        <ele>2443.33</ele>
        <time>2014-03-21T13:04:51Z</time>
      </trkpt>
      <trkpt lat="42.84549" lon="0.15615">
        <ele>2443.33</ele>
        <time>2014-03-21T13:04:58Z</time>
      </trkpt>
      <trkpt lat="42.84548" lon="0.15615">
        <ele>2442.85</ele>
        <time>2014-03-21T13:05:03Z</time>
      </trkpt>
      <trkpt lat="42.84548" lon="0.15616">
        <ele>2442.85</ele>
        <time>2014-03-21T13:05:09Z</time>
      </trkpt>
      <trkpt lat="42.84548" lon="0.15615">
        <ele>2442.85</ele>
        <time>2014-03-21T13:05:14Z</time>
      </trkpt>
      <trkpt lat="42.84548" lon="0.15615">
        <ele>2443.33</ele>
        <time>2014-03-21T13:05:23Z</time>
      </trkpt>
      <trkpt lat="42.84547" lon="0.15615">
        <ele>2443.33</ele>
        <time>2014-03-21T13:05:31Z</time>
      </trkpt>
      <trkpt lat="42.84547" lon="0.15615">
        <ele>2443.33</ele>
        <time>2014-03-21T13:05:42Z</time>
      </trkpt>
      <trkpt lat="42.84547" lon="0.15615">
        <ele>2442.85</ele>
        <time>2014-03-21T13:05:51Z</time>
      </trkpt>
      <trkpt lat="42.84546" lon="0.15614">
        <ele>2441.89</ele>
        <time>2014-03-21T13:05:58Z</time>
      </trkpt>
      <trkpt lat="42.84546" lon="0.15614">
        <ele>2441.89</ele>
        <time>2014-03-21T13:06:11Z</time>
      </trkpt>
      <trkpt lat="42.84546" lon="0.15614">
        <ele>2441.41</ele>
        <time>2014-03-21T13:06:30Z</time>
      </trkpt>
      <trkpt lat="42.84546" lon="0.15614">
        <ele>2441.41</ele>
        <time>2014-03-21T13:06:50Z</time>
      </trkpt>
      <trkpt lat="42.84546" lon="0.15615">
        <ele>2441.41</ele>
        <time>2014-03-21T13:06:56Z</time>
      </trkpt>
      <trkpt lat="42.84546" lon="0.15615">
        <ele>2441.41</ele>
        <time>2014-03-21T13:07:11Z</time>
      </trkpt>
      <trkpt lat="42.84546" lon="0.15615">
        <ele>2441.89</ele>
        <time>2014-03-21T13:07:28Z</time>
      </trkpt>
      <trkpt lat="42.84546" lon="0.15615">
        <ele>2441.41</ele>
        <time>2014-03-21T13:07:48Z</time>
      </trkpt>
      <trkpt lat="42.84546" lon="0.15615">
        <ele>2441.41</ele>
        <time>2014-03-21T13:08:00Z</time>
      </trkpt>
      <trkpt lat="42.84546" lon="0.15614">
        <ele>2441.89</ele>
        <time>2014-03-21T13:08:20Z</time>
      </trkpt>
      <trkpt lat="42.84545" lon="0.15614">
        <ele>2441.89</ele>
        <time>2014-03-21T13:08:39Z</time>
      </trkpt>
      <trkpt lat="42.84545" lon="0.15614">
        <ele>2441.41</ele>
        <time>2014-03-21T13:08:58Z</time>
      </trkpt>
      <trkpt lat="42.84545" lon="0.15614">
        <ele>2441.41</ele>
        <time>2014-03-21T13:09:12Z</time>
      </trkpt>
      <trkpt lat="42.84545" lon="0.15614">
        <ele>2441.41</ele>
        <time>2014-03-21T13:09:27Z</time>
      </trkpt>
      <trkpt lat="42.84546" lon="0.15614">
        <ele>2441.41</ele>
        <time>2014-03-21T13:09:46Z</time>
      </trkpt>
      <trkpt lat="42.84546" lon="0.15614">
        <ele>2441.41</ele>
        <time>2014-03-21T13:10:03Z</time>
      </trkpt>
      <trkpt lat="42.84546" lon="0.15614">
        <ele>2441.41</ele>
        <time>2014-03-21T13:10:17Z</time>
      </trkpt>
      <trkpt lat="42.84545" lon="0.15614">
        <ele>2441.41</ele>
        <time>2014-03-21T13:10:35Z</time>
      </trkpt>
      <trkpt lat="42.84545" lon="0.15614">
        <ele>2440.92</ele>
        <time>2014-03-21T13:10:50Z</time>
      </trkpt>
      <trkpt lat="42.84546" lon="0.15614">
        <ele>2440.92</ele>
        <time>2014-03-21T13:11:03Z</time>
      </trkpt>
      <trkpt lat="42.84546" lon="0.15615">
        <ele>2440.92</ele>
        <time>2014-03-21T13:11:11Z</time>
      </trkpt>
      <trkpt lat="42.84545" lon="0.15615">
        <ele>2440.92</ele>
        <time>2014-03-21T13:11:26Z</time>
      </trkpt>
      <trkpt lat="42.84545" lon="0.15615">
        <ele>2441.41</ele>
        <time>2014-03-21T13:11:42Z</time>
      </trkpt>
      <trkpt lat="42.84545" lon="0.15616">
        <ele>2441.41</ele>
        <time>2014-03-21T13:12:02Z</time>
      </trkpt>
      <trkpt lat="42.84545" lon="0.15615">
        <ele>2441.41</ele>
        <time>2014-03-21T13:12:15Z</time>
      </trkpt>
      <trkpt lat="42.84545" lon="0.15615">
        <ele>2441.41</ele>
        <time>2014-03-21T13:12:28Z</time>
      </trkpt>
      <trkpt lat="42.84546" lon="0.15615">
        <ele>2441.41</ele>
        <time>2014-03-21T13:12:37Z</time>
      </trkpt>
      <trkpt lat="42.84546" lon="0.15616">
        <ele>2441.41</ele>
        <time>2014-03-21T13:12:47Z</time>
      </trkpt>
      <trkpt lat="42.84546" lon="0.15616">
        <ele>2441.41</ele>
        <time>2014-03-21T13:13:04Z</time>
      </trkpt>
      <trkpt lat="42.84546" lon="0.15616">
        <ele>2441.41</ele>
        <time>2014-03-21T13:13:21Z</time>
      </trkpt>
      <trkpt lat="42.84546" lon="0.15616">
        <ele>2441.41</ele>
        <time>2014-03-21T13:13:41Z</time>
      </trkpt>
      <trkpt lat="42.84546" lon="0.15616">
        <ele>2441.41</ele>
        <time>2014-03-21T13:14:03Z</time>
      </trkpt>
      <trkpt lat="42.84546" lon="0.15616">
        <ele>2441.89</ele>
        <time>2014-03-21T13:14:24Z</time>
      </trkpt>
      <trkpt lat="42.84547" lon="0.15616">
        <ele>2441.89</ele>
        <time>2014-03-21T13:14:40Z</time>
      </trkpt>
      <trkpt lat="42.84547" lon="0.15616">
        <ele>2441.89</ele>
        <time>2014-03-21T13:14:56Z</time>
      </trkpt>
      <trkpt lat="42.84546" lon="0.15616">
        <ele>2441.89</ele>
        <time>2014-03-21T13:15:12Z</time>
      </trkpt>
      <trkpt lat="42.84546" lon="0.15616">
        <ele>2441.89</ele>
        <time>2014-03-21T13:15:30Z</time>
      </trkpt>
      <trkpt lat="42.84546" lon="0.15616">
        <ele>2442.37</ele>
        <time>2014-03-21T13:15:49Z</time>
      </trkpt>
      <trkpt lat="42.84546" lon="0.15616">
        <ele>2442.85</ele>
        <time>2014-03-21T13:16:06Z</time>
      </trkpt>
      <trkpt lat="42.84546" lon="0.15616">
        <ele>2442.85</ele>
        <time>2014-03-21T13:16:24Z</time>
      </trkpt>
      <trkpt lat="42.84546" lon="0.15616">
        <ele>2442.85</ele>
        <time>2014-03-21T13:16:44Z</time>
      </trkpt>
      <trkpt lat="42.84546" lon="0.15616">
        <ele>2443.33</ele>
        <time>2014-03-21T13:17:02Z</time>
      </trkpt>
      <trkpt lat="42.84546" lon="0.15616">
        <ele>2443.33</ele>
        <time>2014-03-21T13:17:16Z</time>
      </trkpt>
      <trkpt lat="42.84546" lon="0.15616">
        <ele>2443.33</ele>
        <time>2014-03-21T13:17:34Z</time>
      </trkpt>
      <trkpt lat="42.84546" lon="0.15616">
        <ele>2443.33</ele>
        <time>2014-03-21T13:17:52Z</time>
      </trkpt>
      <trkpt lat="42.84546" lon="0.15616">
        <ele>2443.33</ele>
        <time>2014-03-21T13:18:11Z</time>
      </trkpt>
      <trkpt lat="42.84546" lon="0.15617">
        <ele>2443.33</ele>
        <time>2014-03-21T13:18:32Z</time>
      </trkpt>
      <trkpt lat="42.84546" lon="0.15617">
        <ele>2442.85</ele>
        <time>2014-03-21T13:18:50Z</time>
      </trkpt>
      <trkpt lat="42.84546" lon="0.15617">
        <ele>2442.85</ele>
        <time>2014-03-21T13:19:07Z</time>
      </trkpt>
      <trkpt lat="42.84546" lon="0.15617">
        <ele>2442.85</ele>
        <time>2014-03-21T13:19:25Z</time>
      </trkpt>
      <trkpt lat="42.84546" lon="0.15617">
        <ele>2442.85</ele>
        <time>2014-03-21T13:19:45Z</time>
      </trkpt>
      <trkpt lat="42.84546" lon="0.15617">
        <ele>2442.85</ele>
        <time>2014-03-21T13:20:03Z</time>
      </trkpt>
      <trkpt lat="42.84546" lon="0.15617">
        <ele>2442.85</ele>
        <time>2014-03-21T13:20:15Z</time>
      </trkpt>
      <trkpt lat="42.84546" lon="0.15617">
        <ele>2442.85</ele>
        <time>2014-03-21T13:20:33Z</time>
      </trkpt>
      <trkpt lat="42.84546" lon="0.15617">
        <ele>2442.85</ele>
        <time>2014-03-21T13:20:42Z</time>
      </trkpt>
      <trkpt lat="42.84546" lon="0.15617">
        <ele>2443.33</ele>
        <time>2014-03-21T13:20:52Z</time>
      </trkpt>
      <trkpt lat="42.84545" lon="0.15617">
        <ele>2443.33</ele>
        <time>2014-03-21T13:21:09Z</time>
      </trkpt>
      <trkpt lat="42.84546" lon="0.15617">
        <ele>2443.33</ele>
        <time>2014-03-21T13:21:27Z</time>
      </trkpt>
      <trkpt lat="42.84546" lon="0.15617">
        <ele>2442.85</ele>
        <time>2014-03-21T13:21:49Z</time>
      </trkpt>
      <trkpt lat="42.84546" lon="0.15617">
        <ele>2442.85</ele>
        <time>2014-03-21T13:22:06Z</time>
      </trkpt>
      <trkpt lat="42.84546" lon="0.15616">
        <ele>2442.85</ele>
        <time>2014-03-21T13:22:26Z</time>
      </trkpt>
      <trkpt lat="42.84546" lon="0.15616">
        <ele>2442.85</ele>
        <time>2014-03-21T13:22:50Z</time>
      </trkpt>
      <trkpt lat="42.84546" lon="0.15616">
        <ele>2442.85</ele>
        <time>2014-03-21T13:23:08Z</time>
      </trkpt>
      <trkpt lat="42.84546" lon="0.15616">
        <ele>2442.85</ele>
        <time>2014-03-21T13:23:26Z</time>
      </trkpt>
      <trkpt lat="42.84546" lon="0.15616">
        <ele>2442.85</ele>
        <time>2014-03-21T13:23:45Z</time>
      </trkpt>
      <trkpt lat="42.84546" lon="0.15616">
        <ele>2442.85</ele>
        <time>2014-03-21T13:24:01Z</time>
      </trkpt>
      <trkpt lat="42.84546" lon="0.15616">
        <ele>2442.85</ele>
        <time>2014-03-21T13:24:16Z</time>
      </trkpt>
      <trkpt lat="42.84546" lon="0.15616">
        <ele>2442.37</ele>
        <time>2014-03-21T13:24:31Z</time>
      </trkpt>
      <trkpt lat="42.84546" lon="0.15616">
        <ele>2442.37</ele>
        <time>2014-03-21T13:24:48Z</time>
      </trkpt>
      <trkpt lat="42.84546" lon="0.15616">
        <ele>2442.37</ele>
        <time>2014-03-21T13:25:06Z</time>
      </trkpt>
      <trkpt lat="42.84546" lon="0.15616">
        <ele>2442.37</ele>
        <time>2014-03-21T13:25:22Z</time>
      </trkpt>
      <trkpt lat="42.84546" lon="0.15616">
        <ele>2442.37</ele>
        <time>2014-03-21T13:25:39Z</time>
      </trkpt>
      <trkpt lat="42.84547" lon="0.15616">
        <ele>2441.89</ele>
        <time>2014-03-21T13:25:58Z</time>
      </trkpt>
      <trkpt lat="42.84547" lon="0.15616">
        <ele>2441.89</ele>
        <time>2014-03-21T13:26:19Z</time>
      </trkpt>
      <trkpt lat="42.84547" lon="0.15616">
        <ele>2441.89</ele>
        <time>2014-03-21T13:26:37Z</time>
      </trkpt>
      <trkpt lat="42.84547" lon="0.15616">
        <ele>2441.89</ele>
        <time>2014-03-21T13:26:51Z</time>
      </trkpt>
      <trkpt lat="42.84547" lon="0.15616">
        <ele>2441.41</ele>
        <time>2014-03-21T13:27:01Z</time>
      </trkpt>
      <trkpt lat="42.84546" lon="0.15615">
        <ele>2441.41</ele>
        <time>2014-03-21T13:27:17Z</time>
      </trkpt>
      <trkpt lat="42.84546" lon="0.15615">
        <ele>2441.41</ele>
        <time>2014-03-21T13:27:38Z</time>
      </trkpt>
      <trkpt lat="42.84546" lon="0.15616">
        <ele>2441.41</ele>
        <time>2014-03-21T13:27:56Z</time>
      </trkpt>
      <trkpt lat="42.84546" lon="0.15616">
        <ele>2441.41</ele>
        <time>2014-03-21T13:28:05Z</time>
      </trkpt>
      <trkpt lat="42.84546" lon="0.15616">
        <ele>2440.92</ele>
        <time>2014-03-21T13:28:18Z</time>
      </trkpt>
      <trkpt lat="42.84546" lon="0.15616">
        <ele>2440.92</ele>
        <time>2014-03-21T13:28:31Z</time>
      </trkpt>
      <trkpt lat="42.84547" lon="0.15616">
        <ele>2440.44</ele>
        <time>2014-03-21T13:28:47Z</time>
      </trkpt>
      <trkpt lat="42.84547" lon="0.15616">
        <ele>2440.44</ele>
        <time>2014-03-21T13:29:02Z</time>
      </trkpt>
      <trkpt lat="42.84547" lon="0.15616">
        <ele>2440.44</ele>
        <time>2014-03-21T13:29:24Z</time>
      </trkpt>
      <trkpt lat="42.84547" lon="0.15616">
        <ele>2440.44</ele>
        <time>2014-03-21T13:29:41Z</time>
      </trkpt>
      <trkpt lat="42.84547" lon="0.15616">
        <ele>2440.44</ele>
        <time>2014-03-21T13:29:57Z</time>
      </trkpt>
      <trkpt lat="42.84547" lon="0.15616">
        <ele>2440.44</ele>
        <time>2014-03-21T13:30:15Z</time>
      </trkpt>
      <trkpt lat="42.84547" lon="0.15616">
        <ele>2440.44</ele>
        <time>2014-03-21T13:30:30Z</time>
      </trkpt>
      <trkpt lat="42.84547" lon="0.15616">
        <ele>2440.44</ele>
        <time>2014-03-21T13:30:39Z</time>
      </trkpt>
      <trkpt lat="42.84547" lon="0.15616">
        <ele>2440.92</ele>
        <time>2014-03-21T13:30:48Z</time>
      </trkpt>
      <trkpt lat="42.84547" lon="0.15616">
        <ele>2441.41</ele>
        <time>2014-03-21T13:31:04Z</time>
      </trkpt>
      <trkpt lat="42.84546" lon="0.15616">
        <ele>2442.37</ele>
        <time>2014-03-21T13:31:22Z</time>
      </trkpt>
      <trkpt lat="42.84546" lon="0.15615">
        <ele>2441.89</ele>
        <time>2014-03-21T13:31:37Z</time>
      </trkpt>
      <trkpt lat="42.84546" lon="0.15616">
        <ele>2441.41</ele>
        <time>2014-03-21T13:31:50Z</time>
      </trkpt>
      <trkpt lat="42.84546" lon="0.15616">
        <ele>2441.41</ele>
        <time>2014-03-21T13:32:07Z</time>
      </trkpt>
      <trkpt lat="42.84546" lon="0.15616">
        <ele>2440.92</ele>
        <time>2014-03-21T13:32:27Z</time>
      </trkpt>
      <trkpt lat="42.84546" lon="0.15616">
        <ele>2440.44</ele>
        <time>2014-03-21T13:32:38Z</time>
      </trkpt>
      <trkpt lat="42.84546" lon="0.15616">
        <ele>2439.96</ele>
        <time>2014-03-21T13:32:55Z</time>
      </trkpt>
      <trkpt lat="42.84546" lon="0.15616">
        <ele>2440.44</ele>
        <time>2014-03-21T13:33:05Z</time>
      </trkpt>
      <trkpt lat="42.84546" lon="0.15616">
        <ele>2440.44</ele>
        <time>2014-03-21T13:33:16Z</time>
      </trkpt>
      <trkpt lat="42.84546" lon="0.15616">
        <ele>2440.44</ele>
        <time>2014-03-21T13:33:31Z</time>
      </trkpt>
      <trkpt lat="42.84546" lon="0.15616">
        <ele>2440.44</ele>
        <time>2014-03-21T13:33:43Z</time>
      </trkpt>
      <trkpt lat="42.84546" lon="0.15616">
        <ele>2440.44</ele>
        <time>2014-03-21T13:33:58Z</time>
      </trkpt>
      <trkpt lat="42.84547" lon="0.15616">
        <ele>2440.44</ele>
        <time>2014-03-21T13:34:16Z</time>
      </trkpt>
      <trkpt lat="42.84547" lon="0.15616">
        <ele>2440.44</ele>
        <time>2014-03-21T13:34:36Z</time>
      </trkpt>
      <trkpt lat="42.84547" lon="0.15616">
        <ele>2440.44</ele>
        <time>2014-03-21T13:34:55Z</time>
      </trkpt>
      <trkpt lat="42.84546" lon="0.15616">
        <ele>2440.44</ele>
        <time>2014-03-21T13:35:08Z</time>
      </trkpt>
      <trkpt lat="42.84547" lon="0.15616">
        <ele>2439.96</ele>
        <time>2014-03-21T13:35:26Z</time>
      </trkpt>
      <trkpt lat="42.84547" lon="0.15616">
        <ele>2439.96</ele>
        <time>2014-03-21T13:35:39Z</time>
      </trkpt>
      <trkpt lat="42.84547" lon="0.15616">
        <ele>2439.96</ele>
        <time>2014-03-21T13:35:57Z</time>
      </trkpt>
      <trkpt lat="42.84547" lon="0.15616">
        <ele>2439.96</ele>
        <time>2014-03-21T13:36:13Z</time>
      </trkpt>
      <trkpt lat="42.84547" lon="0.15615">
        <ele>2439.48</ele>
        <time>2014-03-21T13:36:27Z</time>
      </trkpt>
      <trkpt lat="42.84548" lon="0.15615">
        <ele>2439.48</ele>
        <time>2014-03-21T13:36:43Z</time>
      </trkpt>
      <trkpt lat="42.84548" lon="0.15615">
        <ele>2439.48</ele>
        <time>2014-03-21T13:36:59Z</time>
      </trkpt>
      <trkpt lat="42.84548" lon="0.15615">
        <ele>2439.48</ele>
        <time>2014-03-21T13:37:17Z</time>
      </trkpt>
      <trkpt lat="42.84549" lon="0.15615">
        <ele>2439.48</ele>
        <time>2014-03-21T13:37:33Z</time>
      </trkpt>
      <trkpt lat="42.84548" lon="0.15615">
        <ele>2439</ele>
        <time>2014-03-21T13:37:40Z</time>
      </trkpt>
      <trkpt lat="42.84548" lon="0.15615">
        <ele>2438.52</ele>
        <time>2014-03-21T13:37:48Z</time>
      </trkpt>
      <trkpt lat="42.84548" lon="0.15615">
        <ele>2438.52</ele>
        <time>2014-03-21T13:38:00Z</time>
      </trkpt>
      <trkpt lat="42.84548" lon="0.15616">
        <ele>2439</ele>
        <time>2014-03-21T13:38:13Z</time>
      </trkpt>
      <trkpt lat="42.84546" lon="0.15616">
        <ele>2439</ele>
        <time>2014-03-21T13:38:32Z</time>
      </trkpt>
      <trkpt lat="42.84546" lon="0.15615">
        <ele>2439</ele>
        <time>2014-03-21T13:38:43Z</time>
      </trkpt>
      <trkpt lat="42.84548" lon="0.15615">
        <ele>2441.89</ele>
        <time>2014-03-21T13:38:51Z</time>
      </trkpt>
      <trkpt lat="42.84547" lon="0.15615">
        <ele>2442.37</ele>
        <time>2014-03-21T13:39:03Z</time>
      </trkpt>
      <trkpt lat="42.84548" lon="0.15616">
        <ele>2441.89</ele>
        <time>2014-03-21T13:39:13Z</time>
      </trkpt>
      <trkpt lat="42.84548" lon="0.15616">
        <ele>2441.89</ele>
        <time>2014-03-21T13:39:24Z</time>
      </trkpt>
      <trkpt lat="42.84548" lon="0.15615">
        <ele>2442.37</ele>
        <time>2014-03-21T13:39:42Z</time>
      </trkpt>
      <trkpt lat="42.84549" lon="0.15615">
        <ele>2442.37</ele>
        <time>2014-03-21T13:39:57Z</time>
      </trkpt>
      <trkpt lat="42.84549" lon="0.15615">
        <ele>2442.37</ele>
        <time>2014-03-21T13:40:07Z</time>
      </trkpt>
      <trkpt lat="42.8455" lon="0.15614">
        <ele>2442.85</ele>
        <time>2014-03-21T13:40:13Z</time>
      </trkpt>
      <trkpt lat="42.84549" lon="0.15614">
        <ele>2442.37</ele>
        <time>2014-03-21T13:40:18Z</time>
      </trkpt>
      <trkpt lat="42.84549" lon="0.15615">
        <ele>2441.41</ele>
        <time>2014-03-21T13:40:29Z</time>
      </trkpt>
      <trkpt lat="42.84549" lon="0.15615">
        <ele>2440.92</ele>
        <time>2014-03-21T13:40:40Z</time>
      </trkpt>
      <trkpt lat="42.84549" lon="0.15615">
        <ele>2440.44</ele>
        <time>2014-03-21T13:40:52Z</time>
      </trkpt>
      <trkpt lat="42.84548" lon="0.15615">
        <ele>2440.44</ele>
        <time>2014-03-21T13:41:08Z</time>
      </trkpt>
      <trkpt lat="42.84548" lon="0.15615">
        <ele>2440.44</ele>
        <time>2014-03-21T13:41:15Z</time>
      </trkpt>
      <trkpt lat="42.84548" lon="0.15615">
        <ele>2440.44</ele>
        <time>2014-03-21T13:41:28Z</time>
      </trkpt>
      <trkpt lat="42.84548" lon="0.15615">
        <ele>2440.92</ele>
        <time>2014-03-21T13:41:35Z</time>
      </trkpt>
      <trkpt lat="42.84547" lon="0.15615">
        <ele>2440.44</ele>
        <time>2014-03-21T13:41:45Z</time>
      </trkpt>
      <trkpt lat="42.84547" lon="0.15614">
        <ele>2440.44</ele>
        <time>2014-03-21T13:42:04Z</time>
      </trkpt>
      <trkpt lat="42.84547" lon="0.15614">
        <ele>2440.44</ele>
        <time>2014-03-21T13:42:24Z</time>
      </trkpt>
      <trkpt lat="42.84547" lon="0.15614">
        <ele>2440.44</ele>
        <time>2014-03-21T13:42:40Z</time>
      </trkpt>
      <trkpt lat="42.84547" lon="0.15614">
        <ele>2440.92</ele>
        <time>2014-03-21T13:42:51Z</time>
      </trkpt>
      <trkpt lat="42.84547" lon="0.15615">
        <ele>2440.44</ele>
        <time>2014-03-21T13:42:57Z</time>
      </trkpt>
      <trkpt lat="42.84547" lon="0.15614">
        <ele>2440.92</ele>
        <time>2014-03-21T13:43:04Z</time>
      </trkpt>
      <trkpt lat="42.84547" lon="0.15614">
        <ele>2440.92</ele>
        <time>2014-03-21T13:43:13Z</time>
      </trkpt>
      <trkpt lat="42.84547" lon="0.15615">
        <ele>2440.44</ele>
        <time>2014-03-21T13:43:19Z</time>
      </trkpt>
      <trkpt lat="42.84547" lon="0.15615">
        <ele>2440.44</ele>
        <time>2014-03-21T13:43:28Z</time>
      </trkpt>
      <trkpt lat="42.84547" lon="0.15615">
        <ele>2440.44</ele>
        <time>2014-03-21T13:43:46Z</time>
      </trkpt>
      <trkpt lat="42.84546" lon="0.15615">
        <ele>2440.44</ele>
        <time>2014-03-21T13:44:02Z</time>
      </trkpt>
      <trkpt lat="42.84547" lon="0.15617">
        <ele>2440.44</ele>
        <time>2014-03-21T13:44:11Z</time>
      </trkpt>
      <trkpt lat="42.84545" lon="0.15625">
        <ele>2438.52</ele>
        <time>2014-03-21T13:44:16Z</time>
      </trkpt>
      <trkpt lat="42.84545" lon="0.15625">
        <ele>2438.04</ele>
        <time>2014-03-21T13:44:21Z</time>
      </trkpt>
      <trkpt lat="42.84545" lon="0.15625">
        <ele>2438.04</ele>
        <time>2014-03-21T13:44:33Z</time>
      </trkpt>
      <trkpt lat="42.84549" lon="0.15633">
        <ele>2436.12</ele>
        <time>2014-03-21T13:44:37Z</time>
      </trkpt>
      <trkpt lat="42.84557" lon="0.15628">
        <ele>2433.23</ele>
        <time>2014-03-21T13:44:40Z</time>
      </trkpt>
      <trkpt lat="42.84561" lon="0.15623">
        <ele>2432.27</ele>
        <time>2014-03-21T13:44:42Z</time>
      </trkpt>
      <trkpt lat="42.84581" lon="0.15613">
        <ele>2427.47</ele>
        <time>2014-03-21T13:44:47Z</time>
      </trkpt>
      <trkpt lat="42.84591" lon="0.15616">
        <ele>2425.06</ele>
        <time>2014-03-21T13:44:49Z</time>
      </trkpt>
      <trkpt lat="42.84602" lon="0.15614">
        <ele>2421.7</ele>
        <time>2014-03-21T13:44:52Z</time>
      </trkpt>
      <trkpt lat="42.84613" lon="0.15612">
        <ele>2417.37</ele>
        <time>2014-03-21T13:44:55Z</time>
      </trkpt>
      <trkpt lat="42.84634" lon="0.15604">
        <ele>2411.6</ele>
        <time>2014-03-21T13:44:59Z</time>
      </trkpt>
      <trkpt lat="42.84654" lon="0.15612">
        <ele>2406.8</ele>
        <time>2014-03-21T13:45:02Z</time>
      </trkpt>
      <trkpt lat="42.84666" lon="0.15623">
        <ele>2404.39</ele>
        <time>2014-03-21T13:45:04Z</time>
      </trkpt>
      <trkpt lat="42.8468" lon="0.15629">
        <ele>2402.95</ele>
        <time>2014-03-21T13:45:07Z</time>
      </trkpt>
      <trkpt lat="42.8468" lon="0.15631">
        <ele>2401.99</ele>
        <time>2014-03-21T13:45:10Z</time>
      </trkpt>
      <trkpt lat="42.84681" lon="0.1563">
        <ele>2401.03</ele>
        <time>2014-03-21T13:45:18Z</time>
      </trkpt>
      <trkpt lat="42.84682" lon="0.1563">
        <ele>2398.63</ele>
        <time>2014-03-21T13:45:32Z</time>
      </trkpt>
      <trkpt lat="42.84681" lon="0.1563">
        <ele>2395.74</ele>
        <time>2014-03-21T13:45:54Z</time>
      </trkpt>
      <trkpt lat="42.84681" lon="0.1563">
        <ele>2395.26</ele>
        <time>2014-03-21T13:46:08Z</time>
      </trkpt>
      <trkpt lat="42.84681" lon="0.1563">
        <ele>2393.82</ele>
        <time>2014-03-21T13:46:27Z</time>
      </trkpt>
      <trkpt lat="42.8468" lon="0.15631">
        <ele>2392.86</ele>
        <time>2014-03-21T13:46:39Z</time>
      </trkpt>
      <trkpt lat="42.84679" lon="0.15633">
        <ele>2391.9</ele>
        <time>2014-03-21T13:46:55Z</time>
      </trkpt>
      <trkpt lat="42.84679" lon="0.15633">
        <ele>2391.9</ele>
        <time>2014-03-21T13:47:04Z</time>
      </trkpt>
      <trkpt lat="42.84679" lon="0.15633">
        <ele>2391.9</ele>
        <time>2014-03-21T13:47:19Z</time>
      </trkpt>
      <trkpt lat="42.84679" lon="0.15633">
        <ele>2390.94</ele>
        <time>2014-03-21T13:47:37Z</time>
      </trkpt>
      <trkpt lat="42.84679" lon="0.15633">
        <ele>2390.94</ele>
        <time>2014-03-21T13:47:48Z</time>
      </trkpt>
      <trkpt lat="42.84679" lon="0.15632">
        <ele>2390.94</ele>
        <time>2014-03-21T13:47:55Z</time>
      </trkpt>
      <trkpt lat="42.84678" lon="0.15632">
        <ele>2390.94</ele>
        <time>2014-03-21T13:47:56Z</time>
      </trkpt>
      <trkpt lat="42.84675" lon="0.15637">
        <ele>2389.97</ele>
        <time>2014-03-21T13:48:02Z</time>
      </trkpt>
      <trkpt lat="42.84677" lon="0.15638">
        <ele>2389.49</ele>
        <time>2014-03-21T13:48:07Z</time>
      </trkpt>
      <trkpt lat="42.84689" lon="0.15638">
        <ele>2389.01</ele>
        <time>2014-03-21T13:48:12Z</time>
      </trkpt>
      <trkpt lat="42.84706" lon="0.15628">
        <ele>2387.09</ele>
        <time>2014-03-21T13:48:16Z</time>
      </trkpt>
      <trkpt lat="42.84732" lon="0.15639">
        <ele>2382.76</ele>
        <time>2014-03-21T13:48:20Z</time>
      </trkpt>
      <trkpt lat="42.84746" lon="0.15657">
        <ele>2378.92</ele>
        <time>2014-03-21T13:48:23Z</time>
      </trkpt>
      <trkpt lat="42.8476" lon="0.15677">
        <ele>2373.63</ele>
        <time>2014-03-21T13:48:26Z</time>
      </trkpt>
      <trkpt lat="42.84771" lon="0.15703">
        <ele>2368.83</ele>
        <time>2014-03-21T13:48:29Z</time>
      </trkpt>
      <trkpt lat="42.84787" lon="0.15729">
        <ele>2365.94</ele>
        <time>2014-03-21T13:48:32Z</time>
      </trkpt>
      <trkpt lat="42.84798" lon="0.15737">
        <ele>2364.98</ele>
        <time>2014-03-21T13:48:33Z</time>
      </trkpt>
      <trkpt lat="42.84817" lon="0.15751">
        <ele>2363.06</ele>
        <time>2014-03-21T13:48:35Z</time>
      </trkpt>
      <trkpt lat="42.84841" lon="0.15781">
        <ele>2358.73</ele>
        <time>2014-03-21T13:48:39Z</time>
      </trkpt>
      <trkpt lat="42.84849" lon="0.15812">
        <ele>2354.89</ele>
        <time>2014-03-21T13:48:42Z</time>
      </trkpt>
      <trkpt lat="42.84857" lon="0.15826">
        <ele>2352.96</ele>
        <time>2014-03-21T13:48:44Z</time>
      </trkpt>
      <trkpt lat="42.84874" lon="0.15846">
        <ele>2348.16</ele>
        <time>2014-03-21T13:48:49Z</time>
      </trkpt>
      <trkpt lat="42.84875" lon="0.15849">
        <ele>2346.72</ele>
        <time>2014-03-21T13:48:53Z</time>
      </trkpt>
      <trkpt lat="42.84875" lon="0.15849">
        <ele>2345.27</ele>
        <time>2014-03-21T13:49:02Z</time>
      </trkpt>
      <trkpt lat="42.84875" lon="0.1585">
        <ele>2343.35</ele>
        <time>2014-03-21T13:49:16Z</time>
      </trkpt>
      <trkpt lat="42.84875" lon="0.15849">
        <ele>2343.35</ele>
        <time>2014-03-21T13:49:26Z</time>
      </trkpt>
      <trkpt lat="42.84875" lon="0.15849">
        <ele>2342.39</ele>
        <time>2014-03-21T13:49:38Z</time>
      </trkpt>
      <trkpt lat="42.84877" lon="0.1585">
        <ele>2341.91</ele>
        <time>2014-03-21T13:49:44Z</time>
      </trkpt>
      <trkpt lat="42.84883" lon="0.15858">
        <ele>2341.91</ele>
        <time>2014-03-21T13:49:51Z</time>
      </trkpt>
      <trkpt lat="42.84893" lon="0.15871">
        <ele>2340.47</ele>
        <time>2014-03-21T13:49:57Z</time>
      </trkpt>
      <trkpt lat="42.84899" lon="0.15888">
        <ele>2339.51</ele>
        <time>2014-03-21T13:50:00Z</time>
      </trkpt>
      <trkpt lat="42.84898" lon="0.15922">
        <ele>2335.66</ele>
        <time>2014-03-21T13:50:04Z</time>
      </trkpt>
      <trkpt lat="42.84906" lon="0.15957">
        <ele>2331.81</ele>
        <time>2014-03-21T13:50:08Z</time>
      </trkpt>
      <trkpt lat="42.8492" lon="0.15993">
        <ele>2327.01</ele>
        <time>2014-03-21T13:50:12Z</time>
      </trkpt>
      <trkpt lat="42.8493" lon="0.16022">
        <ele>2323.16</ele>
        <time>2014-03-21T13:50:15Z</time>
      </trkpt>
      <trkpt lat="42.84947" lon="0.16046">
        <ele>2318.36</ele>
        <time>2014-03-21T13:50:18Z</time>
      </trkpt>
      <trkpt lat="42.84963" lon="0.16078">
        <ele>2312.59</ele>
        <time>2014-03-21T13:50:21Z</time>
      </trkpt>
      <trkpt lat="42.84985" lon="0.16103">
        <ele>2307.3</ele>
        <time>2014-03-21T13:50:24Z</time>
      </trkpt>
      <trkpt lat="42.85" lon="0.16116">
        <ele>2301.53</ele>
        <time>2014-03-21T13:50:27Z</time>
      </trkpt>
      <trkpt lat="42.85003" lon="0.16114">
        <ele>2297.69</ele>
        <time>2014-03-21T13:50:30Z</time>
      </trkpt>
      <trkpt lat="42.85003" lon="0.16115">
        <ele>2296.25</ele>
        <time>2014-03-21T13:50:39Z</time>
      </trkpt>
      <trkpt lat="42.85005" lon="0.16116">
        <ele>2293.84</ele>
        <time>2014-03-21T13:50:59Z</time>
      </trkpt>
      <trkpt lat="42.85005" lon="0.16116">
        <ele>2293.36</ele>
        <time>2014-03-21T13:51:11Z</time>
      </trkpt>
      <trkpt lat="42.85006" lon="0.16114">
        <ele>2293.84</ele>
        <time>2014-03-21T13:51:27Z</time>
      </trkpt>
      <trkpt lat="42.85006" lon="0.16114">
        <ele>2294.32</ele>
        <time>2014-03-21T13:51:44Z</time>
      </trkpt>
      <trkpt lat="42.85005" lon="0.16114">
        <ele>2293.84</ele>
        <time>2014-03-21T13:52:05Z</time>
      </trkpt>
      <trkpt lat="42.85006" lon="0.16114">
        <ele>2294.8</ele>
        <time>2014-03-21T13:52:23Z</time>
      </trkpt>
      <trkpt lat="42.85005" lon="0.16114">
        <ele>2292.88</ele>
        <time>2014-03-21T13:52:41Z</time>
      </trkpt>
      <trkpt lat="42.85005" lon="0.16114">
        <ele>2292.88</ele>
        <time>2014-03-21T13:52:46Z</time>
      </trkpt>
      <trkpt lat="42.85007" lon="0.16119">
        <ele>2292.4</ele>
        <time>2014-03-21T13:52:51Z</time>
      </trkpt>
      <trkpt lat="42.85007" lon="0.16122">
        <ele>2292.4</ele>
        <time>2014-03-21T13:52:53Z</time>
      </trkpt>
      <trkpt lat="42.85014" lon="0.16139">
        <ele>2291.92</ele>
        <time>2014-03-21T13:53:00Z</time>
      </trkpt>
      <trkpt lat="42.85019" lon="0.16149">
        <ele>2291.44</ele>
        <time>2014-03-21T13:53:02Z</time>
      </trkpt>
      <trkpt lat="42.85033" lon="0.1618">
        <ele>2289.52</ele>
        <time>2014-03-21T13:53:07Z</time>
      </trkpt>
      <trkpt lat="42.85047" lon="0.16223">
        <ele>2284.71</ele>
        <time>2014-03-21T13:53:12Z</time>
      </trkpt>
      <trkpt lat="42.85051" lon="0.1624">
        <ele>2283.27</ele>
        <time>2014-03-21T13:53:14Z</time>
      </trkpt>
      <trkpt lat="42.85064" lon="0.1627">
        <ele>2280.87</ele>
        <time>2014-03-21T13:53:18Z</time>
      </trkpt>
      <trkpt lat="42.85072" lon="0.16285">
        <ele>2279.42</ele>
        <time>2014-03-21T13:53:21Z</time>
      </trkpt>
      <trkpt lat="42.85081" lon="0.16301">
        <ele>2279.42</ele>
        <time>2014-03-21T13:53:26Z</time>
      </trkpt>
      <trkpt lat="42.85087" lon="0.16308">
        <ele>2280.38</ele>
        <time>2014-03-21T13:53:30Z</time>
      </trkpt>
      <trkpt lat="42.85092" lon="0.16321">
        <ele>2281.83</ele>
        <time>2014-03-21T13:53:35Z</time>
      </trkpt>
      <trkpt lat="42.85095" lon="0.16334">
        <ele>2282.31</ele>
        <time>2014-03-21T13:53:42Z</time>
      </trkpt>
      <trkpt lat="42.85095" lon="0.16333">
        <ele>2282.79</ele>
        <time>2014-03-21T13:53:50Z</time>
      </trkpt>
      <trkpt lat="42.85095" lon="0.16332">
        <ele>2283.27</ele>
        <time>2014-03-21T13:53:58Z</time>
      </trkpt>
      <trkpt lat="42.85095" lon="0.16332">
        <ele>2282.31</ele>
        <time>2014-03-21T13:54:11Z</time>
      </trkpt>
      <trkpt lat="42.85094" lon="0.16332">
        <ele>2282.79</ele>
        <time>2014-03-21T13:54:18Z</time>
      </trkpt>
      <trkpt lat="42.85094" lon="0.16331">
        <ele>2282.79</ele>
        <time>2014-03-21T13:54:29Z</time>
      </trkpt>
      <trkpt lat="42.85094" lon="0.1633">
        <ele>2283.27</ele>
        <time>2014-03-21T13:54:44Z</time>
      </trkpt>
      <trkpt lat="42.85094" lon="0.16332">
        <ele>2283.27</ele>
        <time>2014-03-21T13:54:53Z</time>
      </trkpt>
      <trkpt lat="42.85093" lon="0.16332">
        <ele>2284.23</ele>
        <time>2014-03-21T13:55:09Z</time>
      </trkpt>
      <trkpt lat="42.85093" lon="0.16332">
        <ele>2284.71</ele>
        <time>2014-03-21T13:55:19Z</time>
      </trkpt>
      <trkpt lat="42.85093" lon="0.16332">
        <ele>2285.19</ele>
        <time>2014-03-21T13:55:33Z</time>
      </trkpt>
      <trkpt lat="42.85093" lon="0.16332">
        <ele>2284.23</ele>
        <time>2014-03-21T13:55:45Z</time>
      </trkpt>
      <trkpt lat="42.85093" lon="0.16333">
        <ele>2284.23</ele>
        <time>2014-03-21T13:55:55Z</time>
      </trkpt>
      <trkpt lat="42.85092" lon="0.16333">
        <ele>2283.75</ele>
        <time>2014-03-21T13:56:06Z</time>
      </trkpt>
      <trkpt lat="42.85092" lon="0.16334">
        <ele>2283.75</ele>
        <time>2014-03-21T13:56:22Z</time>
      </trkpt>
      <trkpt lat="42.85092" lon="0.16334">
        <ele>2283.75</ele>
        <time>2014-03-21T13:56:36Z</time>
      </trkpt>
      <trkpt lat="42.85092" lon="0.16335">
        <ele>2283.75</ele>
        <time>2014-03-21T13:56:40Z</time>
      </trkpt>
      <trkpt lat="42.85094" lon="0.16342">
        <ele>2283.75</ele>
        <time>2014-03-21T13:56:44Z</time>
      </trkpt>
      <trkpt lat="42.85096" lon="0.16353">
        <ele>2284.23</ele>
        <time>2014-03-21T13:56:48Z</time>
      </trkpt>
      <trkpt lat="42.85099" lon="0.16365">
        <ele>2283.75</ele>
        <time>2014-03-21T13:56:53Z</time>
      </trkpt>
      <trkpt lat="42.851" lon="0.1637">
        <ele>2284.23</ele>
        <time>2014-03-21T13:56:55Z</time>
      </trkpt>
      <trkpt lat="42.85102" lon="0.16379">
        <ele>2283.75</ele>
        <time>2014-03-21T13:56:58Z</time>
      </trkpt>
      <trkpt lat="42.85105" lon="0.16393">
        <ele>2282.31</ele>
        <time>2014-03-21T13:57:03Z</time>
      </trkpt>
      <trkpt lat="42.85105" lon="0.16399">
        <ele>2281.83</ele>
        <time>2014-03-21T13:57:05Z</time>
      </trkpt>
      <trkpt lat="42.85107" lon="0.16412">
        <ele>2281.35</ele>
        <time>2014-03-21T13:57:10Z</time>
      </trkpt>
      <trkpt lat="42.85107" lon="0.16421">
        <ele>2280.87</ele>
        <time>2014-03-21T13:57:14Z</time>
      </trkpt>
      <trkpt lat="42.85109" lon="0.16427">
        <ele>2281.35</ele>
        <time>2014-03-21T13:57:17Z</time>
      </trkpt>
      <trkpt lat="42.8511" lon="0.16437">
        <ele>2281.83</ele>
        <time>2014-03-21T13:57:22Z</time>
      </trkpt>
      <trkpt lat="42.8511" lon="0.16439">
        <ele>2281.83</ele>
        <time>2014-03-21T13:57:24Z</time>
      </trkpt>
      <trkpt lat="42.85111" lon="0.16452">
        <ele>2281.83</ele>
        <time>2014-03-21T13:57:30Z</time>
      </trkpt>
      <trkpt lat="42.85112" lon="0.16466">
        <ele>2281.35</ele>
        <time>2014-03-21T13:57:36Z</time>
      </trkpt>
      <trkpt lat="42.85112" lon="0.16469">
        <ele>2281.83</ele>
        <time>2014-03-21T13:57:37Z</time>
      </trkpt>
      <trkpt lat="42.85113" lon="0.16486">
        <ele>2282.31</ele>
        <time>2014-03-21T13:57:44Z</time>
      </trkpt>
      <trkpt lat="42.85113" lon="0.16515">
        <ele>2281.35</ele>
        <time>2014-03-21T13:57:53Z</time>
      </trkpt>
      <trkpt lat="42.8511" lon="0.16548">
        <ele>2279.42</ele>
        <time>2014-03-21T13:58:02Z</time>
      </trkpt>
      <trkpt lat="42.85104" lon="0.16576">
        <ele>2276.54</ele>
        <time>2014-03-21T13:58:10Z</time>
      </trkpt>
      <trkpt lat="42.85101" lon="0.16593">
        <ele>2276.06</ele>
        <time>2014-03-21T13:58:16Z</time>
      </trkpt>
      <trkpt lat="42.85098" lon="0.16608">
        <ele>2275.58</ele>
        <time>2014-03-21T13:58:21Z</time>
      </trkpt>
      <trkpt lat="42.85097" lon="0.1661">
        <ele>2275.58</ele>
        <time>2014-03-21T13:58:22Z</time>
      </trkpt>
      <trkpt lat="42.85089" lon="0.16624">
        <ele>2275.1</ele>
        <time>2014-03-21T13:58:28Z</time>
      </trkpt>
      <trkpt lat="42.85081" lon="0.16634">
        <ele>2274.14</ele>
        <time>2014-03-21T13:58:31Z</time>
      </trkpt>
      <trkpt lat="42.85074" lon="0.16648">
        <ele>2273.17</ele>
        <time>2014-03-21T13:58:34Z</time>
      </trkpt>
      <trkpt lat="42.8506" lon="0.16701">
        <ele>2268.37</ele>
        <time>2014-03-21T13:58:43Z</time>
      </trkpt>
      <trkpt lat="42.85049" lon="0.16743">
        <ele>2265.48</ele>
        <time>2014-03-21T13:58:49Z</time>
      </trkpt>
      <trkpt lat="42.85037" lon="0.16793">
        <ele>2261.64</ele>
        <time>2014-03-21T13:58:55Z</time>
      </trkpt>
      <trkpt lat="42.85035" lon="0.168">
        <ele>2261.16</ele>
        <time>2014-03-21T13:58:56Z</time>
      </trkpt>
      <trkpt lat="42.85021" lon="0.16852">
        <ele>2256.35</ele>
        <time>2014-03-21T13:59:03Z</time>
      </trkpt>
      <trkpt lat="42.8501" lon="0.16897">
        <ele>2252.99</ele>
        <time>2014-03-21T13:59:09Z</time>
      </trkpt>
      <trkpt lat="42.85004" lon="0.16929">
        <ele>2250.1</ele>
        <time>2014-03-21T13:59:15Z</time>
      </trkpt>
      <trkpt lat="42.84997" lon="0.16967">
        <ele>2247.22</ele>
        <time>2014-03-21T13:59:20Z</time>
      </trkpt>
      <trkpt lat="42.84991" lon="0.17012">
        <ele>2243.37</ele>
        <time>2014-03-21T13:59:25Z</time>
      </trkpt>
      <trkpt lat="42.84985" lon="0.17043">
        <ele>2241.45</ele>
        <time>2014-03-21T13:59:30Z</time>
      </trkpt>
      <trkpt lat="42.84983" lon="0.17063">
        <ele>2239.53</ele>
        <time>2014-03-21T13:59:35Z</time>
      </trkpt>
      <trkpt lat="42.84976" lon="0.17083">
        <ele>2238.09</ele>
        <time>2014-03-21T13:59:42Z</time>
      </trkpt>
      <trkpt lat="42.84974" lon="0.17085">
        <ele>2237.61</ele>
        <time>2014-03-21T13:59:48Z</time>
      </trkpt>
      <trkpt lat="42.8497" lon="0.17098">
        <ele>2237.13</ele>
        <time>2014-03-21T13:59:54Z</time>
      </trkpt>
      <trkpt lat="42.84966" lon="0.17105">
        <ele>2237.13</ele>
        <time>2014-03-21T13:59:56Z</time>
      </trkpt>
      <trkpt lat="42.84952" lon="0.17132">
        <ele>2236.64</ele>
        <time>2014-03-21T14:00:03Z</time>
      </trkpt>
      <trkpt lat="42.8495" lon="0.17159">
        <ele>2235.2</ele>
        <time>2014-03-21T14:00:10Z</time>
      </trkpt>
      <trkpt lat="42.84949" lon="0.17165">
        <ele>2235.2</ele>
        <time>2014-03-21T14:00:15Z</time>
      </trkpt>
      <trkpt lat="42.84948" lon="0.17167">
        <ele>2235.2</ele>
        <time>2014-03-21T14:00:17Z</time>
      </trkpt>
      <trkpt lat="42.84947" lon="0.17182">
        <ele>2233.76</ele>
        <time>2014-03-21T14:00:26Z</time>
      </trkpt>
      <trkpt lat="42.84946" lon="0.17185">
        <ele>2233.76</ele>
        <time>2014-03-21T14:00:28Z</time>
      </trkpt>
      <trkpt lat="42.84939" lon="0.172">
        <ele>2234.72</ele>
        <time>2014-03-21T14:00:36Z</time>
      </trkpt>
      <trkpt lat="42.84932" lon="0.17212">
        <ele>2235.2</ele>
        <time>2014-03-21T14:00:44Z</time>
      </trkpt>
      <trkpt lat="42.84931" lon="0.17214">
        <ele>2235.2</ele>
        <time>2014-03-21T14:00:48Z</time>
      </trkpt>
      <trkpt lat="42.84929" lon="0.17219">
        <ele>2234.72</ele>
        <time>2014-03-21T14:00:52Z</time>
      </trkpt>
      <trkpt lat="42.84927" lon="0.17221">
        <ele>2234.72</ele>
        <time>2014-03-21T14:00:54Z</time>
      </trkpt>
      <trkpt lat="42.84926" lon="0.17224">
        <ele>2235.2</ele>
        <time>2014-03-21T14:00:56Z</time>
      </trkpt>
      <trkpt lat="42.84924" lon="0.1723">
        <ele>2235.68</ele>
        <time>2014-03-21T14:01:01Z</time>
      </trkpt>
      <trkpt lat="42.84924" lon="0.17233">
        <ele>2236.16</ele>
        <time>2014-03-21T14:01:03Z</time>
      </trkpt>
      <trkpt lat="42.84922" lon="0.1724">
        <ele>2235.2</ele>
        <time>2014-03-21T14:01:09Z</time>
      </trkpt>
      <trkpt lat="42.84919" lon="0.17247">
        <ele>2235.68</ele>
        <time>2014-03-21T14:01:16Z</time>
      </trkpt>
      <trkpt lat="42.84919" lon="0.17248">
        <ele>2234.72</ele>
        <time>2014-03-21T14:01:25Z</time>
      </trkpt>
      <trkpt lat="42.84919" lon="0.17249">
        <ele>2235.2</ele>
        <time>2014-03-21T14:01:32Z</time>
      </trkpt>
      <trkpt lat="42.84917" lon="0.17255">
        <ele>2235.2</ele>
        <time>2014-03-21T14:01:38Z</time>
      </trkpt>
      <trkpt lat="42.84916" lon="0.1726">
        <ele>2235.68</ele>
        <time>2014-03-21T14:01:42Z</time>
      </trkpt>
      <trkpt lat="42.84916" lon="0.17263">
        <ele>2235.68</ele>
        <time>2014-03-21T14:01:45Z</time>
      </trkpt>
      <trkpt lat="42.84913" lon="0.17272">
        <ele>2235.2</ele>
        <time>2014-03-21T14:01:54Z</time>
      </trkpt>
      <trkpt lat="42.84911" lon="0.17277">
        <ele>2235.2</ele>
        <time>2014-03-21T14:02:01Z</time>
      </trkpt>
      <trkpt lat="42.84908" lon="0.17284">
        <ele>2234.72</ele>
        <time>2014-03-21T14:02:07Z</time>
      </trkpt>
      <trkpt lat="42.84907" lon="0.17286">
        <ele>2234.72</ele>
        <time>2014-03-21T14:02:08Z</time>
      </trkpt>
      <trkpt lat="42.84905" lon="0.17292">
        <ele>2235.2</ele>
        <time>2014-03-21T14:02:12Z</time>
      </trkpt>
      <trkpt lat="42.84898" lon="0.17309">
        <ele>2235.68</ele>
        <time>2014-03-21T14:02:18Z</time>
      </trkpt>
      <trkpt lat="42.84896" lon="0.1732">
        <ele>2235.68</ele>
        <time>2014-03-21T14:02:23Z</time>
      </trkpt>
      <trkpt lat="42.84894" lon="0.17333">
        <ele>2235.2</ele>
        <time>2014-03-21T14:02:28Z</time>
      </trkpt>
      <trkpt lat="42.84894" lon="0.17339">
        <ele>2236.64</ele>
        <time>2014-03-21T14:02:33Z</time>
      </trkpt>
      <trkpt lat="42.84895" lon="0.17344">
        <ele>2237.13</ele>
        <time>2014-03-21T14:02:38Z</time>
      </trkpt>
      <trkpt lat="42.84894" lon="0.17352">
        <ele>2237.61</ele>
        <time>2014-03-21T14:02:46Z</time>
      </trkpt>
      <trkpt lat="42.84892" lon="0.17359">
        <ele>2237.13</ele>
        <time>2014-03-21T14:02:53Z</time>
      </trkpt>
      <trkpt lat="42.8489" lon="0.17368">
        <ele>2237.13</ele>
        <time>2014-03-21T14:03:01Z</time>
      </trkpt>
      <trkpt lat="42.84888" lon="0.17376">
        <ele>2236.16</ele>
        <time>2014-03-21T14:03:09Z</time>
      </trkpt>
      <trkpt lat="42.84886" lon="0.17381">
        <ele>2236.16</ele>
        <time>2014-03-21T14:03:16Z</time>
      </trkpt>
      <trkpt lat="42.84885" lon="0.17383">
        <ele>2236.16</ele>
        <time>2014-03-21T14:03:22Z</time>
      </trkpt>
      <trkpt lat="42.84884" lon="0.17385">
        <ele>2236.64</ele>
        <time>2014-03-21T14:03:24Z</time>
      </trkpt>
      <trkpt lat="42.84885" lon="0.17394">
        <ele>2237.13</ele>
        <time>2014-03-21T14:03:29Z</time>
      </trkpt>
      <trkpt lat="42.84886" lon="0.174">
        <ele>2237.13</ele>
        <time>2014-03-21T14:03:36Z</time>
      </trkpt>
      <trkpt lat="42.84886" lon="0.174">
        <ele>2237.61</ele>
        <time>2014-03-21T14:03:44Z</time>
      </trkpt>
      <trkpt lat="42.84886" lon="0.17405">
        <ele>2238.09</ele>
        <time>2014-03-21T14:03:50Z</time>
      </trkpt>
      <trkpt lat="42.84882" lon="0.17411">
        <ele>2238.57</ele>
        <time>2014-03-21T14:04:00Z</time>
      </trkpt>
      <trkpt lat="42.84883" lon="0.17413">
        <ele>2238.09</ele>
        <time>2014-03-21T14:04:08Z</time>
      </trkpt>
      <trkpt lat="42.84882" lon="0.17416">
        <ele>2238.09</ele>
        <time>2014-03-21T14:04:13Z</time>
      </trkpt>
      <trkpt lat="42.84881" lon="0.1742">
        <ele>2239.05</ele>
        <time>2014-03-21T14:04:18Z</time>
      </trkpt>
      <trkpt lat="42.8488" lon="0.17423">
        <ele>2240.01</ele>
        <time>2014-03-21T14:04:23Z</time>
      </trkpt>
      <trkpt lat="42.8488" lon="0.17423">
        <ele>2240.01</ele>
        <time>2014-03-21T14:04:24Z</time>
      </trkpt>
      <trkpt lat="42.84878" lon="0.17429">
        <ele>2240.49</ele>
        <time>2014-03-21T14:04:30Z</time>
      </trkpt>
      <trkpt lat="42.84877" lon="0.17433">
        <ele>2241.45</ele>
        <time>2014-03-21T14:04:36Z</time>
      </trkpt>
      <trkpt lat="42.84877" lon="0.17436">
        <ele>2241.93</ele>
        <time>2014-03-21T14:04:41Z</time>
      </trkpt>
      <trkpt lat="42.84876" lon="0.1744">
        <ele>2241.93</ele>
        <time>2014-03-21T14:04:45Z</time>
      </trkpt>
      <trkpt lat="42.84875" lon="0.17445">
        <ele>2241.93</ele>
        <time>2014-03-21T14:04:51Z</time>
      </trkpt>
      <trkpt lat="42.84873" lon="0.17449">
        <ele>2241.93</ele>
        <time>2014-03-21T14:04:58Z</time>
      </trkpt>
      <trkpt lat="42.84871" lon="0.17454">
        <ele>2242.41</ele>
        <time>2014-03-21T14:05:04Z</time>
      </trkpt>
      <trkpt lat="42.84869" lon="0.17456">
        <ele>2241.45</ele>
        <time>2014-03-21T14:05:11Z</time>
      </trkpt>
      <trkpt lat="42.84869" lon="0.17456">
        <ele>2240.97</ele>
        <time>2014-03-21T14:05:23Z</time>
      </trkpt>
      <trkpt lat="42.84869" lon="0.17457">
        <ele>2240.97</ele>
        <time>2014-03-21T14:05:29Z</time>
      </trkpt>
      <trkpt lat="42.84868" lon="0.17458">
        <ele>2241.45</ele>
        <time>2014-03-21T14:05:38Z</time>
      </trkpt>
      <trkpt lat="42.84864" lon="0.17462">
        <ele>2240.97</ele>
        <time>2014-03-21T14:05:44Z</time>
      </trkpt>
      <trkpt lat="42.84864" lon="0.17462">
        <ele>2241.45</ele>
        <time>2014-03-21T14:05:52Z</time>
      </trkpt>
      <trkpt lat="42.84864" lon="0.17463">
        <ele>2241.93</ele>
        <time>2014-03-21T14:06:05Z</time>
      </trkpt>
      <trkpt lat="42.84865" lon="0.17462">
        <ele>2241.45</ele>
        <time>2014-03-21T14:06:19Z</time>
      </trkpt>
      <trkpt lat="42.84864" lon="0.17462">
        <ele>2240.97</ele>
        <time>2014-03-21T14:06:27Z</time>
      </trkpt>
      <trkpt lat="42.84864" lon="0.17463">
        <ele>2241.45</ele>
        <time>2014-03-21T14:06:50Z</time>
      </trkpt>
      <trkpt lat="42.84864" lon="0.17463">
        <ele>2240.49</ele>
        <time>2014-03-21T14:07:03Z</time>
      </trkpt>
      <trkpt lat="42.84864" lon="0.17463">
        <ele>2240.97</ele>
        <time>2014-03-21T14:07:22Z</time>
      </trkpt>
      <trkpt lat="42.84862" lon="0.17465">
        <ele>2240.01</ele>
        <time>2014-03-21T14:07:28Z</time>
      </trkpt>
      <trkpt lat="42.84855" lon="0.17477">
        <ele>2239.53</ele>
        <time>2014-03-21T14:07:36Z</time>
      </trkpt>
      <trkpt lat="42.84847" lon="0.17492">
        <ele>2239.53</ele>
        <time>2014-03-21T14:07:42Z</time>
      </trkpt>
      <trkpt lat="42.84842" lon="0.17505">
        <ele>2239.05</ele>
        <time>2014-03-21T14:07:45Z</time>
      </trkpt>
      <trkpt lat="42.84837" lon="0.17517">
        <ele>2238.09</ele>
        <time>2014-03-21T14:07:47Z</time>
      </trkpt>
      <trkpt lat="42.8483" lon="0.17542">
        <ele>2235.68</ele>
        <time>2014-03-21T14:07:51Z</time>
      </trkpt>
      <trkpt lat="42.84823" lon="0.17571">
        <ele>2231.84</ele>
        <time>2014-03-21T14:07:55Z</time>
      </trkpt>
      <trkpt lat="42.84819" lon="0.17578">
        <ele>2230.88</ele>
        <time>2014-03-21T14:07:56Z</time>
      </trkpt>
      <trkpt lat="42.84806" lon="0.17599">
        <ele>2226.55</ele>
        <time>2014-03-21T14:08:02Z</time>
      </trkpt>
      <trkpt lat="42.84807" lon="0.17598">
        <ele>2226.07</ele>
        <time>2014-03-21T14:08:07Z</time>
      </trkpt>
      <trkpt lat="42.84807" lon="0.17599">
        <ele>2226.07</ele>
        <time>2014-03-21T14:08:08Z</time>
      </trkpt>
      <trkpt lat="42.84808" lon="0.17617">
        <ele>2223.67</ele>
        <time>2014-03-21T14:08:12Z</time>
      </trkpt>
      <trkpt lat="42.84803" lon="0.17624">
        <ele>2221.26</ele>
        <time>2014-03-21T14:08:15Z</time>
      </trkpt>
      <trkpt lat="42.84807" lon="0.17623">
        <ele>2218.86</ele>
        <time>2014-03-21T14:08:20Z</time>
      </trkpt>
      <trkpt lat="42.84798" lon="0.17642">
        <ele>2216.46</ele>
        <time>2014-03-21T14:08:24Z</time>
      </trkpt>
      <trkpt lat="42.84779" lon="0.17666">
        <ele>2211.17</ele>
        <time>2014-03-21T14:08:28Z</time>
      </trkpt>
      <trkpt lat="42.84775" lon="0.17671">
        <ele>2209.25</ele>
        <time>2014-03-21T14:08:31Z</time>
      </trkpt>
      <trkpt lat="42.84774" lon="0.17669">
        <ele>2207.81</ele>
        <time>2014-03-21T14:08:39Z</time>
      </trkpt>
      <trkpt lat="42.84775" lon="0.17669">
        <ele>2207.32</ele>
        <time>2014-03-21T14:08:50Z</time>
      </trkpt>
      <trkpt lat="42.84775" lon="0.17669">
        <ele>2207.81</ele>
        <time>2014-03-21T14:09:05Z</time>
      </trkpt>
      <trkpt lat="42.84775" lon="0.17668">
        <ele>2208.77</ele>
        <time>2014-03-21T14:09:23Z</time>
      </trkpt>
      <trkpt lat="42.84777" lon="0.17668">
        <ele>2208.29</ele>
        <time>2014-03-21T14:09:41Z</time>
      </trkpt>
      <trkpt lat="42.84776" lon="0.17668">
        <ele>2209.25</ele>
        <time>2014-03-21T14:09:59Z</time>
      </trkpt>
      <trkpt lat="42.84776" lon="0.17668">
        <ele>2208.77</ele>
        <time>2014-03-21T14:10:18Z</time>
      </trkpt>
      <trkpt lat="42.84775" lon="0.17668">
        <ele>2206.36</ele>
        <time>2014-03-21T14:10:39Z</time>
      </trkpt>
      <trkpt lat="42.84775" lon="0.17668">
        <ele>2206.36</ele>
        <time>2014-03-21T14:10:53Z</time>
      </trkpt>
      <trkpt lat="42.84775" lon="0.17667">
        <ele>2206.84</ele>
        <time>2014-03-21T14:11:06Z</time>
      </trkpt>
      <trkpt lat="42.84776" lon="0.17668">
        <ele>2207.32</ele>
        <time>2014-03-21T14:11:19Z</time>
      </trkpt>
      <trkpt lat="42.84776" lon="0.17669">
        <ele>2207.32</ele>
        <time>2014-03-21T14:11:32Z</time>
      </trkpt>
      <trkpt lat="42.84775" lon="0.17669">
        <ele>2207.81</ele>
        <time>2014-03-21T14:11:51Z</time>
      </trkpt>
      <trkpt lat="42.84775" lon="0.1767">
        <ele>2207.32</ele>
        <time>2014-03-21T14:12:03Z</time>
      </trkpt>
      <trkpt lat="42.84775" lon="0.1767">
        <ele>2207.32</ele>
        <time>2014-03-21T14:12:15Z</time>
      </trkpt>
      <trkpt lat="42.84775" lon="0.17669">
        <ele>2206.84</ele>
        <time>2014-03-21T14:12:33Z</time>
      </trkpt>
      <trkpt lat="42.84776" lon="0.17669">
        <ele>2206.84</ele>
        <time>2014-03-21T14:12:48Z</time>
      </trkpt>
      <trkpt lat="42.84776" lon="0.17669">
        <ele>2207.81</ele>
        <time>2014-03-21T14:13:03Z</time>
      </trkpt>
      <trkpt lat="42.84776" lon="0.17669">
        <ele>2207.81</ele>
        <time>2014-03-21T14:13:18Z</time>
      </trkpt>
      <trkpt lat="42.84776" lon="0.1767">
        <ele>2208.29</ele>
        <time>2014-03-21T14:13:27Z</time>
      </trkpt>
      <trkpt lat="42.84779" lon="0.17681">
        <ele>2206.84</ele>
        <time>2014-03-21T14:13:31Z</time>
      </trkpt>
      <trkpt lat="42.84777" lon="0.17686">
        <ele>2206.36</ele>
        <time>2014-03-21T14:13:32Z</time>
      </trkpt>
      <trkpt lat="42.84771" lon="0.17695">
        <ele>2205.4</ele>
        <time>2014-03-21T14:13:34Z</time>
      </trkpt>
      <trkpt lat="42.84761" lon="0.17719">
        <ele>2200.11</ele>
        <time>2014-03-21T14:13:38Z</time>
      </trkpt>
      <trkpt lat="42.84758" lon="0.17721">
        <ele>2199.15</ele>
        <time>2014-03-21T14:13:39Z</time>
      </trkpt>
      <trkpt lat="42.84757" lon="0.17725">
        <ele>2197.71</ele>
        <time>2014-03-21T14:13:44Z</time>
      </trkpt>
      <trkpt lat="42.84749" lon="0.17733">
        <ele>2194.83</ele>
        <time>2014-03-21T14:13:49Z</time>
      </trkpt>
      <trkpt lat="42.84748" lon="0.17744">
        <ele>2192.9</ele>
        <time>2014-03-21T14:13:52Z</time>
      </trkpt>
      <trkpt lat="42.84742" lon="0.17748">
        <ele>2191.94</ele>
        <time>2014-03-21T14:13:56Z</time>
      </trkpt>
      <trkpt lat="42.84733" lon="0.17759">
        <ele>2190.02</ele>
        <time>2014-03-21T14:13:59Z</time>
      </trkpt>
      <trkpt lat="42.8472" lon="0.17781">
        <ele>2188.1</ele>
        <time>2014-03-21T14:14:02Z</time>
      </trkpt>
      <trkpt lat="42.84714" lon="0.17795">
        <ele>2187.14</ele>
        <time>2014-03-21T14:14:05Z</time>
      </trkpt>
      <trkpt lat="42.84716" lon="0.17803">
        <ele>2185.21</ele>
        <time>2014-03-21T14:14:10Z</time>
      </trkpt>
      <trkpt lat="42.84714" lon="0.17816">
        <ele>2182.33</ele>
        <time>2014-03-21T14:14:14Z</time>
      </trkpt>
      <trkpt lat="42.8472" lon="0.17823">
        <ele>2178</ele>
        <time>2014-03-21T14:14:17Z</time>
      </trkpt>
      <trkpt lat="42.8471" lon="0.17832">
        <ele>2173.68</ele>
        <time>2014-03-21T14:14:20Z</time>
      </trkpt>
      <trkpt lat="42.847" lon="0.17845">
        <ele>2168.87</ele>
        <time>2014-03-21T14:14:23Z</time>
      </trkpt>
      <trkpt lat="42.84696" lon="0.17844">
        <ele>2167.91</ele>
        <time>2014-03-21T14:14:24Z</time>
      </trkpt>
      <trkpt lat="42.84681" lon="0.17841">
        <ele>2164.06</ele>
        <time>2014-03-21T14:14:30Z</time>
      </trkpt>
      <trkpt lat="42.84657" lon="0.17863">
        <ele>2161.18</ele>
        <time>2014-03-21T14:14:35Z</time>
      </trkpt>
      <trkpt lat="42.8465" lon="0.17897">
        <ele>2155.89</ele>
        <time>2014-03-21T14:14:40Z</time>
      </trkpt>
      <trkpt lat="42.84644" lon="0.17918">
        <ele>2152.05</ele>
        <time>2014-03-21T14:14:46Z</time>
      </trkpt>
      <trkpt lat="42.84637" lon="0.17937">
        <ele>2149.65</ele>
        <time>2014-03-21T14:14:51Z</time>
      </trkpt>
      <trkpt lat="42.84633" lon="0.17952">
        <ele>2147.72</ele>
        <time>2014-03-21T14:14:56Z</time>
      </trkpt>
      <trkpt lat="42.84636" lon="0.17948">
        <ele>2147.24</ele>
        <time>2014-03-21T14:15:07Z</time>
      </trkpt>
      <trkpt lat="42.84636" lon="0.17949">
        <ele>2146.76</ele>
        <time>2014-03-21T14:15:13Z</time>
      </trkpt>
      <trkpt lat="42.84634" lon="0.17951">
        <ele>2147.24</ele>
        <time>2014-03-21T14:15:24Z</time>
      </trkpt>
      <trkpt lat="42.84634" lon="0.17952">
        <ele>2146.76</ele>
        <time>2014-03-21T14:15:30Z</time>
      </trkpt>
      <trkpt lat="42.84632" lon="0.17954">
        <ele>2146.28</ele>
        <time>2014-03-21T14:15:37Z</time>
      </trkpt>
      <trkpt lat="42.84631" lon="0.17957">
        <ele>2145.8</ele>
        <time>2014-03-21T14:15:43Z</time>
      </trkpt>
      <trkpt lat="42.84626" lon="0.17968">
        <ele>2144.84</ele>
        <time>2014-03-21T14:15:48Z</time>
      </trkpt>
      <trkpt lat="42.84624" lon="0.17972">
        <ele>2144.36</ele>
        <time>2014-03-21T14:15:49Z</time>
      </trkpt>
      <trkpt lat="42.84612" lon="0.17993">
        <ele>2142.44</ele>
        <time>2014-03-21T14:15:54Z</time>
      </trkpt>
      <trkpt lat="42.84609" lon="0.18005">
        <ele>2141.47</ele>
        <time>2014-03-21T14:16:00Z</time>
      </trkpt>
      <trkpt lat="42.84607" lon="0.1801">
        <ele>2140.99</ele>
        <time>2014-03-21T14:16:05Z</time>
      </trkpt>
      <trkpt lat="42.84604" lon="0.18018">
        <ele>2140.99</ele>
        <time>2014-03-21T14:16:12Z</time>
      </trkpt>
      <trkpt lat="42.84604" lon="0.1802">
        <ele>2140.03</ele>
        <time>2014-03-21T14:16:21Z</time>
      </trkpt>
      <trkpt lat="42.84603" lon="0.18021">
        <ele>2140.51</ele>
        <time>2014-03-21T14:16:23Z</time>
      </trkpt>
      <trkpt lat="42.84599" lon="0.18025">
        <ele>2139.55</ele>
        <time>2014-03-21T14:16:26Z</time>
      </trkpt>
      <trkpt lat="42.84583" lon="0.18049">
        <ele>2136.19</ele>
        <time>2014-03-21T14:16:31Z</time>
      </trkpt>
      <trkpt lat="42.84575" lon="0.1807">
        <ele>2136.67</ele>
        <time>2014-03-21T14:16:37Z</time>
      </trkpt>
      <trkpt lat="42.8457" lon="0.18085">
        <ele>2135.71</ele>
        <time>2014-03-21T14:16:42Z</time>
      </trkpt>
      <trkpt lat="42.84568" lon="0.18089">
        <ele>2135.23</ele>
        <time>2014-03-21T14:16:49Z</time>
      </trkpt>
      <trkpt lat="42.84566" lon="0.1809">
        <ele>2135.23</ele>
        <time>2014-03-21T14:16:54Z</time>
      </trkpt>
      <trkpt lat="42.84565" lon="0.18091">
        <ele>2135.71</ele>
        <time>2014-03-21T14:16:57Z</time>
      </trkpt>
      <trkpt lat="42.84552" lon="0.18099">
        <ele>2134.74</ele>
        <time>2014-03-21T14:17:02Z</time>
      </trkpt>
      <trkpt lat="42.8454" lon="0.18107">
        <ele>2133.78</ele>
        <time>2014-03-21T14:17:05Z</time>
      </trkpt>
      <trkpt lat="42.84531" lon="0.18114">
        <ele>2132.82</ele>
        <time>2014-03-21T14:17:07Z</time>
      </trkpt>
      <trkpt lat="42.84522" lon="0.18144">
        <ele>2129.46</ele>
        <time>2014-03-21T14:17:11Z</time>
      </trkpt>
      <trkpt lat="42.84518" lon="0.18172">
        <ele>2127.53</ele>
        <time>2014-03-21T14:17:15Z</time>
      </trkpt>
      <trkpt lat="42.84517" lon="0.18191">
        <ele>2125.61</ele>
        <time>2014-03-21T14:17:19Z</time>
      </trkpt>
      <trkpt lat="42.84516" lon="0.18192">
        <ele>2124.17</ele>
        <time>2014-03-21T14:17:25Z</time>
      </trkpt>
      <trkpt lat="42.84513" lon="0.18197">
        <ele>2123.69</ele>
        <time>2014-03-21T14:17:32Z</time>
      </trkpt>
      <trkpt lat="42.84512" lon="0.18198">
        <ele>2122.73</ele>
        <time>2014-03-21T14:17:37Z</time>
      </trkpt>
      <trkpt lat="42.84511" lon="0.18199">
        <ele>2122.73</ele>
        <time>2014-03-21T14:17:54Z</time>
      </trkpt>
      <trkpt lat="42.84511" lon="0.18199">
        <ele>2122.25</ele>
        <time>2014-03-21T14:18:07Z</time>
      </trkpt>
      <trkpt lat="42.84511" lon="0.18199">
        <ele>2122.25</ele>
        <time>2014-03-21T14:18:10Z</time>
      </trkpt>
      <trkpt lat="42.84517" lon="0.18207">
        <ele>2119.84</ele>
        <time>2014-03-21T14:18:14Z</time>
      </trkpt>
      <trkpt lat="42.84525" lon="0.18224">
        <ele>2113.12</ele>
        <time>2014-03-21T14:18:17Z</time>
      </trkpt>
      <trkpt lat="42.84529" lon="0.18263">
        <ele>2100.14</ele>
        <time>2014-03-21T14:18:22Z</time>
      </trkpt>
      <trkpt lat="42.8452" lon="0.18279">
        <ele>2093.41</ele>
        <time>2014-03-21T14:18:26Z</time>
      </trkpt>
      <trkpt lat="42.84517" lon="0.18279">
        <ele>2091</ele>
        <time>2014-03-21T14:18:28Z</time>
      </trkpt>
      <trkpt lat="42.84518" lon="0.1828">
        <ele>2088.12</ele>
        <time>2014-03-21T14:18:36Z</time>
      </trkpt>
      <trkpt lat="42.84519" lon="0.18282">
        <ele>2088.6</ele>
        <time>2014-03-21T14:18:41Z</time>
      </trkpt>
      <trkpt lat="42.84521" lon="0.18283">
        <ele>2089.56</ele>
        <time>2014-03-21T14:18:49Z</time>
      </trkpt>
      <trkpt lat="42.84521" lon="0.18283">
        <ele>2089.56</ele>
        <time>2014-03-21T14:19:00Z</time>
      </trkpt>
      <trkpt lat="42.84521" lon="0.18283">
        <ele>2090.52</ele>
        <time>2014-03-21T14:19:10Z</time>
      </trkpt>
      <trkpt lat="42.84521" lon="0.18285">
        <ele>2090.52</ele>
        <time>2014-03-21T14:19:16Z</time>
      </trkpt>
      <trkpt lat="42.84521" lon="0.18289">
        <ele>2091.97</ele>
        <time>2014-03-21T14:19:28Z</time>
      </trkpt>
      <trkpt lat="42.84521" lon="0.1829">
        <ele>2092.93</ele>
        <time>2014-03-21T14:19:44Z</time>
      </trkpt>
      <trkpt lat="42.8452" lon="0.18292">
        <ele>2093.89</ele>
        <time>2014-03-21T14:19:50Z</time>
      </trkpt>
      <trkpt lat="42.84518" lon="0.18297">
        <ele>2093.41</ele>
        <time>2014-03-21T14:19:52Z</time>
      </trkpt>
      <trkpt lat="42.84504" lon="0.18317">
        <ele>2090.52</ele>
        <time>2014-03-21T14:19:57Z</time>
      </trkpt>
      <trkpt lat="42.84503" lon="0.18319">
        <ele>2090.04</ele>
        <time>2014-03-21T14:20:02Z</time>
      </trkpt>
      <trkpt lat="42.845" lon="0.18323">
        <ele>2089.56</ele>
        <time>2014-03-21T14:20:09Z</time>
      </trkpt>
      <trkpt lat="42.84493" lon="0.18326">
        <ele>2086.68</ele>
        <time>2014-03-21T14:20:13Z</time>
      </trkpt>
      <trkpt lat="42.84492" lon="0.18328">
        <ele>2085.24</ele>
        <time>2014-03-21T14:20:15Z</time>
      </trkpt>
      <trkpt lat="42.84487" lon="0.18325">
        <ele>2083.31</ele>
        <time>2014-03-21T14:20:20Z</time>
      </trkpt>
      <trkpt lat="42.84487" lon="0.18325">
        <ele>2083.31</ele>
        <time>2014-03-21T14:20:26Z</time>
      </trkpt>
      <trkpt lat="42.84487" lon="0.18325">
        <ele>2082.83</ele>
        <time>2014-03-21T14:20:37Z</time>
      </trkpt>
      <trkpt lat="42.84486" lon="0.18325">
        <ele>2082.35</ele>
        <time>2014-03-21T14:20:42Z</time>
      </trkpt>
      <trkpt lat="42.84475" lon="0.18327">
        <ele>2080.91</ele>
        <time>2014-03-21T14:20:46Z</time>
      </trkpt>
      <trkpt lat="42.8447" lon="0.18323">
        <ele>2079.47</ele>
        <time>2014-03-21T14:20:49Z</time>
      </trkpt>
      <trkpt lat="42.8447" lon="0.18323">
        <ele>2079.47</ele>
        <time>2014-03-21T14:20:50Z</time>
      </trkpt>
      <trkpt lat="42.84467" lon="0.18328">
        <ele>2077.55</ele>
        <time>2014-03-21T14:20:55Z</time>
      </trkpt>
      <trkpt lat="42.84467" lon="0.18329">
        <ele>2077.55</ele>
        <time>2014-03-21T14:20:56Z</time>
      </trkpt>
      <trkpt lat="42.84459" lon="0.18329">
        <ele>2076.1</ele>
        <time>2014-03-21T14:21:00Z</time>
      </trkpt>
      <trkpt lat="42.8446" lon="0.18329">
        <ele>2074.18</ele>
        <time>2014-03-21T14:21:05Z</time>
      </trkpt>
      <trkpt lat="42.84459" lon="0.1833">
        <ele>2073.7</ele>
        <time>2014-03-21T14:21:11Z</time>
      </trkpt>
      <trkpt lat="42.84454" lon="0.18328">
        <ele>2072.74</ele>
        <time>2014-03-21T14:21:15Z</time>
      </trkpt>
      <trkpt lat="42.84448" lon="0.1833">
        <ele>2072.26</ele>
        <time>2014-03-21T14:21:19Z</time>
      </trkpt>
      <trkpt lat="42.84448" lon="0.18329">
        <ele>2072.74</ele>
        <time>2014-03-21T14:21:25Z</time>
      </trkpt>
      <trkpt lat="42.84449" lon="0.18331">
        <ele>2072.26</ele>
        <time>2014-03-21T14:21:30Z</time>
      </trkpt>
      <trkpt lat="42.8445" lon="0.18339">
        <ele>2072.26</ele>
        <time>2014-03-21T14:21:36Z</time>
      </trkpt>
      <trkpt lat="42.84452" lon="0.1834">
        <ele>2071.3</ele>
        <time>2014-03-21T14:21:47Z</time>
      </trkpt>
      <trkpt lat="42.84452" lon="0.18341">
        <ele>2071.78</ele>
        <time>2014-03-21T14:22:02Z</time>
      </trkpt>
      <trkpt lat="42.84453" lon="0.18342">
        <ele>2071.78</ele>
        <time>2014-03-21T14:22:21Z</time>
      </trkpt>
      <trkpt lat="42.84454" lon="0.18343">
        <ele>2072.26</ele>
        <time>2014-03-21T14:22:38Z</time>
      </trkpt>
      <trkpt lat="42.84455" lon="0.18347">
        <ele>2072.74</ele>
        <time>2014-03-21T14:22:41Z</time>
      </trkpt>
      <trkpt lat="42.84462" lon="0.1836">
        <ele>2070.82</ele>
        <time>2014-03-21T14:22:45Z</time>
      </trkpt>
      <trkpt lat="42.84453" lon="0.18376">
        <ele>2068.41</ele>
        <time>2014-03-21T14:22:48Z</time>
      </trkpt>
      <trkpt lat="42.84446" lon="0.18393">
        <ele>2065.53</ele>
        <time>2014-03-21T14:22:51Z</time>
      </trkpt>
      <trkpt lat="42.84449" lon="0.18411">
        <ele>2061.68</ele>
        <time>2014-03-21T14:22:54Z</time>
      </trkpt>
      <trkpt lat="42.84444" lon="0.18439">
        <ele>2057.36</ele>
        <time>2014-03-21T14:22:57Z</time>
      </trkpt>
      <trkpt lat="42.84445" lon="0.18449">
        <ele>2056.4</ele>
        <time>2014-03-21T14:22:58Z</time>
      </trkpt>
      <trkpt lat="42.84447" lon="0.18487">
        <ele>2053.51</ele>
        <time>2014-03-21T14:23:04Z</time>
      </trkpt>
      <trkpt lat="42.84447" lon="0.1849">
        <ele>2053.03</ele>
        <time>2014-03-21T14:23:05Z</time>
      </trkpt>
      <trkpt lat="42.84449" lon="0.18505">
        <ele>2052.55</ele>
        <time>2014-03-21T14:23:10Z</time>
      </trkpt>
      <trkpt lat="42.84449" lon="0.18508">
        <ele>2052.55</ele>
        <time>2014-03-21T14:23:11Z</time>
      </trkpt>
      <trkpt lat="42.84451" lon="0.18515">
        <ele>2052.07</ele>
        <time>2014-03-21T14:23:13Z</time>
      </trkpt>
      <trkpt lat="42.84458" lon="0.18528">
        <ele>2051.11</ele>
        <time>2014-03-21T14:23:18Z</time>
      </trkpt>
      <trkpt lat="42.84464" lon="0.18532">
        <ele>2050.63</ele>
        <time>2014-03-21T14:23:22Z</time>
      </trkpt>
      <trkpt lat="42.84467" lon="0.18541">
        <ele>2050.15</ele>
        <time>2014-03-21T14:23:28Z</time>
      </trkpt>
      <trkpt lat="42.84466" lon="0.18543">
        <ele>2050.15</ele>
        <time>2014-03-21T14:23:30Z</time>
      </trkpt>
      <trkpt lat="42.84466" lon="0.18548">
        <ele>2050.63</ele>
        <time>2014-03-21T14:23:33Z</time>
      </trkpt>
      <trkpt lat="42.84463" lon="0.18558">
        <ele>2049.67</ele>
        <time>2014-03-21T14:23:38Z</time>
      </trkpt>
      <trkpt lat="42.84457" lon="0.18564">
        <ele>2049.19</ele>
        <time>2014-03-21T14:23:43Z</time>
      </trkpt>
      <trkpt lat="42.84454" lon="0.18573">
        <ele>2048.23</ele>
        <time>2014-03-21T14:23:47Z</time>
      </trkpt>
      <trkpt lat="42.84453" lon="0.18583">
        <ele>2047.26</ele>
        <time>2014-03-21T14:23:51Z</time>
      </trkpt>
      <trkpt lat="42.8445" lon="0.18604">
        <ele>2048.23</ele>
        <time>2014-03-21T14:23:59Z</time>
      </trkpt>
      <trkpt lat="42.84449" lon="0.18614">
        <ele>2048.23</ele>
        <time>2014-03-21T14:24:03Z</time>
      </trkpt>
      <trkpt lat="42.84448" lon="0.18624">
        <ele>2049.19</ele>
        <time>2014-03-21T14:24:08Z</time>
      </trkpt>
      <trkpt lat="42.84448" lon="0.18634">
        <ele>2049.67</ele>
        <time>2014-03-21T14:24:12Z</time>
      </trkpt>
      <trkpt lat="42.84448" lon="0.18643">
        <ele>2049.67</ele>
        <time>2014-03-21T14:24:16Z</time>
      </trkpt>
      <trkpt lat="42.84447" lon="0.18653">
        <ele>2049.19</ele>
        <time>2014-03-21T14:24:20Z</time>
      </trkpt>
      <trkpt lat="42.8445" lon="0.1866">
        <ele>2048.71</ele>
        <time>2014-03-21T14:24:24Z</time>
      </trkpt>
      <trkpt lat="42.84455" lon="0.18666">
        <ele>2048.71</ele>
        <time>2014-03-21T14:24:28Z</time>
      </trkpt>
      <trkpt lat="42.84458" lon="0.18677">
        <ele>2048.23</ele>
        <time>2014-03-21T14:24:33Z</time>
      </trkpt>
      <trkpt lat="42.84458" lon="0.18677">
        <ele>2048.23</ele>
        <time>2014-03-21T14:24:39Z</time>
      </trkpt>
      <trkpt lat="42.84458" lon="0.18677">
        <ele>2047.75</ele>
        <time>2014-03-21T14:24:45Z</time>
      </trkpt>
      <trkpt lat="42.84458" lon="0.18678">
        <ele>2047.75</ele>
        <time>2014-03-21T14:24:53Z</time>
      </trkpt>
      <trkpt lat="42.84459" lon="0.18679">
        <ele>2047.75</ele>
        <time>2014-03-21T14:24:59Z</time>
      </trkpt>
      <trkpt lat="42.8446" lon="0.18681">
        <ele>2047.75</ele>
        <time>2014-03-21T14:25:05Z</time>
      </trkpt>
      <trkpt lat="42.8446" lon="0.18686">
        <ele>2049.19</ele>
        <time>2014-03-21T14:25:11Z</time>
      </trkpt>
      <trkpt lat="42.84462" lon="0.1869">
        <ele>2049.19</ele>
        <time>2014-03-21T14:25:14Z</time>
      </trkpt>
      <trkpt lat="42.84466" lon="0.18697">
        <ele>2049.19</ele>
        <time>2014-03-21T14:25:18Z</time>
      </trkpt>
      <trkpt lat="42.84471" lon="0.18703">
        <ele>2049.67</ele>
        <time>2014-03-21T14:25:21Z</time>
      </trkpt>
      <trkpt lat="42.8448" lon="0.18708">
        <ele>2049.19</ele>
        <time>2014-03-21T14:25:25Z</time>
      </trkpt>
      <trkpt lat="42.8449" lon="0.18711">
        <ele>2048.71</ele>
        <time>2014-03-21T14:25:30Z</time>
      </trkpt>
      <trkpt lat="42.84498" lon="0.18715">
        <ele>2048.71</ele>
        <time>2014-03-21T14:25:34Z</time>
      </trkpt>
      <trkpt lat="42.84503" lon="0.18717">
        <ele>2048.71</ele>
        <time>2014-03-21T14:25:38Z</time>
      </trkpt>
      <trkpt lat="42.84507" lon="0.18719">
        <ele>2048.71</ele>
        <time>2014-03-21T14:25:42Z</time>
      </trkpt>
      <trkpt lat="42.84506" lon="0.18721">
        <ele>2048.71</ele>
        <time>2014-03-21T14:25:46Z</time>
      </trkpt>
      <trkpt lat="42.84506" lon="0.18721">
        <ele>2048.71</ele>
        <time>2014-03-21T14:25:57Z</time>
      </trkpt>
      <trkpt lat="42.84506" lon="0.1872">
        <ele>2048.71</ele>
        <time>2014-03-21T14:26:08Z</time>
      </trkpt>
      <trkpt lat="42.84506" lon="0.18721">
        <ele>2048.71</ele>
        <time>2014-03-21T14:26:17Z</time>
      </trkpt>
      <trkpt lat="42.84507" lon="0.18721">
        <ele>2049.19</ele>
        <time>2014-03-21T14:26:22Z</time>
      </trkpt>
      <trkpt lat="42.84508" lon="0.18722">
        <ele>2049.67</ele>
        <time>2014-03-21T14:26:27Z</time>
      </trkpt>
      <trkpt lat="42.84509" lon="0.18722">
        <ele>2049.67</ele>
        <time>2014-03-21T14:26:33Z</time>
      </trkpt>
      <trkpt lat="42.8451" lon="0.18724">
        <ele>2050.15</ele>
        <time>2014-03-21T14:26:41Z</time>
      </trkpt>
      <trkpt lat="42.8451" lon="0.18728">
        <ele>2051.11</ele>
        <time>2014-03-21T14:26:46Z</time>
      </trkpt>
      <trkpt lat="42.84512" lon="0.18729">
        <ele>2051.11</ele>
        <time>2014-03-21T14:26:53Z</time>
      </trkpt>
      <trkpt lat="42.84512" lon="0.18729">
        <ele>2051.59</ele>
        <time>2014-03-21T14:26:59Z</time>
      </trkpt>
      <trkpt lat="42.84512" lon="0.1873">
        <ele>2052.07</ele>
        <time>2014-03-21T14:27:10Z</time>
      </trkpt>
      <trkpt lat="42.84512" lon="0.18732">
        <ele>2052.55</ele>
        <time>2014-03-21T14:27:18Z</time>
      </trkpt>
      <trkpt lat="42.84513" lon="0.18736">
        <ele>2052.55</ele>
        <time>2014-03-21T14:27:25Z</time>
      </trkpt>
      <trkpt lat="42.84513" lon="0.18737">
        <ele>2053.03</ele>
        <time>2014-03-21T14:27:36Z</time>
      </trkpt>
      <trkpt lat="42.84513" lon="0.18741">
        <ele>2052.07</ele>
        <time>2014-03-21T14:27:43Z</time>
      </trkpt>
      <trkpt lat="42.84513" lon="0.18743">
        <ele>2051.59</ele>
        <time>2014-03-21T14:27:51Z</time>
      </trkpt>
      <trkpt lat="42.84514" lon="0.18745">
        <ele>2051.11</ele>
        <time>2014-03-21T14:27:57Z</time>
      </trkpt>
      <trkpt lat="42.84513" lon="0.18747">
        <ele>2051.59</ele>
        <time>2014-03-21T14:28:03Z</time>
      </trkpt>
      <trkpt lat="42.84513" lon="0.18748">
        <ele>2051.59</ele>
        <time>2014-03-21T14:28:10Z</time>
      </trkpt>
      <trkpt lat="42.84513" lon="0.18752">
        <ele>2053.03</ele>
        <time>2014-03-21T14:28:17Z</time>
      </trkpt>
      <trkpt lat="42.84513" lon="0.18756">
        <ele>2053.99</ele>
        <time>2014-03-21T14:28:21Z</time>
      </trkpt>
      <trkpt lat="42.84511" lon="0.18772">
        <ele>2053.51</ele>
        <time>2014-03-21T14:28:27Z</time>
      </trkpt>
      <trkpt lat="42.84509" lon="0.18777">
        <ele>2053.99</ele>
        <time>2014-03-21T14:28:33Z</time>
      </trkpt>
      <trkpt lat="42.84507" lon="0.18781">
        <ele>2053.99</ele>
        <time>2014-03-21T14:28:36Z</time>
      </trkpt>
      <trkpt lat="42.84506" lon="0.1879">
        <ele>2053.99</ele>
        <time>2014-03-21T14:28:41Z</time>
      </trkpt>
      <trkpt lat="42.84505" lon="0.18797">
        <ele>2053.51</ele>
        <time>2014-03-21T14:28:48Z</time>
      </trkpt>
      <trkpt lat="42.84504" lon="0.18799">
        <ele>2053.51</ele>
        <time>2014-03-21T14:28:49Z</time>
      </trkpt>
      <trkpt lat="42.84503" lon="0.1881">
        <ele>2053.99</ele>
        <time>2014-03-21T14:28:57Z</time>
      </trkpt>
      <trkpt lat="42.84502" lon="0.18813">
        <ele>2053.51</ele>
        <time>2014-03-21T14:29:00Z</time>
      </trkpt>
      <trkpt lat="42.84496" lon="0.18825">
        <ele>2053.03</ele>
        <time>2014-03-21T14:29:07Z</time>
      </trkpt>
      <trkpt lat="42.84495" lon="0.1883">
        <ele>2052.55</ele>
        <time>2014-03-21T14:29:12Z</time>
      </trkpt>
      <trkpt lat="42.84495" lon="0.18835">
        <ele>2053.51</ele>
        <time>2014-03-21T14:29:17Z</time>
      </trkpt>
      <trkpt lat="42.84496" lon="0.18838">
        <ele>2053.99</ele>
        <time>2014-03-21T14:29:20Z</time>
      </trkpt>
      <trkpt lat="42.84498" lon="0.18853">
        <ele>2053.51</ele>
        <time>2014-03-21T14:29:30Z</time>
      </trkpt>
      <trkpt lat="42.84498" lon="0.18856">
        <ele>2053.51</ele>
        <time>2014-03-21T14:29:32Z</time>
      </trkpt>
      <trkpt lat="42.84501" lon="0.18866">
        <ele>2053.51</ele>
        <time>2014-03-21T14:29:37Z</time>
      </trkpt>
      <trkpt lat="42.84501" lon="0.18874">
        <ele>2053.51</ele>
        <time>2014-03-21T14:29:41Z</time>
      </trkpt>
      <trkpt lat="42.845" lon="0.1888">
        <ele>2053.99</ele>
        <time>2014-03-21T14:29:46Z</time>
      </trkpt>
      <trkpt lat="42.84501" lon="0.1888">
        <ele>2053.99</ele>
        <time>2014-03-21T14:29:56Z</time>
      </trkpt>
      <trkpt lat="42.84501" lon="0.18881">
        <ele>2053.51</ele>
        <time>2014-03-21T14:30:11Z</time>
      </trkpt>
      <trkpt lat="42.84501" lon="0.18881">
        <ele>2052.07</ele>
        <time>2014-03-21T14:30:16Z</time>
      </trkpt>
      <trkpt lat="42.845" lon="0.18881">
        <ele>2050.63</ele>
        <time>2014-03-21T14:30:25Z</time>
      </trkpt>
      <trkpt lat="42.845" lon="0.18881">
        <ele>2049.67</ele>
        <time>2014-03-21T14:30:40Z</time>
      </trkpt>
      <trkpt lat="42.845" lon="0.1888">
        <ele>2049.19</ele>
        <time>2014-03-21T14:30:55Z</time>
      </trkpt>
      <trkpt lat="42.845" lon="0.1888">
        <ele>2049.67</ele>
        <time>2014-03-21T14:31:08Z</time>
      </trkpt>
      <trkpt lat="42.84499" lon="0.1888">
        <ele>2049.67</ele>
        <time>2014-03-21T14:31:25Z</time>
      </trkpt>
      <trkpt lat="42.84499" lon="0.1888">
        <ele>2049.19</ele>
        <time>2014-03-21T14:31:33Z</time>
      </trkpt>
      <trkpt lat="42.845" lon="0.1888">
        <ele>2049.19</ele>
        <time>2014-03-21T14:31:45Z</time>
      </trkpt>
      <trkpt lat="42.845" lon="0.18879">
        <ele>2049.67</ele>
        <time>2014-03-21T14:31:58Z</time>
      </trkpt>
      <trkpt lat="42.84501" lon="0.18879">
        <ele>2049.19</ele>
        <time>2014-03-21T14:32:15Z</time>
      </trkpt>
      <trkpt lat="42.84501" lon="0.18879">
        <ele>2048.71</ele>
        <time>2014-03-21T14:32:27Z</time>
      </trkpt>
      <trkpt lat="42.845" lon="0.18879">
        <ele>2048.23</ele>
        <time>2014-03-21T14:32:43Z</time>
      </trkpt>
      <trkpt lat="42.845" lon="0.18879">
        <ele>2048.71</ele>
        <time>2014-03-21T14:33:02Z</time>
      </trkpt>
      <trkpt lat="42.845" lon="0.18879">
        <ele>2048.71</ele>
        <time>2014-03-21T14:33:19Z</time>
      </trkpt>
      <trkpt lat="42.845" lon="0.1888">
        <ele>2048.23</ele>
        <time>2014-03-21T14:33:38Z</time>
      </trkpt>
      <trkpt lat="42.84499" lon="0.18882">
        <ele>2046.3</ele>
        <time>2014-03-21T14:33:56Z</time>
      </trkpt>
      <trkpt lat="42.84499" lon="0.18881">
        <ele>2046.78</ele>
        <time>2014-03-21T14:33:58Z</time>
      </trkpt>
      <trkpt lat="42.84499" lon="0.18881">
        <ele>2047.75</ele>
        <time>2014-03-21T14:34:04Z</time>
      </trkpt>
      <trkpt lat="42.845" lon="0.1888">
        <ele>2047.26</ele>
        <time>2014-03-21T14:34:18Z</time>
      </trkpt>
      <trkpt lat="42.845" lon="0.1888">
        <ele>2047.75</ele>
        <time>2014-03-21T14:34:31Z</time>
      </trkpt>
      <trkpt lat="42.84499" lon="0.18881">
        <ele>2048.71</ele>
        <time>2014-03-21T14:34:41Z</time>
      </trkpt>
      <trkpt lat="42.845" lon="0.18881">
        <ele>2048.23</ele>
        <time>2014-03-21T14:34:55Z</time>
      </trkpt>
      <trkpt lat="42.845" lon="0.18881">
        <ele>2047.75</ele>
        <time>2014-03-21T14:35:04Z</time>
      </trkpt>
      <trkpt lat="42.84501" lon="0.18881">
        <ele>2047.26</ele>
        <time>2014-03-21T14:35:17Z</time>
      </trkpt>
      <trkpt lat="42.84501" lon="0.1888">
        <ele>2046.78</ele>
        <time>2014-03-21T14:35:32Z</time>
      </trkpt>
      <trkpt lat="42.84501" lon="0.18881">
        <ele>2046.78</ele>
        <time>2014-03-21T14:35:43Z</time>
      </trkpt>
      <trkpt lat="42.84501" lon="0.18882">
        <ele>2046.78</ele>
        <time>2014-03-21T14:35:50Z</time>
      </trkpt>
      <trkpt lat="42.84501" lon="0.18887">
        <ele>2046.3</ele>
        <time>2014-03-21T14:35:55Z</time>
      </trkpt>
      <trkpt lat="42.84496" lon="0.18899">
        <ele>2046.3</ele>
        <time>2014-03-21T14:36:01Z</time>
      </trkpt>
      <trkpt lat="42.84494" lon="0.18901">
        <ele>2045.82</ele>
        <time>2014-03-21T14:36:06Z</time>
      </trkpt>
      <trkpt lat="42.84494" lon="0.18902">
        <ele>2045.82</ele>
        <time>2014-03-21T14:36:14Z</time>
      </trkpt>
      <trkpt lat="42.84493" lon="0.18903">
        <ele>2046.3</ele>
        <time>2014-03-21T14:36:19Z</time>
      </trkpt>
      <trkpt lat="42.84493" lon="0.18905">
        <ele>2045.82</ele>
        <time>2014-03-21T14:36:23Z</time>
      </trkpt>
      <trkpt lat="42.84492" lon="0.18907">
        <ele>2045.82</ele>
        <time>2014-03-21T14:36:26Z</time>
      </trkpt>
      <trkpt lat="42.84491" lon="0.18909">
        <ele>2045.82</ele>
        <time>2014-03-21T14:36:32Z</time>
      </trkpt>
      <trkpt lat="42.8449" lon="0.18911">
        <ele>2045.82</ele>
        <time>2014-03-21T14:36:36Z</time>
      </trkpt>
      <trkpt lat="42.8449" lon="0.18913">
        <ele>2044.86</ele>
        <time>2014-03-21T14:36:42Z</time>
      </trkpt>
      <trkpt lat="42.84488" lon="0.18916">
        <ele>2045.34</ele>
        <time>2014-03-21T14:36:48Z</time>
      </trkpt>
      <trkpt lat="42.84487" lon="0.18919">
        <ele>2046.3</ele>
        <time>2014-03-21T14:36:54Z</time>
      </trkpt>
      <trkpt lat="42.84487" lon="0.1892">
        <ele>2046.3</ele>
        <time>2014-03-21T14:36:56Z</time>
      </trkpt>
      <trkpt lat="42.84487" lon="0.18925">
        <ele>2046.3</ele>
        <time>2014-03-21T14:37:02Z</time>
      </trkpt>
      <trkpt lat="42.84487" lon="0.18928">
        <ele>2046.3</ele>
        <time>2014-03-21T14:37:08Z</time>
      </trkpt>
      <trkpt lat="42.84486" lon="0.18928">
        <ele>2046.78</ele>
        <time>2014-03-21T14:37:14Z</time>
      </trkpt>
      <trkpt lat="42.84486" lon="0.1893">
        <ele>2046.78</ele>
        <time>2014-03-21T14:37:21Z</time>
      </trkpt>
      <trkpt lat="42.84487" lon="0.18935">
        <ele>2046.78</ele>
        <time>2014-03-21T14:37:26Z</time>
      </trkpt>
      <trkpt lat="42.84486" lon="0.18937">
        <ele>2045.34</ele>
        <time>2014-03-21T14:37:35Z</time>
      </trkpt>
      <trkpt lat="42.84486" lon="0.1894">
        <ele>2045.34</ele>
        <time>2014-03-21T14:37:43Z</time>
      </trkpt>
      <trkpt lat="42.84487" lon="0.18943">
        <ele>2046.3</ele>
        <time>2014-03-21T14:37:47Z</time>
      </trkpt>
      <trkpt lat="42.84486" lon="0.18949">
        <ele>2047.26</ele>
        <time>2014-03-21T14:37:51Z</time>
      </trkpt>
      <trkpt lat="42.84485" lon="0.18963">
        <ele>2046.3</ele>
        <time>2014-03-21T14:37:55Z</time>
      </trkpt>
      <trkpt lat="42.84486" lon="0.18967">
        <ele>2047.26</ele>
        <time>2014-03-21T14:38:01Z</time>
      </trkpt>
      <trkpt lat="42.84485" lon="0.18967">
        <ele>2045.82</ele>
        <time>2014-03-21T14:38:16Z</time>
      </trkpt>
      <trkpt lat="42.84486" lon="0.18967">
        <ele>2045.82</ele>
        <time>2014-03-21T14:38:30Z</time>
      </trkpt>
      <trkpt lat="42.84486" lon="0.18967">
        <ele>2046.3</ele>
        <time>2014-03-21T14:38:50Z</time>
      </trkpt>
      <trkpt lat="42.84486" lon="0.18967">
        <ele>2046.3</ele>
        <time>2014-03-21T14:39:06Z</time>
      </trkpt>
      <trkpt lat="42.84486" lon="0.18968">
        <ele>2046.78</ele>
        <time>2014-03-21T14:39:15Z</time>
      </trkpt>
      <trkpt lat="42.84485" lon="0.18968">
        <ele>2047.75</ele>
        <time>2014-03-21T14:39:33Z</time>
      </trkpt>
      <trkpt lat="42.84485" lon="0.18968">
        <ele>2047.26</ele>
        <time>2014-03-21T14:39:46Z</time>
      </trkpt>
      <trkpt lat="42.84486" lon="0.18967">
        <ele>2047.26</ele>
        <time>2014-03-21T14:40:01Z</time>
      </trkpt>
      <trkpt lat="42.84486" lon="0.18967">
        <ele>2047.26</ele>
        <time>2014-03-21T14:40:19Z</time>
      </trkpt>
      <trkpt lat="42.84487" lon="0.18966">
        <ele>2047.26</ele>
        <time>2014-03-21T14:40:40Z</time>
      </trkpt>
      <trkpt lat="42.84487" lon="0.18966">
        <ele>2047.26</ele>
        <time>2014-03-21T14:40:57Z</time>
      </trkpt>
      <trkpt lat="42.84487" lon="0.18967">
        <ele>2047.75</ele>
        <time>2014-03-21T14:41:09Z</time>
      </trkpt>
      <trkpt lat="42.84487" lon="0.18966">
        <ele>2047.26</ele>
        <time>2014-03-21T14:41:16Z</time>
      </trkpt>
      <trkpt lat="42.84487" lon="0.18966">
        <ele>2046.3</ele>
        <time>2014-03-21T14:41:25Z</time>
      </trkpt>
      <trkpt lat="42.84487" lon="0.18967">
        <ele>2046.3</ele>
        <time>2014-03-21T14:41:33Z</time>
      </trkpt>
      <trkpt lat="42.84487" lon="0.18967">
        <ele>2046.3</ele>
        <time>2014-03-21T14:41:48Z</time>
      </trkpt>
      <trkpt lat="42.84487" lon="0.18967">
        <ele>2046.3</ele>
        <time>2014-03-21T14:42:02Z</time>
      </trkpt>
      <trkpt lat="42.84486" lon="0.18967">
        <ele>2046.3</ele>
        <time>2014-03-21T14:42:16Z</time>
      </trkpt>
      <trkpt lat="42.84486" lon="0.18967">
        <ele>2046.3</ele>
        <time>2014-03-21T14:42:32Z</time>
      </trkpt>
      <trkpt lat="42.84486" lon="0.18967">
        <ele>2046.3</ele>
        <time>2014-03-21T14:42:46Z</time>
      </trkpt>
      <trkpt lat="42.84486" lon="0.18966">
        <ele>2045.82</ele>
        <time>2014-03-21T14:42:56Z</time>
      </trkpt>
      <trkpt lat="42.84486" lon="0.18967">
        <ele>2045.82</ele>
        <time>2014-03-21T14:43:04Z</time>
      </trkpt>
      <trkpt lat="42.84486" lon="0.18967">
        <ele>2045.82</ele>
        <time>2014-03-21T14:43:10Z</time>
      </trkpt>
      <trkpt lat="42.84486" lon="0.18967">
        <ele>2045.82</ele>
        <time>2014-03-21T14:43:20Z</time>
      </trkpt>
      <trkpt lat="42.84487" lon="0.18968">
        <ele>2046.3</ele>
        <time>2014-03-21T14:43:32Z</time>
      </trkpt>
      <trkpt lat="42.84487" lon="0.18968">
        <ele>2046.78</ele>
        <time>2014-03-21T14:43:45Z</time>
      </trkpt>
      <trkpt lat="42.84487" lon="0.1897">
        <ele>2045.34</ele>
        <time>2014-03-21T14:44:03Z</time>
      </trkpt>
      <trkpt lat="42.84487" lon="0.1897">
        <ele>2045.34</ele>
        <time>2014-03-21T14:44:16Z</time>
      </trkpt>
      <trkpt lat="42.84487" lon="0.18969">
        <ele>2044.86</ele>
        <time>2014-03-21T14:44:32Z</time>
      </trkpt>
      <trkpt lat="42.84487" lon="0.18969">
        <ele>2045.34</ele>
        <time>2014-03-21T14:44:51Z</time>
      </trkpt>
      <trkpt lat="42.84487" lon="0.18969">
        <ele>2044.86</ele>
        <time>2014-03-21T14:45:00Z</time>
      </trkpt>
      <trkpt lat="42.84487" lon="0.18968">
        <ele>2044.86</ele>
        <time>2014-03-21T14:45:09Z</time>
      </trkpt>
      <trkpt lat="42.84488" lon="0.18968">
        <ele>2044.38</ele>
        <time>2014-03-21T14:45:14Z</time>
      </trkpt>
      <trkpt lat="42.84488" lon="0.18968">
        <ele>2044.38</ele>
        <time>2014-03-21T14:45:16Z</time>
      </trkpt>
      <trkpt lat="42.84489" lon="0.18965">
        <ele>2044.38</ele>
        <time>2014-03-21T14:45:21Z</time>
      </trkpt>
      <trkpt lat="42.84491" lon="0.18963">
        <ele>2045.34</ele>
        <time>2014-03-21T14:45:26Z</time>
      </trkpt>
      <trkpt lat="42.84492" lon="0.18962">
        <ele>2045.82</ele>
        <time>2014-03-21T14:45:34Z</time>
      </trkpt>
      <trkpt lat="42.84492" lon="0.18961">
        <ele>2045.82</ele>
        <time>2014-03-21T14:45:37Z</time>
      </trkpt>
      <trkpt lat="42.84493" lon="0.18959">
        <ele>2045.82</ele>
        <time>2014-03-21T14:45:41Z</time>
      </trkpt>
      <trkpt lat="42.84496" lon="0.18957">
        <ele>2044.86</ele>
        <time>2014-03-21T14:45:43Z</time>
      </trkpt>
      <trkpt lat="42.845" lon="0.18953">
        <ele>2043.9</ele>
        <time>2014-03-21T14:45:45Z</time>
      </trkpt>
      <trkpt lat="42.8451" lon="0.1896">
        <ele>2041.5</ele>
        <time>2014-03-21T14:45:49Z</time>
      </trkpt>
      <trkpt lat="42.84513" lon="0.18961">
        <ele>2041.5</ele>
        <time>2014-03-21T14:45:53Z</time>
      </trkpt>
      <trkpt lat="42.84514" lon="0.18962">
        <ele>2041.5</ele>
        <time>2014-03-21T14:46:01Z</time>
      </trkpt>
      <trkpt lat="42.84516" lon="0.18966">
        <ele>2041.98</ele>
        <time>2014-03-21T14:46:06Z</time>
      </trkpt>
      <trkpt lat="42.84516" lon="0.18966">
        <ele>2041.98</ele>
        <time>2014-03-21T14:46:12Z</time>
      </trkpt>
      <trkpt lat="42.84516" lon="0.18968">
        <ele>2042.94</ele>
        <time>2014-03-21T14:46:15Z</time>
      </trkpt>
      <trkpt lat="42.84515" lon="0.18976">
        <ele>2045.34</ele>
        <time>2014-03-21T14:46:22Z</time>
      </trkpt>
      <trkpt lat="42.84516" lon="0.18981">
        <ele>2046.78</ele>
        <time>2014-03-21T14:46:29Z</time>
      </trkpt>
      <trkpt lat="42.84515" lon="0.18984">
        <ele>2046.3</ele>
        <time>2014-03-21T14:46:36Z</time>
      </trkpt>
      <trkpt lat="42.84516" lon="0.18984">
        <ele>2045.82</ele>
        <time>2014-03-21T14:46:41Z</time>
      </trkpt>
      <trkpt lat="42.84517" lon="0.18988">
        <ele>2045.34</ele>
        <time>2014-03-21T14:46:48Z</time>
      </trkpt>
      <trkpt lat="42.84516" lon="0.18991">
        <ele>2044.38</ele>
        <time>2014-03-21T14:46:54Z</time>
      </trkpt>
      <trkpt lat="42.84516" lon="0.18994">
        <ele>2044.38</ele>
        <time>2014-03-21T14:47:01Z</time>
      </trkpt>
      <trkpt lat="42.84516" lon="0.18994">
        <ele>2044.38</ele>
        <time>2014-03-21T14:47:02Z</time>
      </trkpt>
      <trkpt lat="42.84517" lon="0.18999">
        <ele>2043.42</ele>
        <time>2014-03-21T14:47:08Z</time>
      </trkpt>
      <trkpt lat="42.84518" lon="0.19002">
        <ele>2042.46</ele>
        <time>2014-03-21T14:47:14Z</time>
      </trkpt>
      <trkpt lat="42.84519" lon="0.19002">
        <ele>2043.42</ele>
        <time>2014-03-21T14:47:19Z</time>
      </trkpt>
      <trkpt lat="42.84519" lon="0.19003">
        <ele>2043.9</ele>
        <time>2014-03-21T14:47:26Z</time>
      </trkpt>
      <trkpt lat="42.8452" lon="0.19004">
        <ele>2043.42</ele>
        <time>2014-03-21T14:47:33Z</time>
      </trkpt>
      <trkpt lat="42.84521" lon="0.19005">
        <ele>2043.42</ele>
        <time>2014-03-21T14:47:39Z</time>
      </trkpt>
      <trkpt lat="42.84522" lon="0.19006">
        <ele>2043.9</ele>
        <time>2014-03-21T14:47:41Z</time>
      </trkpt>
      <trkpt lat="42.84525" lon="0.1901">
        <ele>2043.42</ele>
        <time>2014-03-21T14:47:45Z</time>
      </trkpt>
      <trkpt lat="42.84527" lon="0.19017">
        <ele>2041.5</ele>
        <time>2014-03-21T14:47:51Z</time>
      </trkpt>
      <trkpt lat="42.84527" lon="0.19019">
        <ele>2041.5</ele>
        <time>2014-03-21T14:47:56Z</time>
      </trkpt>
      <trkpt lat="42.84527" lon="0.1902">
        <ele>2042.94</ele>
        <time>2014-03-21T14:48:02Z</time>
      </trkpt>
      <trkpt lat="42.84528" lon="0.19021">
        <ele>2042.94</ele>
        <time>2014-03-21T14:48:09Z</time>
      </trkpt>
      <trkpt lat="42.84529" lon="0.19025">
        <ele>2042.94</ele>
        <time>2014-03-21T14:48:17Z</time>
      </trkpt>
      <trkpt lat="42.84531" lon="0.19028">
        <ele>2041.98</ele>
        <time>2014-03-21T14:48:22Z</time>
      </trkpt>
      <trkpt lat="42.84532" lon="0.19027">
        <ele>2041.5</ele>
        <time>2014-03-21T14:48:24Z</time>
      </trkpt>
      <trkpt lat="42.8454" lon="0.19026">
        <ele>2039.57</ele>
        <time>2014-03-21T14:48:28Z</time>
      </trkpt>
      <trkpt lat="42.84541" lon="0.19025">
        <ele>2038.13</ele>
        <time>2014-03-21T14:48:33Z</time>
      </trkpt>
      <trkpt lat="42.8454" lon="0.19025">
        <ele>2037.65</ele>
        <time>2014-03-21T14:48:39Z</time>
      </trkpt>
      <trkpt lat="42.84543" lon="0.19026">
        <ele>2037.17</ele>
        <time>2014-03-21T14:48:44Z</time>
      </trkpt>
      <trkpt lat="42.84543" lon="0.19027">
        <ele>2036.21</ele>
        <time>2014-03-21T14:48:50Z</time>
      </trkpt>
      <trkpt lat="42.84544" lon="0.19027">
        <ele>2034.77</ele>
        <time>2014-03-21T14:48:55Z</time>
      </trkpt>
      <trkpt lat="42.84544" lon="0.19029">
        <ele>2033.33</ele>
        <time>2014-03-21T14:49:00Z</time>
      </trkpt>
      <trkpt lat="42.84544" lon="0.19031">
        <ele>2031.88</ele>
        <time>2014-03-21T14:49:04Z</time>
      </trkpt>
      <trkpt lat="42.84543" lon="0.19034">
        <ele>2029.96</ele>
        <time>2014-03-21T14:49:11Z</time>
      </trkpt>
      <trkpt lat="42.84543" lon="0.19034">
        <ele>2029.48</ele>
        <time>2014-03-21T14:49:18Z</time>
      </trkpt>
      <trkpt lat="42.84544" lon="0.19034">
        <ele>2029.48</ele>
        <time>2014-03-21T14:49:25Z</time>
      </trkpt>
      <trkpt lat="42.84545" lon="0.19035">
        <ele>2030.44</ele>
        <time>2014-03-21T14:49:32Z</time>
      </trkpt>
      <trkpt lat="42.84545" lon="0.19034">
        <ele>2030.44</ele>
        <time>2014-03-21T14:49:35Z</time>
      </trkpt>
      <trkpt lat="42.84555" lon="0.19033">
        <ele>2029.48</ele>
        <time>2014-03-21T14:49:40Z</time>
      </trkpt>
      <trkpt lat="42.84555" lon="0.19034">
        <ele>2029.48</ele>
        <time>2014-03-21T14:49:46Z</time>
      </trkpt>
      <trkpt lat="42.8456" lon="0.19033">
        <ele>2029</ele>
        <time>2014-03-21T14:49:53Z</time>
      </trkpt>
      <trkpt lat="42.84564" lon="0.19043">
        <ele>2026.6</ele>
        <time>2014-03-21T14:49:58Z</time>
      </trkpt>
      <trkpt lat="42.84562" lon="0.19042">
        <ele>2025.64</ele>
        <time>2014-03-21T14:50:04Z</time>
      </trkpt>
      <trkpt lat="42.84562" lon="0.19042">
        <ele>2025.64</ele>
        <time>2014-03-21T14:50:12Z</time>
      </trkpt>
      <trkpt lat="42.84563" lon="0.19042">
        <ele>2025.15</ele>
        <time>2014-03-21T14:50:22Z</time>
      </trkpt>
      <trkpt lat="42.84561" lon="0.19044">
        <ele>2024.67</ele>
        <time>2014-03-21T14:50:28Z</time>
      </trkpt>
      <trkpt lat="42.84561" lon="0.19044">
        <ele>2024.67</ele>
        <time>2014-03-21T14:50:31Z</time>
      </trkpt>
      <trkpt lat="42.84564" lon="0.19045">
        <ele>2024.19</ele>
        <time>2014-03-21T14:50:33Z</time>
      </trkpt>
      <trkpt lat="42.84566" lon="0.19049">
        <ele>2022.75</ele>
        <time>2014-03-21T14:50:38Z</time>
      </trkpt>
      <trkpt lat="42.84569" lon="0.19048">
        <ele>2019.87</ele>
        <time>2014-03-21T14:50:44Z</time>
      </trkpt>
      <trkpt lat="42.84569" lon="0.19048">
        <ele>2019.87</ele>
        <time>2014-03-21T14:50:45Z</time>
      </trkpt>
      <trkpt lat="42.84568" lon="0.19049">
        <ele>2020.35</ele>
        <time>2014-03-21T14:50:50Z</time>
      </trkpt>
      <trkpt lat="42.84568" lon="0.19049">
        <ele>2019.87</ele>
        <time>2014-03-21T14:51:00Z</time>
      </trkpt>
      <trkpt lat="42.84567" lon="0.19049">
        <ele>2019.87</ele>
        <time>2014-03-21T14:51:04Z</time>
      </trkpt>
      <trkpt lat="42.84567" lon="0.1905">
        <ele>2019.39</ele>
        <time>2014-03-21T14:51:10Z</time>
      </trkpt>
      <trkpt lat="42.84567" lon="0.1905">
        <ele>2019.39</ele>
        <time>2014-03-21T14:51:18Z</time>
      </trkpt>
      <trkpt lat="42.84566" lon="0.1905">
        <ele>2018.91</ele>
        <time>2014-03-21T14:51:27Z</time>
      </trkpt>
      <trkpt lat="42.84566" lon="0.19051">
        <ele>2019.39</ele>
        <time>2014-03-21T14:51:34Z</time>
      </trkpt>
      <trkpt lat="42.84566" lon="0.19051">
        <ele>2019.87</ele>
        <time>2014-03-21T14:51:39Z</time>
      </trkpt>
      <trkpt lat="42.84566" lon="0.19053">
        <ele>2019.87</ele>
        <time>2014-03-21T14:51:43Z</time>
      </trkpt>
      <trkpt lat="42.84563" lon="0.19058">
        <ele>2019.87</ele>
        <time>2014-03-21T14:51:48Z</time>
      </trkpt>
      <trkpt lat="42.84564" lon="0.19058">
        <ele>2020.83</ele>
        <time>2014-03-21T14:51:55Z</time>
      </trkpt>
      <trkpt lat="42.84563" lon="0.1906">
        <ele>2020.83</ele>
        <time>2014-03-21T14:52:07Z</time>
      </trkpt>
      <trkpt lat="42.84563" lon="0.1906">
        <ele>2020.35</ele>
        <time>2014-03-21T14:52:19Z</time>
      </trkpt>
      <trkpt lat="42.84562" lon="0.1906">
        <ele>2020.35</ele>
        <time>2014-03-21T14:52:26Z</time>
      </trkpt>
      <trkpt lat="42.84563" lon="0.1906">
        <ele>2019.39</ele>
        <time>2014-03-21T14:52:34Z</time>
      </trkpt>
      <trkpt lat="42.84562" lon="0.19062">
        <ele>2019.39</ele>
        <time>2014-03-21T14:52:44Z</time>
      </trkpt>
      <trkpt lat="42.84563" lon="0.19062">
        <ele>2020.35</ele>
        <time>2014-03-21T14:52:50Z</time>
      </trkpt>
      <trkpt lat="42.84563" lon="0.19062">
        <ele>2019.87</ele>
        <time>2014-03-21T14:52:59Z</time>
      </trkpt>
      <trkpt lat="42.84563" lon="0.19061">
        <ele>2018.91</ele>
        <time>2014-03-21T14:53:04Z</time>
      </trkpt>
      <trkpt lat="42.8457" lon="0.19066">
        <ele>2016.02</ele>
        <time>2014-03-21T14:53:08Z</time>
      </trkpt>
      <trkpt lat="42.8457" lon="0.19066">
        <ele>2014.1</ele>
        <time>2014-03-21T14:53:13Z</time>
      </trkpt>
      <trkpt lat="42.84572" lon="0.19066">
        <ele>2012.66</ele>
        <time>2014-03-21T14:53:18Z</time>
      </trkpt>
      <trkpt lat="42.84571" lon="0.19076">
        <ele>2010.25</ele>
        <time>2014-03-21T14:53:22Z</time>
      </trkpt>
      <trkpt lat="42.8457" lon="0.19077">
        <ele>2009.77</ele>
        <time>2014-03-21T14:53:30Z</time>
      </trkpt>
      <trkpt lat="42.84571" lon="0.19077">
        <ele>2009.77</ele>
        <time>2014-03-21T14:53:41Z</time>
      </trkpt>
      <trkpt lat="42.84571" lon="0.19077">
        <ele>2010.25</ele>
        <time>2014-03-21T14:53:55Z</time>
      </trkpt>
      <trkpt lat="42.84571" lon="0.19077">
        <ele>2010.73</ele>
        <time>2014-03-21T14:54:05Z</time>
      </trkpt>
      <trkpt lat="42.84571" lon="0.19077">
        <ele>2010.25</ele>
        <time>2014-03-21T14:54:14Z</time>
      </trkpt>
      <trkpt lat="42.84571" lon="0.19078">
        <ele>2011.22</ele>
        <time>2014-03-21T14:54:30Z</time>
      </trkpt>
      <trkpt lat="42.84571" lon="0.19077">
        <ele>2011.22</ele>
        <time>2014-03-21T14:54:42Z</time>
      </trkpt>
      <trkpt lat="42.8457" lon="0.19078">
        <ele>2011.22</ele>
        <time>2014-03-21T14:54:54Z</time>
      </trkpt>
      <trkpt lat="42.84574" lon="0.19085">
        <ele>2010.25</ele>
        <time>2014-03-21T14:54:58Z</time>
      </trkpt>
      <trkpt lat="42.84575" lon="0.19085">
        <ele>2009.77</ele>
        <time>2014-03-21T14:55:03Z</time>
      </trkpt>
      <trkpt lat="42.84575" lon="0.19084">
        <ele>2009.77</ele>
        <time>2014-03-21T14:55:10Z</time>
      </trkpt>
      <trkpt lat="42.84575" lon="0.19085">
        <ele>2009.29</ele>
        <time>2014-03-21T14:55:23Z</time>
      </trkpt>
      <trkpt lat="42.84575" lon="0.19085">
        <ele>2009.29</ele>
        <time>2014-03-21T14:55:31Z</time>
      </trkpt>
      <trkpt lat="42.84575" lon="0.19086">
        <ele>2008.81</ele>
        <time>2014-03-21T14:55:36Z</time>
      </trkpt>
      <trkpt lat="42.8458" lon="0.19091">
        <ele>2008.33</ele>
        <time>2014-03-21T14:55:38Z</time>
      </trkpt>
      <trkpt lat="42.84593" lon="0.19096">
        <ele>2006.41</ele>
        <time>2014-03-21T14:55:42Z</time>
      </trkpt>
      <trkpt lat="42.84594" lon="0.19097">
        <ele>2004.49</ele>
        <time>2014-03-21T14:55:47Z</time>
      </trkpt>
      <trkpt lat="42.84594" lon="0.19098">
        <ele>2002.56</ele>
        <time>2014-03-21T14:55:53Z</time>
      </trkpt>
      <trkpt lat="42.84595" lon="0.19098">
        <ele>2001.6</ele>
        <time>2014-03-21T14:55:57Z</time>
      </trkpt>
      <trkpt lat="42.84596" lon="0.19099">
        <ele>2001.6</ele>
        <time>2014-03-21T14:56:04Z</time>
      </trkpt>
      <trkpt lat="42.84597" lon="0.191">
        <ele>2001.6</ele>
        <time>2014-03-21T14:56:07Z</time>
      </trkpt>
      <trkpt lat="42.84601" lon="0.19102">
        <ele>2002.56</ele>
        <time>2014-03-21T14:56:13Z</time>
      </trkpt>
      <trkpt lat="42.84602" lon="0.19104">
        <ele>2002.56</ele>
        <time>2014-03-21T14:56:26Z</time>
      </trkpt>
      <trkpt lat="42.84604" lon="0.19105">
        <ele>2002.56</ele>
        <time>2014-03-21T14:56:34Z</time>
      </trkpt>
      <trkpt lat="42.84604" lon="0.19107">
        <ele>2001.12</ele>
        <time>2014-03-21T14:56:41Z</time>
      </trkpt>
      <trkpt lat="42.84605" lon="0.19108">
        <ele>2001.12</ele>
        <time>2014-03-21T14:56:46Z</time>
      </trkpt>
      <trkpt lat="42.84604" lon="0.19107">
        <ele>1998.24</ele>
        <time>2014-03-21T14:56:52Z</time>
      </trkpt>
      <trkpt lat="42.84604" lon="0.19107">
        <ele>1997.28</ele>
        <time>2014-03-21T14:56:57Z</time>
      </trkpt>
      <trkpt lat="42.84605" lon="0.19107">
        <ele>1996.32</ele>
        <time>2014-03-21T14:57:03Z</time>
      </trkpt>
      <trkpt lat="42.84605" lon="0.19107">
        <ele>1995.35</ele>
        <time>2014-03-21T14:57:10Z</time>
      </trkpt>
      <trkpt lat="42.84606" lon="0.19107">
        <ele>1995.35</ele>
        <time>2014-03-21T14:57:13Z</time>
      </trkpt>
      <trkpt lat="42.8461" lon="0.1911">
        <ele>1994.39</ele>
        <time>2014-03-21T14:57:18Z</time>
      </trkpt>
      <trkpt lat="42.84611" lon="0.1911">
        <ele>1993.91</ele>
        <time>2014-03-21T14:57:23Z</time>
      </trkpt>
      <trkpt lat="42.84611" lon="0.19111">
        <ele>1993.91</ele>
        <time>2014-03-21T14:57:29Z</time>
      </trkpt>
      <trkpt lat="42.84611" lon="0.19111">
        <ele>1993.91</ele>
        <time>2014-03-21T14:57:30Z</time>
      </trkpt>
      <trkpt lat="42.84614" lon="0.19111">
        <ele>1994.39</ele>
        <time>2014-03-21T14:57:36Z</time>
      </trkpt>
      <trkpt lat="42.84614" lon="0.19113">
        <ele>1994.39</ele>
        <time>2014-03-21T14:57:41Z</time>
      </trkpt>
      <trkpt lat="42.8461" lon="0.19124">
        <ele>1991.99</ele>
        <time>2014-03-21T14:57:46Z</time>
      </trkpt>
      <trkpt lat="42.8461" lon="0.19123">
        <ele>1990.55</ele>
        <time>2014-03-21T14:57:53Z</time>
      </trkpt>
      <trkpt lat="42.84608" lon="0.19122">
        <ele>1988.62</ele>
        <time>2014-03-21T14:57:58Z</time>
      </trkpt>
      <trkpt lat="42.84608" lon="0.19122">
        <ele>1989.1</ele>
        <time>2014-03-21T14:58:03Z</time>
      </trkpt>
      <trkpt lat="42.846" lon="0.19129">
        <ele>1988.14</ele>
        <time>2014-03-21T14:58:08Z</time>
      </trkpt>
      <trkpt lat="42.84592" lon="0.19136">
        <ele>1987.18</ele>
        <time>2014-03-21T14:58:12Z</time>
      </trkpt>
      <trkpt lat="42.84592" lon="0.19136">
        <ele>1985.74</ele>
        <time>2014-03-21T14:58:22Z</time>
      </trkpt>
      <trkpt lat="42.84591" lon="0.19136">
        <ele>1985.74</ele>
        <time>2014-03-21T14:58:25Z</time>
      </trkpt>
      <trkpt lat="42.84592" lon="0.19138">
        <ele>1985.26</ele>
        <time>2014-03-21T14:58:32Z</time>
      </trkpt>
      <trkpt lat="42.84592" lon="0.19138">
        <ele>1985.26</ele>
        <time>2014-03-21T14:58:42Z</time>
      </trkpt>
      <trkpt lat="42.84592" lon="0.19137">
        <ele>1984.3</ele>
        <time>2014-03-21T14:59:00Z</time>
      </trkpt>
      <trkpt lat="42.84592" lon="0.19139">
        <ele>1984.78</ele>
        <time>2014-03-21T14:59:02Z</time>
      </trkpt>
      <trkpt lat="42.84586" lon="0.19151">
        <ele>1984.3</ele>
        <time>2014-03-21T14:59:07Z</time>
      </trkpt>
      <trkpt lat="42.84586" lon="0.19151">
        <ele>1984.78</ele>
        <time>2014-03-21T14:59:14Z</time>
      </trkpt>
      <trkpt lat="42.84585" lon="0.19153">
        <ele>1984.78</ele>
        <time>2014-03-21T14:59:20Z</time>
      </trkpt>
      <trkpt lat="42.84585" lon="0.19153">
        <ele>1984.78</ele>
        <time>2014-03-21T14:59:27Z</time>
      </trkpt>
      <trkpt lat="42.84584" lon="0.19152">
        <ele>1984.78</ele>
        <time>2014-03-21T14:59:34Z</time>
      </trkpt>
      <trkpt lat="42.84586" lon="0.19153">
        <ele>1984.78</ele>
        <time>2014-03-21T14:59:41Z</time>
      </trkpt>
      <trkpt lat="42.84596" lon="0.19159">
        <ele>1984.78</ele>
        <time>2014-03-21T14:59:46Z</time>
      </trkpt>
      <trkpt lat="42.84603" lon="0.19161">
        <ele>1983.82</ele>
        <time>2014-03-21T14:59:50Z</time>
      </trkpt>
      <trkpt lat="42.84603" lon="0.1916">
        <ele>1983.82</ele>
        <time>2014-03-21T14:59:57Z</time>
      </trkpt>
      <trkpt lat="42.84603" lon="0.1916">
        <ele>1982.86</ele>
        <time>2014-03-21T15:00:05Z</time>
      </trkpt>
      <trkpt lat="42.84604" lon="0.19158">
        <ele>1981.41</ele>
        <time>2014-03-21T15:00:13Z</time>
      </trkpt>
      <trkpt lat="42.84602" lon="0.19156">
        <ele>1980.45</ele>
        <time>2014-03-21T15:00:19Z</time>
      </trkpt>
      <trkpt lat="42.84603" lon="0.19157">
        <ele>1980.45</ele>
        <time>2014-03-21T15:00:23Z</time>
      </trkpt>
      <trkpt lat="42.84603" lon="0.19157">
        <ele>1979.97</ele>
        <time>2014-03-21T15:00:30Z</time>
      </trkpt>
      <trkpt lat="42.84602" lon="0.19157">
        <ele>1979.97</ele>
        <time>2014-03-21T15:00:39Z</time>
      </trkpt>
      <trkpt lat="42.84603" lon="0.19157">
        <ele>1979.49</ele>
        <time>2014-03-21T15:00:46Z</time>
      </trkpt>
      <trkpt lat="42.84603" lon="0.19158">
        <ele>1979.49</ele>
        <time>2014-03-21T15:00:53Z</time>
      </trkpt>
      <trkpt lat="42.84605" lon="0.19159">
        <ele>1979.97</ele>
        <time>2014-03-21T15:01:00Z</time>
      </trkpt>
      <trkpt lat="42.84606" lon="0.1916">
        <ele>1980.45</ele>
        <time>2014-03-21T15:01:03Z</time>
      </trkpt>
      <trkpt lat="42.8461" lon="0.19165">
        <ele>1980.45</ele>
        <time>2014-03-21T15:01:08Z</time>
      </trkpt>
      <trkpt lat="42.8461" lon="0.19169">
        <ele>1979.97</ele>
        <time>2014-03-21T15:01:14Z</time>
      </trkpt>
      <trkpt lat="42.84611" lon="0.19169">
        <ele>1979.97</ele>
        <time>2014-03-21T15:01:17Z</time>
      </trkpt>
      <trkpt lat="42.8461" lon="0.19181">
        <ele>1977.57</ele>
        <time>2014-03-21T15:01:21Z</time>
      </trkpt>
      <trkpt lat="42.8461" lon="0.19183">
        <ele>1976.13</ele>
        <time>2014-03-21T15:01:25Z</time>
      </trkpt>
      <trkpt lat="42.84604" lon="0.19185">
        <ele>1973.24</ele>
        <time>2014-03-21T15:01:30Z</time>
      </trkpt>
      <trkpt lat="42.84604" lon="0.19185">
        <ele>1972.28</ele>
        <time>2014-03-21T15:01:41Z</time>
      </trkpt>
      <trkpt lat="42.84604" lon="0.19185">
        <ele>1970.84</ele>
        <time>2014-03-21T15:01:53Z</time>
      </trkpt>
      <trkpt lat="42.84604" lon="0.19186">
        <ele>1970.36</ele>
        <time>2014-03-21T15:02:02Z</time>
      </trkpt>
      <trkpt lat="42.84604" lon="0.19186">
        <ele>1969.4</ele>
        <time>2014-03-21T15:02:13Z</time>
      </trkpt>
      <trkpt lat="42.84604" lon="0.19186">
        <ele>1968.92</ele>
        <time>2014-03-21T15:02:25Z</time>
      </trkpt>
      <trkpt lat="42.84604" lon="0.19186">
        <ele>1968.92</ele>
        <time>2014-03-21T15:02:36Z</time>
      </trkpt>
      <trkpt lat="42.84604" lon="0.19185">
        <ele>1968.44</ele>
        <time>2014-03-21T15:02:48Z</time>
      </trkpt>
      <trkpt lat="42.84597" lon="0.19188">
        <ele>1966.99</ele>
        <time>2014-03-21T15:02:52Z</time>
      </trkpt>
      <trkpt lat="42.84596" lon="0.19189">
        <ele>1967.96</ele>
        <time>2014-03-21T15:03:01Z</time>
      </trkpt>
      <trkpt lat="42.84595" lon="0.19189">
        <ele>1967.96</ele>
        <time>2014-03-21T15:03:15Z</time>
      </trkpt>
      <trkpt lat="42.84595" lon="0.19188">
        <ele>1967.48</ele>
        <time>2014-03-21T15:03:21Z</time>
      </trkpt>
      <trkpt lat="42.84591" lon="0.19187">
        <ele>1966.51</ele>
        <time>2014-03-21T15:03:26Z</time>
      </trkpt>
      <trkpt lat="42.8459" lon="0.19188">
        <ele>1966.51</ele>
        <time>2014-03-21T15:03:29Z</time>
      </trkpt>
      <trkpt lat="42.84581" lon="0.19202">
        <ele>1965.55</ele>
        <time>2014-03-21T15:03:33Z</time>
      </trkpt>
      <trkpt lat="42.84564" lon="0.19221">
        <ele>1964.59</ele>
        <time>2014-03-21T15:03:39Z</time>
      </trkpt>
      <trkpt lat="42.84552" lon="0.1923">
        <ele>1962.67</ele>
        <time>2014-03-21T15:03:43Z</time>
      </trkpt>
      <trkpt lat="42.84533" lon="0.19241">
        <ele>1961.71</ele>
        <time>2014-03-21T15:03:48Z</time>
      </trkpt>
      <trkpt lat="42.8453" lon="0.19241">
        <ele>1960.75</ele>
        <time>2014-03-21T15:03:52Z</time>
      </trkpt>
      <trkpt lat="42.84528" lon="0.19241">
        <ele>1959.78</ele>
        <time>2014-03-21T15:04:00Z</time>
      </trkpt>
      <trkpt lat="42.84526" lon="0.19241">
        <ele>1957.38</ele>
        <time>2014-03-21T15:04:09Z</time>
      </trkpt>
      <trkpt lat="42.84525" lon="0.1924">
        <ele>1956.9</ele>
        <time>2014-03-21T15:04:11Z</time>
      </trkpt>
      <trkpt lat="42.84515" lon="0.19252">
        <ele>1954.5</ele>
        <time>2014-03-21T15:04:16Z</time>
      </trkpt>
      <trkpt lat="42.8451" lon="0.19261">
        <ele>1952.09</ele>
        <time>2014-03-21T15:04:20Z</time>
      </trkpt>
      <trkpt lat="42.84506" lon="0.19273">
        <ele>1950.17</ele>
        <time>2014-03-21T15:04:26Z</time>
      </trkpt>
      <trkpt lat="42.84501" lon="0.19274">
        <ele>1948.73</ele>
        <time>2014-03-21T15:04:32Z</time>
      </trkpt>
      <trkpt lat="42.84499" lon="0.19272">
        <ele>1948.73</ele>
        <time>2014-03-21T15:04:39Z</time>
      </trkpt>
      <trkpt lat="42.84498" lon="0.19272">
        <ele>1949.69</ele>
        <time>2014-03-21T15:04:48Z</time>
      </trkpt>
      <trkpt lat="42.84498" lon="0.1927">
        <ele>1949.69</ele>
        <time>2014-03-21T15:05:01Z</time>
      </trkpt>
      <trkpt lat="42.84498" lon="0.1927">
        <ele>1950.17</ele>
        <time>2014-03-21T15:05:07Z</time>
      </trkpt>
      <trkpt lat="42.845" lon="0.19272">
        <ele>1949.69</ele>
        <time>2014-03-21T15:05:14Z</time>
      </trkpt>
      <trkpt lat="42.84502" lon="0.19274">
        <ele>1949.69</ele>
        <time>2014-03-21T15:05:17Z</time>
      </trkpt>
      <trkpt lat="42.84513" lon="0.19285">
        <ele>1945.85</ele>
        <time>2014-03-21T15:05:23Z</time>
      </trkpt>
      <trkpt lat="42.84518" lon="0.19301">
        <ele>1942.48</ele>
        <time>2014-03-21T15:05:26Z</time>
      </trkpt>
      <trkpt lat="42.8451" lon="0.19319">
        <ele>1937.67</ele>
        <time>2014-03-21T15:05:30Z</time>
      </trkpt>
      <trkpt lat="42.8451" lon="0.19322">
        <ele>1934.79</ele>
        <time>2014-03-21T15:05:34Z</time>
      </trkpt>
      <trkpt lat="42.8451" lon="0.19322">
        <ele>1932.87</ele>
        <time>2014-03-21T15:05:42Z</time>
      </trkpt>
      <trkpt lat="42.8451" lon="0.19325">
        <ele>1933.35</ele>
        <time>2014-03-21T15:05:58Z</time>
      </trkpt>
      <trkpt lat="42.8451" lon="0.19324">
        <ele>1932.39</ele>
        <time>2014-03-21T15:06:12Z</time>
      </trkpt>
      <trkpt lat="42.8451" lon="0.19324">
        <ele>1931.91</ele>
        <time>2014-03-21T15:06:23Z</time>
      </trkpt>
      <trkpt lat="42.8451" lon="0.19324">
        <ele>1930.95</ele>
        <time>2014-03-21T15:06:39Z</time>
      </trkpt>
      <trkpt lat="42.84509" lon="0.19323">
        <ele>1929.5</ele>
        <time>2014-03-21T15:06:54Z</time>
      </trkpt>
      <trkpt lat="42.84509" lon="0.19323">
        <ele>1929.02</ele>
        <time>2014-03-21T15:06:57Z</time>
      </trkpt>
      <trkpt lat="42.84513" lon="0.19327">
        <ele>1929.02</ele>
        <time>2014-03-21T15:07:05Z</time>
      </trkpt>
      <trkpt lat="42.84518" lon="0.19329">
        <ele>1928.06</ele>
        <time>2014-03-21T15:07:11Z</time>
      </trkpt>
      <trkpt lat="42.8452" lon="0.1933">
        <ele>1928.06</ele>
        <time>2014-03-21T15:07:15Z</time>
      </trkpt>
      <trkpt lat="42.84522" lon="0.19331">
        <ele>1929.02</ele>
        <time>2014-03-21T15:07:22Z</time>
      </trkpt>
      <trkpt lat="42.84526" lon="0.19334">
        <ele>1929.02</ele>
        <time>2014-03-21T15:07:29Z</time>
      </trkpt>
      <trkpt lat="42.84528" lon="0.19334">
        <ele>1929.5</ele>
        <time>2014-03-21T15:07:34Z</time>
      </trkpt>
      <trkpt lat="42.8453" lon="0.19335">
        <ele>1930.46</ele>
        <time>2014-03-21T15:07:37Z</time>
      </trkpt>
      <trkpt lat="42.84538" lon="0.19346">
        <ele>1929.5</ele>
        <time>2014-03-21T15:07:42Z</time>
      </trkpt>
      <trkpt lat="42.84556" lon="0.19357">
        <ele>1927.1</ele>
        <time>2014-03-21T15:07:47Z</time>
      </trkpt>
      <trkpt lat="42.84561" lon="0.19364">
        <ele>1926.14</ele>
        <time>2014-03-21T15:07:50Z</time>
      </trkpt>
      <trkpt lat="42.84563" lon="0.19369">
        <ele>1925.18</ele>
        <time>2014-03-21T15:07:52Z</time>
      </trkpt>
      <trkpt lat="42.8457" lon="0.19372">
        <ele>1921.81</ele>
        <time>2014-03-21T15:07:57Z</time>
      </trkpt>
      <trkpt lat="42.84571" lon="0.19373">
        <ele>1921.33</ele>
        <time>2014-03-21T15:08:06Z</time>
      </trkpt>
      <trkpt lat="42.84571" lon="0.19374">
        <ele>1920.85</ele>
        <time>2014-03-21T15:08:18Z</time>
      </trkpt>
      <trkpt lat="42.84572" lon="0.19374">
        <ele>1920.37</ele>
        <time>2014-03-21T15:08:26Z</time>
      </trkpt>
      <trkpt lat="42.84573" lon="0.19373">
        <ele>1919.41</ele>
        <time>2014-03-21T15:08:43Z</time>
      </trkpt>
      <trkpt lat="42.84573" lon="0.19373">
        <ele>1918.93</ele>
        <time>2014-03-21T15:08:55Z</time>
      </trkpt>
      <trkpt lat="42.84574" lon="0.19372">
        <ele>1919.41</ele>
        <time>2014-03-21T15:09:14Z</time>
      </trkpt>
      <trkpt lat="42.84574" lon="0.19372">
        <ele>1919.41</ele>
        <time>2014-03-21T15:09:23Z</time>
      </trkpt>
      <trkpt lat="42.84575" lon="0.19372">
        <ele>1918.93</ele>
        <time>2014-03-21T15:09:35Z</time>
      </trkpt>
      <trkpt lat="42.84575" lon="0.19372">
        <ele>1919.41</ele>
        <time>2014-03-21T15:09:51Z</time>
      </trkpt>
      <trkpt lat="42.84575" lon="0.19373">
        <ele>1920.37</ele>
        <time>2014-03-21T15:10:08Z</time>
      </trkpt>
      <trkpt lat="42.84575" lon="0.19373">
        <ele>1919.89</ele>
        <time>2014-03-21T15:10:17Z</time>
      </trkpt>
      <trkpt lat="42.84576" lon="0.19373">
        <ele>1919.89</ele>
        <time>2014-03-21T15:10:25Z</time>
      </trkpt>
      <trkpt lat="42.84576" lon="0.19372">
        <ele>1919.41</ele>
        <time>2014-03-21T15:10:38Z</time>
      </trkpt>
      <trkpt lat="42.84578" lon="0.19382">
        <ele>1918.45</ele>
        <time>2014-03-21T15:10:42Z</time>
      </trkpt>
      <trkpt lat="42.84577" lon="0.19382">
        <ele>1917.49</ele>
        <time>2014-03-21T15:10:47Z</time>
      </trkpt>
      <trkpt lat="42.84576" lon="0.19383">
        <ele>1917.01</ele>
        <time>2014-03-21T15:10:49Z</time>
      </trkpt>
      <trkpt lat="42.84577" lon="0.19382">
        <ele>1916.53</ele>
        <time>2014-03-21T15:10:54Z</time>
      </trkpt>
      <trkpt lat="42.84578" lon="0.1938">
        <ele>1916.04</ele>
        <time>2014-03-21T15:11:00Z</time>
      </trkpt>
      <trkpt lat="42.84581" lon="0.19378">
        <ele>1915.56</ele>
        <time>2014-03-21T15:11:01Z</time>
      </trkpt>
      <trkpt lat="42.84585" lon="0.19379">
        <ele>1915.08</ele>
        <time>2014-03-21T15:11:06Z</time>
      </trkpt>
      <trkpt lat="42.84585" lon="0.19381">
        <ele>1915.08</ele>
        <time>2014-03-21T15:11:11Z</time>
      </trkpt>
      <trkpt lat="42.84585" lon="0.19383">
        <ele>1915.08</ele>
        <time>2014-03-21T15:11:16Z</time>
      </trkpt>
      <trkpt lat="42.84585" lon="0.19384">
        <ele>1915.56</ele>
        <time>2014-03-21T15:11:18Z</time>
      </trkpt>
      <trkpt lat="42.8459" lon="0.19393">
        <ele>1915.08</ele>
        <time>2014-03-21T15:11:25Z</time>
      </trkpt>
      <trkpt lat="42.84591" lon="0.19393">
        <ele>1915.08</ele>
        <time>2014-03-21T15:11:27Z</time>
      </trkpt>
      <trkpt lat="42.84595" lon="0.19396">
        <ele>1914.6</ele>
        <time>2014-03-21T15:11:32Z</time>
      </trkpt>
      <trkpt lat="42.84595" lon="0.19397">
        <ele>1914.6</ele>
        <time>2014-03-21T15:11:35Z</time>
      </trkpt>
      <trkpt lat="42.84594" lon="0.19404">
        <ele>1914.12</ele>
        <time>2014-03-21T15:11:41Z</time>
      </trkpt>
      <trkpt lat="42.84592" lon="0.19405">
        <ele>1914.12</ele>
        <time>2014-03-21T15:11:50Z</time>
      </trkpt>
      <trkpt lat="42.84593" lon="0.19404">
        <ele>1913.16</ele>
        <time>2014-03-21T15:12:03Z</time>
      </trkpt>
      <trkpt lat="42.84592" lon="0.19405">
        <ele>1913.64</ele>
        <time>2014-03-21T15:12:10Z</time>
      </trkpt>
      <trkpt lat="42.84594" lon="0.19411">
        <ele>1913.16</ele>
        <time>2014-03-21T15:12:15Z</time>
      </trkpt>
      <trkpt lat="42.84597" lon="0.19412">
        <ele>1912.68</ele>
        <time>2014-03-21T15:12:23Z</time>
      </trkpt>
      <trkpt lat="42.84602" lon="0.19409">
        <ele>1911.24</ele>
        <time>2014-03-21T15:12:30Z</time>
      </trkpt>
      <trkpt lat="42.84607" lon="0.1941">
        <ele>1911.24</ele>
        <time>2014-03-21T15:12:35Z</time>
      </trkpt>
      <trkpt lat="42.84611" lon="0.19409">
        <ele>1912.2</ele>
        <time>2014-03-21T15:12:41Z</time>
      </trkpt>
      <trkpt lat="42.84615" lon="0.19406">
        <ele>1912.68</ele>
        <time>2014-03-21T15:12:47Z</time>
      </trkpt>
      <trkpt lat="42.84616" lon="0.19405">
        <ele>1913.16</ele>
        <time>2014-03-21T15:12:52Z</time>
      </trkpt>
      <trkpt lat="42.84619" lon="0.19401">
        <ele>1913.64</ele>
        <time>2014-03-21T15:12:58Z</time>
      </trkpt>
      <trkpt lat="42.84621" lon="0.19398">
        <ele>1914.12</ele>
        <time>2014-03-21T15:13:05Z</time>
      </trkpt>
      <trkpt lat="42.84622" lon="0.19398">
        <ele>1914.6</ele>
        <time>2014-03-21T15:13:11Z</time>
      </trkpt>
      <trkpt lat="42.84623" lon="0.19398">
        <ele>1914.6</ele>
        <time>2014-03-21T15:13:16Z</time>
      </trkpt>
      <trkpt lat="42.84624" lon="0.19398">
        <ele>1915.08</ele>
        <time>2014-03-21T15:13:29Z</time>
      </trkpt>
      <trkpt lat="42.84625" lon="0.19399">
        <ele>1914.12</ele>
        <time>2014-03-21T15:13:40Z</time>
      </trkpt>
      <trkpt lat="42.84628" lon="0.19398">
        <ele>1914.12</ele>
        <time>2014-03-21T15:13:50Z</time>
      </trkpt>
      <trkpt lat="42.84634" lon="0.19397">
        <ele>1914.12</ele>
        <time>2014-03-21T15:13:54Z</time>
      </trkpt>
      <trkpt lat="42.84636" lon="0.19397">
        <ele>1914.12</ele>
        <time>2014-03-21T15:13:57Z</time>
      </trkpt>
      <trkpt lat="42.8464" lon="0.19396">
        <ele>1913.64</ele>
        <time>2014-03-21T15:14:04Z</time>
      </trkpt>
      <trkpt lat="42.8464" lon="0.19391">
        <ele>1913.16</ele>
        <time>2014-03-21T15:14:08Z</time>
      </trkpt>
      <trkpt lat="42.8464" lon="0.19389">
        <ele>1913.16</ele>
        <time>2014-03-21T15:14:11Z</time>
      </trkpt>
      <trkpt lat="42.84641" lon="0.19386">
        <ele>1913.64</ele>
        <time>2014-03-21T15:14:17Z</time>
      </trkpt>
      <trkpt lat="42.84641" lon="0.19387">
        <ele>1914.6</ele>
        <time>2014-03-21T15:14:23Z</time>
      </trkpt>
      <trkpt lat="42.84643" lon="0.19388">
        <ele>1915.08</ele>
        <time>2014-03-21T15:14:29Z</time>
      </trkpt>
      <trkpt lat="42.84645" lon="0.19387">
        <ele>1914.6</ele>
        <time>2014-03-21T15:14:35Z</time>
      </trkpt>
      <trkpt lat="42.84645" lon="0.19387">
        <ele>1915.56</ele>
        <time>2014-03-21T15:14:40Z</time>
      </trkpt>
      <trkpt lat="42.84646" lon="0.19388">
        <ele>1915.56</ele>
        <time>2014-03-21T15:14:45Z</time>
      </trkpt>
      <trkpt lat="42.84648" lon="0.19388">
        <ele>1915.08</ele>
        <time>2014-03-21T15:14:51Z</time>
      </trkpt>
      <trkpt lat="42.84652" lon="0.19389">
        <ele>1915.08</ele>
        <time>2014-03-21T15:14:55Z</time>
      </trkpt>
      <trkpt lat="42.84655" lon="0.19393">
        <ele>1914.6</ele>
        <time>2014-03-21T15:15:00Z</time>
      </trkpt>
      <trkpt lat="42.84655" lon="0.19409">
        <ele>1914.12</ele>
        <time>2014-03-21T15:15:05Z</time>
      </trkpt>
      <trkpt lat="42.84654" lon="0.19414">
        <ele>1914.12</ele>
        <time>2014-03-21T15:15:10Z</time>
      </trkpt>
      <trkpt lat="42.84652" lon="0.19417">
        <ele>1915.08</ele>
        <time>2014-03-21T15:15:16Z</time>
      </trkpt>
      <trkpt lat="42.84652" lon="0.19417">
        <ele>1915.08</ele>
        <time>2014-03-21T15:15:18Z</time>
      </trkpt>
      <trkpt lat="42.84645" lon="0.19426">
        <ele>1915.08</ele>
        <time>2014-03-21T15:15:25Z</time>
      </trkpt>
      <trkpt lat="42.84642" lon="0.19432">
        <ele>1914.12</ele>
        <time>2014-03-21T15:15:30Z</time>
      </trkpt>
      <trkpt lat="42.84643" lon="0.19436">
        <ele>1913.16</ele>
        <time>2014-03-21T15:15:36Z</time>
      </trkpt>
      <trkpt lat="42.84642" lon="0.19438">
        <ele>1912.2</ele>
        <time>2014-03-21T15:15:42Z</time>
      </trkpt>
      <trkpt lat="42.84641" lon="0.19441">
        <ele>1912.2</ele>
        <time>2014-03-21T15:15:50Z</time>
      </trkpt>
      <trkpt lat="42.84639" lon="0.19446">
        <ele>1911.72</ele>
        <time>2014-03-21T15:15:54Z</time>
      </trkpt>
      <trkpt lat="42.84639" lon="0.19448">
        <ele>1911.24</ele>
        <time>2014-03-21T15:16:01Z</time>
      </trkpt>
      <trkpt lat="42.84636" lon="0.19455">
        <ele>1910.76</ele>
        <time>2014-03-21T15:16:07Z</time>
      </trkpt>
      <trkpt lat="42.84634" lon="0.19459">
        <ele>1909.32</ele>
        <time>2014-03-21T15:16:13Z</time>
      </trkpt>
      <trkpt lat="42.8463" lon="0.19461">
        <ele>1908.35</ele>
        <time>2014-03-21T15:16:19Z</time>
      </trkpt>
      <trkpt lat="42.8463" lon="0.19462">
        <ele>1907.87</ele>
        <time>2014-03-21T15:16:27Z</time>
      </trkpt>
      <trkpt lat="42.84629" lon="0.19463">
        <ele>1907.87</ele>
        <time>2014-03-21T15:16:37Z</time>
      </trkpt>
      <trkpt lat="42.84629" lon="0.19463">
        <ele>1907.87</ele>
        <time>2014-03-21T15:16:45Z</time>
      </trkpt>
      <trkpt lat="42.84627" lon="0.19463">
        <ele>1908.83</ele>
        <time>2014-03-21T15:17:01Z</time>
      </trkpt>
      <trkpt lat="42.84628" lon="0.19465">
        <ele>1909.8</ele>
        <time>2014-03-21T15:17:17Z</time>
      </trkpt>
      <trkpt lat="42.84628" lon="0.19465">
        <ele>1910.28</ele>
        <time>2014-03-21T15:17:26Z</time>
      </trkpt>
      <trkpt lat="42.84628" lon="0.19465">
        <ele>1910.28</ele>
        <time>2014-03-21T15:17:35Z</time>
      </trkpt>
      <trkpt lat="42.84624" lon="0.19468">
        <ele>1910.76</ele>
        <time>2014-03-21T15:17:42Z</time>
      </trkpt>
      <trkpt lat="42.84621" lon="0.19479">
        <ele>1910.76</ele>
        <time>2014-03-21T15:17:51Z</time>
      </trkpt>
      <trkpt lat="42.8462" lon="0.19485">
        <ele>1908.35</ele>
        <time>2014-03-21T15:17:57Z</time>
      </trkpt>
      <trkpt lat="42.8462" lon="0.19485">
        <ele>1908.35</ele>
        <time>2014-03-21T15:17:58Z</time>
      </trkpt>
      <trkpt lat="42.84619" lon="0.19488">
        <ele>1907.39</ele>
        <time>2014-03-21T15:18:00Z</time>
      </trkpt>
      <trkpt lat="42.84618" lon="0.19492">
        <ele>1907.39</ele>
        <time>2014-03-21T15:18:06Z</time>
      </trkpt>
      <trkpt lat="42.84615" lon="0.19501">
        <ele>1903.07</ele>
        <time>2014-03-21T15:18:12Z</time>
      </trkpt>
      <trkpt lat="42.84613" lon="0.19502">
        <ele>1901.14</ele>
        <time>2014-03-21T15:18:15Z</time>
      </trkpt>
      <trkpt lat="42.84605" lon="0.19511">
        <ele>1899.7</ele>
        <time>2014-03-21T15:18:21Z</time>
      </trkpt>
      <trkpt lat="42.84603" lon="0.19513">
        <ele>1899.7</ele>
        <time>2014-03-21T15:18:22Z</time>
      </trkpt>
      <trkpt lat="42.84598" lon="0.19516">
        <ele>1899.7</ele>
        <time>2014-03-21T15:18:25Z</time>
      </trkpt>
      <trkpt lat="42.84591" lon="0.19528">
        <ele>1900.18</ele>
        <time>2014-03-21T15:18:30Z</time>
      </trkpt>
      <trkpt lat="42.84589" lon="0.19528">
        <ele>1900.18</ele>
        <time>2014-03-21T15:18:31Z</time>
      </trkpt>
      <trkpt lat="42.84581" lon="0.19532">
        <ele>1899.7</ele>
        <time>2014-03-21T15:18:37Z</time>
      </trkpt>
      <trkpt lat="42.84576" lon="0.19544">
        <ele>1900.18</ele>
        <time>2014-03-21T15:18:41Z</time>
      </trkpt>
      <trkpt lat="42.84571" lon="0.19545">
        <ele>1900.18</ele>
        <time>2014-03-21T15:18:47Z</time>
      </trkpt>
      <trkpt lat="42.84569" lon="0.19546">
        <ele>1900.66</ele>
        <time>2014-03-21T15:18:56Z</time>
      </trkpt>
      <trkpt lat="42.84568" lon="0.19547">
        <ele>1901.63</ele>
        <time>2014-03-21T15:19:00Z</time>
      </trkpt>
      <trkpt lat="42.8457" lon="0.19549">
        <ele>1903.07</ele>
        <time>2014-03-21T15:19:05Z</time>
      </trkpt>
      <trkpt lat="42.8457" lon="0.19549">
        <ele>1903.55</ele>
        <time>2014-03-21T15:19:09Z</time>
      </trkpt>
      <trkpt lat="42.8457" lon="0.19549">
        <ele>1904.99</ele>
        <time>2014-03-21T15:19:14Z</time>
      </trkpt>
      <trkpt lat="42.8457" lon="0.19551">
        <ele>1905.47</ele>
        <time>2014-03-21T15:19:20Z</time>
      </trkpt>
      <trkpt lat="42.84565" lon="0.19554">
        <ele>1907.39</ele>
        <time>2014-03-21T15:19:29Z</time>
      </trkpt>
      <trkpt lat="42.84564" lon="0.19554">
        <ele>1907.39</ele>
        <time>2014-03-21T15:19:30Z</time>
      </trkpt>
      <trkpt lat="42.84555" lon="0.19561">
        <ele>1907.87</ele>
        <time>2014-03-21T15:19:35Z</time>
      </trkpt>
      <trkpt lat="42.84534" lon="0.19567">
        <ele>1906.91</ele>
        <time>2014-03-21T15:19:40Z</time>
      </trkpt>
      <trkpt lat="42.84514" lon="0.1956">
        <ele>1906.43</ele>
        <time>2014-03-21T15:19:47Z</time>
      </trkpt>
      <trkpt lat="42.84512" lon="0.1956">
        <ele>1906.91</ele>
        <time>2014-03-21T15:19:52Z</time>
      </trkpt>
      <trkpt lat="42.84493" lon="0.19557">
        <ele>1904.51</ele>
        <time>2014-03-21T15:19:59Z</time>
      </trkpt>
      <trkpt lat="42.84484" lon="0.19562">
        <ele>1903.55</ele>
        <time>2014-03-21T15:20:04Z</time>
      </trkpt>
      <trkpt lat="42.84484" lon="0.19562">
        <ele>1904.51</ele>
        <time>2014-03-21T15:20:14Z</time>
      </trkpt>
      <trkpt lat="42.84482" lon="0.19563">
        <ele>1904.51</ele>
        <time>2014-03-21T15:20:24Z</time>
      </trkpt>
      <trkpt lat="42.84481" lon="0.19562">
        <ele>1905.47</ele>
        <time>2014-03-21T15:20:31Z</time>
      </trkpt>
      <trkpt lat="42.84482" lon="0.19562">
        <ele>1905.47</ele>
        <time>2014-03-21T15:20:37Z</time>
      </trkpt>
      <trkpt lat="42.84483" lon="0.19564">
        <ele>1904.99</ele>
        <time>2014-03-21T15:20:49Z</time>
      </trkpt>
      <trkpt lat="42.84483" lon="0.19564">
        <ele>1904.99</ele>
        <time>2014-03-21T15:20:50Z</time>
      </trkpt>
      <trkpt lat="42.84467" lon="0.19558">
        <ele>1903.07</ele>
        <time>2014-03-21T15:20:55Z</time>
      </trkpt>
      <trkpt lat="42.84463" lon="0.19559">
        <ele>1901.63</ele>
        <time>2014-03-21T15:21:00Z</time>
      </trkpt>
      <trkpt lat="42.84455" lon="0.19577">
        <ele>1898.26</ele>
        <time>2014-03-21T15:21:05Z</time>
      </trkpt>
      <trkpt lat="42.84456" lon="0.19577">
        <ele>1895.86</ele>
        <time>2014-03-21T15:21:11Z</time>
      </trkpt>
      <trkpt lat="42.84456" lon="0.19577">
        <ele>1895.38</ele>
        <time>2014-03-21T15:21:12Z</time>
      </trkpt>
      <trkpt lat="42.8445" lon="0.19578">
        <ele>1893.93</ele>
        <time>2014-03-21T15:21:16Z</time>
      </trkpt>
      <trkpt lat="42.84451" lon="0.1958">
        <ele>1892.97</ele>
        <time>2014-03-21T15:21:24Z</time>
      </trkpt>
      <trkpt lat="42.8445" lon="0.19582">
        <ele>1892.01</ele>
        <time>2014-03-21T15:21:31Z</time>
      </trkpt>
      <trkpt lat="42.84449" lon="0.19583">
        <ele>1892.01</ele>
        <time>2014-03-21T15:21:32Z</time>
      </trkpt>
      <trkpt lat="42.84443" lon="0.19584">
        <ele>1890.09</ele>
        <time>2014-03-21T15:21:36Z</time>
      </trkpt>
      <trkpt lat="42.84441" lon="0.19585">
        <ele>1888.17</ele>
        <time>2014-03-21T15:21:44Z</time>
      </trkpt>
      <trkpt lat="42.84441" lon="0.19585">
        <ele>1888.17</ele>
        <time>2014-03-21T15:21:49Z</time>
      </trkpt>
      <trkpt lat="42.84438" lon="0.19582">
        <ele>1886.72</ele>
        <time>2014-03-21T15:21:54Z</time>
      </trkpt>
      <trkpt lat="42.84438" lon="0.19582">
        <ele>1886.24</ele>
        <time>2014-03-21T15:21:56Z</time>
      </trkpt>
      <trkpt lat="42.84435" lon="0.19589">
        <ele>1883.84</ele>
        <time>2014-03-21T15:22:01Z</time>
      </trkpt>
      <trkpt lat="42.84435" lon="0.19588">
        <ele>1883.36</ele>
        <time>2014-03-21T15:22:03Z</time>
      </trkpt>
      <trkpt lat="42.8443" lon="0.19587">
        <ele>1881.92</ele>
        <time>2014-03-21T15:22:06Z</time>
      </trkpt>
      <trkpt lat="42.84425" lon="0.19583">
        <ele>1879.03</ele>
        <time>2014-03-21T15:22:11Z</time>
      </trkpt>
      <trkpt lat="42.84425" lon="0.19582">
        <ele>1878.07</ele>
        <time>2014-03-21T15:22:14Z</time>
      </trkpt>
      <trkpt lat="42.84422" lon="0.19591">
        <ele>1876.63</ele>
        <time>2014-03-21T15:22:19Z</time>
      </trkpt>
      <trkpt lat="42.84421" lon="0.19594">
        <ele>1875.19</ele>
        <time>2014-03-21T15:22:25Z</time>
      </trkpt>
      <trkpt lat="42.84409" lon="0.19595">
        <ele>1873.75</ele>
        <time>2014-03-21T15:22:29Z</time>
      </trkpt>
      <trkpt lat="42.84397" lon="0.19599">
        <ele>1873.75</ele>
        <time>2014-03-21T15:22:33Z</time>
      </trkpt>
      <trkpt lat="42.84388" lon="0.19594">
        <ele>1873.75</ele>
        <time>2014-03-21T15:22:38Z</time>
      </trkpt>
      <trkpt lat="42.8439" lon="0.19597">
        <ele>1874.23</ele>
        <time>2014-03-21T15:22:44Z</time>
      </trkpt>
      <trkpt lat="42.84389" lon="0.19598">
        <ele>1874.71</ele>
        <time>2014-03-21T15:22:56Z</time>
      </trkpt>
      <trkpt lat="42.84389" lon="0.19598">
        <ele>1874.71</ele>
        <time>2014-03-21T15:23:07Z</time>
      </trkpt>
      <trkpt lat="42.84388" lon="0.19598">
        <ele>1874.71</ele>
        <time>2014-03-21T15:23:17Z</time>
      </trkpt>
      <trkpt lat="42.84388" lon="0.196">
        <ele>1874.71</ele>
        <time>2014-03-21T15:23:24Z</time>
      </trkpt>
      <trkpt lat="42.84383" lon="0.19609">
        <ele>1872.79</ele>
        <time>2014-03-21T15:23:30Z</time>
      </trkpt>
      <trkpt lat="42.84382" lon="0.19612">
        <ele>1872.3</ele>
        <time>2014-03-21T15:23:35Z</time>
      </trkpt>
      <trkpt lat="42.84382" lon="0.19612">
        <ele>1872.3</ele>
        <time>2014-03-21T15:23:36Z</time>
      </trkpt>
      <trkpt lat="42.84382" lon="0.19619">
        <ele>1869.9</ele>
        <time>2014-03-21T15:23:42Z</time>
      </trkpt>
      <trkpt lat="42.84382" lon="0.19622">
        <ele>1869.9</ele>
        <time>2014-03-21T15:23:48Z</time>
      </trkpt>
      <trkpt lat="42.84382" lon="0.19623">
        <ele>1869.9</ele>
        <time>2014-03-21T15:23:49Z</time>
      </trkpt>
      <trkpt lat="42.8438" lon="0.1963">
        <ele>1868.94</ele>
        <time>2014-03-21T15:23:54Z</time>
      </trkpt>
      <trkpt lat="42.8438" lon="0.1963">
        <ele>1869.42</ele>
        <time>2014-03-21T15:24:03Z</time>
      </trkpt>
      <trkpt lat="42.8438" lon="0.19631">
        <ele>1870.86</ele>
        <time>2014-03-21T15:24:16Z</time>
      </trkpt>
      <trkpt lat="42.8438" lon="0.19633">
        <ele>1870.38</ele>
        <time>2014-03-21T15:24:24Z</time>
      </trkpt>
      <trkpt lat="42.84376" lon="0.19639">
        <ele>1868.94</ele>
        <time>2014-03-21T15:24:27Z</time>
      </trkpt>
      <trkpt lat="42.84376" lon="0.19642">
        <ele>1867.98</ele>
        <time>2014-03-21T15:24:35Z</time>
      </trkpt>
      <trkpt lat="42.84376" lon="0.19643">
        <ele>1867.5</ele>
        <time>2014-03-21T15:24:40Z</time>
      </trkpt>
      <trkpt lat="42.84374" lon="0.19643">
        <ele>1867.5</ele>
        <time>2014-03-21T15:24:44Z</time>
      </trkpt>
      <trkpt lat="42.84374" lon="0.19643">
        <ele>1867.02</ele>
        <time>2014-03-21T15:24:50Z</time>
      </trkpt>
      <trkpt lat="42.84368" lon="0.19636">
        <ele>1866.54</ele>
        <time>2014-03-21T15:24:55Z</time>
      </trkpt>
      <trkpt lat="42.84367" lon="0.19638">
        <ele>1865.09</ele>
        <time>2014-03-21T15:25:01Z</time>
      </trkpt>
      <trkpt lat="42.84367" lon="0.19637">
        <ele>1865.09</ele>
        <time>2014-03-21T15:25:09Z</time>
      </trkpt>
      <trkpt lat="42.84366" lon="0.19637">
        <ele>1865.09</ele>
        <time>2014-03-21T15:25:12Z</time>
      </trkpt>
      <trkpt lat="42.84362" lon="0.1964">
        <ele>1863.65</ele>
        <time>2014-03-21T15:25:16Z</time>
      </trkpt>
      <trkpt lat="42.84361" lon="0.19648">
        <ele>1861.25</ele>
        <time>2014-03-21T15:25:23Z</time>
      </trkpt>
      <trkpt lat="42.8436" lon="0.19651">
        <ele>1859.33</ele>
        <time>2014-03-21T15:25:31Z</time>
      </trkpt>
      <trkpt lat="42.84359" lon="0.19652">
        <ele>1858.85</ele>
        <time>2014-03-21T15:25:37Z</time>
      </trkpt>
      <trkpt lat="42.84359" lon="0.19653">
        <ele>1858.37</ele>
        <time>2014-03-21T15:25:47Z</time>
      </trkpt>
      <trkpt lat="42.84359" lon="0.19653">
        <ele>1858.85</ele>
        <time>2014-03-21T15:25:51Z</time>
      </trkpt>
      <trkpt lat="42.84359" lon="0.19649">
        <ele>1858.37</ele>
        <time>2014-03-21T15:25:57Z</time>
      </trkpt>
      <trkpt lat="42.84359" lon="0.19648">
        <ele>1858.37</ele>
        <time>2014-03-21T15:26:02Z</time>
      </trkpt>
      <trkpt lat="42.84353" lon="0.19651">
        <ele>1858.37</ele>
        <time>2014-03-21T15:26:06Z</time>
      </trkpt>
      <trkpt lat="42.84352" lon="0.1965">
        <ele>1858.37</ele>
        <time>2014-03-21T15:26:15Z</time>
      </trkpt>
      <trkpt lat="42.84351" lon="0.19649">
        <ele>1858.85</ele>
        <time>2014-03-21T15:26:18Z</time>
      </trkpt>
      <trkpt lat="42.84339" lon="0.19652">
        <ele>1857.89</ele>
        <time>2014-03-21T15:26:23Z</time>
      </trkpt>
      <trkpt lat="42.84332" lon="0.19654">
        <ele>1857.4</ele>
        <time>2014-03-21T15:26:28Z</time>
      </trkpt>
      <trkpt lat="42.84326" lon="0.19658">
        <ele>1857.89</ele>
        <time>2014-03-21T15:26:36Z</time>
      </trkpt>
      <trkpt lat="42.84326" lon="0.1966">
        <ele>1857.4</ele>
        <time>2014-03-21T15:26:43Z</time>
      </trkpt>
      <trkpt lat="42.84325" lon="0.19661">
        <ele>1857.4</ele>
        <time>2014-03-21T15:26:54Z</time>
      </trkpt>
      <trkpt lat="42.84325" lon="0.19661">
        <ele>1856.92</ele>
        <time>2014-03-21T15:27:03Z</time>
      </trkpt>
      <trkpt lat="42.84325" lon="0.1966">
        <ele>1856.44</ele>
        <time>2014-03-21T15:27:12Z</time>
      </trkpt>
      <trkpt lat="42.84325" lon="0.1966">
        <ele>1856.44</ele>
        <time>2014-03-21T15:27:22Z</time>
      </trkpt>
      <trkpt lat="42.84326" lon="0.19661">
        <ele>1855.96</ele>
        <time>2014-03-21T15:27:35Z</time>
      </trkpt>
      <trkpt lat="42.84326" lon="0.19661">
        <ele>1855</ele>
        <time>2014-03-21T15:27:48Z</time>
      </trkpt>
      <trkpt lat="42.84326" lon="0.19661">
        <ele>1854.52</ele>
        <time>2014-03-21T15:27:58Z</time>
      </trkpt>
      <trkpt lat="42.84326" lon="0.19662">
        <ele>1854.04</ele>
        <time>2014-03-21T15:28:06Z</time>
      </trkpt>
      <trkpt lat="42.84325" lon="0.19663">
        <ele>1854.04</ele>
        <time>2014-03-21T15:28:13Z</time>
      </trkpt>
      <trkpt lat="42.84324" lon="0.19664">
        <ele>1854.04</ele>
        <time>2014-03-21T15:28:14Z</time>
      </trkpt>
      <trkpt lat="42.84322" lon="0.19669">
        <ele>1854.52</ele>
        <time>2014-03-21T15:28:19Z</time>
      </trkpt>
      <trkpt lat="42.8432" lon="0.19671">
        <ele>1854.52</ele>
        <time>2014-03-21T15:28:21Z</time>
      </trkpt>
      <trkpt lat="42.84316" lon="0.19684">
        <ele>1854.52</ele>
        <time>2014-03-21T15:28:28Z</time>
      </trkpt>
      <trkpt lat="42.84318" lon="0.19692">
        <ele>1852.6</ele>
        <time>2014-03-21T15:28:33Z</time>
      </trkpt>
      <trkpt lat="42.84317" lon="0.19693">
        <ele>1852.6</ele>
        <time>2014-03-21T15:28:35Z</time>
      </trkpt>
      <trkpt lat="42.84311" lon="0.197">
        <ele>1853.08</ele>
        <time>2014-03-21T15:28:43Z</time>
      </trkpt>
      <trkpt lat="42.84305" lon="0.1971">
        <ele>1852.6</ele>
        <time>2014-03-21T15:28:50Z</time>
      </trkpt>
      <trkpt lat="42.84304" lon="0.19721">
        <ele>1851.64</ele>
        <time>2014-03-21T15:28:56Z</time>
      </trkpt>
      <trkpt lat="42.84304" lon="0.19722">
        <ele>1851.16</ele>
        <time>2014-03-21T15:29:02Z</time>
      </trkpt>
      <trkpt lat="42.84307" lon="0.19725">
        <ele>1849.71</ele>
        <time>2014-03-21T15:29:07Z</time>
      </trkpt>
      <trkpt lat="42.8431" lon="0.19727">
        <ele>1848.27</ele>
        <time>2014-03-21T15:29:12Z</time>
      </trkpt>
      <trkpt lat="42.84311" lon="0.19731">
        <ele>1848.75</ele>
        <time>2014-03-21T15:29:18Z</time>
      </trkpt>
      <trkpt lat="42.84312" lon="0.19737">
        <ele>1848.27</ele>
        <time>2014-03-21T15:29:23Z</time>
      </trkpt>
      <trkpt lat="42.84312" lon="0.19739">
        <ele>1848.75</ele>
        <time>2014-03-21T15:29:27Z</time>
      </trkpt>
      <trkpt lat="42.8431" lon="0.19742">
        <ele>1848.27</ele>
        <time>2014-03-21T15:29:30Z</time>
      </trkpt>
      <trkpt lat="42.84301" lon="0.19742">
        <ele>1848.27</ele>
        <time>2014-03-21T15:29:35Z</time>
      </trkpt>
      <trkpt lat="42.84295" lon="0.19739">
        <ele>1847.31</ele>
        <time>2014-03-21T15:29:42Z</time>
      </trkpt>
      <trkpt lat="42.84294" lon="0.19738">
        <ele>1848.27</ele>
        <time>2014-03-21T15:29:49Z</time>
      </trkpt>
      <trkpt lat="42.8429" lon="0.19736">
        <ele>1848.75</ele>
        <time>2014-03-21T15:29:54Z</time>
      </trkpt>
      <trkpt lat="42.84282" lon="0.19741">
        <ele>1849.71</ele>
        <time>2014-03-21T15:29:59Z</time>
      </trkpt>
      <trkpt lat="42.8428" lon="0.19745">
        <ele>1850.19</ele>
        <time>2014-03-21T15:30:05Z</time>
      </trkpt>
      <trkpt lat="42.84277" lon="0.19748">
        <ele>1849.71</ele>
        <time>2014-03-21T15:30:11Z</time>
      </trkpt>
      <trkpt lat="42.84274" lon="0.19748">
        <ele>1849.23</ele>
        <time>2014-03-21T15:30:15Z</time>
      </trkpt>
      <trkpt lat="42.84269" lon="0.1975">
        <ele>1849.71</ele>
        <time>2014-03-21T15:30:20Z</time>
      </trkpt>
      <trkpt lat="42.84268" lon="0.19755">
        <ele>1849.23</ele>
        <time>2014-03-21T15:30:24Z</time>
      </trkpt>
      <trkpt lat="42.84268" lon="0.19757">
        <ele>1849.71</ele>
        <time>2014-03-21T15:30:30Z</time>
      </trkpt>
      <trkpt lat="42.84267" lon="0.1976">
        <ele>1850.68</ele>
        <time>2014-03-21T15:30:37Z</time>
      </trkpt>
      <trkpt lat="42.84264" lon="0.19761">
        <ele>1850.19</ele>
        <time>2014-03-21T15:30:44Z</time>
      </trkpt>
      <trkpt lat="42.84263" lon="0.19762">
        <ele>1851.16</ele>
        <time>2014-03-21T15:30:50Z</time>
      </trkpt>
      <trkpt lat="42.84261" lon="0.19763">
        <ele>1851.16</ele>
        <time>2014-03-21T15:30:54Z</time>
      </trkpt>
      <trkpt lat="42.84259" lon="0.19766">
        <ele>1851.16</ele>
        <time>2014-03-21T15:30:58Z</time>
      </trkpt>
      <trkpt lat="42.84256" lon="0.19769">
        <ele>1851.64</ele>
        <time>2014-03-21T15:31:03Z</time>
      </trkpt>
      <trkpt lat="42.84253" lon="0.19771">
        <ele>1852.12</ele>
        <time>2014-03-21T15:31:10Z</time>
      </trkpt>
      <trkpt lat="42.84253" lon="0.19775">
        <ele>1852.6</ele>
        <time>2014-03-21T15:31:18Z</time>
      </trkpt>
      <trkpt lat="42.84253" lon="0.1978">
        <ele>1851.64</ele>
        <time>2014-03-21T15:31:23Z</time>
      </trkpt>
      <trkpt lat="42.84253" lon="0.19781">
        <ele>1851.64</ele>
        <time>2014-03-21T15:31:25Z</time>
      </trkpt>
      <trkpt lat="42.84251" lon="0.19785">
        <ele>1851.64</ele>
        <time>2014-03-21T15:31:32Z</time>
      </trkpt>
      <trkpt lat="42.8425" lon="0.19787">
        <ele>1853.08</ele>
        <time>2014-03-21T15:31:39Z</time>
      </trkpt>
      <trkpt lat="42.8425" lon="0.19788">
        <ele>1853.08</ele>
        <time>2014-03-21T15:31:44Z</time>
      </trkpt>
      <trkpt lat="42.84246" lon="0.1979">
        <ele>1853.56</ele>
        <time>2014-03-21T15:31:51Z</time>
      </trkpt>
      <trkpt lat="42.84243" lon="0.1979">
        <ele>1853.56</ele>
        <time>2014-03-21T15:31:56Z</time>
      </trkpt>
      <trkpt lat="42.84242" lon="0.19796">
        <ele>1853.08</ele>
        <time>2014-03-21T15:32:03Z</time>
      </trkpt>
      <trkpt lat="42.84241" lon="0.19797">
        <ele>1852.6</ele>
        <time>2014-03-21T15:32:05Z</time>
      </trkpt>
      <trkpt lat="42.84241" lon="0.19801">
        <ele>1851.64</ele>
        <time>2014-03-21T15:32:11Z</time>
      </trkpt>
      <trkpt lat="42.8424" lon="0.19802">
        <ele>1851.16</ele>
        <time>2014-03-21T15:32:15Z</time>
      </trkpt>
      <trkpt lat="42.84239" lon="0.19808">
        <ele>1851.16</ele>
        <time>2014-03-21T15:32:22Z</time>
      </trkpt>
      <trkpt lat="42.84238" lon="0.19811">
        <ele>1850.19</ele>
        <time>2014-03-21T15:32:26Z</time>
      </trkpt>
      <trkpt lat="42.84237" lon="0.19814">
        <ele>1850.68</ele>
        <time>2014-03-21T15:32:30Z</time>
      </trkpt>
      <trkpt lat="42.84237" lon="0.19815">
        <ele>1849.71</ele>
        <time>2014-03-21T15:32:35Z</time>
      </trkpt>
      <trkpt lat="42.84238" lon="0.19815">
        <ele>1849.71</ele>
        <time>2014-03-21T15:32:40Z</time>
      </trkpt>
      <trkpt lat="42.84238" lon="0.19816">
        <ele>1849.23</ele>
        <time>2014-03-21T15:32:47Z</time>
      </trkpt>
      <trkpt lat="42.84237" lon="0.19821">
        <ele>1850.19</ele>
        <time>2014-03-21T15:32:54Z</time>
      </trkpt>
      <trkpt lat="42.84236" lon="0.19821">
        <ele>1850.68</ele>
        <time>2014-03-21T15:33:01Z</time>
      </trkpt>
      <trkpt lat="42.84236" lon="0.19824">
        <ele>1851.16</ele>
        <time>2014-03-21T15:33:08Z</time>
      </trkpt>
      <trkpt lat="42.84234" lon="0.19826">
        <ele>1852.12</ele>
        <time>2014-03-21T15:33:13Z</time>
      </trkpt>
      <trkpt lat="42.84232" lon="0.19828">
        <ele>1852.6</ele>
        <time>2014-03-21T15:33:22Z</time>
      </trkpt>
      <trkpt lat="42.84234" lon="0.19834">
        <ele>1853.08</ele>
        <time>2014-03-21T15:33:28Z</time>
      </trkpt>
      <trkpt lat="42.84234" lon="0.19836">
        <ele>1853.56</ele>
        <time>2014-03-21T15:33:35Z</time>
      </trkpt>
      <trkpt lat="42.84235" lon="0.19837">
        <ele>1854.04</ele>
        <time>2014-03-21T15:33:41Z</time>
      </trkpt>
      <trkpt lat="42.84235" lon="0.19838">
        <ele>1854.52</ele>
        <time>2014-03-21T15:33:45Z</time>
      </trkpt>
      <trkpt lat="42.84235" lon="0.1984">
        <ele>1855</ele>
        <time>2014-03-21T15:33:48Z</time>
      </trkpt>
      <trkpt lat="42.84233" lon="0.19842">
        <ele>1855.96</ele>
        <time>2014-03-21T15:33:54Z</time>
      </trkpt>
      <trkpt lat="42.84233" lon="0.19843">
        <ele>1856.44</ele>
        <time>2014-03-21T15:33:58Z</time>
      </trkpt>
      <trkpt lat="42.84233" lon="0.19844">
        <ele>1856.92</ele>
        <time>2014-03-21T15:34:02Z</time>
      </trkpt>
      <trkpt lat="42.84233" lon="0.19845">
        <ele>1856.92</ele>
        <time>2014-03-21T15:34:03Z</time>
      </trkpt>
      <trkpt lat="42.8423" lon="0.19848">
        <ele>1857.89</ele>
        <time>2014-03-21T15:34:10Z</time>
      </trkpt>
      <trkpt lat="42.8423" lon="0.19849">
        <ele>1857.89</ele>
        <time>2014-03-21T15:34:11Z</time>
      </trkpt>
      <trkpt lat="42.84228" lon="0.1985">
        <ele>1857.4</ele>
        <time>2014-03-21T15:34:17Z</time>
      </trkpt>
      <trkpt lat="42.84226" lon="0.1985">
        <ele>1857.89</ele>
        <time>2014-03-21T15:34:23Z</time>
      </trkpt>
      <trkpt lat="42.84222" lon="0.19852">
        <ele>1858.37</ele>
        <time>2014-03-21T15:34:30Z</time>
      </trkpt>
      <trkpt lat="42.84221" lon="0.19855">
        <ele>1857.4</ele>
        <time>2014-03-21T15:34:36Z</time>
      </trkpt>
      <trkpt lat="42.84219" lon="0.19856">
        <ele>1856.92</ele>
        <time>2014-03-21T15:34:44Z</time>
      </trkpt>
      <trkpt lat="42.84215" lon="0.19855">
        <ele>1858.85</ele>
        <time>2014-03-21T15:34:50Z</time>
      </trkpt>
      <trkpt lat="42.84212" lon="0.19855">
        <ele>1859.33</ele>
        <time>2014-03-21T15:34:54Z</time>
      </trkpt>
      <trkpt lat="42.84203" lon="0.19851">
        <ele>1858.85</ele>
        <time>2014-03-21T15:35:01Z</time>
      </trkpt>
      <trkpt lat="42.84203" lon="0.19853">
        <ele>1858.37</ele>
        <time>2014-03-21T15:35:04Z</time>
      </trkpt>
      <trkpt lat="42.84202" lon="0.19856">
        <ele>1857.89</ele>
        <time>2014-03-21T15:35:10Z</time>
      </trkpt>
      <trkpt lat="42.84198" lon="0.19862">
        <ele>1858.37</ele>
        <time>2014-03-21T15:35:17Z</time>
      </trkpt>
      <trkpt lat="42.84195" lon="0.19864">
        <ele>1858.37</ele>
        <time>2014-03-21T15:35:24Z</time>
      </trkpt>
      <trkpt lat="42.84193" lon="0.19865">
        <ele>1858.37</ele>
        <time>2014-03-21T15:35:28Z</time>
      </trkpt>
      <trkpt lat="42.84191" lon="0.19866">
        <ele>1858.85</ele>
        <time>2014-03-21T15:35:33Z</time>
      </trkpt>
      <trkpt lat="42.8419" lon="0.19867">
        <ele>1858.85</ele>
        <time>2014-03-21T15:35:36Z</time>
      </trkpt>
      <trkpt lat="42.84188" lon="0.19868">
        <ele>1858.85</ele>
        <time>2014-03-21T15:35:39Z</time>
      </trkpt>
      <trkpt lat="42.84187" lon="0.19872">
        <ele>1858.37</ele>
        <time>2014-03-21T15:35:44Z</time>
      </trkpt>
      <trkpt lat="42.84188" lon="0.19875">
        <ele>1857.4</ele>
        <time>2014-03-21T15:35:51Z</time>
      </trkpt>
      <trkpt lat="42.84187" lon="0.19879">
        <ele>1857.4</ele>
        <time>2014-03-21T15:35:58Z</time>
      </trkpt>
      <trkpt lat="42.84185" lon="0.19884">
        <ele>1857.4</ele>
        <time>2014-03-21T15:36:05Z</time>
      </trkpt>
      <trkpt lat="42.84183" lon="0.19887">
        <ele>1857.4</ele>
        <time>2014-03-21T15:36:12Z</time>
      </trkpt>
      <trkpt lat="42.84182" lon="0.1989">
        <ele>1857.89</ele>
        <time>2014-03-21T15:36:16Z</time>
      </trkpt>
      <trkpt lat="42.84182" lon="0.19891">
        <ele>1858.37</ele>
        <time>2014-03-21T15:36:21Z</time>
      </trkpt>
      <trkpt lat="42.8418" lon="0.19895">
        <ele>1858.85</ele>
        <time>2014-03-21T15:36:26Z</time>
      </trkpt>
      <trkpt lat="42.84178" lon="0.19898">
        <ele>1860.29</ele>
        <time>2014-03-21T15:36:32Z</time>
      </trkpt>
      <trkpt lat="42.84178" lon="0.19901">
        <ele>1861.25</ele>
        <time>2014-03-21T15:36:36Z</time>
      </trkpt>
      <trkpt lat="42.84177" lon="0.19903">
        <ele>1860.77</ele>
        <time>2014-03-21T15:36:43Z</time>
      </trkpt>
      <trkpt lat="42.84177" lon="0.19905">
        <ele>1861.25</ele>
        <time>2014-03-21T15:36:45Z</time>
      </trkpt>
      <trkpt lat="42.84176" lon="0.19908">
        <ele>1861.73</ele>
        <time>2014-03-21T15:36:50Z</time>
      </trkpt>
      <trkpt lat="42.84176" lon="0.19907">
        <ele>1860.77</ele>
        <time>2014-03-21T15:36:55Z</time>
      </trkpt>
      <trkpt lat="42.84176" lon="0.19907">
        <ele>1859.33</ele>
        <time>2014-03-21T15:37:06Z</time>
      </trkpt>
      <trkpt lat="42.84176" lon="0.19907">
        <ele>1860.29</ele>
        <time>2014-03-21T15:37:20Z</time>
      </trkpt>
      <trkpt lat="42.84175" lon="0.19906">
        <ele>1860.29</ele>
        <time>2014-03-21T15:37:38Z</time>
      </trkpt>
      <trkpt lat="42.84175" lon="0.19906">
        <ele>1861.25</ele>
        <time>2014-03-21T15:37:54Z</time>
      </trkpt>
      <trkpt lat="42.84176" lon="0.19906">
        <ele>1860.77</ele>
        <time>2014-03-21T15:38:08Z</time>
      </trkpt>
      <trkpt lat="42.84176" lon="0.19906">
        <ele>1860.77</ele>
        <time>2014-03-21T15:38:19Z</time>
      </trkpt>
      <trkpt lat="42.84176" lon="0.19905">
        <ele>1861.73</ele>
        <time>2014-03-21T15:38:31Z</time>
      </trkpt>
      <trkpt lat="42.84176" lon="0.19906">
        <ele>1861.25</ele>
        <time>2014-03-21T15:38:43Z</time>
      </trkpt>
      <trkpt lat="42.84175" lon="0.19905">
        <ele>1861.25</ele>
        <time>2014-03-21T15:38:51Z</time>
      </trkpt>
      <trkpt lat="42.84176" lon="0.19906">
        <ele>1861.25</ele>
        <time>2014-03-21T15:38:59Z</time>
      </trkpt>
      <trkpt lat="42.84176" lon="0.19905">
        <ele>1860.29</ele>
        <time>2014-03-21T15:39:12Z</time>
      </trkpt>
      <trkpt lat="42.84176" lon="0.19906">
        <ele>1860.77</ele>
        <time>2014-03-21T15:39:22Z</time>
      </trkpt>
      <trkpt lat="42.84176" lon="0.19906">
        <ele>1860.29</ele>
        <time>2014-03-21T15:39:34Z</time>
      </trkpt>
      <trkpt lat="42.84176" lon="0.19906">
        <ele>1859.81</ele>
        <time>2014-03-21T15:39:53Z</time>
      </trkpt>
      <trkpt lat="42.84176" lon="0.19906">
        <ele>1859.81</ele>
        <time>2014-03-21T15:40:04Z</time>
      </trkpt>
      <trkpt lat="42.84177" lon="0.19907">
        <ele>1859.33</ele>
        <time>2014-03-21T15:40:10Z</time>
      </trkpt>
      <trkpt lat="42.84176" lon="0.19907">
        <ele>1859.81</ele>
        <time>2014-03-21T15:40:15Z</time>
      </trkpt>
      <trkpt lat="42.84178" lon="0.19906">
        <ele>1860.77</ele>
        <time>2014-03-21T15:40:19Z</time>
      </trkpt>
      <trkpt lat="42.84179" lon="0.19906">
        <ele>1861.25</ele>
        <time>2014-03-21T15:40:29Z</time>
      </trkpt>
      <trkpt lat="42.84179" lon="0.19907">
        <ele>1860.77</ele>
        <time>2014-03-21T15:40:34Z</time>
      </trkpt>
      <trkpt lat="42.84178" lon="0.19906">
        <ele>1860.77</ele>
        <time>2014-03-21T15:40:40Z</time>
      </trkpt>
      <trkpt lat="42.84175" lon="0.19909">
        <ele>1860.77</ele>
        <time>2014-03-21T15:40:46Z</time>
      </trkpt>
      <trkpt lat="42.84172" lon="0.19911">
        <ele>1860.77</ele>
        <time>2014-03-21T15:40:52Z</time>
      </trkpt>
      <trkpt lat="42.84171" lon="0.19912">
        <ele>1861.73</ele>
        <time>2014-03-21T15:41:00Z</time>
      </trkpt>
      <trkpt lat="42.84164" lon="0.19924">
        <ele>1861.25</ele>
        <time>2014-03-21T15:41:07Z</time>
      </trkpt>
      <trkpt lat="42.84158" lon="0.19934">
        <ele>1861.73</ele>
        <time>2014-03-21T15:41:13Z</time>
      </trkpt>
      <trkpt lat="42.84157" lon="0.19935">
        <ele>1861.73</ele>
        <time>2014-03-21T15:41:14Z</time>
      </trkpt>
      <trkpt lat="42.84145" lon="0.19949">
        <ele>1862.21</ele>
        <time>2014-03-21T15:41:23Z</time>
      </trkpt>
      <trkpt lat="42.84142" lon="0.19958">
        <ele>1862.69</ele>
        <time>2014-03-21T15:41:29Z</time>
      </trkpt>
      <trkpt lat="42.84139" lon="0.19961">
        <ele>1862.69</ele>
        <time>2014-03-21T15:41:35Z</time>
      </trkpt>
      <trkpt lat="42.84137" lon="0.19963">
        <ele>1862.21</ele>
        <time>2014-03-21T15:41:41Z</time>
      </trkpt>
      <trkpt lat="42.84136" lon="0.19964">
        <ele>1862.21</ele>
        <time>2014-03-21T15:41:42Z</time>
      </trkpt>
      <trkpt lat="42.84135" lon="0.19965">
        <ele>1861.73</ele>
        <time>2014-03-21T15:41:47Z</time>
      </trkpt>
      <trkpt lat="42.84135" lon="0.19966">
        <ele>1861.73</ele>
        <time>2014-03-21T15:41:49Z</time>
      </trkpt>
      <trkpt lat="42.84134" lon="0.19967">
        <ele>1862.21</ele>
        <time>2014-03-21T15:41:54Z</time>
      </trkpt>
      <trkpt lat="42.84134" lon="0.19967">
        <ele>1863.17</ele>
        <time>2014-03-21T15:42:03Z</time>
      </trkpt>
      <trkpt lat="42.84133" lon="0.1997">
        <ele>1863.17</ele>
        <time>2014-03-21T15:42:07Z</time>
      </trkpt>
      <trkpt lat="42.84132" lon="0.19973">
        <ele>1864.13</ele>
        <time>2014-03-21T15:42:13Z</time>
      </trkpt>
      <trkpt lat="42.8413" lon="0.19973">
        <ele>1864.13</ele>
        <time>2014-03-21T15:42:23Z</time>
      </trkpt>
      <trkpt lat="42.84128" lon="0.19975">
        <ele>1864.61</ele>
        <time>2014-03-21T15:42:29Z</time>
      </trkpt>
      <trkpt lat="42.84127" lon="0.19976">
        <ele>1865.58</ele>
        <time>2014-03-21T15:42:34Z</time>
      </trkpt>
      <trkpt lat="42.84126" lon="0.19979">
        <ele>1866.06</ele>
        <time>2014-03-21T15:42:40Z</time>
      </trkpt>
      <trkpt lat="42.84125" lon="0.1998">
        <ele>1866.06</ele>
        <time>2014-03-21T15:42:43Z</time>
      </trkpt>
      <trkpt lat="42.8412" lon="0.19978">
        <ele>1866.54</ele>
        <time>2014-03-21T15:42:50Z</time>
      </trkpt>
      <trkpt lat="42.8412" lon="0.19979">
        <ele>1865.58</ele>
        <time>2014-03-21T15:42:55Z</time>
      </trkpt>
      <trkpt lat="42.84121" lon="0.1998">
        <ele>1864.61</ele>
        <time>2014-03-21T15:43:01Z</time>
      </trkpt>
      <trkpt lat="42.84121" lon="0.1998">
        <ele>1864.13</ele>
        <time>2014-03-21T15:43:07Z</time>
      </trkpt>
      <trkpt lat="42.84121" lon="0.1998">
        <ele>1863.65</ele>
        <time>2014-03-21T15:43:18Z</time>
      </trkpt>
      <trkpt lat="42.8412" lon="0.1998">
        <ele>1863.65</ele>
        <time>2014-03-21T15:43:26Z</time>
      </trkpt>
      <trkpt lat="42.8412" lon="0.19981">
        <ele>1863.65</ele>
        <time>2014-03-21T15:43:33Z</time>
      </trkpt>
      <trkpt lat="42.84119" lon="0.19981">
        <ele>1863.17</ele>
        <time>2014-03-21T15:43:39Z</time>
      </trkpt>
      <trkpt lat="42.84118" lon="0.19981">
        <ele>1863.17</ele>
        <time>2014-03-21T15:43:44Z</time>
      </trkpt>
      <trkpt lat="42.84117" lon="0.19981">
        <ele>1864.13</ele>
        <time>2014-03-21T15:43:53Z</time>
      </trkpt>
      <trkpt lat="42.84116" lon="0.1998">
        <ele>1862.69</ele>
        <time>2014-03-21T15:44:10Z</time>
      </trkpt>
      <trkpt lat="42.84116" lon="0.1998">
        <ele>1862.69</ele>
        <time>2014-03-21T15:44:25Z</time>
      </trkpt>
      <trkpt lat="42.84116" lon="0.19979">
        <ele>1863.17</ele>
        <time>2014-03-21T15:44:38Z</time>
      </trkpt>
      <trkpt lat="42.84116" lon="0.19978">
        <ele>1863.17</ele>
        <time>2014-03-21T15:44:59Z</time>
      </trkpt>
      <trkpt lat="42.84115" lon="0.19978">
        <ele>1863.65</ele>
        <time>2014-03-21T15:45:16Z</time>
      </trkpt>
      <trkpt lat="42.84114" lon="0.19978">
        <ele>1864.13</ele>
        <time>2014-03-21T15:45:21Z</time>
      </trkpt>
      <trkpt lat="42.84113" lon="0.19978">
        <ele>1864.13</ele>
        <time>2014-03-21T15:45:31Z</time>
      </trkpt>
      <trkpt lat="42.84113" lon="0.19979">
        <ele>1864.13</ele>
        <time>2014-03-21T15:45:33Z</time>
      </trkpt>
      <trkpt lat="42.84107" lon="0.19981">
        <ele>1864.13</ele>
        <time>2014-03-21T15:45:39Z</time>
      </trkpt>
      <trkpt lat="42.84107" lon="0.19981">
        <ele>1865.09</ele>
        <time>2014-03-21T15:45:51Z</time>
      </trkpt>
      <trkpt lat="42.84106" lon="0.1998">
        <ele>1864.61</ele>
        <time>2014-03-21T15:46:03Z</time>
      </trkpt>
      <trkpt lat="42.84103" lon="0.19975">
        <ele>1864.13</ele>
        <time>2014-03-21T15:46:08Z</time>
      </trkpt>
      <trkpt lat="42.84104" lon="0.19975">
        <ele>1863.65</ele>
        <time>2014-03-21T15:46:13Z</time>
      </trkpt>
      <trkpt lat="42.84104" lon="0.19975">
        <ele>1862.69</ele>
        <time>2014-03-21T15:46:20Z</time>
      </trkpt>
      <trkpt lat="42.84104" lon="0.19973">
        <ele>1862.21</ele>
        <time>2014-03-21T15:46:25Z</time>
      </trkpt>
      <trkpt lat="42.84103" lon="0.19973">
        <ele>1862.21</ele>
        <time>2014-03-21T15:46:31Z</time>
      </trkpt>
      <trkpt lat="42.841" lon="0.19974">
        <ele>1862.69</ele>
        <time>2014-03-21T15:46:36Z</time>
      </trkpt>
      <trkpt lat="42.84099" lon="0.19974">
        <ele>1861.73</ele>
        <time>2014-03-21T15:46:42Z</time>
      </trkpt>
      <trkpt lat="42.84096" lon="0.19972">
        <ele>1861.25</ele>
        <time>2014-03-21T15:46:50Z</time>
      </trkpt>
      <trkpt lat="42.84093" lon="0.1997">
        <ele>1860.77</ele>
        <time>2014-03-21T15:46:54Z</time>
      </trkpt>
      <trkpt lat="42.84089" lon="0.19966">
        <ele>1860.29</ele>
        <time>2014-03-21T15:46:58Z</time>
      </trkpt>
      <trkpt lat="42.84085" lon="0.19958">
        <ele>1859.33</ele>
        <time>2014-03-21T15:47:03Z</time>
      </trkpt>
      <trkpt lat="42.84083" lon="0.19945">
        <ele>1858.85</ele>
        <time>2014-03-21T15:47:07Z</time>
      </trkpt>
      <trkpt lat="42.84083" lon="0.19945">
        <ele>1858.37</ele>
        <time>2014-03-21T15:47:11Z</time>
      </trkpt>
      <trkpt lat="42.84081" lon="0.19945">
        <ele>1856.92</ele>
        <time>2014-03-21T15:47:16Z</time>
      </trkpt>
      <trkpt lat="42.8408" lon="0.19945">
        <ele>1856.44</ele>
        <time>2014-03-21T15:47:21Z</time>
      </trkpt>
      <trkpt lat="42.84072" lon="0.19948">
        <ele>1856.44</ele>
        <time>2014-03-21T15:47:28Z</time>
      </trkpt>
      <trkpt lat="42.84072" lon="0.19949">
        <ele>1856.92</ele>
        <time>2014-03-21T15:47:36Z</time>
      </trkpt>
      <trkpt lat="42.84071" lon="0.19951">
        <ele>1856.92</ele>
        <time>2014-03-21T15:47:51Z</time>
      </trkpt>
      <trkpt lat="42.84071" lon="0.19951">
        <ele>1856.92</ele>
        <time>2014-03-21T15:47:59Z</time>
      </trkpt>
      <trkpt lat="42.84071" lon="0.19951">
        <ele>1857.4</ele>
        <time>2014-03-21T15:48:15Z</time>
      </trkpt>
      <trkpt lat="42.84071" lon="0.19951">
        <ele>1857.4</ele>
        <time>2014-03-21T15:48:24Z</time>
      </trkpt>
      <trkpt lat="42.84071" lon="0.19951">
        <ele>1857.89</ele>
        <time>2014-03-21T15:48:45Z</time>
      </trkpt>
      <trkpt lat="42.8407" lon="0.19951">
        <ele>1857.89</ele>
        <time>2014-03-21T15:49:03Z</time>
      </trkpt>
      <trkpt lat="42.84071" lon="0.19952">
        <ele>1858.37</ele>
        <time>2014-03-21T15:49:17Z</time>
      </trkpt>
      <trkpt lat="42.84071" lon="0.19953">
        <ele>1858.37</ele>
        <time>2014-03-21T15:49:35Z</time>
      </trkpt>
      <trkpt lat="42.84071" lon="0.19953">
        <ele>1858.37</ele>
        <time>2014-03-21T15:49:49Z</time>
      </trkpt>
      <trkpt lat="42.84071" lon="0.19953">
        <ele>1858.37</ele>
        <time>2014-03-21T15:49:56Z</time>
      </trkpt>
      <trkpt lat="42.84068" lon="0.19956">
        <ele>1858.37</ele>
        <time>2014-03-21T15:50:01Z</time>
      </trkpt>
      <trkpt lat="42.84068" lon="0.19956">
        <ele>1858.37</ele>
        <time>2014-03-21T15:50:02Z</time>
      </trkpt>
      <trkpt lat="42.84067" lon="0.19955">
        <ele>1858.37</ele>
        <time>2014-03-21T15:50:04Z</time>
      </trkpt>
      <trkpt lat="42.84064" lon="0.19954">
        <ele>1858.85</ele>
        <time>2014-03-21T15:50:10Z</time>
      </trkpt>
      <trkpt lat="42.84064" lon="0.19954">
        <ele>1858.37</ele>
        <time>2014-03-21T15:50:15Z</time>
      </trkpt>
      <trkpt lat="42.84062" lon="0.19954">
        <ele>1858.85</ele>
        <time>2014-03-21T15:50:20Z</time>
      </trkpt>
      <trkpt lat="42.84061" lon="0.19956">
        <ele>1859.81</ele>
        <time>2014-03-21T15:50:25Z</time>
      </trkpt>
      <trkpt lat="42.84062" lon="0.19956">
        <ele>1859.81</ele>
        <time>2014-03-21T15:50:27Z</time>
      </trkpt>
      <trkpt lat="42.84063" lon="0.19959">
        <ele>1859.81</ele>
        <time>2014-03-21T15:50:32Z</time>
      </trkpt>
      <trkpt lat="42.84063" lon="0.19961">
        <ele>1859.81</ele>
        <time>2014-03-21T15:50:40Z</time>
      </trkpt>
      <trkpt lat="42.84063" lon="0.19962">
        <ele>1859.33</ele>
        <time>2014-03-21T15:50:45Z</time>
      </trkpt>
      <trkpt lat="42.84064" lon="0.19963">
        <ele>1859.81</ele>
        <time>2014-03-21T15:50:50Z</time>
      </trkpt>
      <trkpt lat="42.84064" lon="0.19964">
        <ele>1860.29</ele>
        <time>2014-03-21T15:50:56Z</time>
      </trkpt>
      <trkpt lat="42.84063" lon="0.19964">
        <ele>1858.85</ele>
        <time>2014-03-21T15:51:12Z</time>
      </trkpt>
      <trkpt lat="42.84063" lon="0.19964">
        <ele>1856.44</ele>
        <time>2014-03-21T15:51:33Z</time>
      </trkpt>
      <trkpt lat="42.84063" lon="0.19964">
        <ele>1856.44</ele>
        <time>2014-03-21T15:51:50Z</time>
      </trkpt>
      <trkpt lat="42.84063" lon="0.19964">
        <ele>1855.48</ele>
        <time>2014-03-21T15:52:07Z</time>
      </trkpt>
      <trkpt lat="42.84064" lon="0.19963">
        <ele>1855.48</ele>
        <time>2014-03-21T15:52:24Z</time>
      </trkpt>
      <trkpt lat="42.84064" lon="0.19963">
        <ele>1855.96</ele>
        <time>2014-03-21T15:52:33Z</time>
      </trkpt>
      <trkpt lat="42.84064" lon="0.19964">
        <ele>1856.44</ele>
        <time>2014-03-21T15:52:39Z</time>
      </trkpt>
      <trkpt lat="42.84064" lon="0.19965">
        <ele>1856.44</ele>
        <time>2014-03-21T15:52:45Z</time>
      </trkpt>
      <trkpt lat="42.84065" lon="0.19965">
        <ele>1856.92</ele>
        <time>2014-03-21T15:52:55Z</time>
      </trkpt>
      <trkpt lat="42.84066" lon="0.19967">
        <ele>1856.92</ele>
        <time>2014-03-21T15:53:00Z</time>
      </trkpt>
      <trkpt lat="42.84066" lon="0.19967">
        <ele>1855.96</ele>
        <time>2014-03-21T15:53:07Z</time>
      </trkpt>
      <trkpt lat="42.84066" lon="0.19967">
        <ele>1856.44</ele>
        <time>2014-03-21T15:53:13Z</time>
      </trkpt>
      <trkpt lat="42.84066" lon="0.19967">
        <ele>1855.48</ele>
        <time>2014-03-21T15:53:22Z</time>
      </trkpt>
      <trkpt lat="42.84066" lon="0.19967">
        <ele>1855.48</ele>
        <time>2014-03-21T15:53:28Z</time>
      </trkpt>
      <trkpt lat="42.84066" lon="0.19968">
        <ele>1855.48</ele>
        <time>2014-03-21T15:53:38Z</time>
      </trkpt>
      <trkpt lat="42.84066" lon="0.19968">
        <ele>1855.96</ele>
        <time>2014-03-21T15:53:49Z</time>
      </trkpt>
      <trkpt lat="42.84066" lon="0.19968">
        <ele>1855.96</ele>
        <time>2014-03-21T15:54:02Z</time>
      </trkpt>
      <trkpt lat="42.84066" lon="0.19968">
        <ele>1855.96</ele>
        <time>2014-03-21T15:54:12Z</time>
      </trkpt>
      <trkpt lat="42.84066" lon="0.19969">
        <ele>1856.44</ele>
        <time>2014-03-21T15:54:20Z</time>
      </trkpt>
      <trkpt lat="42.84066" lon="0.19969">
        <ele>1856.92</ele>
        <time>2014-03-21T15:54:29Z</time>
      </trkpt>
      <trkpt lat="42.84065" lon="0.1997">
        <ele>1857.4</ele>
        <time>2014-03-21T15:54:37Z</time>
      </trkpt>
      <trkpt lat="42.84063" lon="0.19972">
        <ele>1857.89</ele>
        <time>2014-03-21T15:54:42Z</time>
      </trkpt>
      <trkpt lat="42.84063" lon="0.19973">
        <ele>1858.37</ele>
        <time>2014-03-21T15:54:48Z</time>
      </trkpt>
      <trkpt lat="42.84063" lon="0.19973">
        <ele>1857.89</ele>
        <time>2014-03-21T15:54:56Z</time>
      </trkpt>
      <trkpt lat="42.84063" lon="0.19974">
        <ele>1857.89</ele>
        <time>2014-03-21T15:55:04Z</time>
      </trkpt>
      <trkpt lat="42.84062" lon="0.19974">
        <ele>1858.37</ele>
        <time>2014-03-21T15:55:10Z</time>
      </trkpt>
      <trkpt lat="42.84058" lon="0.19971">
        <ele>1859.33</ele>
        <time>2014-03-21T15:55:17Z</time>
      </trkpt>
      <trkpt lat="42.84057" lon="0.1997">
        <ele>1859.33</ele>
        <time>2014-03-21T15:55:23Z</time>
      </trkpt>
      <trkpt lat="42.84057" lon="0.1997">
        <ele>1859.33</ele>
        <time>2014-03-21T15:55:28Z</time>
      </trkpt>
      <trkpt lat="42.84059" lon="0.19971">
        <ele>1859.33</ele>
        <time>2014-03-21T15:55:36Z</time>
      </trkpt>
      <trkpt lat="42.84059" lon="0.19971">
        <ele>1860.29</ele>
        <time>2014-03-21T15:55:50Z</time>
      </trkpt>
      <trkpt lat="42.84059" lon="0.19969">
        <ele>1860.29</ele>
        <time>2014-03-21T15:56:08Z</time>
      </trkpt>
      <trkpt lat="42.84059" lon="0.19969">
        <ele>1859.33</ele>
        <time>2014-03-21T15:56:22Z</time>
      </trkpt>
      <trkpt lat="42.84059" lon="0.1997">
        <ele>1858.85</ele>
        <time>2014-03-21T15:56:41Z</time>
      </trkpt>
      <trkpt lat="42.84058" lon="0.1997">
        <ele>1858.85</ele>
        <time>2014-03-21T15:56:52Z</time>
      </trkpt>
      <trkpt lat="42.84058" lon="0.19969">
        <ele>1858.85</ele>
        <time>2014-03-21T15:57:02Z</time>
      </trkpt>
      <trkpt lat="42.84057" lon="0.19969">
        <ele>1859.33</ele>
        <time>2014-03-21T15:57:13Z</time>
      </trkpt>
      <trkpt lat="42.84051" lon="0.19971">
        <ele>1858.85</ele>
        <time>2014-03-21T15:57:17Z</time>
      </trkpt>
      <trkpt lat="42.84042" lon="0.19975">
        <ele>1857.89</ele>
        <time>2014-03-21T15:57:25Z</time>
      </trkpt>
      <trkpt lat="42.84039" lon="0.19976">
        <ele>1857.89</ele>
        <time>2014-03-21T15:57:32Z</time>
      </trkpt>
      <trkpt lat="42.84037" lon="0.19976">
        <ele>1858.37</ele>
        <time>2014-03-21T15:57:38Z</time>
      </trkpt>
      <trkpt lat="42.84036" lon="0.19973">
        <ele>1858.37</ele>
        <time>2014-03-21T15:57:47Z</time>
      </trkpt>
      <trkpt lat="42.84036" lon="0.19972">
        <ele>1857.89</ele>
        <time>2014-03-21T15:57:53Z</time>
      </trkpt>
      <trkpt lat="42.84036" lon="0.19972">
        <ele>1857.89</ele>
        <time>2014-03-21T15:58:06Z</time>
      </trkpt>
      <trkpt lat="42.84035" lon="0.19972">
        <ele>1858.85</ele>
        <time>2014-03-21T15:58:19Z</time>
      </trkpt>
      <trkpt lat="42.84034" lon="0.19971">
        <ele>1858.37</ele>
        <time>2014-03-21T15:58:27Z</time>
      </trkpt>
      <trkpt lat="42.84034" lon="0.19962">
        <ele>1857.89</ele>
        <time>2014-03-21T15:58:29Z</time>
      </trkpt>
      <trkpt lat="42.84036" lon="0.19942">
        <ele>1854.52</ele>
        <time>2014-03-21T15:58:33Z</time>
      </trkpt>
      <trkpt lat="42.84024" lon="0.1993">
        <ele>1850.19</ele>
        <time>2014-03-21T15:58:37Z</time>
      </trkpt>
      <trkpt lat="42.84019" lon="0.19924">
        <ele>1848.75</ele>
        <time>2014-03-21T15:58:38Z</time>
      </trkpt>
      <trkpt lat="42.84005" lon="0.19917">
        <ele>1844.43</ele>
        <time>2014-03-21T15:58:42Z</time>
      </trkpt>
      <trkpt lat="42.84003" lon="0.19931">
        <ele>1841.06</ele>
        <time>2014-03-21T15:58:49Z</time>
      </trkpt>
      <trkpt lat="42.84003" lon="0.19937">
        <ele>1840.58</ele>
        <time>2014-03-21T15:58:51Z</time>
      </trkpt>
      <trkpt lat="42.83991" lon="0.19949">
        <ele>1838.18</ele>
        <time>2014-03-21T15:58:56Z</time>
      </trkpt>
      <trkpt lat="42.83987" lon="0.19951">
        <ele>1838.18</ele>
        <time>2014-03-21T15:58:58Z</time>
      </trkpt>
      <trkpt lat="42.8398" lon="0.19956">
        <ele>1838.18</ele>
        <time>2014-03-21T15:59:03Z</time>
      </trkpt>
      <trkpt lat="42.83976" lon="0.19958">
        <ele>1838.18</ele>
        <time>2014-03-21T15:59:08Z</time>
      </trkpt>
      <trkpt lat="42.83974" lon="0.19957">
        <ele>1838.66</ele>
        <time>2014-03-21T15:59:12Z</time>
      </trkpt>
      <trkpt lat="42.83971" lon="0.19958">
        <ele>1838.18</ele>
        <time>2014-03-21T15:59:16Z</time>
      </trkpt>
      <trkpt lat="42.83966" lon="0.19959">
        <ele>1838.18</ele>
        <time>2014-03-21T15:59:20Z</time>
      </trkpt>
      <trkpt lat="42.8396" lon="0.1996">
        <ele>1838.66</ele>
        <time>2014-03-21T15:59:24Z</time>
      </trkpt>
      <trkpt lat="42.83958" lon="0.19961">
        <ele>1838.18</ele>
        <time>2014-03-21T15:59:27Z</time>
      </trkpt>
      <trkpt lat="42.83954" lon="0.19961">
        <ele>1838.66</ele>
        <time>2014-03-21T15:59:31Z</time>
      </trkpt>
      <trkpt lat="42.83951" lon="0.19961">
        <ele>1838.66</ele>
        <time>2014-03-21T15:59:34Z</time>
      </trkpt>
      <trkpt lat="42.83945" lon="0.19961">
        <ele>1838.66</ele>
        <time>2014-03-21T15:59:39Z</time>
      </trkpt>
      <trkpt lat="42.83944" lon="0.19961">
        <ele>1838.66</ele>
        <time>2014-03-21T15:59:40Z</time>
      </trkpt>
      <trkpt lat="42.83941" lon="0.19959">
        <ele>1839.14</ele>
        <time>2014-03-21T15:59:45Z</time>
      </trkpt>
      <trkpt lat="42.83937" lon="0.1996">
        <ele>1839.14</ele>
        <time>2014-03-21T15:59:52Z</time>
      </trkpt>
      <trkpt lat="42.83933" lon="0.1996">
        <ele>1839.62</ele>
        <time>2014-03-21T15:59:56Z</time>
      </trkpt>
      <trkpt lat="42.8393" lon="0.19959">
        <ele>1839.14</ele>
        <time>2014-03-21T16:00:02Z</time>
      </trkpt>
      <trkpt lat="42.83926" lon="0.1996">
        <ele>1839.62</ele>
        <time>2014-03-21T16:00:08Z</time>
      </trkpt>
      <trkpt lat="42.83923" lon="0.19961">
        <ele>1839.62</ele>
        <time>2014-03-21T16:00:12Z</time>
      </trkpt>
      <trkpt lat="42.83916" lon="0.1996">
        <ele>1840.1</ele>
        <time>2014-03-21T16:00:17Z</time>
      </trkpt>
      <trkpt lat="42.8391" lon="0.19962">
        <ele>1839.62</ele>
        <time>2014-03-21T16:00:24Z</time>
      </trkpt>
      <trkpt lat="42.83907" lon="0.19963">
        <ele>1839.14</ele>
        <time>2014-03-21T16:00:29Z</time>
      </trkpt>
      <trkpt lat="42.83906" lon="0.19964">
        <ele>1839.14</ele>
        <time>2014-03-21T16:00:30Z</time>
      </trkpt>
      <trkpt lat="42.83898" lon="0.19966">
        <ele>1839.14</ele>
        <time>2014-03-21T16:00:38Z</time>
      </trkpt>
      <trkpt lat="42.83894" lon="0.19968">
        <ele>1839.14</ele>
        <time>2014-03-21T16:00:46Z</time>
      </trkpt>
      <trkpt lat="42.8389" lon="0.19969">
        <ele>1839.14</ele>
        <time>2014-03-21T16:00:54Z</time>
      </trkpt>
      <trkpt lat="42.83891" lon="0.1997">
        <ele>1838.66</ele>
        <time>2014-03-21T16:01:03Z</time>
      </trkpt>
      <trkpt lat="42.83892" lon="0.19971">
        <ele>1838.66</ele>
        <time>2014-03-21T16:01:18Z</time>
      </trkpt>
      <trkpt lat="42.83892" lon="0.19971">
        <ele>1838.66</ele>
        <time>2014-03-21T16:01:37Z</time>
      </trkpt>
      <trkpt lat="42.83892" lon="0.19971">
        <ele>1838.66</ele>
        <time>2014-03-21T16:01:55Z</time>
      </trkpt>
      <trkpt lat="42.83891" lon="0.19972">
        <ele>1838.66</ele>
        <time>2014-03-21T16:02:12Z</time>
      </trkpt>
      <trkpt lat="42.83886" lon="0.19973">
        <ele>1838.18</ele>
        <time>2014-03-21T16:02:22Z</time>
      </trkpt>
      <trkpt lat="42.83876" lon="0.19976">
        <ele>1837.7</ele>
        <time>2014-03-21T16:02:31Z</time>
      </trkpt>
      <trkpt lat="42.83866" lon="0.19983">
        <ele>1837.7</ele>
        <time>2014-03-21T16:02:41Z</time>
      </trkpt>
      <trkpt lat="42.83865" lon="0.19986">
        <ele>1838.18</ele>
        <time>2014-03-21T16:02:47Z</time>
      </trkpt>
      <trkpt lat="42.83863" lon="0.19988">
        <ele>1837.7</ele>
        <time>2014-03-21T16:02:57Z</time>
      </trkpt>
      <trkpt lat="42.8386" lon="0.1999">
        <ele>1838.18</ele>
        <time>2014-03-21T16:03:06Z</time>
      </trkpt>
      <trkpt lat="42.83859" lon="0.19992">
        <ele>1837.7</ele>
        <time>2014-03-21T16:03:17Z</time>
      </trkpt>
      <trkpt lat="42.83857" lon="0.19995">
        <ele>1837.22</ele>
        <time>2014-03-21T16:03:24Z</time>
      </trkpt>
      <trkpt lat="42.83851" lon="0.20001">
        <ele>1837.7</ele>
        <time>2014-03-21T16:03:34Z</time>
      </trkpt>
      <trkpt lat="42.83847" lon="0.20007">
        <ele>1838.18</ele>
        <time>2014-03-21T16:03:42Z</time>
      </trkpt>
      <trkpt lat="42.83846" lon="0.20009">
        <ele>1838.66</ele>
        <time>2014-03-21T16:03:49Z</time>
      </trkpt>
      <trkpt lat="42.83844" lon="0.20011">
        <ele>1838.66</ele>
        <time>2014-03-21T16:03:55Z</time>
      </trkpt>
      <trkpt lat="42.83841" lon="0.20014">
        <ele>1839.14</ele>
        <time>2014-03-21T16:04:01Z</time>
      </trkpt>
      <trkpt lat="42.83838" lon="0.20016">
        <ele>1839.62</ele>
        <time>2014-03-21T16:04:07Z</time>
      </trkpt>
      <trkpt lat="42.83834" lon="0.2002">
        <ele>1839.14</ele>
        <time>2014-03-21T16:04:14Z</time>
      </trkpt>
      <trkpt lat="42.83829" lon="0.20024">
        <ele>1838.66</ele>
        <time>2014-03-21T16:04:22Z</time>
      </trkpt>
      <trkpt lat="42.83825" lon="0.20026">
        <ele>1839.14</ele>
        <time>2014-03-21T16:04:29Z</time>
      </trkpt>
      <trkpt lat="42.83822" lon="0.20029">
        <ele>1839.62</ele>
        <time>2014-03-21T16:04:36Z</time>
      </trkpt>
      <trkpt lat="42.83818" lon="0.20033">
        <ele>1840.1</ele>
        <time>2014-03-21T16:04:44Z</time>
      </trkpt>
      <trkpt lat="42.8381" lon="0.20042">
        <ele>1838.66</ele>
        <time>2014-03-21T16:04:49Z</time>
      </trkpt>
      <trkpt lat="42.83796" lon="0.20046">
        <ele>1837.22</ele>
        <time>2014-03-21T16:04:52Z</time>
      </trkpt>
      <trkpt lat="42.83765" lon="0.20047">
        <ele>1834.33</ele>
        <time>2014-03-21T16:05:00Z</time>
      </trkpt>
      <trkpt lat="42.83737" lon="0.2005">
        <ele>1830.97</ele>
        <time>2014-03-21T16:05:06Z</time>
      </trkpt>
      <trkpt lat="42.83726" lon="0.2005">
        <ele>1830.01</ele>
        <time>2014-03-21T16:05:08Z</time>
      </trkpt>
      <trkpt lat="42.83705" lon="0.20052">
        <ele>1828.56</ele>
        <time>2014-03-21T16:05:13Z</time>
      </trkpt>
      <trkpt lat="42.83702" lon="0.20056">
        <ele>1828.56</ele>
        <time>2014-03-21T16:05:19Z</time>
      </trkpt>
      <trkpt lat="42.83702" lon="0.20056">
        <ele>1829.05</ele>
        <time>2014-03-21T16:05:24Z</time>
      </trkpt>
      <trkpt lat="42.83701" lon="0.20056">
        <ele>1829.05</ele>
        <time>2014-03-21T16:05:26Z</time>
      </trkpt>
      <trkpt lat="42.83694" lon="0.20056">
        <ele>1829.05</ele>
        <time>2014-03-21T16:05:35Z</time>
      </trkpt>
      <trkpt lat="42.83693" lon="0.20056">
        <ele>1829.53</ele>
        <time>2014-03-21T16:05:43Z</time>
      </trkpt>
      <trkpt lat="42.83689" lon="0.20057">
        <ele>1828.08</ele>
        <time>2014-03-21T16:06:01Z</time>
      </trkpt>
      <trkpt lat="42.83678" lon="0.20065">
        <ele>1827.12</ele>
        <time>2014-03-21T16:06:06Z</time>
      </trkpt>
      <trkpt lat="42.83677" lon="0.20066">
        <ele>1827.12</ele>
        <time>2014-03-21T16:06:08Z</time>
      </trkpt>
      <trkpt lat="42.83674" lon="0.20068">
        <ele>1827.12</ele>
        <time>2014-03-21T16:06:15Z</time>
      </trkpt>
      <trkpt lat="42.83674" lon="0.20068">
        <ele>1827.12</ele>
        <time>2014-03-21T16:06:17Z</time>
      </trkpt>
      <trkpt lat="42.83668" lon="0.20068">
        <ele>1826.64</ele>
        <time>2014-03-21T16:06:22Z</time>
      </trkpt>
      <trkpt lat="42.83667" lon="0.20067">
        <ele>1825.68</ele>
        <time>2014-03-21T16:06:26Z</time>
      </trkpt>
      <trkpt lat="42.83661" lon="0.20066">
        <ele>1823.76</ele>
        <time>2014-03-21T16:06:31Z</time>
      </trkpt>
      <trkpt lat="42.83661" lon="0.20067">
        <ele>1824.24</ele>
        <time>2014-03-21T16:06:41Z</time>
      </trkpt>
      <trkpt lat="42.83662" lon="0.20067">
        <ele>1823.76</ele>
        <time>2014-03-21T16:06:50Z</time>
      </trkpt>
      <trkpt lat="42.83661" lon="0.20066">
        <ele>1823.76</ele>
        <time>2014-03-21T16:06:58Z</time>
      </trkpt>
      <trkpt lat="42.83661" lon="0.20067">
        <ele>1824.24</ele>
        <time>2014-03-21T16:07:06Z</time>
      </trkpt>
      <trkpt lat="42.83662" lon="0.20067">
        <ele>1824.72</ele>
        <time>2014-03-21T16:07:13Z</time>
      </trkpt>
      <trkpt lat="42.8366" lon="0.20066">
        <ele>1823.76</ele>
        <time>2014-03-21T16:07:17Z</time>
      </trkpt>
      <trkpt lat="42.83655" lon="0.20068">
        <ele>1823.76</ele>
        <time>2014-03-21T16:07:23Z</time>
      </trkpt>
      <trkpt lat="42.83653" lon="0.20067">
        <ele>1823.28</ele>
        <time>2014-03-21T16:07:29Z</time>
      </trkpt>
      <trkpt lat="42.83652" lon="0.20068">
        <ele>1823.28</ele>
        <time>2014-03-21T16:07:34Z</time>
      </trkpt>
      <trkpt lat="42.83655" lon="0.2007">
        <ele>1821.84</ele>
        <time>2014-03-21T16:07:40Z</time>
      </trkpt>
      <trkpt lat="42.83653" lon="0.2007">
        <ele>1822.8</ele>
        <time>2014-03-21T16:07:45Z</time>
      </trkpt>
      <trkpt lat="42.83653" lon="0.2007">
        <ele>1822.8</ele>
        <time>2014-03-21T16:07:50Z</time>
      </trkpt>
      <trkpt lat="42.83653" lon="0.2007">
        <ele>1823.28</ele>
        <time>2014-03-21T16:07:58Z</time>
      </trkpt>
      <trkpt lat="42.8365" lon="0.20071">
        <ele>1822.8</ele>
        <time>2014-03-21T16:08:02Z</time>
      </trkpt>
      <trkpt lat="42.83647" lon="0.20074">
        <ele>1822.8</ele>
        <time>2014-03-21T16:08:09Z</time>
      </trkpt>
      <trkpt lat="42.83646" lon="0.20073">
        <ele>1823.28</ele>
        <time>2014-03-21T16:08:24Z</time>
      </trkpt>
      <trkpt lat="42.83646" lon="0.20072">
        <ele>1823.28</ele>
        <time>2014-03-21T16:08:41Z</time>
      </trkpt>
      <trkpt lat="42.83646" lon="0.20072">
        <ele>1823.76</ele>
        <time>2014-03-21T16:08:52Z</time>
      </trkpt>
      <trkpt lat="42.83645" lon="0.20074">
        <ele>1823.76</ele>
        <time>2014-03-21T16:09:01Z</time>
      </trkpt>
      <trkpt lat="42.83646" lon="0.20075">
        <ele>1823.76</ele>
        <time>2014-03-21T16:09:07Z</time>
      </trkpt>
      <trkpt lat="42.83645" lon="0.20076">
        <ele>1824.24</ele>
        <time>2014-03-21T16:09:19Z</time>
      </trkpt>
      <trkpt lat="42.83645" lon="0.20077">
        <ele>1824.72</ele>
        <time>2014-03-21T16:09:27Z</time>
      </trkpt>
      <trkpt lat="42.83645" lon="0.20076">
        <ele>1825.68</ele>
        <time>2014-03-21T16:09:39Z</time>
      </trkpt>
      <trkpt lat="42.83644" lon="0.20076">
        <ele>1825.2</ele>
        <time>2014-03-21T16:09:55Z</time>
      </trkpt>
      <trkpt lat="42.83644" lon="0.20077">
        <ele>1825.2</ele>
        <time>2014-03-21T16:10:06Z</time>
      </trkpt>
      <trkpt lat="42.83644" lon="0.20077">
        <ele>1825.2</ele>
        <time>2014-03-21T16:10:21Z</time>
      </trkpt>
      <trkpt lat="42.83643" lon="0.20076">
        <ele>1826.16</ele>
        <time>2014-03-21T16:10:41Z</time>
      </trkpt>
      <trkpt lat="42.83642" lon="0.20077">
        <ele>1825.68</ele>
        <time>2014-03-21T16:10:49Z</time>
      </trkpt>
      <trkpt lat="42.83639" lon="0.20081">
        <ele>1826.16</ele>
        <time>2014-03-21T16:10:55Z</time>
      </trkpt>
      <trkpt lat="42.83636" lon="0.20083">
        <ele>1825.68</ele>
        <time>2014-03-21T16:11:03Z</time>
      </trkpt>
      <trkpt lat="42.83636" lon="0.20084">
        <ele>1825.2</ele>
        <time>2014-03-21T16:11:10Z</time>
      </trkpt>
      <trkpt lat="42.83634" lon="0.20088">
        <ele>1825.68</ele>
        <time>2014-03-21T16:11:15Z</time>
      </trkpt>
      <trkpt lat="42.83629" lon="0.20092">
        <ele>1825.2</ele>
        <time>2014-03-21T16:11:22Z</time>
      </trkpt>
      <trkpt lat="42.83626" lon="0.20093">
        <ele>1825.68</ele>
        <time>2014-03-21T16:11:26Z</time>
      </trkpt>
      <trkpt lat="42.83621" lon="0.201">
        <ele>1825.2</ele>
        <time>2014-03-21T16:11:33Z</time>
      </trkpt>
      <trkpt lat="42.83623" lon="0.20108">
        <ele>1825.2</ele>
        <time>2014-03-21T16:11:40Z</time>
      </trkpt>
      <trkpt lat="42.83622" lon="0.2011">
        <ele>1826.16</ele>
        <time>2014-03-21T16:11:51Z</time>
      </trkpt>
      <trkpt lat="42.83622" lon="0.20109">
        <ele>1826.16</ele>
        <time>2014-03-21T16:12:00Z</time>
      </trkpt>
      <trkpt lat="42.83622" lon="0.20108">
        <ele>1826.16</ele>
        <time>2014-03-21T16:12:07Z</time>
      </trkpt>
      <trkpt lat="42.83622" lon="0.20108">
        <ele>1826.16</ele>
        <time>2014-03-21T16:12:12Z</time>
      </trkpt>
      <trkpt lat="42.83619" lon="0.20109">
        <ele>1826.64</ele>
        <time>2014-03-21T16:12:19Z</time>
      </trkpt>
      <trkpt lat="42.83616" lon="0.20112">
        <ele>1825.68</ele>
        <time>2014-03-21T16:12:26Z</time>
      </trkpt>
      <trkpt lat="42.83615" lon="0.20113">
        <ele>1825.2</ele>
        <time>2014-03-21T16:12:31Z</time>
      </trkpt>
      <trkpt lat="42.83612" lon="0.20113">
        <ele>1826.16</ele>
        <time>2014-03-21T16:12:36Z</time>
      </trkpt>
      <trkpt lat="42.83612" lon="0.20112">
        <ele>1826.16</ele>
        <time>2014-03-21T16:12:47Z</time>
      </trkpt>
      <trkpt lat="42.83611" lon="0.20112">
        <ele>1825.68</ele>
        <time>2014-03-21T16:12:52Z</time>
      </trkpt>
      <trkpt lat="42.83611" lon="0.20112">
        <ele>1825.68</ele>
        <time>2014-03-21T16:12:59Z</time>
      </trkpt>
      <trkpt lat="42.8361" lon="0.20113">
        <ele>1825.2</ele>
        <time>2014-03-21T16:13:07Z</time>
      </trkpt>
      <trkpt lat="42.83606" lon="0.20116">
        <ele>1824.72</ele>
        <time>2014-03-21T16:13:15Z</time>
      </trkpt>
      <trkpt lat="42.83605" lon="0.20117">
        <ele>1825.2</ele>
        <time>2014-03-21T16:13:18Z</time>
      </trkpt>
      <trkpt lat="42.83602" lon="0.2012">
        <ele>1824.72</ele>
        <time>2014-03-21T16:13:21Z</time>
      </trkpt>
      <trkpt lat="42.83597" lon="0.20126">
        <ele>1823.28</ele>
        <time>2014-03-21T16:13:28Z</time>
      </trkpt>
      <trkpt lat="42.83596" lon="0.20127">
        <ele>1823.28</ele>
        <time>2014-03-21T16:13:29Z</time>
      </trkpt>
      <trkpt lat="42.83589" lon="0.20136">
        <ele>1823.28</ele>
        <time>2014-03-21T16:13:39Z</time>
      </trkpt>
      <trkpt lat="42.83588" lon="0.2014">
        <ele>1823.28</ele>
        <time>2014-03-21T16:13:48Z</time>
      </trkpt>
      <trkpt lat="42.83588" lon="0.20142">
        <ele>1823.28</ele>
        <time>2014-03-21T16:13:57Z</time>
      </trkpt>
      <trkpt lat="42.83587" lon="0.20142">
        <ele>1823.28</ele>
        <time>2014-03-21T16:14:07Z</time>
      </trkpt>
      <trkpt lat="42.83587" lon="0.20142">
        <ele>1822.8</ele>
        <time>2014-03-21T16:14:11Z</time>
      </trkpt>
      <trkpt lat="42.83587" lon="0.20142">
        <ele>1823.76</ele>
        <time>2014-03-21T16:14:17Z</time>
      </trkpt>
      <trkpt lat="42.83588" lon="0.20142">
        <ele>1824.24</ele>
        <time>2014-03-21T16:14:21Z</time>
      </trkpt>
      <trkpt lat="42.83587" lon="0.20142">
        <ele>1823.76</ele>
        <time>2014-03-21T16:14:29Z</time>
      </trkpt>
      <trkpt lat="42.83584" lon="0.20146">
        <ele>1823.76</ele>
        <time>2014-03-21T16:14:37Z</time>
      </trkpt>
      <trkpt lat="42.83579" lon="0.20151">
        <ele>1822.8</ele>
        <time>2014-03-21T16:14:43Z</time>
      </trkpt>
      <trkpt lat="42.83575" lon="0.20156">
        <ele>1823.28</ele>
        <time>2014-03-21T16:14:50Z</time>
      </trkpt>
      <trkpt lat="42.83572" lon="0.20159">
        <ele>1823.28</ele>
        <time>2014-03-21T16:14:57Z</time>
      </trkpt>
      <trkpt lat="42.83571" lon="0.2016">
        <ele>1823.76</ele>
        <time>2014-03-21T16:14:59Z</time>
      </trkpt>
      <trkpt lat="42.83568" lon="0.20165">
        <ele>1823.28</ele>
        <time>2014-03-21T16:15:06Z</time>
      </trkpt>
      <trkpt lat="42.83568" lon="0.20167">
        <ele>1823.28</ele>
        <time>2014-03-21T16:15:12Z</time>
      </trkpt>
      <trkpt lat="42.83567" lon="0.20167">
        <ele>1822.8</ele>
        <time>2014-03-21T16:15:19Z</time>
      </trkpt>
      <trkpt lat="42.83566" lon="0.20167">
        <ele>1822.8</ele>
        <time>2014-03-21T16:15:28Z</time>
      </trkpt>
      <trkpt lat="42.83565" lon="0.20169">
        <ele>1822.8</ele>
        <time>2014-03-21T16:15:30Z</time>
      </trkpt>
      <trkpt lat="42.83562" lon="0.20172">
        <ele>1822.8</ele>
        <time>2014-03-21T16:15:36Z</time>
      </trkpt>
      <trkpt lat="42.83558" lon="0.20175">
        <ele>1823.76</ele>
        <time>2014-03-21T16:15:44Z</time>
      </trkpt>
      <trkpt lat="42.83556" lon="0.20176">
        <ele>1824.24</ele>
        <time>2014-03-21T16:15:52Z</time>
      </trkpt>
      <trkpt lat="42.83553" lon="0.20178">
        <ele>1822.8</ele>
        <time>2014-03-21T16:15:57Z</time>
      </trkpt>
      <trkpt lat="42.8355" lon="0.20182">
        <ele>1823.76</ele>
        <time>2014-03-21T16:16:04Z</time>
      </trkpt>
      <trkpt lat="42.83548" lon="0.20183">
        <ele>1823.76</ele>
        <time>2014-03-21T16:16:07Z</time>
      </trkpt>
      <trkpt lat="42.83543" lon="0.20187">
        <ele>1823.76</ele>
        <time>2014-03-21T16:16:14Z</time>
      </trkpt>
      <trkpt lat="42.8354" lon="0.2019">
        <ele>1824.72</ele>
        <time>2014-03-21T16:16:21Z</time>
      </trkpt>
      <trkpt lat="42.83536" lon="0.20193">
        <ele>1824.72</ele>
        <time>2014-03-21T16:16:28Z</time>
      </trkpt>
      <trkpt lat="42.83535" lon="0.20194">
        <ele>1823.76</ele>
        <time>2014-03-21T16:16:32Z</time>
      </trkpt>
      <trkpt lat="42.83528" lon="0.20197">
        <ele>1823.28</ele>
        <time>2014-03-21T16:16:40Z</time>
      </trkpt>
      <trkpt lat="42.83525" lon="0.202">
        <ele>1823.28</ele>
        <time>2014-03-21T16:16:44Z</time>
      </trkpt>
      <trkpt lat="42.83523" lon="0.20201">
        <ele>1823.28</ele>
        <time>2014-03-21T16:16:46Z</time>
      </trkpt>
      <trkpt lat="42.83515" lon="0.20203">
        <ele>1824.72</ele>
        <time>2014-03-21T16:16:54Z</time>
      </trkpt>
      <trkpt lat="42.83511" lon="0.20206">
        <ele>1825.68</ele>
        <time>2014-03-21T16:17:02Z</time>
      </trkpt>
      <trkpt lat="42.8351" lon="0.20205">
        <ele>1825.2</ele>
        <time>2014-03-21T16:17:08Z</time>
      </trkpt>
      <trkpt lat="42.8351" lon="0.20205">
        <ele>1825.68</ele>
        <time>2014-03-21T16:17:16Z</time>
      </trkpt>
      <trkpt lat="42.8351" lon="0.20207">
        <ele>1825.68</ele>
        <time>2014-03-21T16:17:25Z</time>
      </trkpt>
      <trkpt lat="42.8351" lon="0.20207">
        <ele>1825.68</ele>
        <time>2014-03-21T16:17:34Z</time>
      </trkpt>
      <trkpt lat="42.83509" lon="0.20208">
        <ele>1825.68</ele>
        <time>2014-03-21T16:17:42Z</time>
      </trkpt>
      <trkpt lat="42.83504" lon="0.20208">
        <ele>1826.16</ele>
        <time>2014-03-21T16:17:48Z</time>
      </trkpt>
      <trkpt lat="42.835" lon="0.2021">
        <ele>1825.68</ele>
        <time>2014-03-21T16:17:53Z</time>
      </trkpt>
      <trkpt lat="42.83494" lon="0.20215">
        <ele>1825.68</ele>
        <time>2014-03-21T16:18:00Z</time>
      </trkpt>
      <trkpt lat="42.83492" lon="0.20217">
        <ele>1825.68</ele>
        <time>2014-03-21T16:18:02Z</time>
      </trkpt>
      <trkpt lat="42.8349" lon="0.20221">
        <ele>1826.16</ele>
        <time>2014-03-21T16:18:06Z</time>
      </trkpt>
      <trkpt lat="42.83483" lon="0.2023">
        <ele>1825.2</ele>
        <time>2014-03-21T16:18:16Z</time>
      </trkpt>
      <trkpt lat="42.83479" lon="0.20235">
        <ele>1825.68</ele>
        <time>2014-03-21T16:18:22Z</time>
      </trkpt>
      <trkpt lat="42.83478" lon="0.20236">
        <ele>1825.68</ele>
        <time>2014-03-21T16:18:24Z</time>
      </trkpt>
      <trkpt lat="42.83472" lon="0.20242">
        <ele>1826.64</ele>
        <time>2014-03-21T16:18:32Z</time>
      </trkpt>
      <trkpt lat="42.83469" lon="0.20245">
        <ele>1826.64</ele>
        <time>2014-03-21T16:18:37Z</time>
      </trkpt>
      <trkpt lat="42.83463" lon="0.20252">
        <ele>1826.16</ele>
        <time>2014-03-21T16:18:43Z</time>
      </trkpt>
      <trkpt lat="42.83458" lon="0.20256">
        <ele>1825.2</ele>
        <time>2014-03-21T16:18:48Z</time>
      </trkpt>
      <trkpt lat="42.83458" lon="0.20261">
        <ele>1824.24</ele>
        <time>2014-03-21T16:18:54Z</time>
      </trkpt>
      <trkpt lat="42.83453" lon="0.20263">
        <ele>1825.68</ele>
        <time>2014-03-21T16:19:01Z</time>
      </trkpt>
      <trkpt lat="42.83448" lon="0.20269">
        <ele>1824.72</ele>
        <time>2014-03-21T16:19:08Z</time>
      </trkpt>
      <trkpt lat="42.83445" lon="0.20271">
        <ele>1824.24</ele>
        <time>2014-03-21T16:19:15Z</time>
      </trkpt>
      <trkpt lat="42.83444" lon="0.2027">
        <ele>1824.24</ele>
        <time>2014-03-21T16:19:22Z</time>
      </trkpt>
      <trkpt lat="42.83444" lon="0.2027">
        <ele>1824.24</ele>
        <time>2014-03-21T16:19:23Z</time>
      </trkpt>
      <trkpt lat="42.83444" lon="0.20271">
        <ele>1824.24</ele>
        <time>2014-03-21T16:19:28Z</time>
      </trkpt>
      <trkpt lat="42.83444" lon="0.20272">
        <ele>1824.24</ele>
        <time>2014-03-21T16:19:34Z</time>
      </trkpt>
      <trkpt lat="42.83443" lon="0.20273">
        <ele>1824.72</ele>
        <time>2014-03-21T16:19:36Z</time>
      </trkpt>
      <trkpt lat="42.83437" lon="0.20275">
        <ele>1825.2</ele>
        <time>2014-03-21T16:19:43Z</time>
      </trkpt>
      <trkpt lat="42.83436" lon="0.20275">
        <ele>1825.68</ele>
        <time>2014-03-21T16:19:50Z</time>
      </trkpt>
      <trkpt lat="42.83436" lon="0.20275">
        <ele>1826.16</ele>
        <time>2014-03-21T16:19:56Z</time>
      </trkpt>
      <trkpt lat="42.83435" lon="0.20275">
        <ele>1827.12</ele>
        <time>2014-03-21T16:20:02Z</time>
      </trkpt>
      <trkpt lat="42.83434" lon="0.20274">
        <ele>1827.12</ele>
        <time>2014-03-21T16:20:11Z</time>
      </trkpt>
      <trkpt lat="42.83432" lon="0.20274">
        <ele>1827.6</ele>
        <time>2014-03-21T16:20:15Z</time>
      </trkpt>
      <trkpt lat="42.83431" lon="0.20274">
        <ele>1827.6</ele>
        <time>2014-03-21T16:20:16Z</time>
      </trkpt>
      <trkpt lat="42.83424" lon="0.20279">
        <ele>1828.08</ele>
        <time>2014-03-21T16:20:25Z</time>
      </trkpt>
      <trkpt lat="42.83415" lon="0.20284">
        <ele>1830.01</ele>
        <time>2014-03-21T16:20:34Z</time>
      </trkpt>
      <trkpt lat="42.83407" lon="0.20291">
        <ele>1828.56</ele>
        <time>2014-03-21T16:20:41Z</time>
      </trkpt>
      <trkpt lat="42.83406" lon="0.20292">
        <ele>1828.56</ele>
        <time>2014-03-21T16:20:43Z</time>
      </trkpt>
      <trkpt lat="42.834" lon="0.20301">
        <ele>1828.08</ele>
        <time>2014-03-21T16:20:51Z</time>
      </trkpt>
      <trkpt lat="42.8339" lon="0.20315">
        <ele>1827.12</ele>
        <time>2014-03-21T16:21:01Z</time>
      </trkpt>
      <trkpt lat="42.83389" lon="0.20316">
        <ele>1827.12</ele>
        <time>2014-03-21T16:21:03Z</time>
      </trkpt>
      <trkpt lat="42.83386" lon="0.20319">
        <ele>1828.08</ele>
        <time>2014-03-21T16:21:09Z</time>
      </trkpt>
      <trkpt lat="42.83385" lon="0.2032">
        <ele>1828.08</ele>
        <time>2014-03-21T16:21:14Z</time>
      </trkpt>
      <trkpt lat="42.83383" lon="0.20323">
        <ele>1829.05</ele>
        <time>2014-03-21T16:21:20Z</time>
      </trkpt>
      <trkpt lat="42.83382" lon="0.20323">
        <ele>1829.53</ele>
        <time>2014-03-21T16:21:27Z</time>
      </trkpt>
      <trkpt lat="42.83379" lon="0.20329">
        <ele>1827.6</ele>
        <time>2014-03-21T16:21:34Z</time>
      </trkpt>
      <trkpt lat="42.83375" lon="0.20332">
        <ele>1827.12</ele>
        <time>2014-03-21T16:21:39Z</time>
      </trkpt>
      <trkpt lat="42.83369" lon="0.20339">
        <ele>1826.64</ele>
        <time>2014-03-21T16:21:47Z</time>
      </trkpt>
      <trkpt lat="42.83366" lon="0.20342">
        <ele>1827.12</ele>
        <time>2014-03-21T16:21:51Z</time>
      </trkpt>
      <trkpt lat="42.8336" lon="0.20346">
        <ele>1827.6</ele>
        <time>2014-03-21T16:21:58Z</time>
      </trkpt>
      <trkpt lat="42.83358" lon="0.20348">
        <ele>1827.6</ele>
        <time>2014-03-21T16:22:00Z</time>
      </trkpt>
      <trkpt lat="42.83355" lon="0.2035">
        <ele>1828.56</ele>
        <time>2014-03-21T16:22:04Z</time>
      </trkpt>
      <trkpt lat="42.83352" lon="0.20354">
        <ele>1829.53</ele>
        <time>2014-03-21T16:22:10Z</time>
      </trkpt>
      <trkpt lat="42.8335" lon="0.20357">
        <ele>1829.05</ele>
        <time>2014-03-21T16:22:15Z</time>
      </trkpt>
      <trkpt lat="42.83346" lon="0.20361">
        <ele>1829.53</ele>
        <time>2014-03-21T16:22:19Z</time>
      </trkpt>
      <trkpt lat="42.83342" lon="0.20365">
        <ele>1829.53</ele>
        <time>2014-03-21T16:22:23Z</time>
      </trkpt>
      <trkpt lat="42.83338" lon="0.2037">
        <ele>1828.56</ele>
        <time>2014-03-21T16:22:30Z</time>
      </trkpt>
      <trkpt lat="42.83338" lon="0.2037">
        <ele>1829.53</ele>
        <time>2014-03-21T16:22:36Z</time>
      </trkpt>
      <trkpt lat="42.83337" lon="0.20372">
        <ele>1830.49</ele>
        <time>2014-03-21T16:22:42Z</time>
      </trkpt>
      <trkpt lat="42.83332" lon="0.20374">
        <ele>1830.97</ele>
        <time>2014-03-21T16:22:48Z</time>
      </trkpt>
      <trkpt lat="42.83328" lon="0.20379">
        <ele>1831.45</ele>
        <time>2014-03-21T16:22:54Z</time>
      </trkpt>
      <trkpt lat="42.83324" lon="0.20385">
        <ele>1830.49</ele>
        <time>2014-03-21T16:23:02Z</time>
      </trkpt>
      <trkpt lat="42.83312" lon="0.20396">
        <ele>1830.49</ele>
        <time>2014-03-21T16:23:12Z</time>
      </trkpt>
      <trkpt lat="42.83304" lon="0.20402">
        <ele>1829.53</ele>
        <time>2014-03-21T16:23:20Z</time>
      </trkpt>
      <trkpt lat="42.83298" lon="0.20408">
        <ele>1828.56</ele>
        <time>2014-03-21T16:23:27Z</time>
      </trkpt>
      <trkpt lat="42.83292" lon="0.20413">
        <ele>1830.01</ele>
        <time>2014-03-21T16:23:34Z</time>
      </trkpt>
      <trkpt lat="42.83291" lon="0.20413">
        <ele>1830.49</ele>
        <time>2014-03-21T16:23:35Z</time>
      </trkpt>
      <trkpt lat="42.83285" lon="0.20418">
        <ele>1830.49</ele>
        <time>2014-03-21T16:23:43Z</time>
      </trkpt>
      <trkpt lat="42.83284" lon="0.20418">
        <ele>1830.97</ele>
        <time>2014-03-21T16:23:44Z</time>
      </trkpt>
      <trkpt lat="42.83272" lon="0.20429">
        <ele>1832.41</ele>
        <time>2014-03-21T16:23:53Z</time>
      </trkpt>
      <trkpt lat="42.83251" lon="0.2044">
        <ele>1832.41</ele>
        <time>2014-03-21T16:24:02Z</time>
      </trkpt>
      <trkpt lat="42.8325" lon="0.20441">
        <ele>1831.93</ele>
        <time>2014-03-21T16:24:07Z</time>
      </trkpt>
      <trkpt lat="42.83252" lon="0.20441">
        <ele>1831.93</ele>
        <time>2014-03-21T16:24:15Z</time>
      </trkpt>
      <trkpt lat="42.83251" lon="0.20441">
        <ele>1830.97</ele>
        <time>2014-03-21T16:24:20Z</time>
      </trkpt>
      <trkpt lat="42.8325" lon="0.20441">
        <ele>1830.97</ele>
        <time>2014-03-21T16:24:21Z</time>
      </trkpt>
      <trkpt lat="42.83248" lon="0.20441">
        <ele>1830.49</ele>
        <time>2014-03-21T16:24:23Z</time>
      </trkpt>
      <trkpt lat="42.83242" lon="0.20445">
        <ele>1828.56</ele>
        <time>2014-03-21T16:24:31Z</time>
      </trkpt>
      <trkpt lat="42.83242" lon="0.20446">
        <ele>1829.53</ele>
        <time>2014-03-21T16:24:39Z</time>
      </trkpt>
      <trkpt lat="42.83242" lon="0.20446">
        <ele>1829.05</ele>
        <time>2014-03-21T16:24:55Z</time>
      </trkpt>
      <trkpt lat="42.83243" lon="0.20447">
        <ele>1828.56</ele>
        <time>2014-03-21T16:25:10Z</time>
      </trkpt>
      <trkpt lat="42.83243" lon="0.20448">
        <ele>1828.08</ele>
        <time>2014-03-21T16:25:27Z</time>
      </trkpt>
      <trkpt lat="42.83243" lon="0.20448">
        <ele>1828.56</ele>
        <time>2014-03-21T16:25:38Z</time>
      </trkpt>
      <trkpt lat="42.83244" lon="0.20448">
        <ele>1829.53</ele>
        <time>2014-03-21T16:25:54Z</time>
      </trkpt>
      <trkpt lat="42.83244" lon="0.20447">
        <ele>1830.97</ele>
        <time>2014-03-21T16:26:08Z</time>
      </trkpt>
      <trkpt lat="42.83244" lon="0.20447">
        <ele>1832.89</ele>
        <time>2014-03-21T16:26:20Z</time>
      </trkpt>
      <trkpt lat="42.83243" lon="0.20445">
        <ele>1832.89</ele>
        <time>2014-03-21T16:26:36Z</time>
      </trkpt>
      <trkpt lat="42.83242" lon="0.20445">
        <ele>1832.41</ele>
        <time>2014-03-21T16:26:51Z</time>
      </trkpt>
      <trkpt lat="42.83241" lon="0.20444">
        <ele>1832.41</ele>
        <time>2014-03-21T16:27:09Z</time>
      </trkpt>
      <trkpt lat="42.83241" lon="0.20444">
        <ele>1833.37</ele>
        <time>2014-03-21T16:27:22Z</time>
      </trkpt>
      <trkpt lat="42.83241" lon="0.20444">
        <ele>1832.89</ele>
        <time>2014-03-21T16:27:39Z</time>
      </trkpt>
      <trkpt lat="42.83242" lon="0.20443">
        <ele>1832.89</ele>
        <time>2014-03-21T16:27:55Z</time>
      </trkpt>
      <trkpt lat="42.83241" lon="0.20444">
        <ele>1832.41</ele>
        <time>2014-03-21T16:27:59Z</time>
      </trkpt>
      <trkpt lat="42.83234" lon="0.20447">
        <ele>1831.45</ele>
        <time>2014-03-21T16:28:06Z</time>
      </trkpt>
      <trkpt lat="42.83228" lon="0.20451">
        <ele>1830.97</ele>
        <time>2014-03-21T16:28:13Z</time>
      </trkpt>
      <trkpt lat="42.83222" lon="0.20456">
        <ele>1831.45</ele>
        <time>2014-03-21T16:28:19Z</time>
      </trkpt>
      <trkpt lat="42.8322" lon="0.20458">
        <ele>1831.93</ele>
        <time>2014-03-21T16:28:25Z</time>
      </trkpt>
      <trkpt lat="42.83213" lon="0.20463">
        <ele>1830.97</ele>
        <time>2014-03-21T16:28:30Z</time>
      </trkpt>
      <trkpt lat="42.83207" lon="0.20469">
        <ele>1828.56</ele>
        <time>2014-03-21T16:28:37Z</time>
      </trkpt>
      <trkpt lat="42.83202" lon="0.20474">
        <ele>1828.08</ele>
        <time>2014-03-21T16:28:42Z</time>
      </trkpt>
      <trkpt lat="42.832" lon="0.20476">
        <ele>1827.6</ele>
        <time>2014-03-21T16:28:44Z</time>
      </trkpt>
      <trkpt lat="42.83195" lon="0.20481">
        <ele>1825.2</ele>
        <time>2014-03-21T16:28:51Z</time>
      </trkpt>
      <trkpt lat="42.83188" lon="0.20484">
        <ele>1824.24</ele>
        <time>2014-03-21T16:29:00Z</time>
      </trkpt>
      <trkpt lat="42.83185" lon="0.20487">
        <ele>1824.72</ele>
        <time>2014-03-21T16:29:09Z</time>
      </trkpt>
      <trkpt lat="42.83184" lon="0.20488">
        <ele>1824.72</ele>
        <time>2014-03-21T16:29:13Z</time>
      </trkpt>
      <trkpt lat="42.83177" lon="0.20491">
        <ele>1825.68</ele>
        <time>2014-03-21T16:29:19Z</time>
      </trkpt>
      <trkpt lat="42.83171" lon="0.20494">
        <ele>1826.16</ele>
        <time>2014-03-21T16:29:26Z</time>
      </trkpt>
      <trkpt lat="42.83164" lon="0.20495">
        <ele>1826.64</ele>
        <time>2014-03-21T16:29:30Z</time>
      </trkpt>
      <trkpt lat="42.83156" lon="0.205">
        <ele>1825.2</ele>
        <time>2014-03-21T16:29:39Z</time>
      </trkpt>
      <trkpt lat="42.83152" lon="0.20501">
        <ele>1824.72</ele>
        <time>2014-03-21T16:29:45Z</time>
      </trkpt>
      <trkpt lat="42.83149" lon="0.20502">
        <ele>1824.72</ele>
        <time>2014-03-21T16:29:53Z</time>
      </trkpt>
      <trkpt lat="42.83147" lon="0.20501">
        <ele>1824.72</ele>
        <time>2014-03-21T16:29:59Z</time>
      </trkpt>
      <trkpt lat="42.83145" lon="0.20502">
        <ele>1824.72</ele>
        <time>2014-03-21T16:30:04Z</time>
      </trkpt>
      <trkpt lat="42.83142" lon="0.20504">
        <ele>1825.2</ele>
        <time>2014-03-21T16:30:11Z</time>
      </trkpt>
      <trkpt lat="42.8314" lon="0.20507">
        <ele>1823.28</ele>
        <time>2014-03-21T16:30:18Z</time>
      </trkpt>
      <trkpt lat="42.83134" lon="0.20508">
        <ele>1822.8</ele>
        <time>2014-03-21T16:30:24Z</time>
      </trkpt>
      <trkpt lat="42.83127" lon="0.20515">
        <ele>1822.8</ele>
        <time>2014-03-21T16:30:32Z</time>
      </trkpt>
      <trkpt lat="42.83125" lon="0.2052">
        <ele>1820.87</ele>
        <time>2014-03-21T16:30:36Z</time>
      </trkpt>
      <trkpt lat="42.83116" lon="0.20525">
        <ele>1819.91</ele>
        <time>2014-03-21T16:30:42Z</time>
      </trkpt>
      <trkpt lat="42.83113" lon="0.20525">
        <ele>1821.35</ele>
        <time>2014-03-21T16:30:46Z</time>
      </trkpt>
      <trkpt lat="42.83111" lon="0.20525">
        <ele>1821.84</ele>
        <time>2014-03-21T16:30:48Z</time>
      </trkpt>
      <trkpt lat="42.83106" lon="0.20526">
        <ele>1823.76</ele>
        <time>2014-03-21T16:30:52Z</time>
      </trkpt>
      <trkpt lat="42.83097" lon="0.20529">
        <ele>1823.28</ele>
        <time>2014-03-21T16:30:57Z</time>
      </trkpt>
      <trkpt lat="42.83091" lon="0.20532">
        <ele>1823.28</ele>
        <time>2014-03-21T16:31:02Z</time>
      </trkpt>
      <trkpt lat="42.83086" lon="0.20536">
        <ele>1824.24</ele>
        <time>2014-03-21T16:31:08Z</time>
      </trkpt>
      <trkpt lat="42.83082" lon="0.20536">
        <ele>1825.2</ele>
        <time>2014-03-21T16:31:14Z</time>
      </trkpt>
      <trkpt lat="42.83079" lon="0.20536">
        <ele>1826.64</ele>
        <time>2014-03-21T16:31:18Z</time>
      </trkpt>
      <trkpt lat="42.83073" lon="0.20537">
        <ele>1826.64</ele>
        <time>2014-03-21T16:31:24Z</time>
      </trkpt>
      <trkpt lat="42.83067" lon="0.20538">
        <ele>1825.68</ele>
        <time>2014-03-21T16:31:27Z</time>
      </trkpt>
      <trkpt lat="42.8306" lon="0.20542">
        <ele>1824.72</ele>
        <time>2014-03-21T16:31:34Z</time>
      </trkpt>
      <trkpt lat="42.83059" lon="0.20543">
        <ele>1825.68</ele>
        <time>2014-03-21T16:31:35Z</time>
      </trkpt>
      <trkpt lat="42.8305" lon="0.20543">
        <ele>1828.08</ele>
        <time>2014-03-21T16:31:42Z</time>
      </trkpt>
      <trkpt lat="42.83048" lon="0.20543">
        <ele>1828.56</ele>
        <time>2014-03-21T16:31:43Z</time>
      </trkpt>
      <trkpt lat="42.83041" lon="0.20546">
        <ele>1829.53</ele>
        <time>2014-03-21T16:31:49Z</time>
      </trkpt>
      <trkpt lat="42.83035" lon="0.20547">
        <ele>1831.45</ele>
        <time>2014-03-21T16:31:57Z</time>
      </trkpt>
      <trkpt lat="42.83034" lon="0.20547">
        <ele>1831.93</ele>
        <time>2014-03-21T16:31:59Z</time>
      </trkpt>
      <trkpt lat="42.8303" lon="0.20547">
        <ele>1831.45</ele>
        <time>2014-03-21T16:32:03Z</time>
      </trkpt>
      <trkpt lat="42.83025" lon="0.2055">
        <ele>1830.49</ele>
        <time>2014-03-21T16:32:11Z</time>
      </trkpt>
      <trkpt lat="42.8302" lon="0.20552">
        <ele>1830.97</ele>
        <time>2014-03-21T16:32:17Z</time>
      </trkpt>
      <trkpt lat="42.83012" lon="0.20557">
        <ele>1826.64</ele>
        <time>2014-03-21T16:32:26Z</time>
      </trkpt>
      <trkpt lat="42.83008" lon="0.20559">
        <ele>1824.72</ele>
        <time>2014-03-21T16:32:32Z</time>
      </trkpt>
      <trkpt lat="42.83004" lon="0.2056">
        <ele>1823.28</ele>
        <time>2014-03-21T16:32:37Z</time>
      </trkpt>
      <trkpt lat="42.82995" lon="0.20563">
        <ele>1820.87</ele>
        <time>2014-03-21T16:32:44Z</time>
      </trkpt>
      <trkpt lat="42.82988" lon="0.20566">
        <ele>1819.91</ele>
        <time>2014-03-21T16:32:52Z</time>
      </trkpt>
      <trkpt lat="42.82984" lon="0.20566">
        <ele>1820.39</ele>
        <time>2014-03-21T16:32:55Z</time>
      </trkpt>
      <trkpt lat="42.82976" lon="0.20568">
        <ele>1821.35</ele>
        <time>2014-03-21T16:33:00Z</time>
      </trkpt>
      <trkpt lat="42.82972" lon="0.2057">
        <ele>1821.35</ele>
        <time>2014-03-21T16:33:07Z</time>
      </trkpt>
      <trkpt lat="42.82967" lon="0.20573">
        <ele>1820.87</ele>
        <time>2014-03-21T16:33:14Z</time>
      </trkpt>
      <trkpt lat="42.8296" lon="0.20577">
        <ele>1819.43</ele>
        <time>2014-03-21T16:33:21Z</time>
      </trkpt>
      <trkpt lat="42.82954" lon="0.20576">
        <ele>1819.43</ele>
        <time>2014-03-21T16:33:27Z</time>
      </trkpt>
      <trkpt lat="42.82947" lon="0.20574">
        <ele>1822.8</ele>
        <time>2014-03-21T16:33:35Z</time>
      </trkpt>
      <trkpt lat="42.82944" lon="0.20573">
        <ele>1823.28</ele>
        <time>2014-03-21T16:33:38Z</time>
      </trkpt>
      <trkpt lat="42.82933" lon="0.20574">
        <ele>1825.2</ele>
        <time>2014-03-21T16:33:47Z</time>
      </trkpt>
      <trkpt lat="42.82928" lon="0.20574">
        <ele>1824.72</ele>
        <time>2014-03-21T16:33:52Z</time>
      </trkpt>
      <trkpt lat="42.82927" lon="0.20574">
        <ele>1826.16</ele>
        <time>2014-03-21T16:34:00Z</time>
      </trkpt>
      <trkpt lat="42.82924" lon="0.20576">
        <ele>1824.72</ele>
        <time>2014-03-21T16:34:06Z</time>
      </trkpt>
      <trkpt lat="42.82914" lon="0.20577">
        <ele>1823.76</ele>
        <time>2014-03-21T16:34:13Z</time>
      </trkpt>
      <trkpt lat="42.82909" lon="0.2058">
        <ele>1823.76</ele>
        <time>2014-03-21T16:34:19Z</time>
      </trkpt>
      <trkpt lat="42.82905" lon="0.20582">
        <ele>1823.28</ele>
        <time>2014-03-21T16:34:26Z</time>
      </trkpt>
      <trkpt lat="42.82904" lon="0.20582">
        <ele>1823.28</ele>
        <time>2014-03-21T16:34:35Z</time>
      </trkpt>
      <trkpt lat="42.82904" lon="0.20583">
        <ele>1823.28</ele>
        <time>2014-03-21T16:34:42Z</time>
      </trkpt>
      <trkpt lat="42.82904" lon="0.20583">
        <ele>1823.28</ele>
        <time>2014-03-21T16:34:43Z</time>
      </trkpt>
      <trkpt lat="42.82904" lon="0.20583">
        <ele>1823.28</ele>
        <time>2014-03-21T16:34:49Z</time>
      </trkpt>
      <trkpt lat="42.82902" lon="0.20583">
        <ele>1823.28</ele>
        <time>2014-03-21T16:34:57Z</time>
      </trkpt>
      <trkpt lat="42.82901" lon="0.20587">
        <ele>1821.84</ele>
        <time>2014-03-21T16:35:03Z</time>
      </trkpt>
      <trkpt lat="42.829" lon="0.20587">
        <ele>1822.32</ele>
        <time>2014-03-21T16:35:04Z</time>
      </trkpt>
      <trkpt lat="42.82893" lon="0.20587">
        <ele>1823.28</ele>
        <time>2014-03-21T16:35:09Z</time>
      </trkpt>
      <trkpt lat="42.82889" lon="0.20584">
        <ele>1824.24</ele>
        <time>2014-03-21T16:35:14Z</time>
      </trkpt>
      <trkpt lat="42.82885" lon="0.20582">
        <ele>1825.2</ele>
        <time>2014-03-21T16:35:20Z</time>
      </trkpt>
      <trkpt lat="42.8288" lon="0.20581">
        <ele>1827.12</ele>
        <time>2014-03-21T16:35:26Z</time>
      </trkpt>
      <trkpt lat="42.82879" lon="0.20581">
        <ele>1829.05</ele>
        <time>2014-03-21T16:35:35Z</time>
      </trkpt>
      <trkpt lat="42.82878" lon="0.2058">
        <ele>1830.01</ele>
        <time>2014-03-21T16:35:40Z</time>
      </trkpt>
      <trkpt lat="42.82878" lon="0.20577">
        <ele>1829.53</ele>
        <time>2014-03-21T16:35:47Z</time>
      </trkpt>
      <trkpt lat="42.82878" lon="0.20577">
        <ele>1830.01</ele>
        <time>2014-03-21T16:35:59Z</time>
      </trkpt>
      <trkpt lat="42.8287" lon="0.20573">
        <ele>1830.49</ele>
        <time>2014-03-21T16:36:06Z</time>
      </trkpt>
      <trkpt lat="42.82862" lon="0.20571">
        <ele>1830.01</ele>
        <time>2014-03-21T16:36:11Z</time>
      </trkpt>
      <trkpt lat="42.82854" lon="0.20568">
        <ele>1830.01</ele>
        <time>2014-03-21T16:36:17Z</time>
      </trkpt>
      <trkpt lat="42.82849" lon="0.20567">
        <ele>1830.49</ele>
        <time>2014-03-21T16:36:21Z</time>
      </trkpt>
      <trkpt lat="42.82843" lon="0.20566">
        <ele>1830.49</ele>
        <time>2014-03-21T16:36:28Z</time>
      </trkpt>
      <trkpt lat="42.82838" lon="0.20565">
        <ele>1830.49</ele>
        <time>2014-03-21T16:36:34Z</time>
      </trkpt>
      <trkpt lat="42.82831" lon="0.20565">
        <ele>1829.53</ele>
        <time>2014-03-21T16:36:39Z</time>
      </trkpt>
      <trkpt lat="42.82825" lon="0.20565">
        <ele>1827.6</ele>
        <time>2014-03-21T16:36:46Z</time>
      </trkpt>
      <trkpt lat="42.82823" lon="0.20565">
        <ele>1828.08</ele>
        <time>2014-03-21T16:36:52Z</time>
      </trkpt>
      <trkpt lat="42.82823" lon="0.20564">
        <ele>1829.53</ele>
        <time>2014-03-21T16:37:02Z</time>
      </trkpt>
      <trkpt lat="42.82822" lon="0.20564">
        <ele>1830.01</ele>
        <time>2014-03-21T16:37:09Z</time>
      </trkpt>
      <trkpt lat="42.8282" lon="0.20561">
        <ele>1830.49</ele>
        <time>2014-03-21T16:37:17Z</time>
      </trkpt>
      <trkpt lat="42.82818" lon="0.2056">
        <ele>1832.41</ele>
        <time>2014-03-21T16:37:23Z</time>
      </trkpt>
      <trkpt lat="42.82816" lon="0.2056">
        <ele>1833.85</ele>
        <time>2014-03-21T16:37:28Z</time>
      </trkpt>
      <trkpt lat="42.82813" lon="0.20561">
        <ele>1834.81</ele>
        <time>2014-03-21T16:37:34Z</time>
      </trkpt>
      <trkpt lat="42.8281" lon="0.20563">
        <ele>1835.29</ele>
        <time>2014-03-21T16:37:40Z</time>
      </trkpt>
      <trkpt lat="42.82806" lon="0.20564">
        <ele>1835.29</ele>
        <time>2014-03-21T16:37:46Z</time>
      </trkpt>
      <trkpt lat="42.82806" lon="0.20564">
        <ele>1835.77</ele>
        <time>2014-03-21T16:37:49Z</time>
      </trkpt>
      <trkpt lat="42.82798" lon="0.20563">
        <ele>1835.29</ele>
        <time>2014-03-21T16:37:54Z</time>
      </trkpt>
      <trkpt lat="42.82789" lon="0.2056">
        <ele>1834.81</ele>
        <time>2014-03-21T16:37:58Z</time>
      </trkpt>
      <trkpt lat="42.82778" lon="0.20555">
        <ele>1833.85</ele>
        <time>2014-03-21T16:38:02Z</time>
      </trkpt>
      <trkpt lat="42.82768" lon="0.20553">
        <ele>1833.37</ele>
        <time>2014-03-21T16:38:06Z</time>
      </trkpt>
      <trkpt lat="42.82764" lon="0.20552">
        <ele>1832.89</ele>
        <time>2014-03-21T16:38:08Z</time>
      </trkpt>
      <trkpt lat="42.82759" lon="0.20552">
        <ele>1832.89</ele>
        <time>2014-03-21T16:38:10Z</time>
      </trkpt>
      <trkpt lat="42.82747" lon="0.20555">
        <ele>1832.41</ele>
        <time>2014-03-21T16:38:16Z</time>
      </trkpt>
      <trkpt lat="42.82738" lon="0.20558">
        <ele>1831.93</ele>
        <time>2014-03-21T16:38:21Z</time>
      </trkpt>
      <trkpt lat="42.82731" lon="0.2056">
        <ele>1830.97</ele>
        <time>2014-03-21T16:38:25Z</time>
      </trkpt>
      <trkpt lat="42.8273" lon="0.2056">
        <ele>1830.49</ele>
        <time>2014-03-21T16:38:26Z</time>
      </trkpt>
      <trkpt lat="42.82726" lon="0.20562">
        <ele>1830.97</ele>
        <time>2014-03-21T16:38:28Z</time>
      </trkpt>
      <trkpt lat="42.8272" lon="0.20566">
        <ele>1830.49</ele>
        <time>2014-03-21T16:38:32Z</time>
      </trkpt>
      <trkpt lat="42.82715" lon="0.20569">
        <ele>1830.49</ele>
        <time>2014-03-21T16:38:35Z</time>
      </trkpt>
      <trkpt lat="42.82708" lon="0.20575">
        <ele>1829.05</ele>
        <time>2014-03-21T16:38:41Z</time>
      </trkpt>
      <trkpt lat="42.82707" lon="0.20576">
        <ele>1829.53</ele>
        <time>2014-03-21T16:38:42Z</time>
      </trkpt>
      <trkpt lat="42.82697" lon="0.20583">
        <ele>1828.08</ele>
        <time>2014-03-21T16:38:48Z</time>
      </trkpt>
      <trkpt lat="42.82691" lon="0.20586">
        <ele>1829.05</ele>
        <time>2014-03-21T16:38:52Z</time>
      </trkpt>
      <trkpt lat="42.82687" lon="0.20588">
        <ele>1829.53</ele>
        <time>2014-03-21T16:38:54Z</time>
      </trkpt>
      <trkpt lat="42.8268" lon="0.20593">
        <ele>1830.01</ele>
        <time>2014-03-21T16:39:00Z</time>
      </trkpt>
      <trkpt lat="42.82679" lon="0.20595">
        <ele>1829.53</ele>
        <time>2014-03-21T16:39:05Z</time>
      </trkpt>
      <trkpt lat="42.82679" lon="0.20594">
        <ele>1832.41</ele>
        <time>2014-03-21T16:39:14Z</time>
      </trkpt>
      <trkpt lat="42.82679" lon="0.20593">
        <ele>1832.89</ele>
        <time>2014-03-21T16:39:16Z</time>
      </trkpt>
      <trkpt lat="42.82673" lon="0.20598">
        <ele>1832.41</ele>
        <time>2014-03-21T16:39:22Z</time>
      </trkpt>
      <trkpt lat="42.82665" lon="0.20603">
        <ele>1831.45</ele>
        <time>2014-03-21T16:39:31Z</time>
      </trkpt>
      <trkpt lat="42.8266" lon="0.20606">
        <ele>1830.97</ele>
        <time>2014-03-21T16:39:37Z</time>
      </trkpt>
      <trkpt lat="42.82653" lon="0.20612">
        <ele>1833.37</ele>
        <time>2014-03-21T16:39:44Z</time>
      </trkpt>
      <trkpt lat="42.8265" lon="0.20615">
        <ele>1833.37</ele>
        <time>2014-03-21T16:39:47Z</time>
      </trkpt>
      <trkpt lat="42.82645" lon="0.20619">
        <ele>1834.33</ele>
        <time>2014-03-21T16:39:52Z</time>
      </trkpt>
      <trkpt lat="42.82639" lon="0.20626">
        <ele>1837.7</ele>
        <time>2014-03-21T16:39:59Z</time>
      </trkpt>
      <trkpt lat="42.82636" lon="0.20628">
        <ele>1839.14</ele>
        <time>2014-03-21T16:40:04Z</time>
      </trkpt>
      <trkpt lat="42.82634" lon="0.20629">
        <ele>1839.14</ele>
        <time>2014-03-21T16:40:06Z</time>
      </trkpt>
      <trkpt lat="42.82626" lon="0.20635">
        <ele>1840.58</ele>
        <time>2014-03-21T16:40:16Z</time>
      </trkpt>
      <trkpt lat="42.82623" lon="0.20637">
        <ele>1840.58</ele>
        <time>2014-03-21T16:40:20Z</time>
      </trkpt>
      <trkpt lat="42.82617" lon="0.20641">
        <ele>1842.5</ele>
        <time>2014-03-21T16:40:27Z</time>
      </trkpt>
      <trkpt lat="42.8261" lon="0.20643">
        <ele>1842.98</ele>
        <time>2014-03-21T16:40:35Z</time>
      </trkpt>
      <trkpt lat="42.82604" lon="0.20648">
        <ele>1843.95</ele>
        <time>2014-03-21T16:40:44Z</time>
      </trkpt>
      <trkpt lat="42.826" lon="0.2065">
        <ele>1843.95</ele>
        <time>2014-03-21T16:40:47Z</time>
      </trkpt>
      <trkpt lat="42.82593" lon="0.20659">
        <ele>1845.39</ele>
        <time>2014-03-21T16:40:57Z</time>
      </trkpt>
      <trkpt lat="42.82588" lon="0.20663">
        <ele>1846.35</ele>
        <time>2014-03-21T16:41:03Z</time>
      </trkpt>
      <trkpt lat="42.82579" lon="0.20673">
        <ele>1845.87</ele>
        <time>2014-03-21T16:41:09Z</time>
      </trkpt>
      <trkpt lat="42.8257" lon="0.2068">
        <ele>1845.39</ele>
        <time>2014-03-21T16:41:17Z</time>
      </trkpt>
      <trkpt lat="42.82567" lon="0.20682">
        <ele>1845.87</ele>
        <time>2014-03-21T16:41:20Z</time>
      </trkpt>
      <trkpt lat="42.8256" lon="0.2069">
        <ele>1844.91</ele>
        <time>2014-03-21T16:41:28Z</time>
      </trkpt>
      <trkpt lat="42.82551" lon="0.20697">
        <ele>1842.5</ele>
        <time>2014-03-21T16:41:36Z</time>
      </trkpt>
      <trkpt lat="42.82546" lon="0.20703">
        <ele>1842.02</ele>
        <time>2014-03-21T16:41:39Z</time>
      </trkpt>
      <trkpt lat="42.8254" lon="0.20709">
        <ele>1841.54</ele>
        <time>2014-03-21T16:41:46Z</time>
      </trkpt>
      <trkpt lat="42.82535" lon="0.20715">
        <ele>1841.54</ele>
        <time>2014-03-21T16:41:56Z</time>
      </trkpt>
      <trkpt lat="42.82526" lon="0.20724">
        <ele>1841.06</ele>
        <time>2014-03-21T16:42:04Z</time>
      </trkpt>
      <trkpt lat="42.8251" lon="0.20737">
        <ele>1838.66</ele>
        <time>2014-03-21T16:42:13Z</time>
      </trkpt>
      <trkpt lat="42.82504" lon="0.2074">
        <ele>1837.7</ele>
        <time>2014-03-21T16:42:15Z</time>
      </trkpt>
      <trkpt lat="42.82488" lon="0.20746">
        <ele>1836.26</ele>
        <time>2014-03-21T16:42:20Z</time>
      </trkpt>
      <trkpt lat="42.82474" lon="0.20751">
        <ele>1835.29</ele>
        <time>2014-03-21T16:42:24Z</time>
      </trkpt>
      <trkpt lat="42.82473" lon="0.20743">
        <ele>1833.85</ele>
        <time>2014-03-21T16:42:27Z</time>
      </trkpt>
      <trkpt lat="42.8247" lon="0.20719">
        <ele>1833.37</ele>
        <time>2014-03-21T16:42:31Z</time>
      </trkpt>
      <trkpt lat="42.82468" lon="0.20713">
        <ele>1833.37</ele>
        <time>2014-03-21T16:42:32Z</time>
      </trkpt>
      <trkpt lat="42.82471" lon="0.20715">
        <ele>1834.33</ele>
        <time>2014-03-21T16:42:36Z</time>
      </trkpt>
      <trkpt lat="42.82474" lon="0.20721">
        <ele>1832.41</ele>
        <time>2014-03-21T16:42:48Z</time>
      </trkpt>
      <trkpt lat="42.82474" lon="0.20721">
        <ele>1832.89</ele>
        <time>2014-03-21T16:42:55Z</time>
      </trkpt>
      <trkpt lat="42.82475" lon="0.20722">
        <ele>1831.93</ele>
        <time>2014-03-21T16:43:01Z</time>
      </trkpt>
      <trkpt lat="42.82474" lon="0.20721">
        <ele>1831.93</ele>
        <time>2014-03-21T16:43:07Z</time>
      </trkpt>
      <trkpt lat="42.82474" lon="0.20721">
        <ele>1830.49</ele>
        <time>2014-03-21T16:43:16Z</time>
      </trkpt>
      <trkpt lat="42.82473" lon="0.20721">
        <ele>1831.45</ele>
        <time>2014-03-21T16:43:26Z</time>
      </trkpt>
      <trkpt lat="42.82474" lon="0.20721">
        <ele>1831.45</ele>
        <time>2014-03-21T16:43:34Z</time>
      </trkpt>
      <trkpt lat="42.82474" lon="0.20721">
        <ele>1830.49</ele>
        <time>2014-03-21T16:43:45Z</time>
      </trkpt>
      <trkpt lat="42.82474" lon="0.20722">
        <ele>1830.49</ele>
        <time>2014-03-21T16:43:58Z</time>
      </trkpt>
      <trkpt lat="42.82474" lon="0.20722">
        <ele>1829.53</ele>
        <time>2014-03-21T16:44:08Z</time>
      </trkpt>
      <trkpt lat="42.82474" lon="0.20722">
        <ele>1830.01</ele>
        <time>2014-03-21T16:44:16Z</time>
      </trkpt>
      <trkpt lat="42.82474" lon="0.20723">
        <ele>1829.05</ele>
        <time>2014-03-21T16:44:23Z</time>
      </trkpt>
      <trkpt lat="42.82471" lon="0.20725">
        <ele>1828.56</ele>
        <time>2014-03-21T16:44:30Z</time>
      </trkpt>
      <trkpt lat="42.8247" lon="0.20726">
        <ele>1828.08</ele>
        <time>2014-03-21T16:44:32Z</time>
      </trkpt>
      <trkpt lat="42.82466" lon="0.20726">
        <ele>1826.64</ele>
        <time>2014-03-21T16:44:39Z</time>
      </trkpt>
      <trkpt lat="42.82465" lon="0.20726">
        <ele>1826.16</ele>
        <time>2014-03-21T16:44:40Z</time>
      </trkpt>
      <trkpt lat="42.8246" lon="0.20721">
        <ele>1825.68</ele>
        <time>2014-03-21T16:44:48Z</time>
      </trkpt>
      <trkpt lat="42.82458" lon="0.20723">
        <ele>1824.72</ele>
        <time>2014-03-21T16:44:55Z</time>
      </trkpt>
      <trkpt lat="42.82454" lon="0.20727">
        <ele>1824.24</ele>
        <time>2014-03-21T16:45:01Z</time>
      </trkpt>
      <trkpt lat="42.82451" lon="0.20728">
        <ele>1823.28</ele>
        <time>2014-03-21T16:45:07Z</time>
      </trkpt>
      <trkpt lat="42.82452" lon="0.20728">
        <ele>1822.8</ele>
        <time>2014-03-21T16:45:18Z</time>
      </trkpt>
      <trkpt lat="42.82453" lon="0.20726">
        <ele>1822.32</ele>
        <time>2014-03-21T16:45:25Z</time>
      </trkpt>
      <trkpt lat="42.82453" lon="0.20727">
        <ele>1822.32</ele>
        <time>2014-03-21T16:45:36Z</time>
      </trkpt>
      <trkpt lat="42.82453" lon="0.20727">
        <ele>1822.32</ele>
        <time>2014-03-21T16:45:50Z</time>
      </trkpt>
      <trkpt lat="42.82453" lon="0.20727">
        <ele>1822.32</ele>
        <time>2014-03-21T16:46:01Z</time>
      </trkpt>
      <trkpt lat="42.82452" lon="0.20733">
        <ele>1822.32</ele>
        <time>2014-03-21T16:46:14Z</time>
      </trkpt>
      <trkpt lat="42.82452" lon="0.20733">
        <ele>1822.32</ele>
        <time>2014-03-21T16:46:29Z</time>
      </trkpt>
      <trkpt lat="42.82453" lon="0.20731">
        <ele>1822.32</ele>
        <time>2014-03-21T16:46:48Z</time>
      </trkpt>
      <trkpt lat="42.82453" lon="0.2073">
        <ele>1822.32</ele>
        <time>2014-03-21T16:47:03Z</time>
      </trkpt>
      <trkpt lat="42.82454" lon="0.20728">
        <ele>1822.32</ele>
        <time>2014-03-21T16:47:19Z</time>
      </trkpt>
      <trkpt lat="42.82454" lon="0.20726">
        <ele>1822.32</ele>
        <time>2014-03-21T16:47:32Z</time>
      </trkpt>
      <trkpt lat="42.82454" lon="0.20725">
        <ele>1822.32</ele>
        <time>2014-03-21T16:47:47Z</time>
      </trkpt>
      <trkpt lat="42.82455" lon="0.20722">
        <ele>1822.32</ele>
        <time>2014-03-21T16:48:01Z</time>
      </trkpt>
      <trkpt lat="42.82457" lon="0.20717">
        <ele>1822.8</ele>
        <time>2014-03-21T16:48:15Z</time>
      </trkpt>
      <trkpt lat="42.82458" lon="0.20708">
        <ele>1823.76</ele>
        <time>2014-03-21T16:48:30Z</time>
      </trkpt>
      <trkpt lat="42.82456" lon="0.2071">
        <ele>1823.28</ele>
        <time>2014-03-21T16:48:44Z</time>
      </trkpt>
      <trkpt lat="42.82455" lon="0.20713">
        <ele>1823.28</ele>
        <time>2014-03-21T16:48:55Z</time>
      </trkpt>
      <trkpt lat="42.82457" lon="0.20714">
        <ele>1823.28</ele>
        <time>2014-03-21T16:48:59Z</time>
      </trkpt>
      <trkpt lat="42.82463" lon="0.20703">
        <ele>1823.28</ele>
        <time>2014-03-21T16:49:13Z</time>
      </trkpt>
      <trkpt lat="42.82464" lon="0.20703">
        <ele>1823.28</ele>
        <time>2014-03-21T16:49:28Z</time>
      </trkpt>
      <trkpt lat="42.82464" lon="0.20706">
        <ele>1823.28</ele>
        <time>2014-03-21T16:49:39Z</time>
      </trkpt>
      <trkpt lat="42.82465" lon="0.20706">
        <ele>1823.28</ele>
        <time>2014-03-21T16:49:52Z</time>
      </trkpt>
      <trkpt lat="42.82462" lon="0.20707">
        <ele>1823.28</ele>
        <time>2014-03-21T16:50:04Z</time>
      </trkpt>
      <trkpt lat="42.82461" lon="0.20707">
        <ele>1824.24</ele>
        <time>2014-03-21T16:50:20Z</time>
      </trkpt>
      <trkpt lat="42.82457" lon="0.20704">
        <ele>1824.24</ele>
        <time>2014-03-21T16:50:33Z</time>
      </trkpt>
      <trkpt lat="42.82467" lon="0.20697">
        <ele>1824.24</ele>
        <time>2014-03-21T16:50:45Z</time>
      </trkpt>
    </trkseg>
  </trk>
</gpx>